<?xml version="1.0" encoding="utf-8"?>
<gpx xmlns:xsi="http://www.w3.org/2001/XMLSchema-instance" xmlns:xsd="http://www.w3.org/2001/XMLSchema" version="1.1" creator="Shapelink.com" xmlns="http://www.topografix.com/GPX/1/1" xmlns:gpxtpx="http://www.garmin.com/xmlschemas/TrackPointExtension/v1">
  <metadata>
    <name>Løping 10.00 km, 2014-05-12</name>
    <desc></desc>
    <author><name>Mikael Blom</name></author> 
    <time>2014-05-12T18:34:57Z</time>
  </metadata>
  <trk>
    <name>Løping 10.00 km, 2014-05-12</name>
    <trkseg>
      <trkpt lat="59.845596" lon="17.6490739">
        <ele>10.7118</ele>
        <time>2014-05-12T18:34:57Z</time>
      </trkpt>
      <trkpt lat="59.8455885" lon="17.6490988">
        <ele>11.1925</ele>
        <time>2014-05-12T18:34:58Z</time>
      </trkpt>
      <trkpt lat="59.8455677" lon="17.6491276">
        <ele>11.1925</ele>
        <time>2014-05-12T18:34:59Z</time>
      </trkpt>
      <trkpt lat="59.8455429" lon="17.6491594">
        <ele>11.1925</ele>
        <time>2014-05-12T18:35:00Z</time>
      </trkpt>
      <trkpt lat="59.8455214" lon="17.649177">
        <ele>10.7118</ele>
        <time>2014-05-12T18:35:01Z</time>
      </trkpt>
      <trkpt lat="59.8455015" lon="17.6491905">
        <ele>10.7118</ele>
        <time>2014-05-12T18:35:02Z</time>
      </trkpt>
      <trkpt lat="59.845476" lon="17.649209">
        <ele>10.2312</ele>
        <time>2014-05-12T18:35:03Z</time>
      </trkpt>
      <trkpt lat="59.8454505" lon="17.6492362">
        <ele>9.75061</ele>
        <time>2014-05-12T18:35:04Z</time>
      </trkpt>
      <trkpt lat="59.8454247" lon="17.6492687">
        <ele>9.2699</ele>
        <time>2014-05-12T18:35:05Z</time>
      </trkpt>
      <trkpt lat="59.8453926" lon="17.6493076">
        <ele>8.78918</ele>
        <time>2014-05-12T18:35:06Z</time>
      </trkpt>
      <trkpt lat="59.8453662" lon="17.6493459">
        <ele>9.75061</ele>
        <time>2014-05-12T18:35:07Z</time>
      </trkpt>
      <trkpt lat="59.845345" lon="17.6493739">
        <ele>10.2312</ele>
        <time>2014-05-12T18:35:08Z</time>
      </trkpt>
      <trkpt lat="59.8453263" lon="17.6493983">
        <ele>10.7118</ele>
        <time>2014-05-12T18:35:09Z</time>
      </trkpt>
      <trkpt lat="59.8453065" lon="17.6494153">
        <ele>10.2312</ele>
        <time>2014-05-12T18:35:10Z</time>
      </trkpt>
      <trkpt lat="59.8452807" lon="17.6494359">
        <ele>10.2312</ele>
        <time>2014-05-12T18:35:11Z</time>
      </trkpt>
      <trkpt lat="59.8452558" lon="17.6494626">
        <ele>10.7118</ele>
        <time>2014-05-12T18:35:12Z</time>
      </trkpt>
      <trkpt lat="59.8452263" lon="17.6494934">
        <ele>11.1925</ele>
        <time>2014-05-12T18:35:13Z</time>
      </trkpt>
      <trkpt lat="59.8451942" lon="17.6495234">
        <ele>10.7118</ele>
        <time>2014-05-12T18:35:14Z</time>
      </trkpt>
      <trkpt lat="59.8451671" lon="17.6495547">
        <ele>10.2312</ele>
        <time>2014-05-12T18:35:15Z</time>
      </trkpt>
      <trkpt lat="59.8451435" lon="17.6495832">
        <ele>10.2312</ele>
        <time>2014-05-12T18:35:16Z</time>
      </trkpt>
      <trkpt lat="59.845118" lon="17.6495999">
        <ele>9.75061</ele>
        <time>2014-05-12T18:35:17Z</time>
      </trkpt>
      <trkpt lat="59.8450925" lon="17.6496276">
        <ele>9.75061</ele>
        <time>2014-05-12T18:35:18Z</time>
      </trkpt>
      <trkpt lat="59.8450682" lon="17.6496438">
        <ele>9.75061</ele>
        <time>2014-05-12T18:35:19Z</time>
      </trkpt>
      <trkpt lat="59.845044" lon="17.6496635">
        <ele>9.75061</ele>
        <time>2014-05-12T18:35:20Z</time>
      </trkpt>
      <trkpt lat="59.8450253" lon="17.6496853">
        <ele>10.2312</ele>
        <time>2014-05-12T18:35:21Z</time>
      </trkpt>
      <trkpt lat="59.8450068" lon="17.6497112">
        <ele>10.7118</ele>
        <time>2014-05-12T18:35:22Z</time>
      </trkpt>
      <trkpt lat="59.8449782" lon="17.6497434">
        <ele>10.7118</ele>
        <time>2014-05-12T18:35:23Z</time>
      </trkpt>
      <trkpt lat="59.8449475" lon="17.6497723">
        <ele>10.2312</ele>
        <time>2014-05-12T18:35:24Z</time>
      </trkpt>
      <trkpt lat="59.8449192" lon="17.6498044">
        <ele>9.75061</ele>
        <time>2014-05-12T18:35:25Z</time>
      </trkpt>
      <trkpt lat="59.8448975" lon="17.6498418">
        <ele>10.2312</ele>
        <time>2014-05-12T18:35:26Z</time>
      </trkpt>
      <trkpt lat="59.8448842" lon="17.6498753">
        <ele>11.1925</ele>
        <time>2014-05-12T18:35:27Z</time>
      </trkpt>
      <trkpt lat="59.8448628" lon="17.6498986">
        <ele>10.7118</ele>
        <time>2014-05-12T18:35:28Z</time>
      </trkpt>
      <trkpt lat="59.8448341" lon="17.6499304">
        <ele>10.7118</ele>
        <time>2014-05-12T18:35:29Z</time>
      </trkpt>
      <trkpt lat="59.8448123" lon="17.649966">
        <ele>11.1925</ele>
        <time>2014-05-12T18:35:30Z</time>
      </trkpt>
      <trkpt lat="59.8447944" lon="17.6499909">
        <ele>11.6732</ele>
        <time>2014-05-12T18:35:31Z</time>
      </trkpt>
      <trkpt lat="59.8447739" lon="17.6500145">
        <ele>11.6732</ele>
        <time>2014-05-12T18:35:32Z</time>
      </trkpt>
      <trkpt lat="59.8447493" lon="17.6500359">
        <ele>11.6732</ele>
        <time>2014-05-12T18:35:33Z</time>
      </trkpt>
      <trkpt lat="59.8447242" lon="17.6500586">
        <ele>11.6732</ele>
        <time>2014-05-12T18:35:34Z</time>
      </trkpt>
      <trkpt lat="59.8446979" lon="17.6500834">
        <ele>11.6732</ele>
        <time>2014-05-12T18:35:35Z</time>
      </trkpt>
      <trkpt lat="59.84467" lon="17.650109">
        <ele>11.6732</ele>
        <time>2014-05-12T18:35:36Z</time>
      </trkpt>
      <trkpt lat="59.8446466" lon="17.6501307">
        <ele>11.1925</ele>
        <time>2014-05-12T18:35:37Z</time>
      </trkpt>
      <trkpt lat="59.8446278" lon="17.6501486">
        <ele>10.7118</ele>
        <time>2014-05-12T18:35:38Z</time>
      </trkpt>
      <trkpt lat="59.8446056" lon="17.6501745">
        <ele>10.7118</ele>
        <time>2014-05-12T18:35:39Z</time>
      </trkpt>
      <trkpt lat="59.8445822" lon="17.6502061">
        <ele>10.2312</ele>
        <time>2014-05-12T18:35:40Z</time>
      </trkpt>
      <trkpt lat="59.8445586" lon="17.6502259">
        <ele>9.75061</ele>
        <time>2014-05-12T18:35:41Z</time>
      </trkpt>
      <trkpt lat="59.8445338" lon="17.6502491">
        <ele>9.2699</ele>
        <time>2014-05-12T18:35:42Z</time>
      </trkpt>
      <trkpt lat="59.8445131" lon="17.6502823">
        <ele>9.2699</ele>
        <time>2014-05-12T18:35:43Z</time>
      </trkpt>
      <trkpt lat="59.8444933" lon="17.6503131">
        <ele>9.75061</ele>
        <time>2014-05-12T18:35:44Z</time>
      </trkpt>
      <trkpt lat="59.844477" lon="17.6503367">
        <ele>9.2699</ele>
        <time>2014-05-12T18:35:45Z</time>
      </trkpt>
      <trkpt lat="59.8444563" lon="17.6503662">
        <ele>9.75061</ele>
        <time>2014-05-12T18:35:46Z</time>
      </trkpt>
      <trkpt lat="59.8444341" lon="17.6503991">
        <ele>9.2699</ele>
        <time>2014-05-12T18:35:47Z</time>
      </trkpt>
      <trkpt lat="59.8444124" lon="17.6504265">
        <ele>8.78918</ele>
        <time>2014-05-12T18:35:48Z</time>
      </trkpt>
      <trkpt lat="59.8443927" lon="17.6504509">
        <ele>8.78918</ele>
        <time>2014-05-12T18:35:49Z</time>
      </trkpt>
      <trkpt lat="59.844373" lon="17.6504762">
        <ele>8.30859</ele>
        <time>2014-05-12T18:35:50Z</time>
      </trkpt>
      <trkpt lat="59.8443551" lon="17.6505099">
        <ele>9.2699</ele>
        <time>2014-05-12T18:35:51Z</time>
      </trkpt>
      <trkpt lat="59.8443343" lon="17.6505335">
        <ele>9.75061</ele>
        <time>2014-05-12T18:35:52Z</time>
      </trkpt>
      <trkpt lat="59.8443167" lon="17.6505649">
        <ele>10.2312</ele>
        <time>2014-05-12T18:35:53Z</time>
      </trkpt>
      <trkpt lat="59.8442937" lon="17.6505934">
        <ele>9.75061</ele>
        <time>2014-05-12T18:35:54Z</time>
      </trkpt>
      <trkpt lat="59.8442726" lon="17.6506228">
        <ele>9.75061</ele>
        <time>2014-05-12T18:35:55Z</time>
      </trkpt>
      <trkpt lat="59.8442581" lon="17.6506498">
        <ele>9.75061</ele>
        <time>2014-05-12T18:35:56Z</time>
      </trkpt>
      <trkpt lat="59.8442396" lon="17.650681">
        <ele>9.2699</ele>
        <time>2014-05-12T18:35:57Z</time>
      </trkpt>
      <trkpt lat="59.8442199" lon="17.6507145">
        <ele>8.78918</ele>
        <time>2014-05-12T18:35:58Z</time>
      </trkpt>
      <trkpt lat="59.8441991" lon="17.6507519">
        <ele>8.30859</ele>
        <time>2014-05-12T18:35:59Z</time>
      </trkpt>
      <trkpt lat="59.8441767" lon="17.6507916">
        <ele>8.30859</ele>
        <time>2014-05-12T18:36:00Z</time>
      </trkpt>
      <trkpt lat="59.8441574" lon="17.6508284">
        <ele>8.78918</ele>
        <time>2014-05-12T18:36:01Z</time>
      </trkpt>
      <trkpt lat="59.8441405" lon="17.6508638">
        <ele>9.2699</ele>
        <time>2014-05-12T18:36:02Z</time>
      </trkpt>
      <trkpt lat="59.8441201" lon="17.6508975">
        <ele>9.75061</ele>
        <time>2014-05-12T18:36:03Z</time>
      </trkpt>
      <trkpt lat="59.8440965" lon="17.65093">
        <ele>9.2699</ele>
        <time>2014-05-12T18:36:04Z</time>
      </trkpt>
      <trkpt lat="59.8440772" lon="17.6509616">
        <ele>9.2699</ele>
        <time>2014-05-12T18:36:05Z</time>
      </trkpt>
      <trkpt lat="59.844056" lon="17.6509932">
        <ele>9.2699</ele>
        <time>2014-05-12T18:36:06Z</time>
      </trkpt>
      <trkpt lat="59.8440329" lon="17.6510272">
        <ele>9.2699</ele>
        <time>2014-05-12T18:36:07Z</time>
      </trkpt>
      <trkpt lat="59.8440082" lon="17.6510658">
        <ele>9.75061</ele>
        <time>2014-05-12T18:36:08Z</time>
      </trkpt>
      <trkpt lat="59.843978" lon="17.6510998">
        <ele>8.78918</ele>
        <time>2014-05-12T18:36:09Z</time>
      </trkpt>
      <trkpt lat="59.8439556" lon="17.6511346">
        <ele>9.2699</ele>
        <time>2014-05-12T18:36:10Z</time>
      </trkpt>
      <trkpt lat="59.8439327" lon="17.651165">
        <ele>9.2699</ele>
        <time>2014-05-12T18:36:11Z</time>
      </trkpt>
      <trkpt lat="59.84391" lon="17.6511999">
        <ele>9.2699</ele>
        <time>2014-05-12T18:36:12Z</time>
      </trkpt>
      <trkpt lat="59.8438903" lon="17.6512346">
        <ele>9.2699</ele>
        <time>2014-05-12T18:36:13Z</time>
      </trkpt>
      <trkpt lat="59.843873" lon="17.6512691">
        <ele>9.2699</ele>
        <time>2014-05-12T18:36:14Z</time>
      </trkpt>
      <trkpt lat="59.8438537" lon="17.6512957">
        <ele>9.2699</ele>
        <time>2014-05-12T18:36:15Z</time>
      </trkpt>
      <trkpt lat="59.8438332" lon="17.651319">
        <ele>8.78918</ele>
        <time>2014-05-12T18:36:16Z</time>
      </trkpt>
      <trkpt lat="59.8438124" lon="17.6513434">
        <ele>8.78918</ele>
        <time>2014-05-12T18:36:17Z</time>
      </trkpt>
      <trkpt lat="59.8437988" lon="17.6513708">
        <ele>8.78918</ele>
        <time>2014-05-12T18:36:18Z</time>
      </trkpt>
      <trkpt lat="59.8437853" lon="17.6514005">
        <ele>9.2699</ele>
        <time>2014-05-12T18:36:19Z</time>
      </trkpt>
      <trkpt lat="59.8437643" lon="17.6514302">
        <ele>9.2699</ele>
        <time>2014-05-12T18:36:20Z</time>
      </trkpt>
      <trkpt lat="59.8437401" lon="17.651451">
        <ele>9.2699</ele>
        <time>2014-05-12T18:36:21Z</time>
      </trkpt>
      <trkpt lat="59.8437122" lon="17.6514764">
        <ele>9.2699</ele>
        <time>2014-05-12T18:36:22Z</time>
      </trkpt>
      <trkpt lat="59.8436879" lon="17.6515041">
        <ele>9.2699</ele>
        <time>2014-05-12T18:36:23Z</time>
      </trkpt>
      <trkpt lat="59.8436656" lon="17.6515131">
        <ele>8.30859</ele>
        <time>2014-05-12T18:36:24Z</time>
      </trkpt>
      <trkpt lat="59.8436407" lon="17.6515372">
        <ele>7.82788</ele>
        <time>2014-05-12T18:36:25Z</time>
      </trkpt>
      <trkpt lat="59.8436054" lon="17.6515692">
        <ele>6.86646</ele>
        <time>2014-05-12T18:36:26Z</time>
      </trkpt>
      <trkpt lat="59.8435858" lon="17.6515883">
        <ele>6.86646</ele>
        <time>2014-05-12T18:36:27Z</time>
      </trkpt>
      <trkpt lat="59.8435643" lon="17.6516094">
        <ele>6.86646</ele>
        <time>2014-05-12T18:36:28Z</time>
      </trkpt>
      <trkpt lat="59.8435429" lon="17.6516283">
        <ele>5.90527</ele>
        <time>2014-05-12T18:36:29Z</time>
      </trkpt>
      <trkpt lat="59.8435255" lon="17.6516361">
        <ele>5.42456</ele>
        <time>2014-05-12T18:36:30Z</time>
      </trkpt>
      <trkpt lat="59.8435034" lon="17.6516547">
        <ele>5.42456</ele>
        <time>2014-05-12T18:36:31Z</time>
      </trkpt>
      <trkpt lat="59.8434841" lon="17.6516707">
        <ele>4.94385</ele>
        <time>2014-05-12T18:36:32Z</time>
      </trkpt>
      <trkpt lat="59.8434666" lon="17.6516885">
        <ele>4.94385</ele>
        <time>2014-05-12T18:36:33Z</time>
      </trkpt>
      <trkpt lat="59.843449" lon="17.6517208">
        <ele>4.94385</ele>
        <time>2014-05-12T18:36:34Z</time>
      </trkpt>
      <trkpt lat="59.8434296" lon="17.651748">
        <ele>4.94385</ele>
        <time>2014-05-12T18:36:35Z</time>
      </trkpt>
      <trkpt lat="59.8434065" lon="17.65177">
        <ele>4.94385</ele>
        <time>2014-05-12T18:36:36Z</time>
      </trkpt>
      <trkpt lat="59.8433853" lon="17.6517903">
        <ele>4.94385</ele>
        <time>2014-05-12T18:36:37Z</time>
      </trkpt>
      <trkpt lat="59.8433659" lon="17.651797">
        <ele>4.94385</ele>
        <time>2014-05-12T18:36:38Z</time>
      </trkpt>
      <trkpt lat="59.8433545" lon="17.6518081">
        <ele>4.94385</ele>
        <time>2014-05-12T18:36:39Z</time>
      </trkpt>
      <trkpt lat="59.8433374" lon="17.6518272">
        <ele>4.94385</ele>
        <time>2014-05-12T18:36:40Z</time>
      </trkpt>
      <trkpt lat="59.8433165" lon="17.651852">
        <ele>4.94385</ele>
        <time>2014-05-12T18:36:41Z</time>
      </trkpt>
      <trkpt lat="59.8432983" lon="17.6518686">
        <ele>4.94385</ele>
        <time>2014-05-12T18:36:42Z</time>
      </trkpt>
      <trkpt lat="59.8432765" lon="17.6518944">
        <ele>4.94385</ele>
        <time>2014-05-12T18:36:43Z</time>
      </trkpt>
      <trkpt lat="59.8432592" lon="17.6519142">
        <ele>5.42456</ele>
        <time>2014-05-12T18:36:44Z</time>
      </trkpt>
      <trkpt lat="59.8432314" lon="17.6519249">
        <ele>4.46326</ele>
        <time>2014-05-12T18:36:45Z</time>
      </trkpt>
      <trkpt lat="59.8432038" lon="17.6519378">
        <ele>4.46326</ele>
        <time>2014-05-12T18:36:46Z</time>
      </trkpt>
      <trkpt lat="59.8431821" lon="17.6519545">
        <ele>4.46326</ele>
        <time>2014-05-12T18:36:47Z</time>
      </trkpt>
      <trkpt lat="59.8431589" lon="17.6519809">
        <ele>4.94385</ele>
        <time>2014-05-12T18:36:48Z</time>
      </trkpt>
      <trkpt lat="59.8431285" lon="17.6519987">
        <ele>3.98267</ele>
        <time>2014-05-12T18:36:49Z</time>
      </trkpt>
      <trkpt lat="59.8431" lon="17.6520124">
        <ele>3.98267</ele>
        <time>2014-05-12T18:36:50Z</time>
      </trkpt>
      <trkpt lat="59.843075" lon="17.6520215">
        <ele>3.50195</ele>
        <time>2014-05-12T18:36:51Z</time>
      </trkpt>
      <trkpt lat="59.8430536" lon="17.6520354">
        <ele>3.98267</ele>
        <time>2014-05-12T18:36:52Z</time>
      </trkpt>
      <trkpt lat="59.8430339" lon="17.6520471">
        <ele>3.98267</ele>
        <time>2014-05-12T18:36:53Z</time>
      </trkpt>
      <trkpt lat="59.84301" lon="17.6520566">
        <ele>3.50195</ele>
        <time>2014-05-12T18:36:54Z</time>
      </trkpt>
      <trkpt lat="59.8429904" lon="17.6520691">
        <ele>3.98267</ele>
        <time>2014-05-12T18:36:55Z</time>
      </trkpt>
      <trkpt lat="59.8429709" lon="17.6520753">
        <ele>3.98267</ele>
        <time>2014-05-12T18:36:56Z</time>
      </trkpt>
      <trkpt lat="59.8429513" lon="17.6520737">
        <ele>3.50195</ele>
        <time>2014-05-12T18:36:57Z</time>
      </trkpt>
      <trkpt lat="59.8429289" lon="17.6520762">
        <ele>3.50195</ele>
        <time>2014-05-12T18:36:58Z</time>
      </trkpt>
      <trkpt lat="59.8429019" lon="17.6520758">
        <ele>3.02124</ele>
        <time>2014-05-12T18:36:59Z</time>
      </trkpt>
      <trkpt lat="59.8428751" lon="17.6520824">
        <ele>2.54065</ele>
        <time>2014-05-12T18:37:00Z</time>
      </trkpt>
      <trkpt lat="59.8428474" lon="17.6520884">
        <ele>2.06006</ele>
        <time>2014-05-12T18:37:01Z</time>
      </trkpt>
      <trkpt lat="59.8428251" lon="17.6520975">
        <ele>2.06006</ele>
        <time>2014-05-12T18:37:02Z</time>
      </trkpt>
      <trkpt lat="59.8428049" lon="17.652106">
        <ele>2.06006</ele>
        <time>2014-05-12T18:37:03Z</time>
      </trkpt>
      <trkpt lat="59.8427883" lon="17.6521095">
        <ele>2.06006</ele>
        <time>2014-05-12T18:37:04Z</time>
      </trkpt>
      <trkpt lat="59.842776" lon="17.6521194">
        <ele>2.54065</ele>
        <time>2014-05-12T18:37:05Z</time>
      </trkpt>
      <trkpt lat="59.8427573" lon="17.6521267">
        <ele>3.02124</ele>
        <time>2014-05-12T18:37:06Z</time>
      </trkpt>
      <trkpt lat="59.8427298" lon="17.6521473">
        <ele>3.02124</ele>
        <time>2014-05-12T18:37:07Z</time>
      </trkpt>
      <trkpt lat="59.8427068" lon="17.6521613">
        <ele>3.02124</ele>
        <time>2014-05-12T18:37:08Z</time>
      </trkpt>
      <trkpt lat="59.8426842" lon="17.6521597">
        <ele>3.02124</ele>
        <time>2014-05-12T18:37:09Z</time>
      </trkpt>
      <trkpt lat="59.8426555" lon="17.652164">
        <ele>3.02124</ele>
        <time>2014-05-12T18:37:10Z</time>
      </trkpt>
      <trkpt lat="59.8426303" lon="17.6521696">
        <ele>3.02124</ele>
        <time>2014-05-12T18:37:11Z</time>
      </trkpt>
      <trkpt lat="59.8425999" lon="17.65218">
        <ele>3.02124</ele>
        <time>2014-05-12T18:37:12Z</time>
      </trkpt>
      <trkpt lat="59.8425714" lon="17.6521894">
        <ele>3.02124</ele>
        <time>2014-05-12T18:37:13Z</time>
      </trkpt>
      <trkpt lat="59.842542" lon="17.6521981">
        <ele>2.54065</ele>
        <time>2014-05-12T18:37:14Z</time>
      </trkpt>
      <trkpt lat="59.8425117" lon="17.6522091">
        <ele>2.06006</ele>
        <time>2014-05-12T18:37:15Z</time>
      </trkpt>
      <trkpt lat="59.8424851" lon="17.6522179">
        <ele>2.06006</ele>
        <time>2014-05-12T18:37:16Z</time>
      </trkpt>
      <trkpt lat="59.8424575" lon="17.6522307">
        <ele>2.06006</ele>
        <time>2014-05-12T18:37:17Z</time>
      </trkpt>
      <trkpt lat="59.8424314" lon="17.6522432">
        <ele>2.06006</ele>
        <time>2014-05-12T18:37:18Z</time>
      </trkpt>
      <trkpt lat="59.8424064" lon="17.6522585">
        <ele>1.57935</ele>
        <time>2014-05-12T18:37:19Z</time>
      </trkpt>
      <trkpt lat="59.8423803" lon="17.6522758">
        <ele>1.57935</ele>
        <time>2014-05-12T18:37:20Z</time>
      </trkpt>
      <trkpt lat="59.842356" lon="17.6522877">
        <ele>1.57935</ele>
        <time>2014-05-12T18:37:21Z</time>
      </trkpt>
      <trkpt lat="59.8423297" lon="17.6522994">
        <ele>1.09863</ele>
        <time>2014-05-12T18:37:22Z</time>
      </trkpt>
      <trkpt lat="59.8423012" lon="17.6523162">
        <ele>1.09863</ele>
        <time>2014-05-12T18:37:23Z</time>
      </trkpt>
      <trkpt lat="59.8422717" lon="17.6523272">
        <ele>0.618042</ele>
        <time>2014-05-12T18:37:24Z</time>
      </trkpt>
      <trkpt lat="59.8422421" lon="17.6523492">
        <ele>0.618042</ele>
        <time>2014-05-12T18:37:25Z</time>
      </trkpt>
      <trkpt lat="59.8422131" lon="17.6523733">
        <ele>0.618042</ele>
        <time>2014-05-12T18:37:26Z</time>
      </trkpt>
      <trkpt lat="59.8421845" lon="17.6523958">
        <ele>0.137451</ele>
        <time>2014-05-12T18:37:27Z</time>
      </trkpt>
      <trkpt lat="59.8421574" lon="17.6524218">
        <ele>0.137451</ele>
        <time>2014-05-12T18:37:28Z</time>
      </trkpt>
      <trkpt lat="59.8421338" lon="17.6524329">
        <ele>0</ele>
        <time>2014-05-12T18:37:29Z</time>
      </trkpt>
      <trkpt lat="59.8421118" lon="17.6524525">
        <ele>0</ele>
        <time>2014-05-12T18:37:30Z</time>
      </trkpt>
      <trkpt lat="59.8420887" lon="17.6524901">
        <ele>0.137451</ele>
        <time>2014-05-12T18:37:31Z</time>
      </trkpt>
      <trkpt lat="59.8420655" lon="17.6525223">
        <ele>0.137451</ele>
        <time>2014-05-12T18:37:32Z</time>
      </trkpt>
      <trkpt lat="59.8420411" lon="17.6525538">
        <ele>0</ele>
        <time>2014-05-12T18:37:33Z</time>
      </trkpt>
      <trkpt lat="59.8420155" lon="17.6525849">
        <ele>0</ele>
        <time>2014-05-12T18:37:34Z</time>
      </trkpt>
      <trkpt lat="59.8419932" lon="17.6526185">
        <ele>0</ele>
        <time>2014-05-12T18:37:35Z</time>
      </trkpt>
      <trkpt lat="59.84197" lon="17.652655">
        <ele>0.137451</ele>
        <time>2014-05-12T18:37:36Z</time>
      </trkpt>
      <trkpt lat="59.8419462" lon="17.6526976">
        <ele>0.618042</ele>
        <time>2014-05-12T18:37:37Z</time>
      </trkpt>
      <trkpt lat="59.8419196" lon="17.6527347">
        <ele>0.618042</ele>
        <time>2014-05-12T18:37:38Z</time>
      </trkpt>
      <trkpt lat="59.8418971" lon="17.652768">
        <ele>1.09863</ele>
        <time>2014-05-12T18:37:39Z</time>
      </trkpt>
      <trkpt lat="59.8418725" lon="17.6528037">
        <ele>1.09863</ele>
        <time>2014-05-12T18:37:40Z</time>
      </trkpt>
      <trkpt lat="59.8418467" lon="17.6528385">
        <ele>1.09863</ele>
        <time>2014-05-12T18:37:41Z</time>
      </trkpt>
      <trkpt lat="59.8418213" lon="17.6528668">
        <ele>0.137451</ele>
        <time>2014-05-12T18:37:42Z</time>
      </trkpt>
      <trkpt lat="59.8417984" lon="17.6528931">
        <ele>0.137451</ele>
        <time>2014-05-12T18:37:43Z</time>
      </trkpt>
      <trkpt lat="59.8417686" lon="17.6529268">
        <ele>0.137451</ele>
        <time>2014-05-12T18:37:44Z</time>
      </trkpt>
      <trkpt lat="59.8417404" lon="17.6529533">
        <ele>0.137451</ele>
        <time>2014-05-12T18:37:45Z</time>
      </trkpt>
      <trkpt lat="59.8417146" lon="17.6529788">
        <ele>0.137451</ele>
        <time>2014-05-12T18:37:46Z</time>
      </trkpt>
      <trkpt lat="59.8416826" lon="17.653017">
        <ele>0.618042</ele>
        <time>2014-05-12T18:37:47Z</time>
      </trkpt>
      <trkpt lat="59.8416521" lon="17.6530492">
        <ele>0.618042</ele>
        <time>2014-05-12T18:37:48Z</time>
      </trkpt>
      <trkpt lat="59.8416266" lon="17.6530756">
        <ele>1.09863</ele>
        <time>2014-05-12T18:37:49Z</time>
      </trkpt>
      <trkpt lat="59.8415982" lon="17.6531067">
        <ele>1.09863</ele>
        <time>2014-05-12T18:37:50Z</time>
      </trkpt>
      <trkpt lat="59.8415721" lon="17.653136">
        <ele>1.09863</ele>
        <time>2014-05-12T18:37:51Z</time>
      </trkpt>
      <trkpt lat="59.841549" lon="17.6531626">
        <ele>1.57935</ele>
        <time>2014-05-12T18:37:52Z</time>
      </trkpt>
      <trkpt lat="59.8415316" lon="17.6531749">
        <ele>1.57935</ele>
        <time>2014-05-12T18:37:53Z</time>
      </trkpt>
      <trkpt lat="59.8415153" lon="17.6531871">
        <ele>1.57935</ele>
        <time>2014-05-12T18:37:54Z</time>
      </trkpt>
      <trkpt lat="59.8414916" lon="17.6532009">
        <ele>2.06006</ele>
        <time>2014-05-12T18:37:55Z</time>
      </trkpt>
      <trkpt lat="59.841469" lon="17.653214">
        <ele>2.54065</ele>
        <time>2014-05-12T18:37:56Z</time>
      </trkpt>
      <trkpt lat="59.8414439" lon="17.6532309">
        <ele>2.54065</ele>
        <time>2014-05-12T18:37:57Z</time>
      </trkpt>
      <trkpt lat="59.841418" lon="17.6532432">
        <ele>3.02124</ele>
        <time>2014-05-12T18:37:58Z</time>
      </trkpt>
      <trkpt lat="59.8413967" lon="17.6532502">
        <ele>3.50195</ele>
        <time>2014-05-12T18:37:59Z</time>
      </trkpt>
      <trkpt lat="59.8413738" lon="17.6532588">
        <ele>3.50195</ele>
        <time>2014-05-12T18:38:00Z</time>
      </trkpt>
      <trkpt lat="59.8413436" lon="17.653266">
        <ele>3.50195</ele>
        <time>2014-05-12T18:38:01Z</time>
      </trkpt>
      <trkpt lat="59.8413175" lon="17.6532704">
        <ele>3.50195</ele>
        <time>2014-05-12T18:38:02Z</time>
      </trkpt>
      <trkpt lat="59.8412905" lon="17.6532776">
        <ele>3.50195</ele>
        <time>2014-05-12T18:38:03Z</time>
      </trkpt>
      <trkpt lat="59.8412642" lon="17.6532857">
        <ele>3.50195</ele>
        <time>2014-05-12T18:38:04Z</time>
      </trkpt>
      <trkpt lat="59.8412392" lon="17.6532948">
        <ele>3.50195</ele>
        <time>2014-05-12T18:38:05Z</time>
      </trkpt>
      <trkpt lat="59.8412168" lon="17.6533015">
        <ele>3.98267</ele>
        <time>2014-05-12T18:38:06Z</time>
      </trkpt>
      <trkpt lat="59.8411971" lon="17.6533044">
        <ele>3.98267</ele>
        <time>2014-05-12T18:38:07Z</time>
      </trkpt>
      <trkpt lat="59.8411755" lon="17.6533039">
        <ele>3.50195</ele>
        <time>2014-05-12T18:38:08Z</time>
      </trkpt>
      <trkpt lat="59.8411382" lon="17.6533206">
        <ele>3.50195</ele>
        <time>2014-05-12T18:38:09Z</time>
      </trkpt>
      <trkpt lat="59.8411019" lon="17.6533381">
        <ele>3.98267</ele>
        <time>2014-05-12T18:38:10Z</time>
      </trkpt>
      <trkpt lat="59.8410735" lon="17.6533423">
        <ele>3.98267</ele>
        <time>2014-05-12T18:38:11Z</time>
      </trkpt>
      <trkpt lat="59.8410495" lon="17.6533515">
        <ele>3.98267</ele>
        <time>2014-05-12T18:38:12Z</time>
      </trkpt>
      <trkpt lat="59.8410257" lon="17.6533692">
        <ele>4.46326</ele>
        <time>2014-05-12T18:38:13Z</time>
      </trkpt>
      <trkpt lat="59.8409978" lon="17.6533905">
        <ele>5.42456</ele>
        <time>2014-05-12T18:38:14Z</time>
      </trkpt>
      <trkpt lat="59.8409698" lon="17.6534043">
        <ele>6.38586</ele>
        <time>2014-05-12T18:38:15Z</time>
      </trkpt>
      <trkpt lat="59.8409455" lon="17.6534021">
        <ele>6.86646</ele>
        <time>2014-05-12T18:38:16Z</time>
      </trkpt>
      <trkpt lat="59.8409185" lon="17.6534036">
        <ele>6.86646</ele>
        <time>2014-05-12T18:38:17Z</time>
      </trkpt>
      <trkpt lat="59.8408916" lon="17.6534071">
        <ele>6.86646</ele>
        <time>2014-05-12T18:38:18Z</time>
      </trkpt>
      <trkpt lat="59.8408715" lon="17.6534102">
        <ele>6.86646</ele>
        <time>2014-05-12T18:38:19Z</time>
      </trkpt>
      <trkpt lat="59.8408469" lon="17.6534159">
        <ele>6.38586</ele>
        <time>2014-05-12T18:38:20Z</time>
      </trkpt>
      <trkpt lat="59.8408166" lon="17.6534243">
        <ele>6.38586</ele>
        <time>2014-05-12T18:38:21Z</time>
      </trkpt>
      <trkpt lat="59.8407852" lon="17.653432">
        <ele>6.38586</ele>
        <time>2014-05-12T18:38:22Z</time>
      </trkpt>
      <trkpt lat="59.8407507" lon="17.6534443">
        <ele>5.90527</ele>
        <time>2014-05-12T18:38:23Z</time>
      </trkpt>
      <trkpt lat="59.8407287" lon="17.6534489">
        <ele>5.42456</ele>
        <time>2014-05-12T18:38:24Z</time>
      </trkpt>
      <trkpt lat="59.8407056" lon="17.6534568">
        <ele>4.94385</ele>
        <time>2014-05-12T18:38:25Z</time>
      </trkpt>
      <trkpt lat="59.8406852" lon="17.6534556">
        <ele>4.94385</ele>
        <time>2014-05-12T18:38:26Z</time>
      </trkpt>
      <trkpt lat="59.8406588" lon="17.6534572">
        <ele>3.98267</ele>
        <time>2014-05-12T18:38:27Z</time>
      </trkpt>
      <trkpt lat="59.8406341" lon="17.6534629">
        <ele>3.98267</ele>
        <time>2014-05-12T18:38:28Z</time>
      </trkpt>
      <trkpt lat="59.8406083" lon="17.653473">
        <ele>3.98267</ele>
        <time>2014-05-12T18:38:29Z</time>
      </trkpt>
      <trkpt lat="59.8405761" lon="17.6534916">
        <ele>4.46326</ele>
        <time>2014-05-12T18:38:30Z</time>
      </trkpt>
      <trkpt lat="59.840543" lon="17.6535049">
        <ele>4.46326</ele>
        <time>2014-05-12T18:38:31Z</time>
      </trkpt>
      <trkpt lat="59.8405224" lon="17.6535067">
        <ele>4.46326</ele>
        <time>2014-05-12T18:38:32Z</time>
      </trkpt>
      <trkpt lat="59.8405068" lon="17.6535066">
        <ele>3.98267</ele>
        <time>2014-05-12T18:38:33Z</time>
      </trkpt>
      <trkpt lat="59.8404823" lon="17.6535157">
        <ele>3.98267</ele>
        <time>2014-05-12T18:38:34Z</time>
      </trkpt>
      <trkpt lat="59.840458" lon="17.6535164">
        <ele>3.50195</ele>
        <time>2014-05-12T18:38:35Z</time>
      </trkpt>
      <trkpt lat="59.8404378" lon="17.6535195">
        <ele>3.50195</ele>
        <time>2014-05-12T18:38:36Z</time>
      </trkpt>
      <trkpt lat="59.8404087" lon="17.6535292">
        <ele>3.50195</ele>
        <time>2014-05-12T18:38:37Z</time>
      </trkpt>
      <trkpt lat="59.8403819" lon="17.6535346">
        <ele>3.98267</ele>
        <time>2014-05-12T18:38:38Z</time>
      </trkpt>
      <trkpt lat="59.8403596" lon="17.6535335">
        <ele>3.98267</ele>
        <time>2014-05-12T18:38:39Z</time>
      </trkpt>
      <trkpt lat="59.8403301" lon="17.6535476">
        <ele>3.98267</ele>
        <time>2014-05-12T18:38:40Z</time>
      </trkpt>
      <trkpt lat="59.8403058" lon="17.6535658">
        <ele>3.98267</ele>
        <time>2014-05-12T18:38:41Z</time>
      </trkpt>
      <trkpt lat="59.8402791" lon="17.6535771">
        <ele>3.98267</ele>
        <time>2014-05-12T18:38:42Z</time>
      </trkpt>
      <trkpt lat="59.8402519" lon="17.6535723">
        <ele>3.98267</ele>
        <time>2014-05-12T18:38:43Z</time>
      </trkpt>
      <trkpt lat="59.8402273" lon="17.6535719">
        <ele>3.98267</ele>
        <time>2014-05-12T18:38:44Z</time>
      </trkpt>
      <trkpt lat="59.840203" lon="17.6535744">
        <ele>3.98267</ele>
        <time>2014-05-12T18:38:45Z</time>
      </trkpt>
      <trkpt lat="59.8401809" lon="17.6535789">
        <ele>4.46326</ele>
        <time>2014-05-12T18:38:46Z</time>
      </trkpt>
      <trkpt lat="59.840157" lon="17.6535806">
        <ele>4.94385</ele>
        <time>2014-05-12T18:38:47Z</time>
      </trkpt>
      <trkpt lat="59.8401316" lon="17.6535868">
        <ele>5.42456</ele>
        <time>2014-05-12T18:38:48Z</time>
      </trkpt>
      <trkpt lat="59.8401006" lon="17.6536036">
        <ele>5.90527</ele>
        <time>2014-05-12T18:38:49Z</time>
      </trkpt>
      <trkpt lat="59.8400721" lon="17.6536173">
        <ele>6.38586</ele>
        <time>2014-05-12T18:38:50Z</time>
      </trkpt>
      <trkpt lat="59.840041" lon="17.6536366">
        <ele>6.86646</ele>
        <time>2014-05-12T18:38:51Z</time>
      </trkpt>
      <trkpt lat="59.8400067" lon="17.6536551">
        <ele>7.82788</ele>
        <time>2014-05-12T18:38:52Z</time>
      </trkpt>
      <trkpt lat="59.8399816" lon="17.6536568">
        <ele>8.30859</ele>
        <time>2014-05-12T18:38:53Z</time>
      </trkpt>
      <trkpt lat="59.8399569" lon="17.6536597">
        <ele>9.2699</ele>
        <time>2014-05-12T18:38:54Z</time>
      </trkpt>
      <trkpt lat="59.8399281" lon="17.6536607">
        <ele>9.75061</ele>
        <time>2014-05-12T18:38:55Z</time>
      </trkpt>
      <trkpt lat="59.8399007" lon="17.6536682">
        <ele>10.2312</ele>
        <time>2014-05-12T18:38:56Z</time>
      </trkpt>
      <trkpt lat="59.8398746" lon="17.653674">
        <ele>10.2312</ele>
        <time>2014-05-12T18:38:57Z</time>
      </trkpt>
      <trkpt lat="59.8398519" lon="17.653676">
        <ele>10.2312</ele>
        <time>2014-05-12T18:38:58Z</time>
      </trkpt>
      <trkpt lat="59.8398293" lon="17.6536833">
        <ele>10.2312</ele>
        <time>2014-05-12T18:38:59Z</time>
      </trkpt>
      <trkpt lat="59.8398062" lon="17.6536869">
        <ele>10.2312</ele>
        <time>2014-05-12T18:39:00Z</time>
      </trkpt>
      <trkpt lat="59.8397828" lon="17.6536883">
        <ele>10.2312</ele>
        <time>2014-05-12T18:39:01Z</time>
      </trkpt>
      <trkpt lat="59.8397533" lon="17.6536988">
        <ele>9.75061</ele>
        <time>2014-05-12T18:39:02Z</time>
      </trkpt>
      <trkpt lat="59.8397236" lon="17.6537076">
        <ele>9.2699</ele>
        <time>2014-05-12T18:39:03Z</time>
      </trkpt>
      <trkpt lat="59.8396933" lon="17.653721">
        <ele>9.2699</ele>
        <time>2014-05-12T18:39:04Z</time>
      </trkpt>
      <trkpt lat="59.839667" lon="17.6537222">
        <ele>9.2699</ele>
        <time>2014-05-12T18:39:05Z</time>
      </trkpt>
      <trkpt lat="59.8396406" lon="17.6537319">
        <ele>9.2699</ele>
        <time>2014-05-12T18:39:06Z</time>
      </trkpt>
      <trkpt lat="59.8396195" lon="17.6537381">
        <ele>9.2699</ele>
        <time>2014-05-12T18:39:07Z</time>
      </trkpt>
      <trkpt lat="59.839595" lon="17.6537479">
        <ele>9.2699</ele>
        <time>2014-05-12T18:39:08Z</time>
      </trkpt>
      <trkpt lat="59.8395733" lon="17.6537501">
        <ele>9.2699</ele>
        <time>2014-05-12T18:39:09Z</time>
      </trkpt>
      <trkpt lat="59.8395523" lon="17.6537449">
        <ele>9.2699</ele>
        <time>2014-05-12T18:39:10Z</time>
      </trkpt>
      <trkpt lat="59.839522" lon="17.6537475">
        <ele>9.2699</ele>
        <time>2014-05-12T18:39:11Z</time>
      </trkpt>
      <trkpt lat="59.8394992" lon="17.6537468">
        <ele>9.2699</ele>
        <time>2014-05-12T18:39:12Z</time>
      </trkpt>
      <trkpt lat="59.8394748" lon="17.6537504">
        <ele>9.2699</ele>
        <time>2014-05-12T18:39:13Z</time>
      </trkpt>
      <trkpt lat="59.8394489" lon="17.6537559">
        <ele>8.78918</ele>
        <time>2014-05-12T18:39:14Z</time>
      </trkpt>
      <trkpt lat="59.8394251" lon="17.6537571">
        <ele>8.78918</ele>
        <time>2014-05-12T18:39:15Z</time>
      </trkpt>
      <trkpt lat="59.8393939" lon="17.6537665">
        <ele>8.78918</ele>
        <time>2014-05-12T18:39:16Z</time>
      </trkpt>
      <trkpt lat="59.8393717" lon="17.6537683">
        <ele>8.30859</ele>
        <time>2014-05-12T18:39:17Z</time>
      </trkpt>
      <trkpt lat="59.8393472" lon="17.6537712">
        <ele>8.30859</ele>
        <time>2014-05-12T18:39:18Z</time>
      </trkpt>
      <trkpt lat="59.8393206" lon="17.6537739">
        <ele>7.34717</ele>
        <time>2014-05-12T18:39:19Z</time>
      </trkpt>
      <trkpt lat="59.8392939" lon="17.6537758">
        <ele>7.82788</ele>
        <time>2014-05-12T18:39:20Z</time>
      </trkpt>
      <trkpt lat="59.8392669" lon="17.6537823">
        <ele>7.82788</ele>
        <time>2014-05-12T18:39:21Z</time>
      </trkpt>
      <trkpt lat="59.8392446" lon="17.6537817">
        <ele>8.30859</ele>
        <time>2014-05-12T18:39:22Z</time>
      </trkpt>
      <trkpt lat="59.8392195" lon="17.653775">
        <ele>7.82788</ele>
        <time>2014-05-12T18:39:23Z</time>
      </trkpt>
      <trkpt lat="59.8391919" lon="17.6537774">
        <ele>8.30859</ele>
        <time>2014-05-12T18:39:24Z</time>
      </trkpt>
      <trkpt lat="59.8391638" lon="17.6537801">
        <ele>8.30859</ele>
        <time>2014-05-12T18:39:25Z</time>
      </trkpt>
      <trkpt lat="59.8391366" lon="17.6537842">
        <ele>8.78918</ele>
        <time>2014-05-12T18:39:26Z</time>
      </trkpt>
      <trkpt lat="59.8391106" lon="17.6537817">
        <ele>8.78918</ele>
        <time>2014-05-12T18:39:27Z</time>
      </trkpt>
      <trkpt lat="59.8390873" lon="17.6537727">
        <ele>8.78918</ele>
        <time>2014-05-12T18:39:28Z</time>
      </trkpt>
      <trkpt lat="59.8390602" lon="17.6537639">
        <ele>8.78918</ele>
        <time>2014-05-12T18:39:29Z</time>
      </trkpt>
      <trkpt lat="59.8390335" lon="17.6537511">
        <ele>8.78918</ele>
        <time>2014-05-12T18:39:30Z</time>
      </trkpt>
      <trkpt lat="59.8390093" lon="17.6537387">
        <ele>8.30859</ele>
        <time>2014-05-12T18:39:31Z</time>
      </trkpt>
      <trkpt lat="59.8389838" lon="17.6537258">
        <ele>7.82788</ele>
        <time>2014-05-12T18:39:32Z</time>
      </trkpt>
      <trkpt lat="59.8389563" lon="17.6537165">
        <ele>7.82788</ele>
        <time>2014-05-12T18:39:33Z</time>
      </trkpt>
      <trkpt lat="59.8389268" lon="17.6537118">
        <ele>7.82788</ele>
        <time>2014-05-12T18:39:34Z</time>
      </trkpt>
      <trkpt lat="59.8389019" lon="17.6536997">
        <ele>7.82788</ele>
        <time>2014-05-12T18:39:35Z</time>
      </trkpt>
      <trkpt lat="59.8388738" lon="17.6536884">
        <ele>7.34717</ele>
        <time>2014-05-12T18:39:36Z</time>
      </trkpt>
      <trkpt lat="59.8388464" lon="17.6536831">
        <ele>7.34717</ele>
        <time>2014-05-12T18:39:37Z</time>
      </trkpt>
      <trkpt lat="59.8388211" lon="17.6536755">
        <ele>6.86646</ele>
        <time>2014-05-12T18:39:38Z</time>
      </trkpt>
      <trkpt lat="59.8387989" lon="17.6536626">
        <ele>7.34717</ele>
        <time>2014-05-12T18:39:39Z</time>
      </trkpt>
      <trkpt lat="59.8387776" lon="17.6536489">
        <ele>7.34717</ele>
        <time>2014-05-12T18:39:40Z</time>
      </trkpt>
      <trkpt lat="59.8387517" lon="17.6536481">
        <ele>7.34717</ele>
        <time>2014-05-12T18:39:41Z</time>
      </trkpt>
      <trkpt lat="59.8387292" lon="17.6536409">
        <ele>6.86646</ele>
        <time>2014-05-12T18:39:42Z</time>
      </trkpt>
      <trkpt lat="59.8387026" lon="17.6536409">
        <ele>6.86646</ele>
        <time>2014-05-12T18:39:43Z</time>
      </trkpt>
      <trkpt lat="59.8386714" lon="17.653647">
        <ele>6.38586</ele>
        <time>2014-05-12T18:39:44Z</time>
      </trkpt>
      <trkpt lat="59.8386384" lon="17.6536595">
        <ele>5.90527</ele>
        <time>2014-05-12T18:39:45Z</time>
      </trkpt>
      <trkpt lat="59.8386096" lon="17.6536701">
        <ele>5.90527</ele>
        <time>2014-05-12T18:39:46Z</time>
      </trkpt>
      <trkpt lat="59.8385833" lon="17.6536722">
        <ele>5.42456</ele>
        <time>2014-05-12T18:39:47Z</time>
      </trkpt>
      <trkpt lat="59.8385559" lon="17.653673">
        <ele>4.94385</ele>
        <time>2014-05-12T18:39:48Z</time>
      </trkpt>
      <trkpt lat="59.8385283" lon="17.6536839">
        <ele>4.94385</ele>
        <time>2014-05-12T18:39:49Z</time>
      </trkpt>
      <trkpt lat="59.8385011" lon="17.6536983">
        <ele>5.42456</ele>
        <time>2014-05-12T18:39:50Z</time>
      </trkpt>
      <trkpt lat="59.8384729" lon="17.6537118">
        <ele>5.42456</ele>
        <time>2014-05-12T18:39:51Z</time>
      </trkpt>
      <trkpt lat="59.8384455" lon="17.6537283">
        <ele>4.94385</ele>
        <time>2014-05-12T18:39:52Z</time>
      </trkpt>
      <trkpt lat="59.8384158" lon="17.6537431">
        <ele>4.94385</ele>
        <time>2014-05-12T18:39:53Z</time>
      </trkpt>
      <trkpt lat="59.838386" lon="17.6537532">
        <ele>5.42456</ele>
        <time>2014-05-12T18:39:54Z</time>
      </trkpt>
      <trkpt lat="59.8383599" lon="17.6537564">
        <ele>5.42456</ele>
        <time>2014-05-12T18:39:55Z</time>
      </trkpt>
      <trkpt lat="59.8383405" lon="17.6537571">
        <ele>5.42456</ele>
        <time>2014-05-12T18:39:56Z</time>
      </trkpt>
      <trkpt lat="59.838318" lon="17.6537604">
        <ele>5.90527</ele>
        <time>2014-05-12T18:39:57Z</time>
      </trkpt>
      <trkpt lat="59.8382902" lon="17.653765">
        <ele>5.90527</ele>
        <time>2014-05-12T18:39:58Z</time>
      </trkpt>
      <trkpt lat="59.8382626" lon="17.6537661">
        <ele>5.42456</ele>
        <time>2014-05-12T18:39:59Z</time>
      </trkpt>
      <trkpt lat="59.8382355" lon="17.6537757">
        <ele>5.42456</ele>
        <time>2014-05-12T18:40:00Z</time>
      </trkpt>
      <trkpt lat="59.8382141" lon="17.6537848">
        <ele>5.42456</ele>
        <time>2014-05-12T18:40:01Z</time>
      </trkpt>
      <trkpt lat="59.8381969" lon="17.6537894">
        <ele>5.42456</ele>
        <time>2014-05-12T18:40:02Z</time>
      </trkpt>
      <trkpt lat="59.8381741" lon="17.6537977">
        <ele>5.42456</ele>
        <time>2014-05-12T18:40:03Z</time>
      </trkpt>
      <trkpt lat="59.8381498" lon="17.6538044">
        <ele>5.42456</ele>
        <time>2014-05-12T18:40:04Z</time>
      </trkpt>
      <trkpt lat="59.8381213" lon="17.6538112">
        <ele>5.42456</ele>
        <time>2014-05-12T18:40:05Z</time>
      </trkpt>
      <trkpt lat="59.8380917" lon="17.6538218">
        <ele>5.90527</ele>
        <time>2014-05-12T18:40:06Z</time>
      </trkpt>
      <trkpt lat="59.8380623" lon="17.6538289">
        <ele>5.90527</ele>
        <time>2014-05-12T18:40:07Z</time>
      </trkpt>
      <trkpt lat="59.8380361" lon="17.6538345">
        <ele>6.86646</ele>
        <time>2014-05-12T18:40:08Z</time>
      </trkpt>
      <trkpt lat="59.8380136" lon="17.6538343">
        <ele>6.86646</ele>
        <time>2014-05-12T18:40:09Z</time>
      </trkpt>
      <trkpt lat="59.8379876" lon="17.6538225">
        <ele>6.38586</ele>
        <time>2014-05-12T18:40:10Z</time>
      </trkpt>
      <trkpt lat="59.8379675" lon="17.6538008">
        <ele>6.38586</ele>
        <time>2014-05-12T18:40:11Z</time>
      </trkpt>
      <trkpt lat="59.8379429" lon="17.6537898">
        <ele>6.86646</ele>
        <time>2014-05-12T18:40:12Z</time>
      </trkpt>
      <trkpt lat="59.837912" lon="17.6537866">
        <ele>6.38586</ele>
        <time>2014-05-12T18:40:13Z</time>
      </trkpt>
      <trkpt lat="59.8378797" lon="17.6537862">
        <ele>6.86646</ele>
        <time>2014-05-12T18:40:14Z</time>
      </trkpt>
      <trkpt lat="59.8378531" lon="17.653775">
        <ele>7.34717</ele>
        <time>2014-05-12T18:40:15Z</time>
      </trkpt>
      <trkpt lat="59.8378302" lon="17.6537682">
        <ele>7.34717</ele>
        <time>2014-05-12T18:40:16Z</time>
      </trkpt>
      <trkpt lat="59.8378129" lon="17.6537578">
        <ele>7.82788</ele>
        <time>2014-05-12T18:40:17Z</time>
      </trkpt>
      <trkpt lat="59.8377923" lon="17.6537423">
        <ele>8.30859</ele>
        <time>2014-05-12T18:40:18Z</time>
      </trkpt>
      <trkpt lat="59.8377683" lon="17.6537277">
        <ele>8.30859</ele>
        <time>2014-05-12T18:40:19Z</time>
      </trkpt>
      <trkpt lat="59.8377484" lon="17.6537128">
        <ele>7.82788</ele>
        <time>2014-05-12T18:40:20Z</time>
      </trkpt>
      <trkpt lat="59.8377255" lon="17.6536997">
        <ele>7.82788</ele>
        <time>2014-05-12T18:40:21Z</time>
      </trkpt>
      <trkpt lat="59.8377027" lon="17.6536806">
        <ele>8.30859</ele>
        <time>2014-05-12T18:40:22Z</time>
      </trkpt>
      <trkpt lat="59.8376823" lon="17.6536553">
        <ele>8.30859</ele>
        <time>2014-05-12T18:40:23Z</time>
      </trkpt>
      <trkpt lat="59.8376626" lon="17.6536392">
        <ele>8.30859</ele>
        <time>2014-05-12T18:40:24Z</time>
      </trkpt>
      <trkpt lat="59.8376326" lon="17.65363">
        <ele>9.2699</ele>
        <time>2014-05-12T18:40:25Z</time>
      </trkpt>
      <trkpt lat="59.8376078" lon="17.6536165">
        <ele>9.2699</ele>
        <time>2014-05-12T18:40:26Z</time>
      </trkpt>
      <trkpt lat="59.8375865" lon="17.6536004">
        <ele>9.75061</ele>
        <time>2014-05-12T18:40:27Z</time>
      </trkpt>
      <trkpt lat="59.8375575" lon="17.6535899">
        <ele>9.75061</ele>
        <time>2014-05-12T18:40:28Z</time>
      </trkpt>
      <trkpt lat="59.8375302" lon="17.6535776">
        <ele>10.2312</ele>
        <time>2014-05-12T18:40:29Z</time>
      </trkpt>
      <trkpt lat="59.8375048" lon="17.6535632">
        <ele>10.2312</ele>
        <time>2014-05-12T18:40:30Z</time>
      </trkpt>
      <trkpt lat="59.8374908" lon="17.6535465">
        <ele>10.7118</ele>
        <time>2014-05-12T18:40:31Z</time>
      </trkpt>
      <trkpt lat="59.837467" lon="17.6535373">
        <ele>10.7118</ele>
        <time>2014-05-12T18:40:32Z</time>
      </trkpt>
      <trkpt lat="59.8374514" lon="17.6535251">
        <ele>10.7118</ele>
        <time>2014-05-12T18:40:33Z</time>
      </trkpt>
      <trkpt lat="59.8374312" lon="17.6535152">
        <ele>11.1925</ele>
        <time>2014-05-12T18:40:34Z</time>
      </trkpt>
      <trkpt lat="59.8374074" lon="17.6535024">
        <ele>11.6732</ele>
        <time>2014-05-12T18:40:35Z</time>
      </trkpt>
      <trkpt lat="59.8373831" lon="17.6534926">
        <ele>11.6732</ele>
        <time>2014-05-12T18:40:36Z</time>
      </trkpt>
      <trkpt lat="59.8373572" lon="17.6534766">
        <ele>12.6344</ele>
        <time>2014-05-12T18:40:37Z</time>
      </trkpt>
      <trkpt lat="59.837321" lon="17.6534662">
        <ele>13.1151</ele>
        <time>2014-05-12T18:40:38Z</time>
      </trkpt>
      <trkpt lat="59.8372914" lon="17.653448">
        <ele>12.6344</ele>
        <time>2014-05-12T18:40:39Z</time>
      </trkpt>
      <trkpt lat="59.8372613" lon="17.6534403">
        <ele>13.1151</ele>
        <time>2014-05-12T18:40:40Z</time>
      </trkpt>
      <trkpt lat="59.8372262" lon="17.6534387">
        <ele>13.1151</ele>
        <time>2014-05-12T18:40:41Z</time>
      </trkpt>
      <trkpt lat="59.8371976" lon="17.6534341">
        <ele>13.1151</ele>
        <time>2014-05-12T18:40:42Z</time>
      </trkpt>
      <trkpt lat="59.8371671" lon="17.6534258">
        <ele>13.1151</ele>
        <time>2014-05-12T18:40:43Z</time>
      </trkpt>
      <trkpt lat="59.8371379" lon="17.6534179">
        <ele>13.5958</ele>
        <time>2014-05-12T18:40:44Z</time>
      </trkpt>
      <trkpt lat="59.8371162" lon="17.6534034">
        <ele>13.5958</ele>
        <time>2014-05-12T18:40:45Z</time>
      </trkpt>
      <trkpt lat="59.8370892" lon="17.6533911">
        <ele>13.5958</ele>
        <time>2014-05-12T18:40:46Z</time>
      </trkpt>
      <trkpt lat="59.8370692" lon="17.6533827">
        <ele>13.5958</ele>
        <time>2014-05-12T18:40:47Z</time>
      </trkpt>
      <trkpt lat="59.8370547" lon="17.6533758">
        <ele>14.0764</ele>
        <time>2014-05-12T18:40:48Z</time>
      </trkpt>
      <trkpt lat="59.8370459" lon="17.653359">
        <ele>13.5958</ele>
        <time>2014-05-12T18:40:49Z</time>
      </trkpt>
      <trkpt lat="59.8370304" lon="17.653342">
        <ele>13.5958</ele>
        <time>2014-05-12T18:40:50Z</time>
      </trkpt>
      <trkpt lat="59.8370136" lon="17.6533243">
        <ele>13.5958</ele>
        <time>2014-05-12T18:40:51Z</time>
      </trkpt>
      <trkpt lat="59.8370007" lon="17.653307">
        <ele>13.5958</ele>
        <time>2014-05-12T18:40:52Z</time>
      </trkpt>
      <trkpt lat="59.8369884" lon="17.6532904">
        <ele>13.5958</ele>
        <time>2014-05-12T18:40:53Z</time>
      </trkpt>
      <trkpt lat="59.83697" lon="17.6532765">
        <ele>13.1151</ele>
        <time>2014-05-12T18:40:54Z</time>
      </trkpt>
      <trkpt lat="59.8369476" lon="17.653264">
        <ele>12.6344</ele>
        <time>2014-05-12T18:40:55Z</time>
      </trkpt>
      <trkpt lat="59.8369129" lon="17.6532563">
        <ele>12.1538</ele>
        <time>2014-05-12T18:40:56Z</time>
      </trkpt>
      <trkpt lat="59.8368833" lon="17.6532459">
        <ele>11.1925</ele>
        <time>2014-05-12T18:40:57Z</time>
      </trkpt>
      <trkpt lat="59.8368485" lon="17.6532336">
        <ele>11.1925</ele>
        <time>2014-05-12T18:40:58Z</time>
      </trkpt>
      <trkpt lat="59.8368211" lon="17.6532277">
        <ele>11.1925</ele>
        <time>2014-05-12T18:40:59Z</time>
      </trkpt>
      <trkpt lat="59.8367899" lon="17.6532175">
        <ele>11.1925</ele>
        <time>2014-05-12T18:41:00Z</time>
      </trkpt>
      <trkpt lat="59.8367589" lon="17.6532118">
        <ele>11.1925</ele>
        <time>2014-05-12T18:41:01Z</time>
      </trkpt>
      <trkpt lat="59.8367195" lon="17.6532174">
        <ele>11.1925</ele>
        <time>2014-05-12T18:41:02Z</time>
      </trkpt>
      <trkpt lat="59.8366879" lon="17.6532081">
        <ele>11.6732</ele>
        <time>2014-05-12T18:41:03Z</time>
      </trkpt>
      <trkpt lat="59.8366413" lon="17.6532114">
        <ele>11.1925</ele>
        <time>2014-05-12T18:41:04Z</time>
      </trkpt>
      <trkpt lat="59.836595" lon="17.6532124">
        <ele>11.1925</ele>
        <time>2014-05-12T18:41:05Z</time>
      </trkpt>
      <trkpt lat="59.8365678" lon="17.6531925">
        <ele>11.6732</ele>
        <time>2014-05-12T18:41:06Z</time>
      </trkpt>
      <trkpt lat="59.836542" lon="17.6531822">
        <ele>11.1925</ele>
        <time>2014-05-12T18:41:07Z</time>
      </trkpt>
      <trkpt lat="59.8365134" lon="17.6531694">
        <ele>11.1925</ele>
        <time>2014-05-12T18:41:08Z</time>
      </trkpt>
      <trkpt lat="59.8364852" lon="17.6531459">
        <ele>11.1925</ele>
        <time>2014-05-12T18:41:09Z</time>
      </trkpt>
      <trkpt lat="59.8364574" lon="17.6531289">
        <ele>10.2312</ele>
        <time>2014-05-12T18:41:10Z</time>
      </trkpt>
      <trkpt lat="59.8364311" lon="17.6531129">
        <ele>10.2312</ele>
        <time>2014-05-12T18:41:11Z</time>
      </trkpt>
      <trkpt lat="59.8364056" lon="17.6530982">
        <ele>10.2312</ele>
        <time>2014-05-12T18:41:12Z</time>
      </trkpt>
      <trkpt lat="59.8363776" lon="17.6530845">
        <ele>10.2312</ele>
        <time>2014-05-12T18:41:13Z</time>
      </trkpt>
      <trkpt lat="59.8363472" lon="17.6530586">
        <ele>9.2699</ele>
        <time>2014-05-12T18:41:14Z</time>
      </trkpt>
      <trkpt lat="59.8363169" lon="17.6530347">
        <ele>9.2699</ele>
        <time>2014-05-12T18:41:15Z</time>
      </trkpt>
      <trkpt lat="59.836289" lon="17.6530088">
        <ele>8.30859</ele>
        <time>2014-05-12T18:41:16Z</time>
      </trkpt>
      <trkpt lat="59.8362621" lon="17.6529863">
        <ele>8.30859</ele>
        <time>2014-05-12T18:41:17Z</time>
      </trkpt>
      <trkpt lat="59.8362326" lon="17.6529697">
        <ele>7.82788</ele>
        <time>2014-05-12T18:41:18Z</time>
      </trkpt>
      <trkpt lat="59.8362041" lon="17.6529519">
        <ele>6.86646</ele>
        <time>2014-05-12T18:41:19Z</time>
      </trkpt>
      <trkpt lat="59.8361804" lon="17.6529371">
        <ele>7.34717</ele>
        <time>2014-05-12T18:41:20Z</time>
      </trkpt>
      <trkpt lat="59.8361595" lon="17.652919">
        <ele>6.86646</ele>
        <time>2014-05-12T18:41:21Z</time>
      </trkpt>
      <trkpt lat="59.8361373" lon="17.6529004">
        <ele>6.38586</ele>
        <time>2014-05-12T18:41:22Z</time>
      </trkpt>
      <trkpt lat="59.8361118" lon="17.6528868">
        <ele>6.38586</ele>
        <time>2014-05-12T18:41:23Z</time>
      </trkpt>
      <trkpt lat="59.836092" lon="17.6528736">
        <ele>6.38586</ele>
        <time>2014-05-12T18:41:24Z</time>
      </trkpt>
      <trkpt lat="59.8360729" lon="17.6528621">
        <ele>6.38586</ele>
        <time>2014-05-12T18:41:25Z</time>
      </trkpt>
      <trkpt lat="59.8360511" lon="17.6528393">
        <ele>6.86646</ele>
        <time>2014-05-12T18:41:26Z</time>
      </trkpt>
      <trkpt lat="59.8360288" lon="17.6528093">
        <ele>5.90527</ele>
        <time>2014-05-12T18:41:27Z</time>
      </trkpt>
      <trkpt lat="59.8360078" lon="17.6527819">
        <ele>5.90527</ele>
        <time>2014-05-12T18:41:28Z</time>
      </trkpt>
      <trkpt lat="59.8359848" lon="17.6527529">
        <ele>5.42456</ele>
        <time>2014-05-12T18:41:29Z</time>
      </trkpt>
      <trkpt lat="59.8359582" lon="17.6527217">
        <ele>4.94385</ele>
        <time>2014-05-12T18:41:30Z</time>
      </trkpt>
      <trkpt lat="59.8359314" lon="17.6526939">
        <ele>4.46326</ele>
        <time>2014-05-12T18:41:31Z</time>
      </trkpt>
      <trkpt lat="59.8359057" lon="17.65267">
        <ele>3.98267</ele>
        <time>2014-05-12T18:41:32Z</time>
      </trkpt>
      <trkpt lat="59.8358809" lon="17.6526519">
        <ele>3.98267</ele>
        <time>2014-05-12T18:41:33Z</time>
      </trkpt>
      <trkpt lat="59.8358612" lon="17.6526316">
        <ele>4.46326</ele>
        <time>2014-05-12T18:41:34Z</time>
      </trkpt>
      <trkpt lat="59.8358425" lon="17.6526126">
        <ele>4.94385</ele>
        <time>2014-05-12T18:41:35Z</time>
      </trkpt>
      <trkpt lat="59.8358165" lon="17.652601">
        <ele>4.94385</ele>
        <time>2014-05-12T18:41:36Z</time>
      </trkpt>
      <trkpt lat="59.8357871" lon="17.6525874">
        <ele>4.46326</ele>
        <time>2014-05-12T18:41:37Z</time>
      </trkpt>
      <trkpt lat="59.8357596" lon="17.6525819">
        <ele>4.46326</ele>
        <time>2014-05-12T18:41:38Z</time>
      </trkpt>
      <trkpt lat="59.8357273" lon="17.6525867">
        <ele>3.98267</ele>
        <time>2014-05-12T18:41:39Z</time>
      </trkpt>
      <trkpt lat="59.8357032" lon="17.6525976">
        <ele>4.46326</ele>
        <time>2014-05-12T18:41:40Z</time>
      </trkpt>
      <trkpt lat="59.8356805" lon="17.6526036">
        <ele>3.98267</ele>
        <time>2014-05-12T18:41:41Z</time>
      </trkpt>
      <trkpt lat="59.8356533" lon="17.6526046">
        <ele>3.98267</ele>
        <time>2014-05-12T18:41:42Z</time>
      </trkpt>
      <trkpt lat="59.8356302" lon="17.6525999">
        <ele>3.98267</ele>
        <time>2014-05-12T18:41:43Z</time>
      </trkpt>
      <trkpt lat="59.8356037" lon="17.6525996">
        <ele>3.98267</ele>
        <time>2014-05-12T18:41:44Z</time>
      </trkpt>
      <trkpt lat="59.8355769" lon="17.6526016">
        <ele>4.46326</ele>
        <time>2014-05-12T18:41:45Z</time>
      </trkpt>
      <trkpt lat="59.8355644" lon="17.6526087">
        <ele>4.94385</ele>
        <time>2014-05-12T18:41:46Z</time>
      </trkpt>
      <trkpt lat="59.8355448" lon="17.6526172">
        <ele>5.42456</ele>
        <time>2014-05-12T18:41:47Z</time>
      </trkpt>
      <trkpt lat="59.8355156" lon="17.6526249">
        <ele>5.90527</ele>
        <time>2014-05-12T18:41:48Z</time>
      </trkpt>
      <trkpt lat="59.8354939" lon="17.6526359">
        <ele>6.38586</ele>
        <time>2014-05-12T18:41:49Z</time>
      </trkpt>
      <trkpt lat="59.8354766" lon="17.6526498">
        <ele>6.86646</ele>
        <time>2014-05-12T18:41:50Z</time>
      </trkpt>
      <trkpt lat="59.8354551" lon="17.6526691">
        <ele>6.86646</ele>
        <time>2014-05-12T18:41:51Z</time>
      </trkpt>
      <trkpt lat="59.8354305" lon="17.6526921">
        <ele>7.34717</ele>
        <time>2014-05-12T18:41:52Z</time>
      </trkpt>
      <trkpt lat="59.8354029" lon="17.6527083">
        <ele>7.82788</ele>
        <time>2014-05-12T18:41:53Z</time>
      </trkpt>
      <trkpt lat="59.8353816" lon="17.6527125">
        <ele>7.82788</ele>
        <time>2014-05-12T18:41:54Z</time>
      </trkpt>
      <trkpt lat="59.8353567" lon="17.6527258">
        <ele>8.30859</ele>
        <time>2014-05-12T18:41:55Z</time>
      </trkpt>
      <trkpt lat="59.835325" lon="17.6527389">
        <ele>8.78918</ele>
        <time>2014-05-12T18:41:56Z</time>
      </trkpt>
      <trkpt lat="59.8352967" lon="17.6527472">
        <ele>9.2699</ele>
        <time>2014-05-12T18:41:57Z</time>
      </trkpt>
      <trkpt lat="59.8352762" lon="17.6527491">
        <ele>9.2699</ele>
        <time>2014-05-12T18:41:58Z</time>
      </trkpt>
      <trkpt lat="59.8352499" lon="17.6527494">
        <ele>9.75061</ele>
        <time>2014-05-12T18:41:59Z</time>
      </trkpt>
      <trkpt lat="59.8352247" lon="17.652758">
        <ele>10.2312</ele>
        <time>2014-05-12T18:42:00Z</time>
      </trkpt>
      <trkpt lat="59.8351992" lon="17.6527656">
        <ele>9.75061</ele>
        <time>2014-05-12T18:42:01Z</time>
      </trkpt>
      <trkpt lat="59.8351703" lon="17.6527716">
        <ele>9.75061</ele>
        <time>2014-05-12T18:42:02Z</time>
      </trkpt>
      <trkpt lat="59.8351444" lon="17.6527829">
        <ele>10.2312</ele>
        <time>2014-05-12T18:42:03Z</time>
      </trkpt>
      <trkpt lat="59.8351199" lon="17.6527897">
        <ele>10.2312</ele>
        <time>2014-05-12T18:42:04Z</time>
      </trkpt>
      <trkpt lat="59.8350952" lon="17.6527964">
        <ele>10.7118</ele>
        <time>2014-05-12T18:42:05Z</time>
      </trkpt>
      <trkpt lat="59.8350713" lon="17.6528007">
        <ele>10.7118</ele>
        <time>2014-05-12T18:42:06Z</time>
      </trkpt>
      <trkpt lat="59.8350453" lon="17.6528047">
        <ele>10.7118</ele>
        <time>2014-05-12T18:42:07Z</time>
      </trkpt>
      <trkpt lat="59.8350168" lon="17.6528202">
        <ele>11.1925</ele>
        <time>2014-05-12T18:42:08Z</time>
      </trkpt>
      <trkpt lat="59.8349848" lon="17.652829">
        <ele>11.1925</ele>
        <time>2014-05-12T18:42:09Z</time>
      </trkpt>
      <trkpt lat="59.8349516" lon="17.6528342">
        <ele>11.1925</ele>
        <time>2014-05-12T18:42:10Z</time>
      </trkpt>
      <trkpt lat="59.8349245" lon="17.6528363">
        <ele>11.1925</ele>
        <time>2014-05-12T18:42:11Z</time>
      </trkpt>
      <trkpt lat="59.8348936" lon="17.6528451">
        <ele>11.1925</ele>
        <time>2014-05-12T18:42:12Z</time>
      </trkpt>
      <trkpt lat="59.8348629" lon="17.6528545">
        <ele>11.6732</ele>
        <time>2014-05-12T18:42:13Z</time>
      </trkpt>
      <trkpt lat="59.8348371" lon="17.6528609">
        <ele>11.1925</ele>
        <time>2014-05-12T18:42:14Z</time>
      </trkpt>
      <trkpt lat="59.8348153" lon="17.6528721">
        <ele>11.6732</ele>
        <time>2014-05-12T18:42:15Z</time>
      </trkpt>
      <trkpt lat="59.8347926" lon="17.6528736">
        <ele>11.6732</ele>
        <time>2014-05-12T18:42:16Z</time>
      </trkpt>
      <trkpt lat="59.8347698" lon="17.6528719">
        <ele>11.6732</ele>
        <time>2014-05-12T18:42:17Z</time>
      </trkpt>
      <trkpt lat="59.8347512" lon="17.6528784">
        <ele>12.1538</ele>
        <time>2014-05-12T18:42:18Z</time>
      </trkpt>
      <trkpt lat="59.8347266" lon="17.6528839">
        <ele>12.1538</ele>
        <time>2014-05-12T18:42:19Z</time>
      </trkpt>
      <trkpt lat="59.8346998" lon="17.6528887">
        <ele>13.1151</ele>
        <time>2014-05-12T18:42:20Z</time>
      </trkpt>
      <trkpt lat="59.8346699" lon="17.6528964">
        <ele>13.5958</ele>
        <time>2014-05-12T18:42:21Z</time>
      </trkpt>
      <trkpt lat="59.8346419" lon="17.6529029">
        <ele>14.0764</ele>
        <time>2014-05-12T18:42:22Z</time>
      </trkpt>
      <trkpt lat="59.8346142" lon="17.6529134">
        <ele>15.5184</ele>
        <time>2014-05-12T18:42:23Z</time>
      </trkpt>
      <trkpt lat="59.834596" lon="17.6529113">
        <ele>15.999</ele>
        <time>2014-05-12T18:42:24Z</time>
      </trkpt>
      <trkpt lat="59.8345821" lon="17.6529149">
        <ele>16.9604</ele>
        <time>2014-05-12T18:42:25Z</time>
      </trkpt>
      <trkpt lat="59.8345637" lon="17.6529134">
        <ele>17.4412</ele>
        <time>2014-05-12T18:42:26Z</time>
      </trkpt>
      <trkpt lat="59.8345413" lon="17.6529082">
        <ele>17.9218</ele>
        <time>2014-05-12T18:42:27Z</time>
      </trkpt>
      <trkpt lat="59.8345143" lon="17.6529145">
        <ele>18.4023</ele>
        <time>2014-05-12T18:42:28Z</time>
      </trkpt>
      <trkpt lat="59.8344891" lon="17.652917">
        <ele>18.4023</ele>
        <time>2014-05-12T18:42:29Z</time>
      </trkpt>
      <trkpt lat="59.8344573" lon="17.6529338">
        <ele>18.8831</ele>
        <time>2014-05-12T18:42:30Z</time>
      </trkpt>
      <trkpt lat="59.8344349" lon="17.6529353">
        <ele>19.3638</ele>
        <time>2014-05-12T18:42:31Z</time>
      </trkpt>
      <trkpt lat="59.8344092" lon="17.6529369">
        <ele>19.3638</ele>
        <time>2014-05-12T18:42:32Z</time>
      </trkpt>
      <trkpt lat="59.8343862" lon="17.6529444">
        <ele>20.325</ele>
        <time>2014-05-12T18:42:33Z</time>
      </trkpt>
      <trkpt lat="59.8343657" lon="17.6529481">
        <ele>20.8057</ele>
        <time>2014-05-12T18:42:34Z</time>
      </trkpt>
      <trkpt lat="59.834338" lon="17.6529487">
        <ele>20.8057</ele>
        <time>2014-05-12T18:42:35Z</time>
      </trkpt>
      <trkpt lat="59.8343088" lon="17.6529409">
        <ele>20.8057</ele>
        <time>2014-05-12T18:42:36Z</time>
      </trkpt>
      <trkpt lat="59.8342826" lon="17.6529326">
        <ele>20.8057</ele>
        <time>2014-05-12T18:42:37Z</time>
      </trkpt>
      <trkpt lat="59.8342617" lon="17.6529285">
        <ele>21.2864</ele>
        <time>2014-05-12T18:42:38Z</time>
      </trkpt>
      <trkpt lat="59.8342402" lon="17.6529296">
        <ele>21.2864</ele>
        <time>2014-05-12T18:42:39Z</time>
      </trkpt>
      <trkpt lat="59.8342111" lon="17.6529289">
        <ele>21.2864</ele>
        <time>2014-05-12T18:42:40Z</time>
      </trkpt>
      <trkpt lat="59.8341787" lon="17.6529207">
        <ele>21.2864</ele>
        <time>2014-05-12T18:42:41Z</time>
      </trkpt>
      <trkpt lat="59.8341539" lon="17.6528998">
        <ele>20.8057</ele>
        <time>2014-05-12T18:42:42Z</time>
      </trkpt>
      <trkpt lat="59.8341263" lon="17.652887">
        <ele>20.8057</ele>
        <time>2014-05-12T18:42:43Z</time>
      </trkpt>
      <trkpt lat="59.8341018" lon="17.652871">
        <ele>20.8057</ele>
        <time>2014-05-12T18:42:44Z</time>
      </trkpt>
      <trkpt lat="59.8340773" lon="17.6528514">
        <ele>20.325</ele>
        <time>2014-05-12T18:42:45Z</time>
      </trkpt>
      <trkpt lat="59.8340534" lon="17.65283">
        <ele>20.8057</ele>
        <time>2014-05-12T18:42:46Z</time>
      </trkpt>
      <trkpt lat="59.8340304" lon="17.6528119">
        <ele>20.325</ele>
        <time>2014-05-12T18:42:47Z</time>
      </trkpt>
      <trkpt lat="59.834011" lon="17.6528024">
        <ele>20.8057</ele>
        <time>2014-05-12T18:42:48Z</time>
      </trkpt>
      <trkpt lat="59.833991" lon="17.6527889">
        <ele>20.8057</ele>
        <time>2014-05-12T18:42:49Z</time>
      </trkpt>
      <trkpt lat="59.8339695" lon="17.6527734">
        <ele>21.2864</ele>
        <time>2014-05-12T18:42:50Z</time>
      </trkpt>
      <trkpt lat="59.8339446" lon="17.6527608">
        <ele>21.2864</ele>
        <time>2014-05-12T18:42:51Z</time>
      </trkpt>
      <trkpt lat="59.8339186" lon="17.6527523">
        <ele>20.8057</ele>
        <time>2014-05-12T18:42:52Z</time>
      </trkpt>
      <trkpt lat="59.8338952" lon="17.652746">
        <ele>19.8444</ele>
        <time>2014-05-12T18:42:53Z</time>
      </trkpt>
      <trkpt lat="59.833876" lon="17.652738">
        <ele>20.8057</ele>
        <time>2014-05-12T18:42:54Z</time>
      </trkpt>
      <trkpt lat="59.8338599" lon="17.6527239">
        <ele>21.2864</ele>
        <time>2014-05-12T18:42:55Z</time>
      </trkpt>
      <trkpt lat="59.8338482" lon="17.6527105">
        <ele>21.767</ele>
        <time>2014-05-12T18:42:56Z</time>
      </trkpt>
      <trkpt lat="59.8338337" lon="17.6527047">
        <ele>22.2476</ele>
        <time>2014-05-12T18:42:57Z</time>
      </trkpt>
      <trkpt lat="59.8338169" lon="17.6527009">
        <ele>23.209</ele>
        <time>2014-05-12T18:42:58Z</time>
      </trkpt>
      <trkpt lat="59.8337881" lon="17.6527193">
        <ele>23.6896</ele>
        <time>2014-05-12T18:42:59Z</time>
      </trkpt>
      <trkpt lat="59.833757" lon="17.6527351">
        <ele>23.6896</ele>
        <time>2014-05-12T18:43:00Z</time>
      </trkpt>
      <trkpt lat="59.8337265" lon="17.6527411">
        <ele>24.1703</ele>
        <time>2014-05-12T18:43:01Z</time>
      </trkpt>
      <trkpt lat="59.8336994" lon="17.6527382">
        <ele>24.1703</ele>
        <time>2014-05-12T18:43:02Z</time>
      </trkpt>
      <trkpt lat="59.8336642" lon="17.6527444">
        <ele>24.651</ele>
        <time>2014-05-12T18:43:03Z</time>
      </trkpt>
      <trkpt lat="59.833642" lon="17.6527497">
        <ele>25.1317</ele>
        <time>2014-05-12T18:43:04Z</time>
      </trkpt>
      <trkpt lat="59.8336151" lon="17.652753">
        <ele>25.6123</ele>
        <time>2014-05-12T18:43:05Z</time>
      </trkpt>
      <trkpt lat="59.8335862" lon="17.6527691">
        <ele>26.0929</ele>
        <time>2014-05-12T18:43:06Z</time>
      </trkpt>
      <trkpt lat="59.8335685" lon="17.6527714">
        <ele>26.5736</ele>
        <time>2014-05-12T18:43:07Z</time>
      </trkpt>
      <trkpt lat="59.833542" lon="17.652786">
        <ele>27.5349</ele>
        <time>2014-05-12T18:43:08Z</time>
      </trkpt>
      <trkpt lat="59.8335173" lon="17.652796">
        <ele>28.0155</ele>
        <time>2014-05-12T18:43:09Z</time>
      </trkpt>
      <trkpt lat="59.8335011" lon="17.6527975">
        <ele>28.9769</ele>
        <time>2014-05-12T18:43:10Z</time>
      </trkpt>
      <trkpt lat="59.8334836" lon="17.6527975">
        <ele>29.4575</ele>
        <time>2014-05-12T18:43:11Z</time>
      </trkpt>
      <trkpt lat="59.8334659" lon="17.6527907">
        <ele>29.4575</ele>
        <time>2014-05-12T18:43:12Z</time>
      </trkpt>
      <trkpt lat="59.8334432" lon="17.6527773">
        <ele>29.4575</ele>
        <time>2014-05-12T18:43:13Z</time>
      </trkpt>
      <trkpt lat="59.8334188" lon="17.6527527">
        <ele>30.8995</ele>
        <time>2014-05-12T18:43:14Z</time>
      </trkpt>
      <trkpt lat="59.8333997" lon="17.6527375">
        <ele>30.4188</ele>
        <time>2014-05-12T18:43:15Z</time>
      </trkpt>
      <trkpt lat="59.8333753" lon="17.6527513">
        <ele>29.9381</ele>
        <time>2014-05-12T18:43:16Z</time>
      </trkpt>
      <trkpt lat="59.8333519" lon="17.6527757">
        <ele>29.4575</ele>
        <time>2014-05-12T18:43:17Z</time>
      </trkpt>
      <trkpt lat="59.8333326" lon="17.6527978">
        <ele>29.4575</ele>
        <time>2014-05-12T18:43:18Z</time>
      </trkpt>
      <trkpt lat="59.8333095" lon="17.6528152">
        <ele>29.4575</ele>
        <time>2014-05-12T18:43:19Z</time>
      </trkpt>
      <trkpt lat="59.833281" lon="17.6528289">
        <ele>28.9769</ele>
        <time>2014-05-12T18:43:20Z</time>
      </trkpt>
      <trkpt lat="59.833244" lon="17.6528377">
        <ele>28.0155</ele>
        <time>2014-05-12T18:43:21Z</time>
      </trkpt>
      <trkpt lat="59.8332103" lon="17.6528518">
        <ele>27.5349</ele>
        <time>2014-05-12T18:43:22Z</time>
      </trkpt>
      <trkpt lat="59.8331822" lon="17.6528708">
        <ele>27.5349</ele>
        <time>2014-05-12T18:43:23Z</time>
      </trkpt>
      <trkpt lat="59.8331598" lon="17.6528815">
        <ele>27.0543</ele>
        <time>2014-05-12T18:43:24Z</time>
      </trkpt>
      <trkpt lat="59.8331323" lon="17.6528964">
        <ele>27.0543</ele>
        <time>2014-05-12T18:43:25Z</time>
      </trkpt>
      <trkpt lat="59.8331027" lon="17.652904">
        <ele>28.0155</ele>
        <time>2014-05-12T18:43:26Z</time>
      </trkpt>
      <trkpt lat="59.8330723" lon="17.6529062">
        <ele>28.4962</ele>
        <time>2014-05-12T18:43:27Z</time>
      </trkpt>
      <trkpt lat="59.8330474" lon="17.6529127">
        <ele>28.4962</ele>
        <time>2014-05-12T18:43:28Z</time>
      </trkpt>
      <trkpt lat="59.8330295" lon="17.6529229">
        <ele>28.9769</ele>
        <time>2014-05-12T18:43:29Z</time>
      </trkpt>
      <trkpt lat="59.8330023" lon="17.6529516">
        <ele>28.9769</ele>
        <time>2014-05-12T18:43:30Z</time>
      </trkpt>
      <trkpt lat="59.8329801" lon="17.6529673">
        <ele>28.9769</ele>
        <time>2014-05-12T18:43:31Z</time>
      </trkpt>
      <trkpt lat="59.8329548" lon="17.6529798">
        <ele>28.4962</ele>
        <time>2014-05-12T18:43:32Z</time>
      </trkpt>
      <trkpt lat="59.8329387" lon="17.6529844">
        <ele>28.0155</ele>
        <time>2014-05-12T18:43:33Z</time>
      </trkpt>
      <trkpt lat="59.8329111" lon="17.6529882">
        <ele>27.5349</ele>
        <time>2014-05-12T18:43:34Z</time>
      </trkpt>
      <trkpt lat="59.8328804" lon="17.652998">
        <ele>27.5349</ele>
        <time>2014-05-12T18:43:35Z</time>
      </trkpt>
      <trkpt lat="59.8328565" lon="17.6530063">
        <ele>28.0155</ele>
        <time>2014-05-12T18:43:36Z</time>
      </trkpt>
      <trkpt lat="59.8328335" lon="17.6530154">
        <ele>28.4962</ele>
        <time>2014-05-12T18:43:37Z</time>
      </trkpt>
      <trkpt lat="59.8328175" lon="17.6530193">
        <ele>28.4962</ele>
        <time>2014-05-12T18:43:38Z</time>
      </trkpt>
      <trkpt lat="59.8327973" lon="17.6530268">
        <ele>28.0155</ele>
        <time>2014-05-12T18:43:39Z</time>
      </trkpt>
      <trkpt lat="59.8327619" lon="17.6530599">
        <ele>28.4962</ele>
        <time>2014-05-12T18:43:40Z</time>
      </trkpt>
      <trkpt lat="59.832721" lon="17.6530963">
        <ele>28.9769</ele>
        <time>2014-05-12T18:43:41Z</time>
      </trkpt>
      <trkpt lat="59.8326909" lon="17.6531165">
        <ele>28.4962</ele>
        <time>2014-05-12T18:43:42Z</time>
      </trkpt>
      <trkpt lat="59.83266" lon="17.6531512">
        <ele>28.0155</ele>
        <time>2014-05-12T18:43:43Z</time>
      </trkpt>
      <trkpt lat="59.8326299" lon="17.6531826">
        <ele>28.0155</ele>
        <time>2014-05-12T18:43:44Z</time>
      </trkpt>
      <trkpt lat="59.8325978" lon="17.6532072">
        <ele>27.5349</ele>
        <time>2014-05-12T18:43:45Z</time>
      </trkpt>
      <trkpt lat="59.8325671" lon="17.6532275">
        <ele>27.5349</ele>
        <time>2014-05-12T18:43:46Z</time>
      </trkpt>
      <trkpt lat="59.8325283" lon="17.6532573">
        <ele>27.5349</ele>
        <time>2014-05-12T18:43:47Z</time>
      </trkpt>
      <trkpt lat="59.8324967" lon="17.6532798">
        <ele>28.0155</ele>
        <time>2014-05-12T18:43:48Z</time>
      </trkpt>
      <trkpt lat="59.832464" lon="17.6533147">
        <ele>28.4962</ele>
        <time>2014-05-12T18:43:49Z</time>
      </trkpt>
      <trkpt lat="59.8324396" lon="17.6533362">
        <ele>28.4962</ele>
        <time>2014-05-12T18:43:50Z</time>
      </trkpt>
      <trkpt lat="59.8324164" lon="17.6533528">
        <ele>28.9769</ele>
        <time>2014-05-12T18:43:51Z</time>
      </trkpt>
      <trkpt lat="59.8323945" lon="17.6533748">
        <ele>28.9769</ele>
        <time>2014-05-12T18:43:52Z</time>
      </trkpt>
      <trkpt lat="59.8323753" lon="17.653393">
        <ele>28.9769</ele>
        <time>2014-05-12T18:43:53Z</time>
      </trkpt>
      <trkpt lat="59.8323562" lon="17.653416">
        <ele>28.4962</ele>
        <time>2014-05-12T18:43:54Z</time>
      </trkpt>
      <trkpt lat="59.8323424" lon="17.6534325">
        <ele>28.0155</ele>
        <time>2014-05-12T18:43:55Z</time>
      </trkpt>
      <trkpt lat="59.8323186" lon="17.6534604">
        <ele>28.0155</ele>
        <time>2014-05-12T18:43:56Z</time>
      </trkpt>
      <trkpt lat="59.8322907" lon="17.6534903">
        <ele>27.5349</ele>
        <time>2014-05-12T18:43:57Z</time>
      </trkpt>
      <trkpt lat="59.8322673" lon="17.6535103">
        <ele>27.0543</ele>
        <time>2014-05-12T18:43:58Z</time>
      </trkpt>
      <trkpt lat="59.8322415" lon="17.6535373">
        <ele>26.5736</ele>
        <time>2014-05-12T18:43:59Z</time>
      </trkpt>
      <trkpt lat="59.8322139" lon="17.6535718">
        <ele>26.5736</ele>
        <time>2014-05-12T18:44:00Z</time>
      </trkpt>
      <trkpt lat="59.8321881" lon="17.6536009">
        <ele>26.5736</ele>
        <time>2014-05-12T18:44:01Z</time>
      </trkpt>
      <trkpt lat="59.8321679" lon="17.6536241">
        <ele>26.0929</ele>
        <time>2014-05-12T18:44:02Z</time>
      </trkpt>
      <trkpt lat="59.8321471" lon="17.6536431">
        <ele>26.0929</ele>
        <time>2014-05-12T18:44:03Z</time>
      </trkpt>
      <trkpt lat="59.8321222" lon="17.6536635">
        <ele>25.6123</ele>
        <time>2014-05-12T18:44:04Z</time>
      </trkpt>
      <trkpt lat="59.8320982" lon="17.6536858">
        <ele>25.6123</ele>
        <time>2014-05-12T18:44:05Z</time>
      </trkpt>
      <trkpt lat="59.832073" lon="17.6537019">
        <ele>25.1317</ele>
        <time>2014-05-12T18:44:06Z</time>
      </trkpt>
      <trkpt lat="59.8320427" lon="17.6537185">
        <ele>24.1703</ele>
        <time>2014-05-12T18:44:07Z</time>
      </trkpt>
      <trkpt lat="59.8320196" lon="17.6537361">
        <ele>24.651</ele>
        <time>2014-05-12T18:44:08Z</time>
      </trkpt>
      <trkpt lat="59.831998" lon="17.6537522">
        <ele>24.1703</ele>
        <time>2014-05-12T18:44:09Z</time>
      </trkpt>
      <trkpt lat="59.8319725" lon="17.6537677">
        <ele>23.6896</ele>
        <time>2014-05-12T18:44:10Z</time>
      </trkpt>
      <trkpt lat="59.8319481" lon="17.6537875">
        <ele>23.6896</ele>
        <time>2014-05-12T18:44:11Z</time>
      </trkpt>
      <trkpt lat="59.8319197" lon="17.6538113">
        <ele>24.1703</ele>
        <time>2014-05-12T18:44:12Z</time>
      </trkpt>
      <trkpt lat="59.8318931" lon="17.6538294">
        <ele>23.209</ele>
        <time>2014-05-12T18:44:13Z</time>
      </trkpt>
      <trkpt lat="59.8318741" lon="17.6538615">
        <ele>23.209</ele>
        <time>2014-05-12T18:44:14Z</time>
      </trkpt>
      <trkpt lat="59.8318528" lon="17.6538873">
        <ele>23.209</ele>
        <time>2014-05-12T18:44:15Z</time>
      </trkpt>
      <trkpt lat="59.8318304" lon="17.6539028">
        <ele>22.7283</ele>
        <time>2014-05-12T18:44:16Z</time>
      </trkpt>
      <trkpt lat="59.8318026" lon="17.6539204">
        <ele>22.2476</ele>
        <time>2014-05-12T18:44:17Z</time>
      </trkpt>
      <trkpt lat="59.8317801" lon="17.653935">
        <ele>22.2476</ele>
        <time>2014-05-12T18:44:18Z</time>
      </trkpt>
      <trkpt lat="59.8317643" lon="17.6539422">
        <ele>20.8057</ele>
        <time>2014-05-12T18:44:19Z</time>
      </trkpt>
      <trkpt lat="59.8317348" lon="17.6539589">
        <ele>20.8057</ele>
        <time>2014-05-12T18:44:20Z</time>
      </trkpt>
      <trkpt lat="59.831713" lon="17.6539767">
        <ele>20.325</ele>
        <time>2014-05-12T18:44:21Z</time>
      </trkpt>
      <trkpt lat="59.8316855" lon="17.6540004">
        <ele>20.325</ele>
        <time>2014-05-12T18:44:22Z</time>
      </trkpt>
      <trkpt lat="59.8316658" lon="17.6540263">
        <ele>19.8444</ele>
        <time>2014-05-12T18:44:23Z</time>
      </trkpt>
      <trkpt lat="59.8316399" lon="17.6540553">
        <ele>19.3638</ele>
        <time>2014-05-12T18:44:24Z</time>
      </trkpt>
      <trkpt lat="59.831614" lon="17.6540826">
        <ele>19.3638</ele>
        <time>2014-05-12T18:44:25Z</time>
      </trkpt>
      <trkpt lat="59.8316021" lon="17.654098">
        <ele>19.3638</ele>
        <time>2014-05-12T18:44:26Z</time>
      </trkpt>
      <trkpt lat="59.8315941" lon="17.6541137">
        <ele>18.8831</ele>
        <time>2014-05-12T18:44:27Z</time>
      </trkpt>
      <trkpt lat="59.8315743" lon="17.6541518">
        <ele>18.4023</ele>
        <time>2014-05-12T18:44:28Z</time>
      </trkpt>
      <trkpt lat="59.8315539" lon="17.6541898">
        <ele>18.4023</ele>
        <time>2014-05-12T18:44:29Z</time>
      </trkpt>
      <trkpt lat="59.8315458" lon="17.6542208">
        <ele>17.9218</ele>
        <time>2014-05-12T18:44:30Z</time>
      </trkpt>
      <trkpt lat="59.8315436" lon="17.6542645">
        <ele>17.4412</ele>
        <time>2014-05-12T18:44:31Z</time>
      </trkpt>
      <trkpt lat="59.8315394" lon="17.654308">
        <ele>16.9604</ele>
        <time>2014-05-12T18:44:32Z</time>
      </trkpt>
      <trkpt lat="59.831528" lon="17.6543546">
        <ele>15.999</ele>
        <time>2014-05-12T18:44:33Z</time>
      </trkpt>
      <trkpt lat="59.8315166" lon="17.6544065">
        <ele>15.5184</ele>
        <time>2014-05-12T18:44:34Z</time>
      </trkpt>
      <trkpt lat="59.8315009" lon="17.654459">
        <ele>14.557</ele>
        <time>2014-05-12T18:44:35Z</time>
      </trkpt>
      <trkpt lat="59.8314869" lon="17.6545127">
        <ele>14.557</ele>
        <time>2014-05-12T18:44:36Z</time>
      </trkpt>
      <trkpt lat="59.8314726" lon="17.654553">
        <ele>13.5958</ele>
        <time>2014-05-12T18:44:37Z</time>
      </trkpt>
      <trkpt lat="59.8314555" lon="17.6545923">
        <ele>13.1151</ele>
        <time>2014-05-12T18:44:38Z</time>
      </trkpt>
      <trkpt lat="59.8314436" lon="17.6546292">
        <ele>12.6344</ele>
        <time>2014-05-12T18:44:39Z</time>
      </trkpt>
      <trkpt lat="59.8314352" lon="17.654667">
        <ele>12.1538</ele>
        <time>2014-05-12T18:44:40Z</time>
      </trkpt>
      <trkpt lat="59.8314259" lon="17.6547124">
        <ele>11.6732</ele>
        <time>2014-05-12T18:44:41Z</time>
      </trkpt>
      <trkpt lat="59.8314162" lon="17.6547615">
        <ele>11.6732</ele>
        <time>2014-05-12T18:44:42Z</time>
      </trkpt>
      <trkpt lat="59.831409" lon="17.6548009">
        <ele>12.1538</ele>
        <time>2014-05-12T18:44:43Z</time>
      </trkpt>
      <trkpt lat="59.8313995" lon="17.6548354">
        <ele>12.1538</ele>
        <time>2014-05-12T18:44:44Z</time>
      </trkpt>
      <trkpt lat="59.8313945" lon="17.6548829">
        <ele>12.1538</ele>
        <time>2014-05-12T18:44:45Z</time>
      </trkpt>
      <trkpt lat="59.8313866" lon="17.6549342">
        <ele>12.6344</ele>
        <time>2014-05-12T18:44:46Z</time>
      </trkpt>
      <trkpt lat="59.831379" lon="17.6549957">
        <ele>13.1151</ele>
        <time>2014-05-12T18:44:47Z</time>
      </trkpt>
      <trkpt lat="59.8313768" lon="17.6550558">
        <ele>13.1151</ele>
        <time>2014-05-12T18:44:48Z</time>
      </trkpt>
      <trkpt lat="59.8313819" lon="17.6551113">
        <ele>12.6344</ele>
        <time>2014-05-12T18:44:49Z</time>
      </trkpt>
      <trkpt lat="59.8313978" lon="17.6551678">
        <ele>13.1151</ele>
        <time>2014-05-12T18:44:50Z</time>
      </trkpt>
      <trkpt lat="59.8314177" lon="17.6552258">
        <ele>13.5958</ele>
        <time>2014-05-12T18:44:51Z</time>
      </trkpt>
      <trkpt lat="59.8314363" lon="17.6552764">
        <ele>14.0764</ele>
        <time>2014-05-12T18:44:52Z</time>
      </trkpt>
      <trkpt lat="59.8314476" lon="17.655331">
        <ele>14.557</ele>
        <time>2014-05-12T18:44:53Z</time>
      </trkpt>
      <trkpt lat="59.8314572" lon="17.6553859">
        <ele>14.0764</ele>
        <time>2014-05-12T18:44:54Z</time>
      </trkpt>
      <trkpt lat="59.83147" lon="17.6554375">
        <ele>15.0377</ele>
        <time>2014-05-12T18:44:55Z</time>
      </trkpt>
      <trkpt lat="59.8314794" lon="17.6554926">
        <ele>15.5184</ele>
        <time>2014-05-12T18:44:56Z</time>
      </trkpt>
      <trkpt lat="59.8314882" lon="17.6555479">
        <ele>16.9604</ele>
        <time>2014-05-12T18:44:57Z</time>
      </trkpt>
      <trkpt lat="59.8314991" lon="17.6555982">
        <ele>17.9218</ele>
        <time>2014-05-12T18:44:58Z</time>
      </trkpt>
      <trkpt lat="59.8315084" lon="17.6556525">
        <ele>19.8444</ele>
        <time>2014-05-12T18:44:59Z</time>
      </trkpt>
      <trkpt lat="59.8315147" lon="17.6557101">
        <ele>20.8057</ele>
        <time>2014-05-12T18:45:00Z</time>
      </trkpt>
      <trkpt lat="59.8315192" lon="17.6557522">
        <ele>20.325</ele>
        <time>2014-05-12T18:45:01Z</time>
      </trkpt>
      <trkpt lat="59.8315218" lon="17.6557951">
        <ele>19.3638</ele>
        <time>2014-05-12T18:45:02Z</time>
      </trkpt>
      <trkpt lat="59.831528" lon="17.6558409">
        <ele>19.3638</ele>
        <time>2014-05-12T18:45:03Z</time>
      </trkpt>
      <trkpt lat="59.8315295" lon="17.6558872">
        <ele>19.3638</ele>
        <time>2014-05-12T18:45:04Z</time>
      </trkpt>
      <trkpt lat="59.8315316" lon="17.655934">
        <ele>19.3638</ele>
        <time>2014-05-12T18:45:05Z</time>
      </trkpt>
      <trkpt lat="59.8315312" lon="17.6559792">
        <ele>19.8444</ele>
        <time>2014-05-12T18:45:06Z</time>
      </trkpt>
      <trkpt lat="59.8315291" lon="17.6560272">
        <ele>19.3638</ele>
        <time>2014-05-12T18:45:07Z</time>
      </trkpt>
      <trkpt lat="59.8315332" lon="17.6560795">
        <ele>20.325</ele>
        <time>2014-05-12T18:45:08Z</time>
      </trkpt>
      <trkpt lat="59.8315359" lon="17.6561276">
        <ele>20.8057</ele>
        <time>2014-05-12T18:45:09Z</time>
      </trkpt>
      <trkpt lat="59.8315359" lon="17.6561738">
        <ele>19.8444</ele>
        <time>2014-05-12T18:45:10Z</time>
      </trkpt>
      <trkpt lat="59.831544" lon="17.6562332">
        <ele>21.2864</ele>
        <time>2014-05-12T18:45:11Z</time>
      </trkpt>
      <trkpt lat="59.8315532" lon="17.6562923">
        <ele>22.2476</ele>
        <time>2014-05-12T18:45:12Z</time>
      </trkpt>
      <trkpt lat="59.8315598" lon="17.6563487">
        <ele>22.2476</ele>
        <time>2014-05-12T18:45:13Z</time>
      </trkpt>
      <trkpt lat="59.8315659" lon="17.6564036">
        <ele>22.7283</ele>
        <time>2014-05-12T18:45:14Z</time>
      </trkpt>
      <trkpt lat="59.8315734" lon="17.6564578">
        <ele>22.7283</ele>
        <time>2014-05-12T18:45:15Z</time>
      </trkpt>
      <trkpt lat="59.8315818" lon="17.6565209">
        <ele>24.651</ele>
        <time>2014-05-12T18:45:16Z</time>
      </trkpt>
      <trkpt lat="59.8315881" lon="17.6565887">
        <ele>26.5736</ele>
        <time>2014-05-12T18:45:17Z</time>
      </trkpt>
      <trkpt lat="59.8315965" lon="17.6566443">
        <ele>27.5349</ele>
        <time>2014-05-12T18:45:18Z</time>
      </trkpt>
      <trkpt lat="59.8316021" lon="17.6566892">
        <ele>28.0155</ele>
        <time>2014-05-12T18:45:19Z</time>
      </trkpt>
      <trkpt lat="59.8316141" lon="17.6567411">
        <ele>28.9769</ele>
        <time>2014-05-12T18:45:20Z</time>
      </trkpt>
      <trkpt lat="59.8316223" lon="17.6567934">
        <ele>29.4575</ele>
        <time>2014-05-12T18:45:21Z</time>
      </trkpt>
      <trkpt lat="59.8316337" lon="17.656843">
        <ele>29.9381</ele>
        <time>2014-05-12T18:45:22Z</time>
      </trkpt>
      <trkpt lat="59.831653" lon="17.6568922">
        <ele>29.9381</ele>
        <time>2014-05-12T18:45:23Z</time>
      </trkpt>
      <trkpt lat="59.831671" lon="17.6569295">
        <ele>28.9769</ele>
        <time>2014-05-12T18:45:24Z</time>
      </trkpt>
      <trkpt lat="59.8316849" lon="17.6569625">
        <ele>28.9769</ele>
        <time>2014-05-12T18:45:25Z</time>
      </trkpt>
      <trkpt lat="59.831698" lon="17.6569975">
        <ele>28.4962</ele>
        <time>2014-05-12T18:45:26Z</time>
      </trkpt>
      <trkpt lat="59.8317073" lon="17.6570207">
        <ele>26.5736</ele>
        <time>2014-05-12T18:45:27Z</time>
      </trkpt>
      <trkpt lat="59.8317254" lon="17.6570658">
        <ele>26.5736</ele>
        <time>2014-05-12T18:45:28Z</time>
      </trkpt>
      <trkpt lat="59.8317475" lon="17.6571093">
        <ele>26.5736</ele>
        <time>2014-05-12T18:45:29Z</time>
      </trkpt>
      <trkpt lat="59.8317695" lon="17.6571504">
        <ele>27.0543</ele>
        <time>2014-05-12T18:45:30Z</time>
      </trkpt>
      <trkpt lat="59.8317894" lon="17.6571846">
        <ele>26.0929</ele>
        <time>2014-05-12T18:45:31Z</time>
      </trkpt>
      <trkpt lat="59.8318" lon="17.6572182">
        <ele>25.6123</ele>
        <time>2014-05-12T18:45:32Z</time>
      </trkpt>
      <trkpt lat="59.8318114" lon="17.6572394">
        <ele>24.651</ele>
        <time>2014-05-12T18:45:33Z</time>
      </trkpt>
      <trkpt lat="59.8318223" lon="17.6572721">
        <ele>23.6896</ele>
        <time>2014-05-12T18:45:34Z</time>
      </trkpt>
      <trkpt lat="59.8318383" lon="17.6573019">
        <ele>22.7283</ele>
        <time>2014-05-12T18:45:35Z</time>
      </trkpt>
      <trkpt lat="59.8318585" lon="17.6573321">
        <ele>22.2476</ele>
        <time>2014-05-12T18:45:36Z</time>
      </trkpt>
      <trkpt lat="59.831875" lon="17.657356">
        <ele>21.767</ele>
        <time>2014-05-12T18:45:37Z</time>
      </trkpt>
      <trkpt lat="59.8318943" lon="17.657388">
        <ele>21.2864</ele>
        <time>2014-05-12T18:45:38Z</time>
      </trkpt>
      <trkpt lat="59.8319113" lon="17.6574196">
        <ele>20.325</ele>
        <time>2014-05-12T18:45:39Z</time>
      </trkpt>
      <trkpt lat="59.8319298" lon="17.6574567">
        <ele>19.8444</ele>
        <time>2014-05-12T18:45:40Z</time>
      </trkpt>
      <trkpt lat="59.8319446" lon="17.6574963">
        <ele>19.8444</ele>
        <time>2014-05-12T18:45:41Z</time>
      </trkpt>
      <trkpt lat="59.8319581" lon="17.6575303">
        <ele>19.3638</ele>
        <time>2014-05-12T18:45:42Z</time>
      </trkpt>
      <trkpt lat="59.8319684" lon="17.6575637">
        <ele>18.4023</ele>
        <time>2014-05-12T18:45:43Z</time>
      </trkpt>
      <trkpt lat="59.8319896" lon="17.6575902">
        <ele>18.8831</ele>
        <time>2014-05-12T18:45:44Z</time>
      </trkpt>
      <trkpt lat="59.8320138" lon="17.6576175">
        <ele>17.9218</ele>
        <time>2014-05-12T18:45:45Z</time>
      </trkpt>
      <trkpt lat="59.8320367" lon="17.6576409">
        <ele>17.4412</ele>
        <time>2014-05-12T18:45:46Z</time>
      </trkpt>
      <trkpt lat="59.8320538" lon="17.6576684">
        <ele>16.4797</ele>
        <time>2014-05-12T18:45:47Z</time>
      </trkpt>
      <trkpt lat="59.8320709" lon="17.6577184">
        <ele>16.4797</ele>
        <time>2014-05-12T18:45:48Z</time>
      </trkpt>
      <trkpt lat="59.8320843" lon="17.6577694">
        <ele>15.5184</ele>
        <time>2014-05-12T18:45:49Z</time>
      </trkpt>
      <trkpt lat="59.8321003" lon="17.6578102">
        <ele>15.0377</ele>
        <time>2014-05-12T18:45:50Z</time>
      </trkpt>
      <trkpt lat="59.8321061" lon="17.6578404">
        <ele>13.5958</ele>
        <time>2014-05-12T18:45:51Z</time>
      </trkpt>
      <trkpt lat="59.8321124" lon="17.6578699">
        <ele>12.1538</ele>
        <time>2014-05-12T18:45:52Z</time>
      </trkpt>
      <trkpt lat="59.8321254" lon="17.6579035">
        <ele>11.6732</ele>
        <time>2014-05-12T18:45:53Z</time>
      </trkpt>
      <trkpt lat="59.8321352" lon="17.6579387">
        <ele>10.7118</ele>
        <time>2014-05-12T18:45:54Z</time>
      </trkpt>
      <trkpt lat="59.8321465" lon="17.6579732">
        <ele>9.2699</ele>
        <time>2014-05-12T18:45:55Z</time>
      </trkpt>
      <trkpt lat="59.8321539" lon="17.6580097">
        <ele>6.86646</ele>
        <time>2014-05-12T18:45:56Z</time>
      </trkpt>
      <trkpt lat="59.8321584" lon="17.6580563">
        <ele>5.90527</ele>
        <time>2014-05-12T18:45:57Z</time>
      </trkpt>
      <trkpt lat="59.8321579" lon="17.6580998">
        <ele>4.94385</ele>
        <time>2014-05-12T18:45:58Z</time>
      </trkpt>
      <trkpt lat="59.8321584" lon="17.6581364">
        <ele>3.50195</ele>
        <time>2014-05-12T18:45:59Z</time>
      </trkpt>
      <trkpt lat="59.832162" lon="17.6581754">
        <ele>2.54065</ele>
        <time>2014-05-12T18:46:00Z</time>
      </trkpt>
      <trkpt lat="59.8321643" lon="17.6582106">
        <ele>1.09863</ele>
        <time>2014-05-12T18:46:01Z</time>
      </trkpt>
      <trkpt lat="59.8321844" lon="17.6582501">
        <ele>1.57935</ele>
        <time>2014-05-12T18:46:02Z</time>
      </trkpt>
      <trkpt lat="59.8321958" lon="17.6582904">
        <ele>1.09863</ele>
        <time>2014-05-12T18:46:03Z</time>
      </trkpt>
      <trkpt lat="59.8322127" lon="17.6583282">
        <ele>0.618042</ele>
        <time>2014-05-12T18:46:04Z</time>
      </trkpt>
      <trkpt lat="59.8322324" lon="17.6583698">
        <ele>0.137451</ele>
        <time>2014-05-12T18:46:05Z</time>
      </trkpt>
      <trkpt lat="59.8322546" lon="17.6584071">
        <ele>0</ele>
        <time>2014-05-12T18:46:06Z</time>
      </trkpt>
      <trkpt lat="59.8322765" lon="17.6584509">
        <ele>0</ele>
        <time>2014-05-12T18:46:07Z</time>
      </trkpt>
      <trkpt lat="59.8322906" lon="17.6584961">
        <ele>0</ele>
        <time>2014-05-12T18:46:08Z</time>
      </trkpt>
      <trkpt lat="59.8323088" lon="17.6585416">
        <ele>0</ele>
        <time>2014-05-12T18:46:09Z</time>
      </trkpt>
      <trkpt lat="59.8323277" lon="17.6585958">
        <ele>0</ele>
        <time>2014-05-12T18:46:10Z</time>
      </trkpt>
      <trkpt lat="59.8323502" lon="17.6586498">
        <ele>0</ele>
        <time>2014-05-12T18:46:11Z</time>
      </trkpt>
      <trkpt lat="59.8323781" lon="17.658699">
        <ele>0</ele>
        <time>2014-05-12T18:46:12Z</time>
      </trkpt>
      <trkpt lat="59.8324083" lon="17.6587487">
        <ele>0</ele>
        <time>2014-05-12T18:46:13Z</time>
      </trkpt>
      <trkpt lat="59.8324351" lon="17.6587991">
        <ele>0</ele>
        <time>2014-05-12T18:46:14Z</time>
      </trkpt>
      <trkpt lat="59.8324582" lon="17.6588469">
        <ele>0</ele>
        <time>2014-05-12T18:46:15Z</time>
      </trkpt>
      <trkpt lat="59.832467" lon="17.6588902">
        <ele>0</ele>
        <time>2014-05-12T18:46:16Z</time>
      </trkpt>
      <trkpt lat="59.8324785" lon="17.6589306">
        <ele>0</ele>
        <time>2014-05-12T18:46:17Z</time>
      </trkpt>
      <trkpt lat="59.83249" lon="17.6589721">
        <ele>0</ele>
        <time>2014-05-12T18:46:18Z</time>
      </trkpt>
      <trkpt lat="59.8325049" lon="17.6590177">
        <ele>0</ele>
        <time>2014-05-12T18:46:19Z</time>
      </trkpt>
      <trkpt lat="59.8325154" lon="17.6590621">
        <ele>0</ele>
        <time>2014-05-12T18:46:20Z</time>
      </trkpt>
      <trkpt lat="59.832525" lon="17.6591001">
        <ele>0</ele>
        <time>2014-05-12T18:46:21Z</time>
      </trkpt>
      <trkpt lat="59.832537" lon="17.6591385">
        <ele>0</ele>
        <time>2014-05-12T18:46:22Z</time>
      </trkpt>
      <trkpt lat="59.8325473" lon="17.6591777">
        <ele>0</ele>
        <time>2014-05-12T18:46:23Z</time>
      </trkpt>
      <trkpt lat="59.8325542" lon="17.6592218">
        <ele>0</ele>
        <time>2014-05-12T18:46:24Z</time>
      </trkpt>
      <trkpt lat="59.8325522" lon="17.6592669">
        <ele>0</ele>
        <time>2014-05-12T18:46:25Z</time>
      </trkpt>
      <trkpt lat="59.8325453" lon="17.6593053">
        <ele>0</ele>
        <time>2014-05-12T18:46:26Z</time>
      </trkpt>
      <trkpt lat="59.8325312" lon="17.6593368">
        <ele>0</ele>
        <time>2014-05-12T18:46:27Z</time>
      </trkpt>
      <trkpt lat="59.8325116" lon="17.6593649">
        <ele>0</ele>
        <time>2014-05-12T18:46:28Z</time>
      </trkpt>
      <trkpt lat="59.8324921" lon="17.6593939">
        <ele>0</ele>
        <time>2014-05-12T18:46:29Z</time>
      </trkpt>
      <trkpt lat="59.8324682" lon="17.6594357">
        <ele>0</ele>
        <time>2014-05-12T18:46:30Z</time>
      </trkpt>
      <trkpt lat="59.8324418" lon="17.6594734">
        <ele>0</ele>
        <time>2014-05-12T18:46:31Z</time>
      </trkpt>
      <trkpt lat="59.832421" lon="17.6595035">
        <ele>0</ele>
        <time>2014-05-12T18:46:32Z</time>
      </trkpt>
      <trkpt lat="59.8324071" lon="17.659536">
        <ele>0</ele>
        <time>2014-05-12T18:46:33Z</time>
      </trkpt>
      <trkpt lat="59.8323878" lon="17.65956">
        <ele>0</ele>
        <time>2014-05-12T18:46:34Z</time>
      </trkpt>
      <trkpt lat="59.832372" lon="17.6595848">
        <ele>0</ele>
        <time>2014-05-12T18:46:35Z</time>
      </trkpt>
      <trkpt lat="59.8323538" lon="17.6596207">
        <ele>0</ele>
        <time>2014-05-12T18:46:36Z</time>
      </trkpt>
      <trkpt lat="59.832331" lon="17.6596621">
        <ele>0</ele>
        <time>2014-05-12T18:46:37Z</time>
      </trkpt>
      <trkpt lat="59.8323015" lon="17.6597163">
        <ele>0</ele>
        <time>2014-05-12T18:46:38Z</time>
      </trkpt>
      <trkpt lat="59.8322817" lon="17.6597617">
        <ele>0</ele>
        <time>2014-05-12T18:46:39Z</time>
      </trkpt>
      <trkpt lat="59.8322601" lon="17.6598154">
        <ele>0</ele>
        <time>2014-05-12T18:46:40Z</time>
      </trkpt>
      <trkpt lat="59.8322385" lon="17.6598598">
        <ele>0</ele>
        <time>2014-05-12T18:46:41Z</time>
      </trkpt>
      <trkpt lat="59.8322186" lon="17.659896">
        <ele>0</ele>
        <time>2014-05-12T18:46:42Z</time>
      </trkpt>
      <trkpt lat="59.8322009" lon="17.6599279">
        <ele>0</ele>
        <time>2014-05-12T18:46:43Z</time>
      </trkpt>
      <trkpt lat="59.8321798" lon="17.6599632">
        <ele>0</ele>
        <time>2014-05-12T18:46:44Z</time>
      </trkpt>
      <trkpt lat="59.8321565" lon="17.6600005">
        <ele>0</ele>
        <time>2014-05-12T18:46:45Z</time>
      </trkpt>
      <trkpt lat="59.832134" lon="17.6600367">
        <ele>0</ele>
        <time>2014-05-12T18:46:46Z</time>
      </trkpt>
      <trkpt lat="59.8321082" lon="17.6600624">
        <ele>0</ele>
        <time>2014-05-12T18:46:47Z</time>
      </trkpt>
      <trkpt lat="59.8320885" lon="17.6601003">
        <ele>0</ele>
        <time>2014-05-12T18:46:48Z</time>
      </trkpt>
      <trkpt lat="59.8320709" lon="17.6601257">
        <ele>0</ele>
        <time>2014-05-12T18:46:49Z</time>
      </trkpt>
      <trkpt lat="59.8320446" lon="17.6601494">
        <ele>0.137451</ele>
        <time>2014-05-12T18:46:50Z</time>
      </trkpt>
      <trkpt lat="59.8320172" lon="17.6601615">
        <ele>0</ele>
        <time>2014-05-12T18:46:51Z</time>
      </trkpt>
      <trkpt lat="59.8319944" lon="17.6601837">
        <ele>0.618042</ele>
        <time>2014-05-12T18:46:52Z</time>
      </trkpt>
      <trkpt lat="59.8319647" lon="17.660207">
        <ele>0.618042</ele>
        <time>2014-05-12T18:46:53Z</time>
      </trkpt>
      <trkpt lat="59.8319374" lon="17.660231">
        <ele>0.618042</ele>
        <time>2014-05-12T18:46:54Z</time>
      </trkpt>
      <trkpt lat="59.8319169" lon="17.6602563">
        <ele>0.137451</ele>
        <time>2014-05-12T18:46:55Z</time>
      </trkpt>
      <trkpt lat="59.8318987" lon="17.6602809">
        <ele>0.618042</ele>
        <time>2014-05-12T18:46:56Z</time>
      </trkpt>
      <trkpt lat="59.8318785" lon="17.6603096">
        <ele>1.09863</ele>
        <time>2014-05-12T18:46:57Z</time>
      </trkpt>
      <trkpt lat="59.8318554" lon="17.6603322">
        <ele>1.57935</ele>
        <time>2014-05-12T18:46:58Z</time>
      </trkpt>
      <trkpt lat="59.8318333" lon="17.6603493">
        <ele>2.06006</ele>
        <time>2014-05-12T18:46:59Z</time>
      </trkpt>
      <trkpt lat="59.8318088" lon="17.6603758">
        <ele>2.54065</ele>
        <time>2014-05-12T18:47:00Z</time>
      </trkpt>
      <trkpt lat="59.8317884" lon="17.6603968">
        <ele>3.50195</ele>
        <time>2014-05-12T18:47:01Z</time>
      </trkpt>
      <trkpt lat="59.831768" lon="17.6604219">
        <ele>3.50195</ele>
        <time>2014-05-12T18:47:02Z</time>
      </trkpt>
      <trkpt lat="59.831744" lon="17.6604478">
        <ele>3.98267</ele>
        <time>2014-05-12T18:47:03Z</time>
      </trkpt>
      <trkpt lat="59.8317177" lon="17.6604715">
        <ele>3.50195</ele>
        <time>2014-05-12T18:47:04Z</time>
      </trkpt>
      <trkpt lat="59.8317027" lon="17.6604983">
        <ele>3.98267</ele>
        <time>2014-05-12T18:47:05Z</time>
      </trkpt>
      <trkpt lat="59.8316876" lon="17.6605152">
        <ele>3.98267</ele>
        <time>2014-05-12T18:47:06Z</time>
      </trkpt>
      <trkpt lat="59.8316693" lon="17.6605292">
        <ele>3.98267</ele>
        <time>2014-05-12T18:47:07Z</time>
      </trkpt>
      <trkpt lat="59.8316472" lon="17.6605489">
        <ele>3.98267</ele>
        <time>2014-05-12T18:47:08Z</time>
      </trkpt>
      <trkpt lat="59.8316257" lon="17.6605757">
        <ele>4.46326</ele>
        <time>2014-05-12T18:47:09Z</time>
      </trkpt>
      <trkpt lat="59.8316059" lon="17.6605993">
        <ele>4.46326</ele>
        <time>2014-05-12T18:47:10Z</time>
      </trkpt>
      <trkpt lat="59.8315846" lon="17.6606214">
        <ele>4.94385</ele>
        <time>2014-05-12T18:47:11Z</time>
      </trkpt>
      <trkpt lat="59.8315663" lon="17.6606353">
        <ele>4.94385</ele>
        <time>2014-05-12T18:47:12Z</time>
      </trkpt>
      <trkpt lat="59.8315487" lon="17.6606542">
        <ele>5.42456</ele>
        <time>2014-05-12T18:47:13Z</time>
      </trkpt>
      <trkpt lat="59.8315291" lon="17.6606718">
        <ele>4.94385</ele>
        <time>2014-05-12T18:47:14Z</time>
      </trkpt>
      <trkpt lat="59.8315085" lon="17.660695">
        <ele>4.46326</ele>
        <time>2014-05-12T18:47:15Z</time>
      </trkpt>
      <trkpt lat="59.831489" lon="17.6607214">
        <ele>4.46326</ele>
        <time>2014-05-12T18:47:16Z</time>
      </trkpt>
      <trkpt lat="59.8314681" lon="17.6607525">
        <ele>3.98267</ele>
        <time>2014-05-12T18:47:17Z</time>
      </trkpt>
      <trkpt lat="59.8314498" lon="17.6607865">
        <ele>3.98267</ele>
        <time>2014-05-12T18:47:18Z</time>
      </trkpt>
      <trkpt lat="59.8314269" lon="17.6608184">
        <ele>3.50195</ele>
        <time>2014-05-12T18:47:19Z</time>
      </trkpt>
      <trkpt lat="59.8314063" lon="17.6608494">
        <ele>3.02124</ele>
        <time>2014-05-12T18:47:20Z</time>
      </trkpt>
      <trkpt lat="59.8313881" lon="17.660882">
        <ele>3.50195</ele>
        <time>2014-05-12T18:47:21Z</time>
      </trkpt>
      <trkpt lat="59.831374" lon="17.6609187">
        <ele>3.98267</ele>
        <time>2014-05-12T18:47:22Z</time>
      </trkpt>
      <trkpt lat="59.8313591" lon="17.6609571">
        <ele>3.98267</ele>
        <time>2014-05-12T18:47:23Z</time>
      </trkpt>
      <trkpt lat="59.8313424" lon="17.6610058">
        <ele>4.46326</ele>
        <time>2014-05-12T18:47:24Z</time>
      </trkpt>
      <trkpt lat="59.8313274" lon="17.6610455">
        <ele>4.46326</ele>
        <time>2014-05-12T18:47:25Z</time>
      </trkpt>
      <trkpt lat="59.8313079" lon="17.6610891">
        <ele>4.94385</ele>
        <time>2014-05-12T18:47:26Z</time>
      </trkpt>
      <trkpt lat="59.8312845" lon="17.661137">
        <ele>4.46326</ele>
        <time>2014-05-12T18:47:27Z</time>
      </trkpt>
      <trkpt lat="59.8312611" lon="17.661186">
        <ele>3.98267</ele>
        <time>2014-05-12T18:47:28Z</time>
      </trkpt>
      <trkpt lat="59.831239" lon="17.661231">
        <ele>4.46326</ele>
        <time>2014-05-12T18:47:29Z</time>
      </trkpt>
      <trkpt lat="59.8312136" lon="17.6612632">
        <ele>3.98267</ele>
        <time>2014-05-12T18:47:30Z</time>
      </trkpt>
      <trkpt lat="59.8311922" lon="17.6612838">
        <ele>3.50195</ele>
        <time>2014-05-12T18:47:31Z</time>
      </trkpt>
      <trkpt lat="59.8311707" lon="17.6613094">
        <ele>3.02124</ele>
        <time>2014-05-12T18:47:32Z</time>
      </trkpt>
      <trkpt lat="59.8311541" lon="17.6613462">
        <ele>3.50195</ele>
        <time>2014-05-12T18:47:33Z</time>
      </trkpt>
      <trkpt lat="59.8311352" lon="17.6613827">
        <ele>3.50195</ele>
        <time>2014-05-12T18:47:34Z</time>
      </trkpt>
      <trkpt lat="59.8311156" lon="17.6614166">
        <ele>3.02124</ele>
        <time>2014-05-12T18:47:35Z</time>
      </trkpt>
      <trkpt lat="59.8310934" lon="17.6614542">
        <ele>3.02124</ele>
        <time>2014-05-12T18:47:36Z</time>
      </trkpt>
      <trkpt lat="59.8310679" lon="17.6614933">
        <ele>3.02124</ele>
        <time>2014-05-12T18:47:37Z</time>
      </trkpt>
      <trkpt lat="59.8310435" lon="17.6615273">
        <ele>2.54065</ele>
        <time>2014-05-12T18:47:38Z</time>
      </trkpt>
      <trkpt lat="59.8310214" lon="17.661556">
        <ele>2.54065</ele>
        <time>2014-05-12T18:47:39Z</time>
      </trkpt>
      <trkpt lat="59.8309996" lon="17.6615814">
        <ele>1.57935</ele>
        <time>2014-05-12T18:47:40Z</time>
      </trkpt>
      <trkpt lat="59.830979" lon="17.6616145">
        <ele>2.06006</ele>
        <time>2014-05-12T18:47:41Z</time>
      </trkpt>
      <trkpt lat="59.8309578" lon="17.6616399">
        <ele>2.06006</ele>
        <time>2014-05-12T18:47:42Z</time>
      </trkpt>
      <trkpt lat="59.8309344" lon="17.6616659">
        <ele>2.06006</ele>
        <time>2014-05-12T18:47:43Z</time>
      </trkpt>
      <trkpt lat="59.8309151" lon="17.6616852">
        <ele>1.57935</ele>
        <time>2014-05-12T18:47:44Z</time>
      </trkpt>
      <trkpt lat="59.8308953" lon="17.6617097">
        <ele>1.57935</ele>
        <time>2014-05-12T18:47:45Z</time>
      </trkpt>
      <trkpt lat="59.8308708" lon="17.6617391">
        <ele>1.57935</ele>
        <time>2014-05-12T18:47:46Z</time>
      </trkpt>
      <trkpt lat="59.83085" lon="17.6617555">
        <ele>1.09863</ele>
        <time>2014-05-12T18:47:47Z</time>
      </trkpt>
      <trkpt lat="59.8308277" lon="17.661774">
        <ele>1.09863</ele>
        <time>2014-05-12T18:47:48Z</time>
      </trkpt>
      <trkpt lat="59.8308106" lon="17.6617968">
        <ele>1.09863</ele>
        <time>2014-05-12T18:47:49Z</time>
      </trkpt>
      <trkpt lat="59.8307904" lon="17.6618207">
        <ele>1.09863</ele>
        <time>2014-05-12T18:47:50Z</time>
      </trkpt>
      <trkpt lat="59.8307691" lon="17.6618403">
        <ele>1.09863</ele>
        <time>2014-05-12T18:47:51Z</time>
      </trkpt>
      <trkpt lat="59.830747" lon="17.6618534">
        <ele>1.57935</ele>
        <time>2014-05-12T18:47:52Z</time>
      </trkpt>
      <trkpt lat="59.8307242" lon="17.6618668">
        <ele>1.57935</ele>
        <time>2014-05-12T18:47:53Z</time>
      </trkpt>
      <trkpt lat="59.8306976" lon="17.6618812">
        <ele>1.09863</ele>
        <time>2014-05-12T18:47:54Z</time>
      </trkpt>
      <trkpt lat="59.8306691" lon="17.6619019">
        <ele>1.09863</ele>
        <time>2014-05-12T18:47:55Z</time>
      </trkpt>
      <trkpt lat="59.8306429" lon="17.6619196">
        <ele>1.09863</ele>
        <time>2014-05-12T18:47:56Z</time>
      </trkpt>
      <trkpt lat="59.8306106" lon="17.6619355">
        <ele>1.09863</ele>
        <time>2014-05-12T18:47:57Z</time>
      </trkpt>
      <trkpt lat="59.8305871" lon="17.6619507">
        <ele>1.09863</ele>
        <time>2014-05-12T18:47:58Z</time>
      </trkpt>
      <trkpt lat="59.8305626" lon="17.6619656">
        <ele>1.09863</ele>
        <time>2014-05-12T18:47:59Z</time>
      </trkpt>
      <trkpt lat="59.8305329" lon="17.6619786">
        <ele>0.137451</ele>
        <time>2014-05-12T18:48:00Z</time>
      </trkpt>
      <trkpt lat="59.8305074" lon="17.6619937">
        <ele>0.137451</ele>
        <time>2014-05-12T18:48:01Z</time>
      </trkpt>
      <trkpt lat="59.8304784" lon="17.6620086">
        <ele>0</ele>
        <time>2014-05-12T18:48:02Z</time>
      </trkpt>
      <trkpt lat="59.8304469" lon="17.6620252">
        <ele>0</ele>
        <time>2014-05-12T18:48:03Z</time>
      </trkpt>
      <trkpt lat="59.8304174" lon="17.662047">
        <ele>0</ele>
        <time>2014-05-12T18:48:04Z</time>
      </trkpt>
      <trkpt lat="59.8303926" lon="17.6620582">
        <ele>0</ele>
        <time>2014-05-12T18:48:05Z</time>
      </trkpt>
      <trkpt lat="59.8303696" lon="17.6620727">
        <ele>0</ele>
        <time>2014-05-12T18:48:06Z</time>
      </trkpt>
      <trkpt lat="59.8303465" lon="17.6620855">
        <ele>0</ele>
        <time>2014-05-12T18:48:07Z</time>
      </trkpt>
      <trkpt lat="59.8303283" lon="17.6620946">
        <ele>0</ele>
        <time>2014-05-12T18:48:08Z</time>
      </trkpt>
      <trkpt lat="59.8303081" lon="17.6621117">
        <ele>0.137451</ele>
        <time>2014-05-12T18:48:09Z</time>
      </trkpt>
      <trkpt lat="59.8302843" lon="17.6621278">
        <ele>0</ele>
        <time>2014-05-12T18:48:10Z</time>
      </trkpt>
      <trkpt lat="59.8302592" lon="17.662143">
        <ele>0</ele>
        <time>2014-05-12T18:48:11Z</time>
      </trkpt>
      <trkpt lat="59.8302284" lon="17.6621645">
        <ele>0</ele>
        <time>2014-05-12T18:48:12Z</time>
      </trkpt>
      <trkpt lat="59.8302025" lon="17.6621769">
        <ele>0</ele>
        <time>2014-05-12T18:48:13Z</time>
      </trkpt>
      <trkpt lat="59.8301797" lon="17.6621875">
        <ele>0</ele>
        <time>2014-05-12T18:48:14Z</time>
      </trkpt>
      <trkpt lat="59.8301582" lon="17.6622069">
        <ele>0</ele>
        <time>2014-05-12T18:48:15Z</time>
      </trkpt>
      <trkpt lat="59.8301372" lon="17.6622224">
        <ele>0</ele>
        <time>2014-05-12T18:48:16Z</time>
      </trkpt>
      <trkpt lat="59.8301149" lon="17.6622416">
        <ele>0</ele>
        <time>2014-05-12T18:48:17Z</time>
      </trkpt>
      <trkpt lat="59.8300931" lon="17.6622521">
        <ele>0</ele>
        <time>2014-05-12T18:48:18Z</time>
      </trkpt>
      <trkpt lat="59.8300698" lon="17.6622642">
        <ele>0</ele>
        <time>2014-05-12T18:48:19Z</time>
      </trkpt>
      <trkpt lat="59.8300455" lon="17.6622784">
        <ele>0</ele>
        <time>2014-05-12T18:48:20Z</time>
      </trkpt>
      <trkpt lat="59.83002" lon="17.6622895">
        <ele>0</ele>
        <time>2014-05-12T18:48:21Z</time>
      </trkpt>
      <trkpt lat="59.8299952" lon="17.6623037">
        <ele>0</ele>
        <time>2014-05-12T18:48:22Z</time>
      </trkpt>
      <trkpt lat="59.8299719" lon="17.6623163">
        <ele>0</ele>
        <time>2014-05-12T18:48:23Z</time>
      </trkpt>
      <trkpt lat="59.82995" lon="17.6623296">
        <ele>0</ele>
        <time>2014-05-12T18:48:24Z</time>
      </trkpt>
      <trkpt lat="59.8299241" lon="17.6623408">
        <ele>0</ele>
        <time>2014-05-12T18:48:25Z</time>
      </trkpt>
      <trkpt lat="59.8298953" lon="17.6623494">
        <ele>0</ele>
        <time>2014-05-12T18:48:26Z</time>
      </trkpt>
      <trkpt lat="59.8298707" lon="17.6623656">
        <ele>0</ele>
        <time>2014-05-12T18:48:27Z</time>
      </trkpt>
      <trkpt lat="59.8298467" lon="17.6623763">
        <ele>0</ele>
        <time>2014-05-12T18:48:28Z</time>
      </trkpt>
      <trkpt lat="59.8298274" lon="17.6623885">
        <ele>0</ele>
        <time>2014-05-12T18:48:29Z</time>
      </trkpt>
      <trkpt lat="59.8298015" lon="17.6624102">
        <ele>0</ele>
        <time>2014-05-12T18:48:30Z</time>
      </trkpt>
      <trkpt lat="59.8297808" lon="17.6624235">
        <ele>0</ele>
        <time>2014-05-12T18:48:31Z</time>
      </trkpt>
      <trkpt lat="59.8297619" lon="17.6624407">
        <ele>0</ele>
        <time>2014-05-12T18:48:32Z</time>
      </trkpt>
      <trkpt lat="59.8297428" lon="17.6624557">
        <ele>0</ele>
        <time>2014-05-12T18:48:33Z</time>
      </trkpt>
      <trkpt lat="59.8297219" lon="17.6624644">
        <ele>0</ele>
        <time>2014-05-12T18:48:34Z</time>
      </trkpt>
      <trkpt lat="59.8297014" lon="17.6624778">
        <ele>0</ele>
        <time>2014-05-12T18:48:35Z</time>
      </trkpt>
      <trkpt lat="59.8296786" lon="17.6624956">
        <ele>0</ele>
        <time>2014-05-12T18:48:36Z</time>
      </trkpt>
      <trkpt lat="59.8296599" lon="17.6624987">
        <ele>0</ele>
        <time>2014-05-12T18:48:37Z</time>
      </trkpt>
      <trkpt lat="59.8296357" lon="17.6625058">
        <ele>0</ele>
        <time>2014-05-12T18:48:38Z</time>
      </trkpt>
      <trkpt lat="59.8296099" lon="17.6625179">
        <ele>0</ele>
        <time>2014-05-12T18:48:39Z</time>
      </trkpt>
      <trkpt lat="59.82959" lon="17.662533">
        <ele>0</ele>
        <time>2014-05-12T18:48:40Z</time>
      </trkpt>
      <trkpt lat="59.8295658" lon="17.6625531">
        <ele>0</ele>
        <time>2014-05-12T18:48:41Z</time>
      </trkpt>
      <trkpt lat="59.8295483" lon="17.6625713">
        <ele>0</ele>
        <time>2014-05-12T18:48:42Z</time>
      </trkpt>
      <trkpt lat="59.829529" lon="17.6625887">
        <ele>0</ele>
        <time>2014-05-12T18:48:43Z</time>
      </trkpt>
      <trkpt lat="59.8295121" lon="17.662599">
        <ele>0</ele>
        <time>2014-05-12T18:48:44Z</time>
      </trkpt>
      <trkpt lat="59.8294886" lon="17.6626173">
        <ele>0</ele>
        <time>2014-05-12T18:48:45Z</time>
      </trkpt>
      <trkpt lat="59.8294633" lon="17.6626283">
        <ele>0</ele>
        <time>2014-05-12T18:48:46Z</time>
      </trkpt>
      <trkpt lat="59.8294348" lon="17.6626355">
        <ele>0</ele>
        <time>2014-05-12T18:48:47Z</time>
      </trkpt>
      <trkpt lat="59.8294094" lon="17.6626472">
        <ele>0</ele>
        <time>2014-05-12T18:48:48Z</time>
      </trkpt>
      <trkpt lat="59.8293865" lon="17.6626483">
        <ele>0</ele>
        <time>2014-05-12T18:48:49Z</time>
      </trkpt>
      <trkpt lat="59.8293607" lon="17.6626572">
        <ele>0.137451</ele>
        <time>2014-05-12T18:48:50Z</time>
      </trkpt>
      <trkpt lat="59.8293353" lon="17.6626701">
        <ele>0.618042</ele>
        <time>2014-05-12T18:48:51Z</time>
      </trkpt>
      <trkpt lat="59.82931" lon="17.6626785">
        <ele>0.618042</ele>
        <time>2014-05-12T18:48:52Z</time>
      </trkpt>
      <trkpt lat="59.8292854" lon="17.6626925">
        <ele>1.09863</ele>
        <time>2014-05-12T18:48:53Z</time>
      </trkpt>
      <trkpt lat="59.8292618" lon="17.6627021">
        <ele>1.09863</ele>
        <time>2014-05-12T18:48:54Z</time>
      </trkpt>
      <trkpt lat="59.8292331" lon="17.6627183">
        <ele>1.57935</ele>
        <time>2014-05-12T18:48:55Z</time>
      </trkpt>
      <trkpt lat="59.8291986" lon="17.6627271">
        <ele>1.09863</ele>
        <time>2014-05-12T18:48:56Z</time>
      </trkpt>
      <trkpt lat="59.8291724" lon="17.6627347">
        <ele>2.06006</ele>
        <time>2014-05-12T18:48:57Z</time>
      </trkpt>
      <trkpt lat="59.8291509" lon="17.662756">
        <ele>3.50195</ele>
        <time>2014-05-12T18:48:58Z</time>
      </trkpt>
      <trkpt lat="59.8291241" lon="17.662776">
        <ele>3.98267</ele>
        <time>2014-05-12T18:48:59Z</time>
      </trkpt>
      <trkpt lat="59.8290956" lon="17.6627984">
        <ele>4.46326</ele>
        <time>2014-05-12T18:49:00Z</time>
      </trkpt>
      <trkpt lat="59.8290675" lon="17.6628179">
        <ele>4.46326</ele>
        <time>2014-05-12T18:49:01Z</time>
      </trkpt>
      <trkpt lat="59.8290409" lon="17.6628405">
        <ele>4.94385</ele>
        <time>2014-05-12T18:49:02Z</time>
      </trkpt>
      <trkpt lat="59.8290152" lon="17.6628597">
        <ele>4.46326</ele>
        <time>2014-05-12T18:49:03Z</time>
      </trkpt>
      <trkpt lat="59.8289902" lon="17.6628761">
        <ele>4.46326</ele>
        <time>2014-05-12T18:49:04Z</time>
      </trkpt>
      <trkpt lat="59.8289658" lon="17.6628907">
        <ele>4.46326</ele>
        <time>2014-05-12T18:49:05Z</time>
      </trkpt>
      <trkpt lat="59.8289401" lon="17.6629036">
        <ele>3.98267</ele>
        <time>2014-05-12T18:49:06Z</time>
      </trkpt>
      <trkpt lat="59.8289134" lon="17.6629186">
        <ele>3.98267</ele>
        <time>2014-05-12T18:49:07Z</time>
      </trkpt>
      <trkpt lat="59.8288886" lon="17.6629308">
        <ele>3.50195</ele>
        <time>2014-05-12T18:49:08Z</time>
      </trkpt>
      <trkpt lat="59.8288644" lon="17.662945">
        <ele>3.02124</ele>
        <time>2014-05-12T18:49:09Z</time>
      </trkpt>
      <trkpt lat="59.8288385" lon="17.6629675">
        <ele>3.02124</ele>
        <time>2014-05-12T18:49:10Z</time>
      </trkpt>
      <trkpt lat="59.8288131" lon="17.6629935">
        <ele>3.02124</ele>
        <time>2014-05-12T18:49:11Z</time>
      </trkpt>
      <trkpt lat="59.8287873" lon="17.6630121">
        <ele>2.54065</ele>
        <time>2014-05-12T18:49:12Z</time>
      </trkpt>
      <trkpt lat="59.8287614" lon="17.663031">
        <ele>2.06006</ele>
        <time>2014-05-12T18:49:13Z</time>
      </trkpt>
      <trkpt lat="59.8287371" lon="17.6630572">
        <ele>2.06006</ele>
        <time>2014-05-12T18:49:14Z</time>
      </trkpt>
      <trkpt lat="59.8287117" lon="17.6630749">
        <ele>2.06006</ele>
        <time>2014-05-12T18:49:15Z</time>
      </trkpt>
      <trkpt lat="59.8286824" lon="17.663088">
        <ele>1.09863</ele>
        <time>2014-05-12T18:49:16Z</time>
      </trkpt>
      <trkpt lat="59.8286555" lon="17.6631093">
        <ele>1.09863</ele>
        <time>2014-05-12T18:49:17Z</time>
      </trkpt>
      <trkpt lat="59.8286289" lon="17.6631232">
        <ele>1.09863</ele>
        <time>2014-05-12T18:49:18Z</time>
      </trkpt>
      <trkpt lat="59.8286017" lon="17.6631364">
        <ele>0.618042</ele>
        <time>2014-05-12T18:49:19Z</time>
      </trkpt>
      <trkpt lat="59.828576" lon="17.6631548">
        <ele>0.137451</ele>
        <time>2014-05-12T18:49:20Z</time>
      </trkpt>
      <trkpt lat="59.8285555" lon="17.6631717">
        <ele>0.137451</ele>
        <time>2014-05-12T18:49:21Z</time>
      </trkpt>
      <trkpt lat="59.828535" lon="17.6631892">
        <ele>0.137451</ele>
        <time>2014-05-12T18:49:22Z</time>
      </trkpt>
      <trkpt lat="59.8285116" lon="17.6632046">
        <ele>0.618042</ele>
        <time>2014-05-12T18:49:23Z</time>
      </trkpt>
      <trkpt lat="59.8284904" lon="17.6632243">
        <ele>1.09863</ele>
        <time>2014-05-12T18:49:24Z</time>
      </trkpt>
      <trkpt lat="59.8284686" lon="17.6632378">
        <ele>0.618042</ele>
        <time>2014-05-12T18:49:25Z</time>
      </trkpt>
      <trkpt lat="59.8284465" lon="17.6632524">
        <ele>0.618042</ele>
        <time>2014-05-12T18:49:26Z</time>
      </trkpt>
      <trkpt lat="59.8284246" lon="17.6632706">
        <ele>0.618042</ele>
        <time>2014-05-12T18:49:27Z</time>
      </trkpt>
      <trkpt lat="59.8284014" lon="17.6632917">
        <ele>0.618042</ele>
        <time>2014-05-12T18:49:28Z</time>
      </trkpt>
      <trkpt lat="59.8283785" lon="17.6633111">
        <ele>1.09863</ele>
        <time>2014-05-12T18:49:29Z</time>
      </trkpt>
      <trkpt lat="59.8283546" lon="17.6633342">
        <ele>2.06006</ele>
        <time>2014-05-12T18:49:30Z</time>
      </trkpt>
      <trkpt lat="59.8283314" lon="17.6633528">
        <ele>2.06006</ele>
        <time>2014-05-12T18:49:31Z</time>
      </trkpt>
      <trkpt lat="59.8283039" lon="17.6633695">
        <ele>2.06006</ele>
        <time>2014-05-12T18:49:32Z</time>
      </trkpt>
      <trkpt lat="59.8282812" lon="17.6633871">
        <ele>2.06006</ele>
        <time>2014-05-12T18:49:33Z</time>
      </trkpt>
      <trkpt lat="59.8282593" lon="17.6634033">
        <ele>2.06006</ele>
        <time>2014-05-12T18:49:34Z</time>
      </trkpt>
      <trkpt lat="59.8282374" lon="17.6634182">
        <ele>2.06006</ele>
        <time>2014-05-12T18:49:35Z</time>
      </trkpt>
      <trkpt lat="59.8282117" lon="17.6634364">
        <ele>2.54065</ele>
        <time>2014-05-12T18:49:36Z</time>
      </trkpt>
      <trkpt lat="59.8281875" lon="17.6634508">
        <ele>3.02124</ele>
        <time>2014-05-12T18:49:37Z</time>
      </trkpt>
      <trkpt lat="59.8281651" lon="17.6634641">
        <ele>3.02124</ele>
        <time>2014-05-12T18:49:38Z</time>
      </trkpt>
      <trkpt lat="59.8281439" lon="17.6634829">
        <ele>3.50195</ele>
        <time>2014-05-12T18:49:39Z</time>
      </trkpt>
      <trkpt lat="59.8281224" lon="17.663503">
        <ele>3.98267</ele>
        <time>2014-05-12T18:49:40Z</time>
      </trkpt>
      <trkpt lat="59.8280988" lon="17.6635198">
        <ele>4.46326</ele>
        <time>2014-05-12T18:49:41Z</time>
      </trkpt>
      <trkpt lat="59.8280753" lon="17.6635351">
        <ele>4.94385</ele>
        <time>2014-05-12T18:49:42Z</time>
      </trkpt>
      <trkpt lat="59.8280543" lon="17.6635478">
        <ele>4.94385</ele>
        <time>2014-05-12T18:49:43Z</time>
      </trkpt>
      <trkpt lat="59.828035" lon="17.6635625">
        <ele>5.42456</ele>
        <time>2014-05-12T18:49:44Z</time>
      </trkpt>
      <trkpt lat="59.8280142" lon="17.6635752">
        <ele>5.42456</ele>
        <time>2014-05-12T18:49:45Z</time>
      </trkpt>
      <trkpt lat="59.8279947" lon="17.6635851">
        <ele>5.90527</ele>
        <time>2014-05-12T18:49:46Z</time>
      </trkpt>
      <trkpt lat="59.8279688" lon="17.6635999">
        <ele>5.42456</ele>
        <time>2014-05-12T18:49:47Z</time>
      </trkpt>
      <trkpt lat="59.8279435" lon="17.6636169">
        <ele>5.42456</ele>
        <time>2014-05-12T18:49:48Z</time>
      </trkpt>
      <trkpt lat="59.8279195" lon="17.6636337">
        <ele>4.94385</ele>
        <time>2014-05-12T18:49:49Z</time>
      </trkpt>
      <trkpt lat="59.8278932" lon="17.6636506">
        <ele>4.46326</ele>
        <time>2014-05-12T18:49:50Z</time>
      </trkpt>
      <trkpt lat="59.8278698" lon="17.663669">
        <ele>4.46326</ele>
        <time>2014-05-12T18:49:51Z</time>
      </trkpt>
      <trkpt lat="59.8278461" lon="17.6636948">
        <ele>5.42456</ele>
        <time>2014-05-12T18:49:52Z</time>
      </trkpt>
      <trkpt lat="59.8278226" lon="17.6637154">
        <ele>4.94385</ele>
        <time>2014-05-12T18:49:53Z</time>
      </trkpt>
      <trkpt lat="59.8277976" lon="17.6637342">
        <ele>4.94385</ele>
        <time>2014-05-12T18:49:54Z</time>
      </trkpt>
      <trkpt lat="59.8277714" lon="17.6637497">
        <ele>4.94385</ele>
        <time>2014-05-12T18:49:55Z</time>
      </trkpt>
      <trkpt lat="59.827746" lon="17.6637668">
        <ele>4.94385</ele>
        <time>2014-05-12T18:49:56Z</time>
      </trkpt>
      <trkpt lat="59.8277202" lon="17.6637823">
        <ele>4.46326</ele>
        <time>2014-05-12T18:49:57Z</time>
      </trkpt>
      <trkpt lat="59.8276959" lon="17.6637917">
        <ele>4.46326</ele>
        <time>2014-05-12T18:49:58Z</time>
      </trkpt>
      <trkpt lat="59.82767" lon="17.6638073">
        <ele>3.98267</ele>
        <time>2014-05-12T18:49:59Z</time>
      </trkpt>
      <trkpt lat="59.8276394" lon="17.6638263">
        <ele>3.50195</ele>
        <time>2014-05-12T18:50:00Z</time>
      </trkpt>
      <trkpt lat="59.8276086" lon="17.6638429">
        <ele>2.54065</ele>
        <time>2014-05-12T18:50:01Z</time>
      </trkpt>
      <trkpt lat="59.8275834" lon="17.6638583">
        <ele>2.54065</ele>
        <time>2014-05-12T18:50:02Z</time>
      </trkpt>
      <trkpt lat="59.8275606" lon="17.663873">
        <ele>2.06006</ele>
        <time>2014-05-12T18:50:03Z</time>
      </trkpt>
      <trkpt lat="59.8275382" lon="17.6638863">
        <ele>1.57935</ele>
        <time>2014-05-12T18:50:04Z</time>
      </trkpt>
      <trkpt lat="59.827513" lon="17.663905">
        <ele>1.57935</ele>
        <time>2014-05-12T18:50:05Z</time>
      </trkpt>
      <trkpt lat="59.8274887" lon="17.6639257">
        <ele>1.57935</ele>
        <time>2014-05-12T18:50:06Z</time>
      </trkpt>
      <trkpt lat="59.8274658" lon="17.6639433">
        <ele>1.57935</ele>
        <time>2014-05-12T18:50:07Z</time>
      </trkpt>
      <trkpt lat="59.8274385" lon="17.663962">
        <ele>1.09863</ele>
        <time>2014-05-12T18:50:08Z</time>
      </trkpt>
      <trkpt lat="59.8274109" lon="17.6639834">
        <ele>1.09863</ele>
        <time>2014-05-12T18:50:09Z</time>
      </trkpt>
      <trkpt lat="59.8273885" lon="17.6639985">
        <ele>0.137451</ele>
        <time>2014-05-12T18:50:10Z</time>
      </trkpt>
      <trkpt lat="59.8273703" lon="17.6640144">
        <ele>0.618042</ele>
        <time>2014-05-12T18:50:11Z</time>
      </trkpt>
      <trkpt lat="59.8273496" lon="17.6640335">
        <ele>0.137451</ele>
        <time>2014-05-12T18:50:12Z</time>
      </trkpt>
      <trkpt lat="59.8273271" lon="17.6640544">
        <ele>0</ele>
        <time>2014-05-12T18:50:13Z</time>
      </trkpt>
      <trkpt lat="59.8273057" lon="17.6640743">
        <ele>0</ele>
        <time>2014-05-12T18:50:14Z</time>
      </trkpt>
      <trkpt lat="59.8272855" lon="17.6640926">
        <ele>0</ele>
        <time>2014-05-12T18:50:15Z</time>
      </trkpt>
      <trkpt lat="59.8272615" lon="17.6641111">
        <ele>0</ele>
        <time>2014-05-12T18:50:16Z</time>
      </trkpt>
      <trkpt lat="59.8272379" lon="17.6641329">
        <ele>0</ele>
        <time>2014-05-12T18:50:17Z</time>
      </trkpt>
      <trkpt lat="59.8272202" lon="17.6641561">
        <ele>0</ele>
        <time>2014-05-12T18:50:18Z</time>
      </trkpt>
      <trkpt lat="59.827201" lon="17.6641802">
        <ele>0</ele>
        <time>2014-05-12T18:50:19Z</time>
      </trkpt>
      <trkpt lat="59.8271783" lon="17.6642044">
        <ele>0</ele>
        <time>2014-05-12T18:50:20Z</time>
      </trkpt>
      <trkpt lat="59.8271554" lon="17.6642335">
        <ele>0</ele>
        <time>2014-05-12T18:50:21Z</time>
      </trkpt>
      <trkpt lat="59.8271286" lon="17.6642595">
        <ele>0</ele>
        <time>2014-05-12T18:50:22Z</time>
      </trkpt>
      <trkpt lat="59.8271021" lon="17.6642815">
        <ele>0</ele>
        <time>2014-05-12T18:50:23Z</time>
      </trkpt>
      <trkpt lat="59.8270751" lon="17.6642987">
        <ele>0</ele>
        <time>2014-05-12T18:50:24Z</time>
      </trkpt>
      <trkpt lat="59.8270494" lon="17.6643165">
        <ele>0</ele>
        <time>2014-05-12T18:50:25Z</time>
      </trkpt>
      <trkpt lat="59.8270272" lon="17.66434">
        <ele>0</ele>
        <time>2014-05-12T18:50:26Z</time>
      </trkpt>
      <trkpt lat="59.8269989" lon="17.6643641">
        <ele>0</ele>
        <time>2014-05-12T18:50:27Z</time>
      </trkpt>
      <trkpt lat="59.8269742" lon="17.6643887">
        <ele>0</ele>
        <time>2014-05-12T18:50:28Z</time>
      </trkpt>
      <trkpt lat="59.8269494" lon="17.6644118">
        <ele>0</ele>
        <time>2014-05-12T18:50:29Z</time>
      </trkpt>
      <trkpt lat="59.8269202" lon="17.6644397">
        <ele>0</ele>
        <time>2014-05-12T18:50:30Z</time>
      </trkpt>
      <trkpt lat="59.8268908" lon="17.6644698">
        <ele>0</ele>
        <time>2014-05-12T18:50:31Z</time>
      </trkpt>
      <trkpt lat="59.8268614" lon="17.6644991">
        <ele>0</ele>
        <time>2014-05-12T18:50:32Z</time>
      </trkpt>
      <trkpt lat="59.8268369" lon="17.6645241">
        <ele>0</ele>
        <time>2014-05-12T18:50:33Z</time>
      </trkpt>
      <trkpt lat="59.8268115" lon="17.6645449">
        <ele>0</ele>
        <time>2014-05-12T18:50:34Z</time>
      </trkpt>
      <trkpt lat="59.8267857" lon="17.6645682">
        <ele>0</ele>
        <time>2014-05-12T18:50:35Z</time>
      </trkpt>
      <trkpt lat="59.8267628" lon="17.6645895">
        <ele>0</ele>
        <time>2014-05-12T18:50:36Z</time>
      </trkpt>
      <trkpt lat="59.8267409" lon="17.6646068">
        <ele>0</ele>
        <time>2014-05-12T18:50:37Z</time>
      </trkpt>
      <trkpt lat="59.8267168" lon="17.6646325">
        <ele>0</ele>
        <time>2014-05-12T18:50:38Z</time>
      </trkpt>
      <trkpt lat="59.8266981" lon="17.6646532">
        <ele>0</ele>
        <time>2014-05-12T18:50:39Z</time>
      </trkpt>
      <trkpt lat="59.8266816" lon="17.6646737">
        <ele>0</ele>
        <time>2014-05-12T18:50:40Z</time>
      </trkpt>
      <trkpt lat="59.8266624" lon="17.6647027">
        <ele>0</ele>
        <time>2014-05-12T18:50:41Z</time>
      </trkpt>
      <trkpt lat="59.8266379" lon="17.6647345">
        <ele>0</ele>
        <time>2014-05-12T18:50:42Z</time>
      </trkpt>
      <trkpt lat="59.8266111" lon="17.664781">
        <ele>0</ele>
        <time>2014-05-12T18:50:43Z</time>
      </trkpt>
      <trkpt lat="59.826581" lon="17.6648214">
        <ele>0</ele>
        <time>2014-05-12T18:50:44Z</time>
      </trkpt>
      <trkpt lat="59.8265562" lon="17.6648526">
        <ele>0</ele>
        <time>2014-05-12T18:50:45Z</time>
      </trkpt>
      <trkpt lat="59.8265339" lon="17.6648759">
        <ele>0</ele>
        <time>2014-05-12T18:50:46Z</time>
      </trkpt>
      <trkpt lat="59.8265097" lon="17.6649044">
        <ele>0</ele>
        <time>2014-05-12T18:50:47Z</time>
      </trkpt>
      <trkpt lat="59.8264842" lon="17.6649256">
        <ele>0</ele>
        <time>2014-05-12T18:50:48Z</time>
      </trkpt>
      <trkpt lat="59.8264587" lon="17.6649422">
        <ele>0</ele>
        <time>2014-05-12T18:50:49Z</time>
      </trkpt>
      <trkpt lat="59.8264345" lon="17.664967">
        <ele>0</ele>
        <time>2014-05-12T18:50:50Z</time>
      </trkpt>
      <trkpt lat="59.8264106" lon="17.6649872">
        <ele>0</ele>
        <time>2014-05-12T18:50:51Z</time>
      </trkpt>
      <trkpt lat="59.8263879" lon="17.6650055">
        <ele>0</ele>
        <time>2014-05-12T18:50:52Z</time>
      </trkpt>
      <trkpt lat="59.8263625" lon="17.6650272">
        <ele>0</ele>
        <time>2014-05-12T18:50:53Z</time>
      </trkpt>
      <trkpt lat="59.8263337" lon="17.665048">
        <ele>0</ele>
        <time>2014-05-12T18:50:54Z</time>
      </trkpt>
      <trkpt lat="59.8263065" lon="17.665073">
        <ele>0</ele>
        <time>2014-05-12T18:50:55Z</time>
      </trkpt>
      <trkpt lat="59.8262835" lon="17.6650987">
        <ele>0</ele>
        <time>2014-05-12T18:50:56Z</time>
      </trkpt>
      <trkpt lat="59.8262595" lon="17.6651194">
        <ele>0</ele>
        <time>2014-05-12T18:50:57Z</time>
      </trkpt>
      <trkpt lat="59.826234" lon="17.665139">
        <ele>0</ele>
        <time>2014-05-12T18:50:58Z</time>
      </trkpt>
      <trkpt lat="59.8262096" lon="17.6651629">
        <ele>0</ele>
        <time>2014-05-12T18:50:59Z</time>
      </trkpt>
      <trkpt lat="59.8261847" lon="17.6651865">
        <ele>0</ele>
        <time>2014-05-12T18:51:00Z</time>
      </trkpt>
      <trkpt lat="59.8261616" lon="17.6651995">
        <ele>0</ele>
        <time>2014-05-12T18:51:01Z</time>
      </trkpt>
      <trkpt lat="59.8261423" lon="17.665223">
        <ele>0</ele>
        <time>2014-05-12T18:51:02Z</time>
      </trkpt>
      <trkpt lat="59.8261188" lon="17.6652452">
        <ele>0</ele>
        <time>2014-05-12T18:51:03Z</time>
      </trkpt>
      <trkpt lat="59.8260918" lon="17.6652643">
        <ele>0</ele>
        <time>2014-05-12T18:51:04Z</time>
      </trkpt>
      <trkpt lat="59.8260687" lon="17.6652808">
        <ele>0</ele>
        <time>2014-05-12T18:51:05Z</time>
      </trkpt>
      <trkpt lat="59.826045" lon="17.6652971">
        <ele>0</ele>
        <time>2014-05-12T18:51:06Z</time>
      </trkpt>
      <trkpt lat="59.8260196" lon="17.6653165">
        <ele>0</ele>
        <time>2014-05-12T18:51:07Z</time>
      </trkpt>
      <trkpt lat="59.8259999" lon="17.6653318">
        <ele>0</ele>
        <time>2014-05-12T18:51:08Z</time>
      </trkpt>
      <trkpt lat="59.8259803" lon="17.6653456">
        <ele>0</ele>
        <time>2014-05-12T18:51:09Z</time>
      </trkpt>
      <trkpt lat="59.8259609" lon="17.665353">
        <ele>0</ele>
        <time>2014-05-12T18:51:10Z</time>
      </trkpt>
      <trkpt lat="59.8259385" lon="17.6653711">
        <ele>0</ele>
        <time>2014-05-12T18:51:11Z</time>
      </trkpt>
      <trkpt lat="59.8259139" lon="17.6653939">
        <ele>0</ele>
        <time>2014-05-12T18:51:12Z</time>
      </trkpt>
      <trkpt lat="59.8258895" lon="17.665415">
        <ele>0</ele>
        <time>2014-05-12T18:51:13Z</time>
      </trkpt>
      <trkpt lat="59.8258677" lon="17.6654356">
        <ele>0</ele>
        <time>2014-05-12T18:51:14Z</time>
      </trkpt>
      <trkpt lat="59.8258466" lon="17.6654632">
        <ele>0</ele>
        <time>2014-05-12T18:51:15Z</time>
      </trkpt>
      <trkpt lat="59.8258273" lon="17.6654891">
        <ele>0</ele>
        <time>2014-05-12T18:51:16Z</time>
      </trkpt>
      <trkpt lat="59.8258052" lon="17.6655152">
        <ele>0</ele>
        <time>2014-05-12T18:51:17Z</time>
      </trkpt>
      <trkpt lat="59.8257786" lon="17.6655384">
        <ele>0</ele>
        <time>2014-05-12T18:51:18Z</time>
      </trkpt>
      <trkpt lat="59.8257522" lon="17.665569">
        <ele>0</ele>
        <time>2014-05-12T18:51:19Z</time>
      </trkpt>
      <trkpt lat="59.8257297" lon="17.6655986">
        <ele>0</ele>
        <time>2014-05-12T18:51:20Z</time>
      </trkpt>
      <trkpt lat="59.8257129" lon="17.6656223">
        <ele>0</ele>
        <time>2014-05-12T18:51:21Z</time>
      </trkpt>
      <trkpt lat="59.8256956" lon="17.6656525">
        <ele>0</ele>
        <time>2014-05-12T18:51:22Z</time>
      </trkpt>
      <trkpt lat="59.8256761" lon="17.6656843">
        <ele>0</ele>
        <time>2014-05-12T18:51:23Z</time>
      </trkpt>
      <trkpt lat="59.8256548" lon="17.6657124">
        <ele>0</ele>
        <time>2014-05-12T18:51:24Z</time>
      </trkpt>
      <trkpt lat="59.8256351" lon="17.6657322">
        <ele>0</ele>
        <time>2014-05-12T18:51:25Z</time>
      </trkpt>
      <trkpt lat="59.825613" lon="17.6657591">
        <ele>0</ele>
        <time>2014-05-12T18:51:26Z</time>
      </trkpt>
      <trkpt lat="59.8255879" lon="17.6657838">
        <ele>0</ele>
        <time>2014-05-12T18:51:27Z</time>
      </trkpt>
      <trkpt lat="59.8255574" lon="17.6658041">
        <ele>0</ele>
        <time>2014-05-12T18:51:28Z</time>
      </trkpt>
      <trkpt lat="59.8255262" lon="17.6658249">
        <ele>0</ele>
        <time>2014-05-12T18:51:29Z</time>
      </trkpt>
      <trkpt lat="59.8254975" lon="17.6658528">
        <ele>0</ele>
        <time>2014-05-12T18:51:30Z</time>
      </trkpt>
      <trkpt lat="59.8254744" lon="17.6658778">
        <ele>0</ele>
        <time>2014-05-12T18:51:31Z</time>
      </trkpt>
      <trkpt lat="59.8254549" lon="17.6659026">
        <ele>0</ele>
        <time>2014-05-12T18:51:32Z</time>
      </trkpt>
      <trkpt lat="59.8254394" lon="17.6659288">
        <ele>0</ele>
        <time>2014-05-12T18:51:33Z</time>
      </trkpt>
      <trkpt lat="59.8254166" lon="17.6659672">
        <ele>0</ele>
        <time>2014-05-12T18:51:34Z</time>
      </trkpt>
      <trkpt lat="59.8253964" lon="17.6660037">
        <ele>0</ele>
        <time>2014-05-12T18:51:35Z</time>
      </trkpt>
      <trkpt lat="59.8253741" lon="17.66603">
        <ele>0</ele>
        <time>2014-05-12T18:51:36Z</time>
      </trkpt>
      <trkpt lat="59.8253532" lon="17.6660527">
        <ele>0</ele>
        <time>2014-05-12T18:51:37Z</time>
      </trkpt>
      <trkpt lat="59.8253338" lon="17.6660729">
        <ele>0</ele>
        <time>2014-05-12T18:51:38Z</time>
      </trkpt>
      <trkpt lat="59.8253192" lon="17.666086">
        <ele>0</ele>
        <time>2014-05-12T18:51:39Z</time>
      </trkpt>
      <trkpt lat="59.825301" lon="17.6661029">
        <ele>0</ele>
        <time>2014-05-12T18:51:40Z</time>
      </trkpt>
      <trkpt lat="59.8252839" lon="17.6661158">
        <ele>0</ele>
        <time>2014-05-12T18:51:41Z</time>
      </trkpt>
      <trkpt lat="59.8252653" lon="17.6661309">
        <ele>0</ele>
        <time>2014-05-12T18:51:42Z</time>
      </trkpt>
      <trkpt lat="59.8252452" lon="17.6661505">
        <ele>0</ele>
        <time>2014-05-12T18:51:43Z</time>
      </trkpt>
      <trkpt lat="59.8252232" lon="17.6661674">
        <ele>0</ele>
        <time>2014-05-12T18:51:44Z</time>
      </trkpt>
      <trkpt lat="59.8251979" lon="17.6661792">
        <ele>0</ele>
        <time>2014-05-12T18:51:45Z</time>
      </trkpt>
      <trkpt lat="59.8251717" lon="17.6661943">
        <ele>0</ele>
        <time>2014-05-12T18:51:46Z</time>
      </trkpt>
      <trkpt lat="59.8251457" lon="17.6662096">
        <ele>0</ele>
        <time>2014-05-12T18:51:47Z</time>
      </trkpt>
      <trkpt lat="59.8251193" lon="17.6662334">
        <ele>0</ele>
        <time>2014-05-12T18:51:48Z</time>
      </trkpt>
      <trkpt lat="59.825096" lon="17.6662531">
        <ele>0</ele>
        <time>2014-05-12T18:51:49Z</time>
      </trkpt>
      <trkpt lat="59.825071" lon="17.6662785">
        <ele>0</ele>
        <time>2014-05-12T18:51:50Z</time>
      </trkpt>
      <trkpt lat="59.8250488" lon="17.6663035">
        <ele>0</ele>
        <time>2014-05-12T18:51:51Z</time>
      </trkpt>
      <trkpt lat="59.8250243" lon="17.6663295">
        <ele>0</ele>
        <time>2014-05-12T18:51:52Z</time>
      </trkpt>
      <trkpt lat="59.8250011" lon="17.6663551">
        <ele>0</ele>
        <time>2014-05-12T18:51:53Z</time>
      </trkpt>
      <trkpt lat="59.8249795" lon="17.6663828">
        <ele>0</ele>
        <time>2014-05-12T18:51:54Z</time>
      </trkpt>
      <trkpt lat="59.82496" lon="17.6664097">
        <ele>0</ele>
        <time>2014-05-12T18:51:55Z</time>
      </trkpt>
      <trkpt lat="59.8249405" lon="17.6664444">
        <ele>0</ele>
        <time>2014-05-12T18:51:56Z</time>
      </trkpt>
      <trkpt lat="59.8249192" lon="17.6664764">
        <ele>0</ele>
        <time>2014-05-12T18:51:57Z</time>
      </trkpt>
      <trkpt lat="59.8248992" lon="17.6664983">
        <ele>0</ele>
        <time>2014-05-12T18:51:58Z</time>
      </trkpt>
      <trkpt lat="59.8248767" lon="17.66652">
        <ele>0</ele>
        <time>2014-05-12T18:51:59Z</time>
      </trkpt>
      <trkpt lat="59.8248544" lon="17.666547">
        <ele>0</ele>
        <time>2014-05-12T18:52:00Z</time>
      </trkpt>
      <trkpt lat="59.8248289" lon="17.6665694">
        <ele>0</ele>
        <time>2014-05-12T18:52:01Z</time>
      </trkpt>
      <trkpt lat="59.8248001" lon="17.6665905">
        <ele>0</ele>
        <time>2014-05-12T18:52:02Z</time>
      </trkpt>
      <trkpt lat="59.8247741" lon="17.6666116">
        <ele>0</ele>
        <time>2014-05-12T18:52:03Z</time>
      </trkpt>
      <trkpt lat="59.8247499" lon="17.6666273">
        <ele>0</ele>
        <time>2014-05-12T18:52:04Z</time>
      </trkpt>
      <trkpt lat="59.8247266" lon="17.6666392">
        <ele>0</ele>
        <time>2014-05-12T18:52:05Z</time>
      </trkpt>
      <trkpt lat="59.8247017" lon="17.6666514">
        <ele>0</ele>
        <time>2014-05-12T18:52:06Z</time>
      </trkpt>
      <trkpt lat="59.8246798" lon="17.6666547">
        <ele>0</ele>
        <time>2014-05-12T18:52:07Z</time>
      </trkpt>
      <trkpt lat="59.8246556" lon="17.6666645">
        <ele>0</ele>
        <time>2014-05-12T18:52:08Z</time>
      </trkpt>
      <trkpt lat="59.8246293" lon="17.6666801">
        <ele>0</ele>
        <time>2014-05-12T18:52:09Z</time>
      </trkpt>
      <trkpt lat="59.8246051" lon="17.6666897">
        <ele>0</ele>
        <time>2014-05-12T18:52:10Z</time>
      </trkpt>
      <trkpt lat="59.8245819" lon="17.6666937">
        <ele>0</ele>
        <time>2014-05-12T18:52:11Z</time>
      </trkpt>
      <trkpt lat="59.8245618" lon="17.666695">
        <ele>0</ele>
        <time>2014-05-12T18:52:12Z</time>
      </trkpt>
      <trkpt lat="59.8245385" lon="17.6666993">
        <ele>0</ele>
        <time>2014-05-12T18:52:13Z</time>
      </trkpt>
      <trkpt lat="59.8245167" lon="17.6667042">
        <ele>0</ele>
        <time>2014-05-12T18:52:14Z</time>
      </trkpt>
      <trkpt lat="59.8244914" lon="17.666705">
        <ele>0</ele>
        <time>2014-05-12T18:52:15Z</time>
      </trkpt>
      <trkpt lat="59.8244697" lon="17.6666978">
        <ele>0</ele>
        <time>2014-05-12T18:52:16Z</time>
      </trkpt>
      <trkpt lat="59.8244411" lon="17.6667011">
        <ele>0</ele>
        <time>2014-05-12T18:52:17Z</time>
      </trkpt>
      <trkpt lat="59.8244127" lon="17.6667138">
        <ele>0</ele>
        <time>2014-05-12T18:52:18Z</time>
      </trkpt>
      <trkpt lat="59.8243868" lon="17.6667222">
        <ele>0</ele>
        <time>2014-05-12T18:52:19Z</time>
      </trkpt>
      <trkpt lat="59.8243682" lon="17.6667272">
        <ele>0</ele>
        <time>2014-05-12T18:52:20Z</time>
      </trkpt>
      <trkpt lat="59.8243449" lon="17.6667324">
        <ele>0</ele>
        <time>2014-05-12T18:52:21Z</time>
      </trkpt>
      <trkpt lat="59.8243231" lon="17.6667443">
        <ele>0.137451</ele>
        <time>2014-05-12T18:52:22Z</time>
      </trkpt>
      <trkpt lat="59.8243027" lon="17.6667535">
        <ele>1.09863</ele>
        <time>2014-05-12T18:52:23Z</time>
      </trkpt>
      <trkpt lat="59.8242789" lon="17.6667605">
        <ele>1.09863</ele>
        <time>2014-05-12T18:52:24Z</time>
      </trkpt>
      <trkpt lat="59.8242545" lon="17.6667682">
        <ele>2.54065</ele>
        <time>2014-05-12T18:52:25Z</time>
      </trkpt>
      <trkpt lat="59.8242261" lon="17.6667773">
        <ele>3.02124</ele>
        <time>2014-05-12T18:52:26Z</time>
      </trkpt>
      <trkpt lat="59.8242002" lon="17.6667903">
        <ele>4.46326</ele>
        <time>2014-05-12T18:52:27Z</time>
      </trkpt>
      <trkpt lat="59.8241675" lon="17.6668066">
        <ele>4.46326</ele>
        <time>2014-05-12T18:52:28Z</time>
      </trkpt>
      <trkpt lat="59.8241386" lon="17.6668277">
        <ele>4.94385</ele>
        <time>2014-05-12T18:52:29Z</time>
      </trkpt>
      <trkpt lat="59.8241112" lon="17.6668556">
        <ele>5.42456</ele>
        <time>2014-05-12T18:52:30Z</time>
      </trkpt>
      <trkpt lat="59.8240827" lon="17.6668796">
        <ele>5.42456</ele>
        <time>2014-05-12T18:52:31Z</time>
      </trkpt>
      <trkpt lat="59.8240581" lon="17.6668966">
        <ele>5.90527</ele>
        <time>2014-05-12T18:52:32Z</time>
      </trkpt>
      <trkpt lat="59.824031" lon="17.6669158">
        <ele>5.90527</ele>
        <time>2014-05-12T18:52:33Z</time>
      </trkpt>
      <trkpt lat="59.8240024" lon="17.6669365">
        <ele>5.90527</ele>
        <time>2014-05-12T18:52:34Z</time>
      </trkpt>
      <trkpt lat="59.8239755" lon="17.6669493">
        <ele>5.42456</ele>
        <time>2014-05-12T18:52:35Z</time>
      </trkpt>
      <trkpt lat="59.8239449" lon="17.6669635">
        <ele>5.42456</ele>
        <time>2014-05-12T18:52:36Z</time>
      </trkpt>
      <trkpt lat="59.8239174" lon="17.6669831">
        <ele>4.94385</ele>
        <time>2014-05-12T18:52:37Z</time>
      </trkpt>
      <trkpt lat="59.8238909" lon="17.6670055">
        <ele>4.94385</ele>
        <time>2014-05-12T18:52:38Z</time>
      </trkpt>
      <trkpt lat="59.8238614" lon="17.6670267">
        <ele>4.46326</ele>
        <time>2014-05-12T18:52:39Z</time>
      </trkpt>
      <trkpt lat="59.8238376" lon="17.6670435">
        <ele>4.46326</ele>
        <time>2014-05-12T18:52:40Z</time>
      </trkpt>
      <trkpt lat="59.8238138" lon="17.6670505">
        <ele>3.98267</ele>
        <time>2014-05-12T18:52:41Z</time>
      </trkpt>
      <trkpt lat="59.8237874" lon="17.6670627">
        <ele>3.50195</ele>
        <time>2014-05-12T18:52:42Z</time>
      </trkpt>
      <trkpt lat="59.8237626" lon="17.6670731">
        <ele>3.50195</ele>
        <time>2014-05-12T18:52:43Z</time>
      </trkpt>
      <trkpt lat="59.8237387" lon="17.667081">
        <ele>3.02124</ele>
        <time>2014-05-12T18:52:44Z</time>
      </trkpt>
      <trkpt lat="59.8237157" lon="17.6670957">
        <ele>3.02124</ele>
        <time>2014-05-12T18:52:45Z</time>
      </trkpt>
      <trkpt lat="59.8236915" lon="17.6671137">
        <ele>3.02124</ele>
        <time>2014-05-12T18:52:46Z</time>
      </trkpt>
      <trkpt lat="59.823667" lon="17.6671224">
        <ele>2.54065</ele>
        <time>2014-05-12T18:52:47Z</time>
      </trkpt>
      <trkpt lat="59.8236428" lon="17.6671292">
        <ele>2.54065</ele>
        <time>2014-05-12T18:52:48Z</time>
      </trkpt>
      <trkpt lat="59.8236159" lon="17.6671394">
        <ele>2.06006</ele>
        <time>2014-05-12T18:52:49Z</time>
      </trkpt>
      <trkpt lat="59.8235869" lon="17.6671499">
        <ele>1.09863</ele>
        <time>2014-05-12T18:52:50Z</time>
      </trkpt>
      <trkpt lat="59.8235616" lon="17.6671635">
        <ele>1.09863</ele>
        <time>2014-05-12T18:52:51Z</time>
      </trkpt>
      <trkpt lat="59.8235383" lon="17.6671805">
        <ele>1.09863</ele>
        <time>2014-05-12T18:52:52Z</time>
      </trkpt>
      <trkpt lat="59.8235176" lon="17.6672038">
        <ele>0.618042</ele>
        <time>2014-05-12T18:52:53Z</time>
      </trkpt>
      <trkpt lat="59.8234956" lon="17.6672409">
        <ele>1.09863</ele>
        <time>2014-05-12T18:52:54Z</time>
      </trkpt>
      <trkpt lat="59.823473" lon="17.667278">
        <ele>2.06006</ele>
        <time>2014-05-12T18:52:55Z</time>
      </trkpt>
      <trkpt lat="59.8234595" lon="17.6672989">
        <ele>2.06006</ele>
        <time>2014-05-12T18:52:56Z</time>
      </trkpt>
      <trkpt lat="59.8234456" lon="17.667311">
        <ele>2.06006</ele>
        <time>2014-05-12T18:52:57Z</time>
      </trkpt>
      <trkpt lat="59.8234185" lon="17.6673307">
        <ele>2.54065</ele>
        <time>2014-05-12T18:52:58Z</time>
      </trkpt>
      <trkpt lat="59.823393" lon="17.6673396">
        <ele>3.02124</ele>
        <time>2014-05-12T18:52:59Z</time>
      </trkpt>
      <trkpt lat="59.8233652" lon="17.6673447">
        <ele>3.02124</ele>
        <time>2014-05-12T18:53:00Z</time>
      </trkpt>
      <trkpt lat="59.8233317" lon="17.6673509">
        <ele>2.54065</ele>
        <time>2014-05-12T18:53:01Z</time>
      </trkpt>
      <trkpt lat="59.8233056" lon="17.6673603">
        <ele>2.54065</ele>
        <time>2014-05-12T18:53:02Z</time>
      </trkpt>
      <trkpt lat="59.8232813" lon="17.6673674">
        <ele>3.02124</ele>
        <time>2014-05-12T18:53:03Z</time>
      </trkpt>
      <trkpt lat="59.8232555" lon="17.6673685">
        <ele>2.54065</ele>
        <time>2014-05-12T18:53:04Z</time>
      </trkpt>
      <trkpt lat="59.8232295" lon="17.6673753">
        <ele>2.54065</ele>
        <time>2014-05-12T18:53:05Z</time>
      </trkpt>
      <trkpt lat="59.8232036" lon="17.6673851">
        <ele>2.06006</ele>
        <time>2014-05-12T18:53:06Z</time>
      </trkpt>
      <trkpt lat="59.8231792" lon="17.6673984">
        <ele>2.54065</ele>
        <time>2014-05-12T18:53:07Z</time>
      </trkpt>
      <trkpt lat="59.8231559" lon="17.6674176">
        <ele>2.54065</ele>
        <time>2014-05-12T18:53:08Z</time>
      </trkpt>
      <trkpt lat="59.8231301" lon="17.6674326">
        <ele>2.06006</ele>
        <time>2014-05-12T18:53:09Z</time>
      </trkpt>
      <trkpt lat="59.823103" lon="17.6674468">
        <ele>2.54065</ele>
        <time>2014-05-12T18:53:10Z</time>
      </trkpt>
      <trkpt lat="59.8230834" lon="17.6674605">
        <ele>2.54065</ele>
        <time>2014-05-12T18:53:11Z</time>
      </trkpt>
      <trkpt lat="59.8230631" lon="17.6674808">
        <ele>3.02124</ele>
        <time>2014-05-12T18:53:12Z</time>
      </trkpt>
      <trkpt lat="59.8230373" lon="17.6674979">
        <ele>3.02124</ele>
        <time>2014-05-12T18:53:13Z</time>
      </trkpt>
      <trkpt lat="59.8230109" lon="17.6675155">
        <ele>3.02124</ele>
        <time>2014-05-12T18:53:14Z</time>
      </trkpt>
      <trkpt lat="59.8229917" lon="17.6675318">
        <ele>3.98267</ele>
        <time>2014-05-12T18:53:15Z</time>
      </trkpt>
      <trkpt lat="59.822971" lon="17.6675491">
        <ele>4.46326</ele>
        <time>2014-05-12T18:53:16Z</time>
      </trkpt>
      <trkpt lat="59.8229487" lon="17.667559">
        <ele>5.42456</ele>
        <time>2014-05-12T18:53:17Z</time>
      </trkpt>
      <trkpt lat="59.8229255" lon="17.6675679">
        <ele>5.90527</ele>
        <time>2014-05-12T18:53:18Z</time>
      </trkpt>
      <trkpt lat="59.8229004" lon="17.667583">
        <ele>6.86646</ele>
        <time>2014-05-12T18:53:19Z</time>
      </trkpt>
      <trkpt lat="59.8228773" lon="17.6676004">
        <ele>6.86646</ele>
        <time>2014-05-12T18:53:20Z</time>
      </trkpt>
      <trkpt lat="59.8228479" lon="17.6676187">
        <ele>7.82788</ele>
        <time>2014-05-12T18:53:21Z</time>
      </trkpt>
      <trkpt lat="59.8228192" lon="17.6676263">
        <ele>8.30859</ele>
        <time>2014-05-12T18:53:22Z</time>
      </trkpt>
      <trkpt lat="59.8227947" lon="17.6676347">
        <ele>8.78918</ele>
        <time>2014-05-12T18:53:23Z</time>
      </trkpt>
      <trkpt lat="59.8227722" lon="17.6676488">
        <ele>9.2699</ele>
        <time>2014-05-12T18:53:24Z</time>
      </trkpt>
      <trkpt lat="59.8227457" lon="17.6676569">
        <ele>9.2699</ele>
        <time>2014-05-12T18:53:25Z</time>
      </trkpt>
      <trkpt lat="59.8227157" lon="17.6676712">
        <ele>10.2312</ele>
        <time>2014-05-12T18:53:26Z</time>
      </trkpt>
      <trkpt lat="59.8226912" lon="17.6676769">
        <ele>10.7118</ele>
        <time>2014-05-12T18:53:27Z</time>
      </trkpt>
      <trkpt lat="59.8226679" lon="17.6676817">
        <ele>11.1925</ele>
        <time>2014-05-12T18:53:28Z</time>
      </trkpt>
      <trkpt lat="59.8226466" lon="17.6676954">
        <ele>12.6344</ele>
        <time>2014-05-12T18:53:29Z</time>
      </trkpt>
      <trkpt lat="59.8226238" lon="17.6676969">
        <ele>12.6344</ele>
        <time>2014-05-12T18:53:30Z</time>
      </trkpt>
      <trkpt lat="59.8226031" lon="17.6676926">
        <ele>12.6344</ele>
        <time>2014-05-12T18:53:31Z</time>
      </trkpt>
      <trkpt lat="59.8225795" lon="17.6676896">
        <ele>13.1151</ele>
        <time>2014-05-12T18:53:32Z</time>
      </trkpt>
      <trkpt lat="59.8225525" lon="17.6676865">
        <ele>12.6344</ele>
        <time>2014-05-12T18:53:33Z</time>
      </trkpt>
      <trkpt lat="59.8225297" lon="17.6676912">
        <ele>13.1151</ele>
        <time>2014-05-12T18:53:34Z</time>
      </trkpt>
      <trkpt lat="59.8225028" lon="17.6676932">
        <ele>13.1151</ele>
        <time>2014-05-12T18:53:35Z</time>
      </trkpt>
      <trkpt lat="59.8224739" lon="17.6676857">
        <ele>13.1151</ele>
        <time>2014-05-12T18:53:36Z</time>
      </trkpt>
      <trkpt lat="59.8224451" lon="17.6676879">
        <ele>13.1151</ele>
        <time>2014-05-12T18:53:37Z</time>
      </trkpt>
      <trkpt lat="59.8224246" lon="17.6676907">
        <ele>13.5958</ele>
        <time>2014-05-12T18:53:38Z</time>
      </trkpt>
      <trkpt lat="59.8224054" lon="17.6676867">
        <ele>13.1151</ele>
        <time>2014-05-12T18:53:39Z</time>
      </trkpt>
      <trkpt lat="59.8223815" lon="17.6676818">
        <ele>12.6344</ele>
        <time>2014-05-12T18:53:40Z</time>
      </trkpt>
      <trkpt lat="59.8223549" lon="17.6676798">
        <ele>12.1538</ele>
        <time>2014-05-12T18:53:41Z</time>
      </trkpt>
      <trkpt lat="59.8223282" lon="17.6676803">
        <ele>11.6732</ele>
        <time>2014-05-12T18:53:42Z</time>
      </trkpt>
      <trkpt lat="59.8223013" lon="17.6676831">
        <ele>11.1925</ele>
        <time>2014-05-12T18:53:43Z</time>
      </trkpt>
      <trkpt lat="59.8222855" lon="17.6676866">
        <ele>11.6732</ele>
        <time>2014-05-12T18:53:44Z</time>
      </trkpt>
      <trkpt lat="59.822264" lon="17.6676874">
        <ele>12.1538</ele>
        <time>2014-05-12T18:53:45Z</time>
      </trkpt>
      <trkpt lat="59.8222477" lon="17.6676954">
        <ele>13.1151</ele>
        <time>2014-05-12T18:53:46Z</time>
      </trkpt>
      <trkpt lat="59.8222441" lon="17.6677027">
        <ele>14.0764</ele>
        <time>2014-05-12T18:53:47Z</time>
      </trkpt>
      <trkpt lat="59.8222264" lon="17.6677103">
        <ele>14.557</ele>
        <time>2014-05-12T18:53:48Z</time>
      </trkpt>
      <trkpt lat="59.8222043" lon="17.6677203">
        <ele>15.5184</ele>
        <time>2014-05-12T18:53:49Z</time>
      </trkpt>
      <trkpt lat="59.8221775" lon="17.6677254">
        <ele>15.999</ele>
        <time>2014-05-12T18:53:50Z</time>
      </trkpt>
      <trkpt lat="59.82215" lon="17.6677358">
        <ele>16.9604</ele>
        <time>2014-05-12T18:53:51Z</time>
      </trkpt>
      <trkpt lat="59.8221255" lon="17.6677457">
        <ele>17.4412</ele>
        <time>2014-05-12T18:53:52Z</time>
      </trkpt>
      <trkpt lat="59.8220977" lon="17.6677499">
        <ele>16.4797</ele>
        <time>2014-05-12T18:53:53Z</time>
      </trkpt>
      <trkpt lat="59.8220681" lon="17.6677563">
        <ele>16.9604</ele>
        <time>2014-05-12T18:53:54Z</time>
      </trkpt>
      <trkpt lat="59.8220375" lon="17.6677633">
        <ele>16.9604</ele>
        <time>2014-05-12T18:53:55Z</time>
      </trkpt>
      <trkpt lat="59.8220079" lon="17.6677669">
        <ele>16.9604</ele>
        <time>2014-05-12T18:53:56Z</time>
      </trkpt>
      <trkpt lat="59.8219712" lon="17.6677675">
        <ele>16.4797</ele>
        <time>2014-05-12T18:53:57Z</time>
      </trkpt>
      <trkpt lat="59.8219403" lon="17.6677737">
        <ele>16.9604</ele>
        <time>2014-05-12T18:53:58Z</time>
      </trkpt>
      <trkpt lat="59.8219127" lon="17.6677814">
        <ele>16.9604</ele>
        <time>2014-05-12T18:53:59Z</time>
      </trkpt>
      <trkpt lat="59.8218863" lon="17.6677855">
        <ele>16.9604</ele>
        <time>2014-05-12T18:54:00Z</time>
      </trkpt>
      <trkpt lat="59.8218633" lon="17.6677912">
        <ele>17.4412</ele>
        <time>2014-05-12T18:54:01Z</time>
      </trkpt>
      <trkpt lat="59.8218402" lon="17.6677985">
        <ele>17.9218</ele>
        <time>2014-05-12T18:54:02Z</time>
      </trkpt>
      <trkpt lat="59.8218126" lon="17.6678051">
        <ele>17.9218</ele>
        <time>2014-05-12T18:54:03Z</time>
      </trkpt>
      <trkpt lat="59.8217869" lon="17.6678152">
        <ele>17.9218</ele>
        <time>2014-05-12T18:54:04Z</time>
      </trkpt>
      <trkpt lat="59.8217604" lon="17.6678175">
        <ele>17.4412</ele>
        <time>2014-05-12T18:54:05Z</time>
      </trkpt>
      <trkpt lat="59.8217323" lon="17.6678228">
        <ele>16.9604</ele>
        <time>2014-05-12T18:54:06Z</time>
      </trkpt>
      <trkpt lat="59.8217049" lon="17.6678306">
        <ele>16.4797</ele>
        <time>2014-05-12T18:54:07Z</time>
      </trkpt>
      <trkpt lat="59.8216742" lon="17.6678478">
        <ele>16.9604</ele>
        <time>2014-05-12T18:54:08Z</time>
      </trkpt>
      <trkpt lat="59.8216454" lon="17.6678637">
        <ele>16.4797</ele>
        <time>2014-05-12T18:54:09Z</time>
      </trkpt>
      <trkpt lat="59.8216157" lon="17.6678716">
        <ele>15.999</ele>
        <time>2014-05-12T18:54:10Z</time>
      </trkpt>
      <trkpt lat="59.8215919" lon="17.667888">
        <ele>16.4797</ele>
        <time>2014-05-12T18:54:11Z</time>
      </trkpt>
      <trkpt lat="59.8215688" lon="17.6679057">
        <ele>16.9604</ele>
        <time>2014-05-12T18:54:12Z</time>
      </trkpt>
      <trkpt lat="59.8215418" lon="17.6679172">
        <ele>16.4797</ele>
        <time>2014-05-12T18:54:13Z</time>
      </trkpt>
      <trkpt lat="59.8215144" lon="17.6679275">
        <ele>16.4797</ele>
        <time>2014-05-12T18:54:14Z</time>
      </trkpt>
      <trkpt lat="59.821489" lon="17.6679357">
        <ele>15.999</ele>
        <time>2014-05-12T18:54:15Z</time>
      </trkpt>
      <trkpt lat="59.8214657" lon="17.6679424">
        <ele>16.4797</ele>
        <time>2014-05-12T18:54:16Z</time>
      </trkpt>
      <trkpt lat="59.8214403" lon="17.6679483">
        <ele>15.999</ele>
        <time>2014-05-12T18:54:17Z</time>
      </trkpt>
      <trkpt lat="59.8214106" lon="17.6679544">
        <ele>14.0764</ele>
        <time>2014-05-12T18:54:18Z</time>
      </trkpt>
      <trkpt lat="59.8213839" lon="17.6679586">
        <ele>13.1151</ele>
        <time>2014-05-12T18:54:19Z</time>
      </trkpt>
      <trkpt lat="59.8213595" lon="17.6679689">
        <ele>13.5958</ele>
        <time>2014-05-12T18:54:20Z</time>
      </trkpt>
      <trkpt lat="59.8213326" lon="17.6679777">
        <ele>13.1151</ele>
        <time>2014-05-12T18:54:21Z</time>
      </trkpt>
      <trkpt lat="59.8213067" lon="17.6679835">
        <ele>13.1151</ele>
        <time>2014-05-12T18:54:22Z</time>
      </trkpt>
      <trkpt lat="59.8212811" lon="17.6679891">
        <ele>12.6344</ele>
        <time>2014-05-12T18:54:23Z</time>
      </trkpt>
      <trkpt lat="59.8212553" lon="17.6679978">
        <ele>13.1151</ele>
        <time>2014-05-12T18:54:24Z</time>
      </trkpt>
      <trkpt lat="59.8212305" lon="17.6680078">
        <ele>12.6344</ele>
        <time>2014-05-12T18:54:25Z</time>
      </trkpt>
      <trkpt lat="59.8212056" lon="17.6680207">
        <ele>12.6344</ele>
        <time>2014-05-12T18:54:26Z</time>
      </trkpt>
      <trkpt lat="59.8211801" lon="17.6680306">
        <ele>12.6344</ele>
        <time>2014-05-12T18:54:27Z</time>
      </trkpt>
      <trkpt lat="59.8211539" lon="17.6680373">
        <ele>12.6344</ele>
        <time>2014-05-12T18:54:28Z</time>
      </trkpt>
      <trkpt lat="59.8211259" lon="17.6680474">
        <ele>13.1151</ele>
        <time>2014-05-12T18:54:29Z</time>
      </trkpt>
      <trkpt lat="59.8210987" lon="17.6680548">
        <ele>13.1151</ele>
        <time>2014-05-12T18:54:30Z</time>
      </trkpt>
      <trkpt lat="59.8210789" lon="17.6680622">
        <ele>13.5958</ele>
        <time>2014-05-12T18:54:31Z</time>
      </trkpt>
      <trkpt lat="59.8210584" lon="17.6680759">
        <ele>13.5958</ele>
        <time>2014-05-12T18:54:32Z</time>
      </trkpt>
      <trkpt lat="59.8210409" lon="17.6680876">
        <ele>14.0764</ele>
        <time>2014-05-12T18:54:33Z</time>
      </trkpt>
      <trkpt lat="59.8210192" lon="17.668097">
        <ele>14.0764</ele>
        <time>2014-05-12T18:54:34Z</time>
      </trkpt>
      <trkpt lat="59.8209947" lon="17.6681068">
        <ele>13.5958</ele>
        <time>2014-05-12T18:54:35Z</time>
      </trkpt>
      <trkpt lat="59.8209696" lon="17.6681161">
        <ele>13.5958</ele>
        <time>2014-05-12T18:54:36Z</time>
      </trkpt>
      <trkpt lat="59.8209442" lon="17.6681269">
        <ele>13.1151</ele>
        <time>2014-05-12T18:54:37Z</time>
      </trkpt>
      <trkpt lat="59.8209195" lon="17.6681378">
        <ele>13.1151</ele>
        <time>2014-05-12T18:54:38Z</time>
      </trkpt>
      <trkpt lat="59.8209035" lon="17.6681563">
        <ele>14.0764</ele>
        <time>2014-05-12T18:54:39Z</time>
      </trkpt>
      <trkpt lat="59.8208791" lon="17.6681723">
        <ele>13.5958</ele>
        <time>2014-05-12T18:54:40Z</time>
      </trkpt>
      <trkpt lat="59.820852" lon="17.6681817">
        <ele>14.0764</ele>
        <time>2014-05-12T18:54:41Z</time>
      </trkpt>
      <trkpt lat="59.8208237" lon="17.6681948">
        <ele>14.0764</ele>
        <time>2014-05-12T18:54:42Z</time>
      </trkpt>
      <trkpt lat="59.8207941" lon="17.6682068">
        <ele>13.5958</ele>
        <time>2014-05-12T18:54:43Z</time>
      </trkpt>
      <trkpt lat="59.8207689" lon="17.668222">
        <ele>14.0764</ele>
        <time>2014-05-12T18:54:44Z</time>
      </trkpt>
      <trkpt lat="59.8207426" lon="17.6682423">
        <ele>14.557</ele>
        <time>2014-05-12T18:54:45Z</time>
      </trkpt>
      <trkpt lat="59.8207149" lon="17.6682548">
        <ele>15.0377</ele>
        <time>2014-05-12T18:54:46Z</time>
      </trkpt>
      <trkpt lat="59.8206885" lon="17.6682606">
        <ele>15.0377</ele>
        <time>2014-05-12T18:54:47Z</time>
      </trkpt>
      <trkpt lat="59.820661" lon="17.6682713">
        <ele>15.5184</ele>
        <time>2014-05-12T18:54:48Z</time>
      </trkpt>
      <trkpt lat="59.8206348" lon="17.6682818">
        <ele>15.5184</ele>
        <time>2014-05-12T18:54:49Z</time>
      </trkpt>
      <trkpt lat="59.8206077" lon="17.6682958">
        <ele>15.5184</ele>
        <time>2014-05-12T18:54:50Z</time>
      </trkpt>
      <trkpt lat="59.8205823" lon="17.6683098">
        <ele>15.5184</ele>
        <time>2014-05-12T18:54:51Z</time>
      </trkpt>
      <trkpt lat="59.8205569" lon="17.668321">
        <ele>15.0377</ele>
        <time>2014-05-12T18:54:52Z</time>
      </trkpt>
      <trkpt lat="59.8205317" lon="17.6683384">
        <ele>15.5184</ele>
        <time>2014-05-12T18:54:53Z</time>
      </trkpt>
      <trkpt lat="59.8205058" lon="17.6683485">
        <ele>15.0377</ele>
        <time>2014-05-12T18:54:54Z</time>
      </trkpt>
      <trkpt lat="59.8204825" lon="17.6683629">
        <ele>15.5184</ele>
        <time>2014-05-12T18:54:55Z</time>
      </trkpt>
      <trkpt lat="59.8204557" lon="17.6683715">
        <ele>14.557</ele>
        <time>2014-05-12T18:54:56Z</time>
      </trkpt>
      <trkpt lat="59.8204306" lon="17.6683797">
        <ele>14.0764</ele>
        <time>2014-05-12T18:54:57Z</time>
      </trkpt>
      <trkpt lat="59.8204067" lon="17.6683901">
        <ele>14.0764</ele>
        <time>2014-05-12T18:54:58Z</time>
      </trkpt>
      <trkpt lat="59.8203845" lon="17.668404">
        <ele>14.557</ele>
        <time>2014-05-12T18:54:59Z</time>
      </trkpt>
      <trkpt lat="59.8203647" lon="17.6684164">
        <ele>14.557</ele>
        <time>2014-05-12T18:55:00Z</time>
      </trkpt>
      <trkpt lat="59.8203446" lon="17.6684326">
        <ele>14.557</ele>
        <time>2014-05-12T18:55:01Z</time>
      </trkpt>
      <trkpt lat="59.8203245" lon="17.6684443">
        <ele>13.5958</ele>
        <time>2014-05-12T18:55:02Z</time>
      </trkpt>
      <trkpt lat="59.8202986" lon="17.6684567">
        <ele>13.5958</ele>
        <time>2014-05-12T18:55:03Z</time>
      </trkpt>
      <trkpt lat="59.8202684" lon="17.6684719">
        <ele>13.1151</ele>
        <time>2014-05-12T18:55:04Z</time>
      </trkpt>
      <trkpt lat="59.8202378" lon="17.6684843">
        <ele>12.6344</ele>
        <time>2014-05-12T18:55:05Z</time>
      </trkpt>
      <trkpt lat="59.8202067" lon="17.6685038">
        <ele>13.1151</ele>
        <time>2014-05-12T18:55:06Z</time>
      </trkpt>
      <trkpt lat="59.8201793" lon="17.6685205">
        <ele>12.6344</ele>
        <time>2014-05-12T18:55:07Z</time>
      </trkpt>
      <trkpt lat="59.8201561" lon="17.6685382">
        <ele>11.6732</ele>
        <time>2014-05-12T18:55:08Z</time>
      </trkpt>
      <trkpt lat="59.8201353" lon="17.6685484">
        <ele>10.7118</ele>
        <time>2014-05-12T18:55:09Z</time>
      </trkpt>
      <trkpt lat="59.8201127" lon="17.6685613">
        <ele>10.2312</ele>
        <time>2014-05-12T18:55:10Z</time>
      </trkpt>
      <trkpt lat="59.8200871" lon="17.6685782">
        <ele>9.2699</ele>
        <time>2014-05-12T18:55:11Z</time>
      </trkpt>
      <trkpt lat="59.8200634" lon="17.6685927">
        <ele>8.30859</ele>
        <time>2014-05-12T18:55:12Z</time>
      </trkpt>
      <trkpt lat="59.8200368" lon="17.6686039">
        <ele>7.34717</ele>
        <time>2014-05-12T18:55:13Z</time>
      </trkpt>
      <trkpt lat="59.8200118" lon="17.6686191">
        <ele>7.34717</ele>
        <time>2014-05-12T18:55:14Z</time>
      </trkpt>
      <trkpt lat="59.8199851" lon="17.668634">
        <ele>6.86646</ele>
        <time>2014-05-12T18:55:15Z</time>
      </trkpt>
      <trkpt lat="59.8199589" lon="17.6686461">
        <ele>6.38586</ele>
        <time>2014-05-12T18:55:16Z</time>
      </trkpt>
      <trkpt lat="59.8199317" lon="17.6686579">
        <ele>5.42456</ele>
        <time>2014-05-12T18:55:17Z</time>
      </trkpt>
      <trkpt lat="59.8199048" lon="17.6686703">
        <ele>5.42456</ele>
        <time>2014-05-12T18:55:18Z</time>
      </trkpt>
      <trkpt lat="59.8198816" lon="17.6686799">
        <ele>4.94385</ele>
        <time>2014-05-12T18:55:19Z</time>
      </trkpt>
      <trkpt lat="59.8198592" lon="17.6686878">
        <ele>4.94385</ele>
        <time>2014-05-12T18:55:20Z</time>
      </trkpt>
      <trkpt lat="59.819833" lon="17.6687036">
        <ele>5.42456</ele>
        <time>2014-05-12T18:55:21Z</time>
      </trkpt>
      <trkpt lat="59.819805" lon="17.6687255">
        <ele>5.42456</ele>
        <time>2014-05-12T18:55:22Z</time>
      </trkpt>
      <trkpt lat="59.8197791" lon="17.6687414">
        <ele>5.90527</ele>
        <time>2014-05-12T18:55:23Z</time>
      </trkpt>
      <trkpt lat="59.8197556" lon="17.6687547">
        <ele>6.86646</ele>
        <time>2014-05-12T18:55:24Z</time>
      </trkpt>
      <trkpt lat="59.8197291" lon="17.6687666">
        <ele>6.38586</ele>
        <time>2014-05-12T18:55:25Z</time>
      </trkpt>
      <trkpt lat="59.8197039" lon="17.6687737">
        <ele>6.86646</ele>
        <time>2014-05-12T18:55:26Z</time>
      </trkpt>
      <trkpt lat="59.8196776" lon="17.6687763">
        <ele>6.86646</ele>
        <time>2014-05-12T18:55:27Z</time>
      </trkpt>
      <trkpt lat="59.8196527" lon="17.6687796">
        <ele>6.86646</ele>
        <time>2014-05-12T18:55:28Z</time>
      </trkpt>
      <trkpt lat="59.8196253" lon="17.6687853">
        <ele>6.38586</ele>
        <time>2014-05-12T18:55:29Z</time>
      </trkpt>
      <trkpt lat="59.8195966" lon="17.6687942">
        <ele>6.38586</ele>
        <time>2014-05-12T18:55:30Z</time>
      </trkpt>
      <trkpt lat="59.8195675" lon="17.6688008">
        <ele>6.38586</ele>
        <time>2014-05-12T18:55:31Z</time>
      </trkpt>
      <trkpt lat="59.8195429" lon="17.6687989">
        <ele>6.38586</ele>
        <time>2014-05-12T18:55:32Z</time>
      </trkpt>
      <trkpt lat="59.8195224" lon="17.6687904">
        <ele>5.90527</ele>
        <time>2014-05-12T18:55:33Z</time>
      </trkpt>
      <trkpt lat="59.8195024" lon="17.6687778">
        <ele>6.38586</ele>
        <time>2014-05-12T18:55:34Z</time>
      </trkpt>
      <trkpt lat="59.8194874" lon="17.6687504">
        <ele>5.90527</ele>
        <time>2014-05-12T18:55:35Z</time>
      </trkpt>
      <trkpt lat="59.8194655" lon="17.6687371">
        <ele>5.42456</ele>
        <time>2014-05-12T18:55:36Z</time>
      </trkpt>
      <trkpt lat="59.819446" lon="17.6687291">
        <ele>4.94385</ele>
        <time>2014-05-12T18:55:37Z</time>
      </trkpt>
      <trkpt lat="59.8194202" lon="17.668731">
        <ele>4.46326</ele>
        <time>2014-05-12T18:55:38Z</time>
      </trkpt>
      <trkpt lat="59.8193966" lon="17.6687319">
        <ele>4.46326</ele>
        <time>2014-05-12T18:55:39Z</time>
      </trkpt>
      <trkpt lat="59.8193807" lon="17.6687263">
        <ele>4.46326</ele>
        <time>2014-05-12T18:55:40Z</time>
      </trkpt>
      <trkpt lat="59.8193684" lon="17.6687261">
        <ele>4.46326</ele>
        <time>2014-05-12T18:55:41Z</time>
      </trkpt>
      <trkpt lat="59.8193551" lon="17.6687374">
        <ele>4.94385</ele>
        <time>2014-05-12T18:55:42Z</time>
      </trkpt>
      <trkpt lat="59.8193324" lon="17.6687525">
        <ele>4.94385</ele>
        <time>2014-05-12T18:55:43Z</time>
      </trkpt>
      <trkpt lat="59.8193083" lon="17.6687681">
        <ele>4.94385</ele>
        <time>2014-05-12T18:55:44Z</time>
      </trkpt>
      <trkpt lat="59.8192765" lon="17.6687775">
        <ele>4.46326</ele>
        <time>2014-05-12T18:55:45Z</time>
      </trkpt>
      <trkpt lat="59.8192486" lon="17.6687888">
        <ele>4.46326</ele>
        <time>2014-05-12T18:55:46Z</time>
      </trkpt>
      <trkpt lat="59.8192227" lon="17.6687946">
        <ele>3.98267</ele>
        <time>2014-05-12T18:55:47Z</time>
      </trkpt>
      <trkpt lat="59.8191951" lon="17.6688055">
        <ele>3.98267</ele>
        <time>2014-05-12T18:55:48Z</time>
      </trkpt>
      <trkpt lat="59.81917" lon="17.6688127">
        <ele>3.50195</ele>
        <time>2014-05-12T18:55:49Z</time>
      </trkpt>
      <trkpt lat="59.8191372" lon="17.6688248">
        <ele>3.02124</ele>
        <time>2014-05-12T18:55:50Z</time>
      </trkpt>
      <trkpt lat="59.8191176" lon="17.6688302">
        <ele>3.02124</ele>
        <time>2014-05-12T18:55:51Z</time>
      </trkpt>
      <trkpt lat="59.8190932" lon="17.668846">
        <ele>2.54065</ele>
        <time>2014-05-12T18:55:52Z</time>
      </trkpt>
      <trkpt lat="59.81907" lon="17.6688588">
        <ele>2.54065</ele>
        <time>2014-05-12T18:55:53Z</time>
      </trkpt>
      <trkpt lat="59.8190456" lon="17.6688561">
        <ele>1.57935</ele>
        <time>2014-05-12T18:55:54Z</time>
      </trkpt>
      <trkpt lat="59.8190236" lon="17.6688543">
        <ele>1.57935</ele>
        <time>2014-05-12T18:55:55Z</time>
      </trkpt>
      <trkpt lat="59.8189946" lon="17.6688605">
        <ele>1.09863</ele>
        <time>2014-05-12T18:55:56Z</time>
      </trkpt>
      <trkpt lat="59.818964" lon="17.6688704">
        <ele>1.57935</ele>
        <time>2014-05-12T18:55:57Z</time>
      </trkpt>
      <trkpt lat="59.8189368" lon="17.6688754">
        <ele>0.618042</ele>
        <time>2014-05-12T18:55:58Z</time>
      </trkpt>
      <trkpt lat="59.818913" lon="17.6688766">
        <ele>1.09863</ele>
        <time>2014-05-12T18:55:59Z</time>
      </trkpt>
      <trkpt lat="59.8188886" lon="17.6688744">
        <ele>1.09863</ele>
        <time>2014-05-12T18:56:00Z</time>
      </trkpt>
      <trkpt lat="59.8188606" lon="17.6688698">
        <ele>0.137451</ele>
        <time>2014-05-12T18:56:01Z</time>
      </trkpt>
      <trkpt lat="59.8188316" lon="17.6688664">
        <ele>0</ele>
        <time>2014-05-12T18:56:02Z</time>
      </trkpt>
      <trkpt lat="59.8188036" lon="17.6688646">
        <ele>0</ele>
        <time>2014-05-12T18:56:03Z</time>
      </trkpt>
      <trkpt lat="59.8187776" lon="17.6688621">
        <ele>0</ele>
        <time>2014-05-12T18:56:04Z</time>
      </trkpt>
      <trkpt lat="59.8187566" lon="17.6688643">
        <ele>0</ele>
        <time>2014-05-12T18:56:05Z</time>
      </trkpt>
      <trkpt lat="59.8187429" lon="17.6688656">
        <ele>0</ele>
        <time>2014-05-12T18:56:06Z</time>
      </trkpt>
      <trkpt lat="59.8187296" lon="17.6688635">
        <ele>0</ele>
        <time>2014-05-12T18:56:07Z</time>
      </trkpt>
      <trkpt lat="59.81871" lon="17.6688651">
        <ele>0</ele>
        <time>2014-05-12T18:56:08Z</time>
      </trkpt>
      <trkpt lat="59.8186876" lon="17.6688763">
        <ele>0</ele>
        <time>2014-05-12T18:56:09Z</time>
      </trkpt>
      <trkpt lat="59.8186626" lon="17.6688806">
        <ele>0</ele>
        <time>2014-05-12T18:56:10Z</time>
      </trkpt>
      <trkpt lat="59.8186289" lon="17.6688906">
        <ele>0</ele>
        <time>2014-05-12T18:56:11Z</time>
      </trkpt>
      <trkpt lat="59.8185929" lon="17.6689053">
        <ele>0</ele>
        <time>2014-05-12T18:56:12Z</time>
      </trkpt>
      <trkpt lat="59.818565" lon="17.6688999">
        <ele>0</ele>
        <time>2014-05-12T18:56:13Z</time>
      </trkpt>
      <trkpt lat="59.8185388" lon="17.668891">
        <ele>0.137451</ele>
        <time>2014-05-12T18:56:14Z</time>
      </trkpt>
      <trkpt lat="59.8185121" lon="17.6688857">
        <ele>0.137451</ele>
        <time>2014-05-12T18:56:15Z</time>
      </trkpt>
      <trkpt lat="59.8184881" lon="17.6688797">
        <ele>1.09863</ele>
        <time>2014-05-12T18:56:16Z</time>
      </trkpt>
      <trkpt lat="59.8184618" lon="17.6688724">
        <ele>1.57935</ele>
        <time>2014-05-12T18:56:17Z</time>
      </trkpt>
      <trkpt lat="59.8184367" lon="17.6688604">
        <ele>2.06006</ele>
        <time>2014-05-12T18:56:18Z</time>
      </trkpt>
      <trkpt lat="59.81841" lon="17.6688463">
        <ele>1.57935</ele>
        <time>2014-05-12T18:56:19Z</time>
      </trkpt>
      <trkpt lat="59.8183876" lon="17.6688364">
        <ele>1.57935</ele>
        <time>2014-05-12T18:56:20Z</time>
      </trkpt>
      <trkpt lat="59.8183714" lon="17.6688232">
        <ele>2.06006</ele>
        <time>2014-05-12T18:56:21Z</time>
      </trkpt>
      <trkpt lat="59.8183529" lon="17.6688081">
        <ele>2.06006</ele>
        <time>2014-05-12T18:56:22Z</time>
      </trkpt>
      <trkpt lat="59.8183305" lon="17.6687873">
        <ele>2.06006</ele>
        <time>2014-05-12T18:56:23Z</time>
      </trkpt>
      <trkpt lat="59.8183069" lon="17.6687662">
        <ele>2.06006</ele>
        <time>2014-05-12T18:56:24Z</time>
      </trkpt>
      <trkpt lat="59.8182842" lon="17.668747">
        <ele>2.06006</ele>
        <time>2014-05-12T18:56:25Z</time>
      </trkpt>
      <trkpt lat="59.8182577" lon="17.668739">
        <ele>2.06006</ele>
        <time>2014-05-12T18:56:26Z</time>
      </trkpt>
      <trkpt lat="59.8182285" lon="17.6687428">
        <ele>2.54065</ele>
        <time>2014-05-12T18:56:27Z</time>
      </trkpt>
      <trkpt lat="59.8182052" lon="17.6687365">
        <ele>3.02124</ele>
        <time>2014-05-12T18:56:28Z</time>
      </trkpt>
      <trkpt lat="59.8181831" lon="17.6687262">
        <ele>3.02124</ele>
        <time>2014-05-12T18:56:29Z</time>
      </trkpt>
      <trkpt lat="59.8181577" lon="17.6687159">
        <ele>3.02124</ele>
        <time>2014-05-12T18:56:30Z</time>
      </trkpt>
      <trkpt lat="59.8181266" lon="17.6687043">
        <ele>3.02124</ele>
        <time>2014-05-12T18:56:31Z</time>
      </trkpt>
      <trkpt lat="59.8180955" lon="17.6686868">
        <ele>2.54065</ele>
        <time>2014-05-12T18:56:32Z</time>
      </trkpt>
      <trkpt lat="59.8180658" lon="17.6686739">
        <ele>2.54065</ele>
        <time>2014-05-12T18:56:33Z</time>
      </trkpt>
      <trkpt lat="59.8180406" lon="17.6686516">
        <ele>2.54065</ele>
        <time>2014-05-12T18:56:34Z</time>
      </trkpt>
      <trkpt lat="59.8180178" lon="17.6686316">
        <ele>2.06006</ele>
        <time>2014-05-12T18:56:35Z</time>
      </trkpt>
      <trkpt lat="59.8179956" lon="17.6686133">
        <ele>2.06006</ele>
        <time>2014-05-12T18:56:36Z</time>
      </trkpt>
      <trkpt lat="59.8179737" lon="17.6685952">
        <ele>1.57935</ele>
        <time>2014-05-12T18:56:37Z</time>
      </trkpt>
      <trkpt lat="59.8179453" lon="17.6685859">
        <ele>1.57935</ele>
        <time>2014-05-12T18:56:38Z</time>
      </trkpt>
      <trkpt lat="59.8179176" lon="17.6685743">
        <ele>1.57935</ele>
        <time>2014-05-12T18:56:39Z</time>
      </trkpt>
      <trkpt lat="59.8178931" lon="17.668561">
        <ele>1.57935</ele>
        <time>2014-05-12T18:56:40Z</time>
      </trkpt>
      <trkpt lat="59.8178691" lon="17.6685523">
        <ele>1.57935</ele>
        <time>2014-05-12T18:56:41Z</time>
      </trkpt>
      <trkpt lat="59.8178464" lon="17.6685399">
        <ele>1.57935</ele>
        <time>2014-05-12T18:56:42Z</time>
      </trkpt>
      <trkpt lat="59.8178184" lon="17.6685237">
        <ele>0.618042</ele>
        <time>2014-05-12T18:56:43Z</time>
      </trkpt>
      <trkpt lat="59.8177881" lon="17.6685097">
        <ele>1.57935</ele>
        <time>2014-05-12T18:56:44Z</time>
      </trkpt>
      <trkpt lat="59.8177604" lon="17.668504">
        <ele>2.54065</ele>
        <time>2014-05-12T18:56:45Z</time>
      </trkpt>
      <trkpt lat="59.8177322" lon="17.6685004">
        <ele>3.02124</ele>
        <time>2014-05-12T18:56:46Z</time>
      </trkpt>
      <trkpt lat="59.8177014" lon="17.6684978">
        <ele>3.50195</ele>
        <time>2014-05-12T18:56:47Z</time>
      </trkpt>
      <trkpt lat="59.8176708" lon="17.6684976">
        <ele>3.98267</ele>
        <time>2014-05-12T18:56:48Z</time>
      </trkpt>
      <trkpt lat="59.8176428" lon="17.6685008">
        <ele>4.94385</ele>
        <time>2014-05-12T18:56:49Z</time>
      </trkpt>
      <trkpt lat="59.8176158" lon="17.668503">
        <ele>5.90527</ele>
        <time>2014-05-12T18:56:50Z</time>
      </trkpt>
      <trkpt lat="59.8175915" lon="17.6684971">
        <ele>5.90527</ele>
        <time>2014-05-12T18:56:51Z</time>
      </trkpt>
      <trkpt lat="59.817564" lon="17.6684962">
        <ele>6.38586</ele>
        <time>2014-05-12T18:56:52Z</time>
      </trkpt>
      <trkpt lat="59.8175367" lon="17.6685015">
        <ele>7.34717</ele>
        <time>2014-05-12T18:56:53Z</time>
      </trkpt>
      <trkpt lat="59.8175146" lon="17.6684881">
        <ele>7.82788</ele>
        <time>2014-05-12T18:56:54Z</time>
      </trkpt>
      <trkpt lat="59.8174879" lon="17.6684585">
        <ele>7.34717</ele>
        <time>2014-05-12T18:56:55Z</time>
      </trkpt>
      <trkpt lat="59.8174656" lon="17.6684289">
        <ele>7.82788</ele>
        <time>2014-05-12T18:56:56Z</time>
      </trkpt>
      <trkpt lat="59.8174416" lon="17.6684044">
        <ele>8.30859</ele>
        <time>2014-05-12T18:56:57Z</time>
      </trkpt>
      <trkpt lat="59.8174174" lon="17.6683761">
        <ele>8.78918</ele>
        <time>2014-05-12T18:56:58Z</time>
      </trkpt>
      <trkpt lat="59.817392" lon="17.6683479">
        <ele>8.78918</ele>
        <time>2014-05-12T18:56:59Z</time>
      </trkpt>
      <trkpt lat="59.8173688" lon="17.6683284">
        <ele>8.78918</ele>
        <time>2014-05-12T18:57:00Z</time>
      </trkpt>
      <trkpt lat="59.8173437" lon="17.6683178">
        <ele>8.30859</ele>
        <time>2014-05-12T18:57:01Z</time>
      </trkpt>
      <trkpt lat="59.8173231" lon="17.668315">
        <ele>8.78918</ele>
        <time>2014-05-12T18:57:02Z</time>
      </trkpt>
      <trkpt lat="59.8173056" lon="17.6683122">
        <ele>9.75061</ele>
        <time>2014-05-12T18:57:03Z</time>
      </trkpt>
      <trkpt lat="59.8172864" lon="17.668304">
        <ele>10.2312</ele>
        <time>2014-05-12T18:57:04Z</time>
      </trkpt>
      <trkpt lat="59.8172722" lon="17.6682886">
        <ele>10.2312</ele>
        <time>2014-05-12T18:57:05Z</time>
      </trkpt>
      <trkpt lat="59.8172572" lon="17.6682819">
        <ele>11.1925</ele>
        <time>2014-05-12T18:57:06Z</time>
      </trkpt>
      <trkpt lat="59.8172341" lon="17.6682813">
        <ele>11.1925</ele>
        <time>2014-05-12T18:57:07Z</time>
      </trkpt>
      <trkpt lat="59.8172061" lon="17.6682829">
        <ele>11.1925</ele>
        <time>2014-05-12T18:57:08Z</time>
      </trkpt>
      <trkpt lat="59.8171826" lon="17.6682734">
        <ele>10.7118</ele>
        <time>2014-05-12T18:57:09Z</time>
      </trkpt>
      <trkpt lat="59.817159" lon="17.6682672">
        <ele>9.75061</ele>
        <time>2014-05-12T18:57:10Z</time>
      </trkpt>
      <trkpt lat="59.8171331" lon="17.6682676">
        <ele>9.2699</ele>
        <time>2014-05-12T18:57:11Z</time>
      </trkpt>
      <trkpt lat="59.8171041" lon="17.6682626">
        <ele>7.82788</ele>
        <time>2014-05-12T18:57:12Z</time>
      </trkpt>
      <trkpt lat="59.817079" lon="17.6682569">
        <ele>7.82788</ele>
        <time>2014-05-12T18:57:13Z</time>
      </trkpt>
      <trkpt lat="59.8170586" lon="17.668247">
        <ele>7.82788</ele>
        <time>2014-05-12T18:57:14Z</time>
      </trkpt>
      <trkpt lat="59.8170327" lon="17.6682486">
        <ele>7.82788</ele>
        <time>2014-05-12T18:57:15Z</time>
      </trkpt>
      <trkpt lat="59.8170049" lon="17.6682523">
        <ele>7.34717</ele>
        <time>2014-05-12T18:57:16Z</time>
      </trkpt>
      <trkpt lat="59.8169791" lon="17.6682487">
        <ele>7.34717</ele>
        <time>2014-05-12T18:57:17Z</time>
      </trkpt>
      <trkpt lat="59.8169558" lon="17.6682471">
        <ele>7.34717</ele>
        <time>2014-05-12T18:57:18Z</time>
      </trkpt>
      <trkpt lat="59.816926" lon="17.6682692">
        <ele>7.34717</ele>
        <time>2014-05-12T18:57:19Z</time>
      </trkpt>
      <trkpt lat="59.8168993" lon="17.668286">
        <ele>7.34717</ele>
        <time>2014-05-12T18:57:20Z</time>
      </trkpt>
      <trkpt lat="59.8168786" lon="17.6682927">
        <ele>7.34717</ele>
        <time>2014-05-12T18:57:21Z</time>
      </trkpt>
      <trkpt lat="59.8168549" lon="17.6682983">
        <ele>7.34717</ele>
        <time>2014-05-12T18:57:22Z</time>
      </trkpt>
      <trkpt lat="59.8168322" lon="17.6682979">
        <ele>6.86646</ele>
        <time>2014-05-12T18:57:23Z</time>
      </trkpt>
      <trkpt lat="59.8168058" lon="17.6682989">
        <ele>5.90527</ele>
        <time>2014-05-12T18:57:24Z</time>
      </trkpt>
      <trkpt lat="59.816784" lon="17.6682994">
        <ele>6.38586</ele>
        <time>2014-05-12T18:57:25Z</time>
      </trkpt>
      <trkpt lat="59.8167677" lon="17.6682959">
        <ele>7.34717</ele>
        <time>2014-05-12T18:57:26Z</time>
      </trkpt>
      <trkpt lat="59.8167497" lon="17.668294">
        <ele>8.30859</ele>
        <time>2014-05-12T18:57:27Z</time>
      </trkpt>
      <trkpt lat="59.8167295" lon="17.6682853">
        <ele>8.30859</ele>
        <time>2014-05-12T18:57:28Z</time>
      </trkpt>
      <trkpt lat="59.8167067" lon="17.6682754">
        <ele>8.30859</ele>
        <time>2014-05-12T18:57:29Z</time>
      </trkpt>
      <trkpt lat="59.8166809" lon="17.6682718">
        <ele>7.82788</ele>
        <time>2014-05-12T18:57:30Z</time>
      </trkpt>
      <trkpt lat="59.8166586" lon="17.6682638">
        <ele>8.30859</ele>
        <time>2014-05-12T18:57:31Z</time>
      </trkpt>
      <trkpt lat="59.8166346" lon="17.6682412">
        <ele>8.30859</ele>
        <time>2014-05-12T18:57:32Z</time>
      </trkpt>
      <trkpt lat="59.8166123" lon="17.6682295">
        <ele>10.2312</ele>
        <time>2014-05-12T18:57:33Z</time>
      </trkpt>
      <trkpt lat="59.8165922" lon="17.6682165">
        <ele>12.6344</ele>
        <time>2014-05-12T18:57:34Z</time>
      </trkpt>
      <trkpt lat="59.8165644" lon="17.6682082">
        <ele>13.5958</ele>
        <time>2014-05-12T18:57:35Z</time>
      </trkpt>
      <trkpt lat="59.8165565" lon="17.6681863">
        <ele>16.4797</ele>
        <time>2014-05-12T18:57:36Z</time>
      </trkpt>
      <trkpt lat="59.8165436" lon="17.6681602">
        <ele>18.4023</ele>
        <time>2014-05-12T18:57:37Z</time>
      </trkpt>
      <trkpt lat="59.8165244" lon="17.6681461">
        <ele>19.8444</ele>
        <time>2014-05-12T18:57:38Z</time>
      </trkpt>
      <trkpt lat="59.8164906" lon="17.6681419">
        <ele>18.8831</ele>
        <time>2014-05-12T18:57:39Z</time>
      </trkpt>
      <trkpt lat="59.8164569" lon="17.6681233">
        <ele>17.9218</ele>
        <time>2014-05-12T18:57:40Z</time>
      </trkpt>
      <trkpt lat="59.8164249" lon="17.668108">
        <ele>17.9218</ele>
        <time>2014-05-12T18:57:41Z</time>
      </trkpt>
      <trkpt lat="59.8163908" lon="17.6680947">
        <ele>16.9604</ele>
        <time>2014-05-12T18:57:42Z</time>
      </trkpt>
      <trkpt lat="59.8163498" lon="17.6680951">
        <ele>16.4797</ele>
        <time>2014-05-12T18:57:43Z</time>
      </trkpt>
      <trkpt lat="59.8163053" lon="17.6680906">
        <ele>15.5184</ele>
        <time>2014-05-12T18:57:44Z</time>
      </trkpt>
      <trkpt lat="59.8162725" lon="17.6680772">
        <ele>14.557</ele>
        <time>2014-05-12T18:57:45Z</time>
      </trkpt>
      <trkpt lat="59.8162497" lon="17.6680657">
        <ele>14.0764</ele>
        <time>2014-05-12T18:57:46Z</time>
      </trkpt>
      <trkpt lat="59.816225" lon="17.6680511">
        <ele>13.1151</ele>
        <time>2014-05-12T18:57:47Z</time>
      </trkpt>
      <trkpt lat="59.8161995" lon="17.6680435">
        <ele>11.6732</ele>
        <time>2014-05-12T18:57:48Z</time>
      </trkpt>
      <trkpt lat="59.8161714" lon="17.6680352">
        <ele>10.7118</ele>
        <time>2014-05-12T18:57:49Z</time>
      </trkpt>
      <trkpt lat="59.8161383" lon="17.6680322">
        <ele>9.75061</ele>
        <time>2014-05-12T18:57:50Z</time>
      </trkpt>
      <trkpt lat="59.8161056" lon="17.6680233">
        <ele>8.78918</ele>
        <time>2014-05-12T18:57:51Z</time>
      </trkpt>
      <trkpt lat="59.8160801" lon="17.6680093">
        <ele>8.30859</ele>
        <time>2014-05-12T18:57:52Z</time>
      </trkpt>
      <trkpt lat="59.8160525" lon="17.6679995">
        <ele>7.82788</ele>
        <time>2014-05-12T18:57:53Z</time>
      </trkpt>
      <trkpt lat="59.8160226" lon="17.6679891">
        <ele>7.34717</ele>
        <time>2014-05-12T18:57:54Z</time>
      </trkpt>
      <trkpt lat="59.8159912" lon="17.6679801">
        <ele>7.34717</ele>
        <time>2014-05-12T18:57:55Z</time>
      </trkpt>
      <trkpt lat="59.8159634" lon="17.6679704">
        <ele>7.82788</ele>
        <time>2014-05-12T18:57:56Z</time>
      </trkpt>
      <trkpt lat="59.8159379" lon="17.6679565">
        <ele>7.82788</ele>
        <time>2014-05-12T18:57:57Z</time>
      </trkpt>
      <trkpt lat="59.8159125" lon="17.667944">
        <ele>7.82788</ele>
        <time>2014-05-12T18:57:58Z</time>
      </trkpt>
      <trkpt lat="59.8158857" lon="17.6679345">
        <ele>7.34717</ele>
        <time>2014-05-12T18:57:59Z</time>
      </trkpt>
      <trkpt lat="59.8158572" lon="17.667927">
        <ele>7.34717</ele>
        <time>2014-05-12T18:58:00Z</time>
      </trkpt>
      <trkpt lat="59.8158307" lon="17.6679172">
        <ele>6.86646</ele>
        <time>2014-05-12T18:58:01Z</time>
      </trkpt>
      <trkpt lat="59.8158049" lon="17.6679073">
        <ele>6.38586</ele>
        <time>2014-05-12T18:58:02Z</time>
      </trkpt>
      <trkpt lat="59.8157814" lon="17.6678996">
        <ele>6.86646</ele>
        <time>2014-05-12T18:58:03Z</time>
      </trkpt>
      <trkpt lat="59.8157614" lon="17.6678903">
        <ele>6.38586</ele>
        <time>2014-05-12T18:58:04Z</time>
      </trkpt>
      <trkpt lat="59.8157396" lon="17.6678758">
        <ele>6.86646</ele>
        <time>2014-05-12T18:58:05Z</time>
      </trkpt>
      <trkpt lat="59.8157148" lon="17.6678581">
        <ele>6.86646</ele>
        <time>2014-05-12T18:58:06Z</time>
      </trkpt>
      <trkpt lat="59.8156867" lon="17.6678436">
        <ele>5.90527</ele>
        <time>2014-05-12T18:58:07Z</time>
      </trkpt>
      <trkpt lat="59.8156578" lon="17.6678337">
        <ele>5.42456</ele>
        <time>2014-05-12T18:58:08Z</time>
      </trkpt>
      <trkpt lat="59.8156335" lon="17.6678249">
        <ele>4.94385</ele>
        <time>2014-05-12T18:58:09Z</time>
      </trkpt>
      <trkpt lat="59.815607" lon="17.6678097">
        <ele>4.46326</ele>
        <time>2014-05-12T18:58:10Z</time>
      </trkpt>
      <trkpt lat="59.8155759" lon="17.6677952">
        <ele>3.50195</ele>
        <time>2014-05-12T18:58:11Z</time>
      </trkpt>
      <trkpt lat="59.8155479" lon="17.6677911">
        <ele>3.50195</ele>
        <time>2014-05-12T18:58:12Z</time>
      </trkpt>
      <trkpt lat="59.8155242" lon="17.6677876">
        <ele>3.98267</ele>
        <time>2014-05-12T18:58:13Z</time>
      </trkpt>
      <trkpt lat="59.8155006" lon="17.6677845">
        <ele>3.98267</ele>
        <time>2014-05-12T18:58:14Z</time>
      </trkpt>
      <trkpt lat="59.8154728" lon="17.6677696">
        <ele>3.98267</ele>
        <time>2014-05-12T18:58:15Z</time>
      </trkpt>
      <trkpt lat="59.8154411" lon="17.6677486">
        <ele>3.50195</ele>
        <time>2014-05-12T18:58:16Z</time>
      </trkpt>
      <trkpt lat="59.8154128" lon="17.6677296">
        <ele>3.50195</ele>
        <time>2014-05-12T18:58:17Z</time>
      </trkpt>
      <trkpt lat="59.8153894" lon="17.6677198">
        <ele>3.50195</ele>
        <time>2014-05-12T18:58:18Z</time>
      </trkpt>
      <trkpt lat="59.8153641" lon="17.6677042">
        <ele>3.02124</ele>
        <time>2014-05-12T18:58:19Z</time>
      </trkpt>
      <trkpt lat="59.8153333" lon="17.6676812">
        <ele>3.02124</ele>
        <time>2014-05-12T18:58:20Z</time>
      </trkpt>
      <trkpt lat="59.8153048" lon="17.6676603">
        <ele>3.02124</ele>
        <time>2014-05-12T18:58:21Z</time>
      </trkpt>
      <trkpt lat="59.8152801" lon="17.6676393">
        <ele>2.54065</ele>
        <time>2014-05-12T18:58:22Z</time>
      </trkpt>
      <trkpt lat="59.8152553" lon="17.667613">
        <ele>2.54065</ele>
        <time>2014-05-12T18:58:23Z</time>
      </trkpt>
      <trkpt lat="59.815232" lon="17.6675896">
        <ele>2.06006</ele>
        <time>2014-05-12T18:58:24Z</time>
      </trkpt>
      <trkpt lat="59.8152118" lon="17.6675611">
        <ele>1.57935</ele>
        <time>2014-05-12T18:58:25Z</time>
      </trkpt>
      <trkpt lat="59.8151912" lon="17.6675352">
        <ele>1.57935</ele>
        <time>2014-05-12T18:58:26Z</time>
      </trkpt>
      <trkpt lat="59.8151723" lon="17.6675037">
        <ele>1.09863</ele>
        <time>2014-05-12T18:58:27Z</time>
      </trkpt>
      <trkpt lat="59.8151506" lon="17.6674694">
        <ele>0.618042</ele>
        <time>2014-05-12T18:58:28Z</time>
      </trkpt>
      <trkpt lat="59.8151299" lon="17.6674293">
        <ele>0.618042</ele>
        <time>2014-05-12T18:58:29Z</time>
      </trkpt>
      <trkpt lat="59.8151122" lon="17.6673898">
        <ele>0.137451</ele>
        <time>2014-05-12T18:58:30Z</time>
      </trkpt>
      <trkpt lat="59.8150926" lon="17.6673493">
        <ele>0</ele>
        <time>2014-05-12T18:58:31Z</time>
      </trkpt>
      <trkpt lat="59.8150771" lon="17.6673057">
        <ele>0</ele>
        <time>2014-05-12T18:58:32Z</time>
      </trkpt>
      <trkpt lat="59.8150648" lon="17.6672614">
        <ele>0</ele>
        <time>2014-05-12T18:58:33Z</time>
      </trkpt>
      <trkpt lat="59.8150496" lon="17.6672126">
        <ele>0</ele>
        <time>2014-05-12T18:58:34Z</time>
      </trkpt>
      <trkpt lat="59.8150386" lon="17.6671624">
        <ele>0</ele>
        <time>2014-05-12T18:58:35Z</time>
      </trkpt>
      <trkpt lat="59.8150332" lon="17.6671121">
        <ele>0</ele>
        <time>2014-05-12T18:58:36Z</time>
      </trkpt>
      <trkpt lat="59.8150292" lon="17.6670546">
        <ele>0</ele>
        <time>2014-05-12T18:58:37Z</time>
      </trkpt>
      <trkpt lat="59.8150292" lon="17.6670011">
        <ele>0</ele>
        <time>2014-05-12T18:58:38Z</time>
      </trkpt>
      <trkpt lat="59.8150289" lon="17.6669515">
        <ele>0</ele>
        <time>2014-05-12T18:58:39Z</time>
      </trkpt>
      <trkpt lat="59.8150269" lon="17.6668987">
        <ele>0</ele>
        <time>2014-05-12T18:58:40Z</time>
      </trkpt>
      <trkpt lat="59.8150264" lon="17.6668494">
        <ele>0</ele>
        <time>2014-05-12T18:58:41Z</time>
      </trkpt>
      <trkpt lat="59.8150254" lon="17.6667998">
        <ele>0</ele>
        <time>2014-05-12T18:58:42Z</time>
      </trkpt>
      <trkpt lat="59.8150268" lon="17.6667504">
        <ele>0</ele>
        <time>2014-05-12T18:58:43Z</time>
      </trkpt>
      <trkpt lat="59.8150279" lon="17.6667003">
        <ele>0</ele>
        <time>2014-05-12T18:58:44Z</time>
      </trkpt>
      <trkpt lat="59.8150279" lon="17.6666493">
        <ele>0</ele>
        <time>2014-05-12T18:58:45Z</time>
      </trkpt>
      <trkpt lat="59.8150297" lon="17.6665996">
        <ele>0</ele>
        <time>2014-05-12T18:58:46Z</time>
      </trkpt>
      <trkpt lat="59.815031" lon="17.6665479">
        <ele>0</ele>
        <time>2014-05-12T18:58:47Z</time>
      </trkpt>
      <trkpt lat="59.8150283" lon="17.666492">
        <ele>0</ele>
        <time>2014-05-12T18:58:48Z</time>
      </trkpt>
      <trkpt lat="59.8150299" lon="17.6664422">
        <ele>0</ele>
        <time>2014-05-12T18:58:49Z</time>
      </trkpt>
      <trkpt lat="59.8150326" lon="17.6663958">
        <ele>0.137451</ele>
        <time>2014-05-12T18:58:50Z</time>
      </trkpt>
      <trkpt lat="59.8150298" lon="17.6663455">
        <ele>0.137451</ele>
        <time>2014-05-12T18:58:51Z</time>
      </trkpt>
      <trkpt lat="59.8150292" lon="17.666295">
        <ele>0.137451</ele>
        <time>2014-05-12T18:58:52Z</time>
      </trkpt>
      <trkpt lat="59.8150318" lon="17.6662486">
        <ele>0.618042</ele>
        <time>2014-05-12T18:58:53Z</time>
      </trkpt>
      <trkpt lat="59.8150336" lon="17.6661995">
        <ele>1.57935</ele>
        <time>2014-05-12T18:58:54Z</time>
      </trkpt>
      <trkpt lat="59.8150315" lon="17.6661454">
        <ele>1.57935</ele>
        <time>2014-05-12T18:58:55Z</time>
      </trkpt>
      <trkpt lat="59.815031" lon="17.6660922">
        <ele>2.54065</ele>
        <time>2014-05-12T18:58:56Z</time>
      </trkpt>
      <trkpt lat="59.8150292" lon="17.6660414">
        <ele>3.02124</ele>
        <time>2014-05-12T18:58:57Z</time>
      </trkpt>
      <trkpt lat="59.8150289" lon="17.6659932">
        <ele>3.02124</ele>
        <time>2014-05-12T18:58:58Z</time>
      </trkpt>
      <trkpt lat="59.8150299" lon="17.6659461">
        <ele>3.50195</ele>
        <time>2014-05-12T18:58:59Z</time>
      </trkpt>
      <trkpt lat="59.8150324" lon="17.6658995">
        <ele>4.46326</ele>
        <time>2014-05-12T18:59:00Z</time>
      </trkpt>
      <trkpt lat="59.8150356" lon="17.6658584">
        <ele>5.42456</ele>
        <time>2014-05-12T18:59:01Z</time>
      </trkpt>
      <trkpt lat="59.8150372" lon="17.6658123">
        <ele>5.42456</ele>
        <time>2014-05-12T18:59:02Z</time>
      </trkpt>
      <trkpt lat="59.8150402" lon="17.6657649">
        <ele>6.38586</ele>
        <time>2014-05-12T18:59:03Z</time>
      </trkpt>
      <trkpt lat="59.8150456" lon="17.6657213">
        <ele>6.38586</ele>
        <time>2014-05-12T18:59:04Z</time>
      </trkpt>
      <trkpt lat="59.8150563" lon="17.6656824">
        <ele>6.38586</ele>
        <time>2014-05-12T18:59:05Z</time>
      </trkpt>
      <trkpt lat="59.8150729" lon="17.6656632">
        <ele>6.38586</ele>
        <time>2014-05-12T18:59:06Z</time>
      </trkpt>
      <trkpt lat="59.8150912" lon="17.6656528">
        <ele>6.38586</ele>
        <time>2014-05-12T18:59:07Z</time>
      </trkpt>
      <trkpt lat="59.8151082" lon="17.6656413">
        <ele>6.38586</ele>
        <time>2014-05-12T18:59:08Z</time>
      </trkpt>
      <trkpt lat="59.8151373" lon="17.6656318">
        <ele>7.82788</ele>
        <time>2014-05-12T18:59:09Z</time>
      </trkpt>
      <trkpt lat="59.8151646" lon="17.6656214">
        <ele>9.2699</ele>
        <time>2014-05-12T18:59:10Z</time>
      </trkpt>
      <trkpt lat="59.8151906" lon="17.6656109">
        <ele>10.2312</ele>
        <time>2014-05-12T18:59:11Z</time>
      </trkpt>
      <trkpt lat="59.8152188" lon="17.6656025">
        <ele>11.6732</ele>
        <time>2014-05-12T18:59:12Z</time>
      </trkpt>
      <trkpt lat="59.8152474" lon="17.6655995">
        <ele>13.1151</ele>
        <time>2014-05-12T18:59:13Z</time>
      </trkpt>
      <trkpt lat="59.8152745" lon="17.6656057">
        <ele>14.0764</ele>
        <time>2014-05-12T18:59:14Z</time>
      </trkpt>
      <trkpt lat="59.8152967" lon="17.6656083">
        <ele>14.557</ele>
        <time>2014-05-12T18:59:15Z</time>
      </trkpt>
      <trkpt lat="59.8153195" lon="17.6656104">
        <ele>15.5184</ele>
        <time>2014-05-12T18:59:16Z</time>
      </trkpt>
      <trkpt lat="59.8153414" lon="17.6656131">
        <ele>15.5184</ele>
        <time>2014-05-12T18:59:17Z</time>
      </trkpt>
      <trkpt lat="59.8153657" lon="17.6656169">
        <ele>16.4797</ele>
        <time>2014-05-12T18:59:18Z</time>
      </trkpt>
      <trkpt lat="59.8153843" lon="17.6656186">
        <ele>16.9604</ele>
        <time>2014-05-12T18:59:19Z</time>
      </trkpt>
      <trkpt lat="59.8154123" lon="17.6656202">
        <ele>18.4023</ele>
        <time>2014-05-12T18:59:20Z</time>
      </trkpt>
      <trkpt lat="59.8154412" lon="17.6656203">
        <ele>19.8444</ele>
        <time>2014-05-12T18:59:21Z</time>
      </trkpt>
      <trkpt lat="59.8154633" lon="17.6656218">
        <ele>19.8444</ele>
        <time>2014-05-12T18:59:22Z</time>
      </trkpt>
      <trkpt lat="59.8154826" lon="17.665626">
        <ele>19.3638</ele>
        <time>2014-05-12T18:59:23Z</time>
      </trkpt>
      <trkpt lat="59.8155079" lon="17.665626">
        <ele>20.8057</ele>
        <time>2014-05-12T18:59:24Z</time>
      </trkpt>
      <trkpt lat="59.8155334" lon="17.665627">
        <ele>21.767</ele>
        <time>2014-05-12T18:59:25Z</time>
      </trkpt>
      <trkpt lat="59.8155486" lon="17.6656297">
        <ele>20.8057</ele>
        <time>2014-05-12T18:59:26Z</time>
      </trkpt>
      <trkpt lat="59.8155635" lon="17.6656318">
        <ele>20.325</ele>
        <time>2014-05-12T18:59:27Z</time>
      </trkpt>
      <trkpt lat="59.8155821" lon="17.6656341">
        <ele>20.8057</ele>
        <time>2014-05-12T18:59:28Z</time>
      </trkpt>
      <trkpt lat="59.8156018" lon="17.6656345">
        <ele>19.3638</ele>
        <time>2014-05-12T18:59:29Z</time>
      </trkpt>
      <trkpt lat="59.8156282" lon="17.6656358">
        <ele>19.3638</ele>
        <time>2014-05-12T18:59:30Z</time>
      </trkpt>
      <trkpt lat="59.8156513" lon="17.6656335">
        <ele>19.3638</ele>
        <time>2014-05-12T18:59:31Z</time>
      </trkpt>
      <trkpt lat="59.8156705" lon="17.6656374">
        <ele>19.3638</ele>
        <time>2014-05-12T18:59:32Z</time>
      </trkpt>
      <trkpt lat="59.8156889" lon="17.6656413">
        <ele>18.4023</ele>
        <time>2014-05-12T18:59:33Z</time>
      </trkpt>
      <trkpt lat="59.8157125" lon="17.6656456">
        <ele>18.8831</ele>
        <time>2014-05-12T18:59:34Z</time>
      </trkpt>
      <trkpt lat="59.8157322" lon="17.6656478">
        <ele>18.4023</ele>
        <time>2014-05-12T18:59:35Z</time>
      </trkpt>
      <trkpt lat="59.8157537" lon="17.6656497">
        <ele>16.9604</ele>
        <time>2014-05-12T18:59:36Z</time>
      </trkpt>
      <trkpt lat="59.8157753" lon="17.6656555">
        <ele>16.4797</ele>
        <time>2014-05-12T18:59:37Z</time>
      </trkpt>
      <trkpt lat="59.8158032" lon="17.6656584">
        <ele>16.9604</ele>
        <time>2014-05-12T18:59:38Z</time>
      </trkpt>
      <trkpt lat="59.8158204" lon="17.6656546">
        <ele>15.5184</ele>
        <time>2014-05-12T18:59:39Z</time>
      </trkpt>
      <trkpt lat="59.8158397" lon="17.6656532">
        <ele>14.557</ele>
        <time>2014-05-12T18:59:40Z</time>
      </trkpt>
      <trkpt lat="59.8158612" lon="17.6656506">
        <ele>13.5958</ele>
        <time>2014-05-12T18:59:41Z</time>
      </trkpt>
      <trkpt lat="59.8158816" lon="17.6656509">
        <ele>13.5958</ele>
        <time>2014-05-12T18:59:42Z</time>
      </trkpt>
      <trkpt lat="59.8159033" lon="17.6656538">
        <ele>13.1151</ele>
        <time>2014-05-12T18:59:43Z</time>
      </trkpt>
      <trkpt lat="59.81592" lon="17.6656571">
        <ele>12.1538</ele>
        <time>2014-05-12T18:59:44Z</time>
      </trkpt>
      <trkpt lat="59.8159493" lon="17.6656587">
        <ele>13.1151</ele>
        <time>2014-05-12T18:59:45Z</time>
      </trkpt>
      <trkpt lat="59.8159735" lon="17.6656559">
        <ele>13.5958</ele>
        <time>2014-05-12T18:59:46Z</time>
      </trkpt>
      <trkpt lat="59.8159971" lon="17.6656584">
        <ele>15.0377</ele>
        <time>2014-05-12T18:59:47Z</time>
      </trkpt>
      <trkpt lat="59.816011" lon="17.6656596">
        <ele>14.557</ele>
        <time>2014-05-12T18:59:48Z</time>
      </trkpt>
      <trkpt lat="59.8160205" lon="17.6656587">
        <ele>13.1151</ele>
        <time>2014-05-12T18:59:49Z</time>
      </trkpt>
      <trkpt lat="59.8160323" lon="17.6656637">
        <ele>13.1151</ele>
        <time>2014-05-12T18:59:50Z</time>
      </trkpt>
      <trkpt lat="59.8160499" lon="17.6656641">
        <ele>12.6344</ele>
        <time>2014-05-12T18:59:51Z</time>
      </trkpt>
      <trkpt lat="59.8160695" lon="17.6656612">
        <ele>12.1538</ele>
        <time>2014-05-12T18:59:52Z</time>
      </trkpt>
      <trkpt lat="59.8160846" lon="17.6656534">
        <ele>10.7118</ele>
        <time>2014-05-12T18:59:53Z</time>
      </trkpt>
      <trkpt lat="59.8161049" lon="17.6656493">
        <ele>10.7118</ele>
        <time>2014-05-12T18:59:54Z</time>
      </trkpt>
      <trkpt lat="59.8161254" lon="17.665643">
        <ele>10.2312</ele>
        <time>2014-05-12T18:59:55Z</time>
      </trkpt>
      <trkpt lat="59.8161433" lon="17.6656342">
        <ele>9.75061</ele>
        <time>2014-05-12T18:59:56Z</time>
      </trkpt>
      <trkpt lat="59.8161763" lon="17.6656263">
        <ele>11.6732</ele>
        <time>2014-05-12T18:59:57Z</time>
      </trkpt>
      <trkpt lat="59.8162017" lon="17.665627">
        <ele>12.6344</ele>
        <time>2014-05-12T18:59:58Z</time>
      </trkpt>
      <trkpt lat="59.8162237" lon="17.6656264">
        <ele>13.1151</ele>
        <time>2014-05-12T18:59:59Z</time>
      </trkpt>
      <trkpt lat="59.8162607" lon="17.6656197">
        <ele>15.999</ele>
        <time>2014-05-12T19:00:00Z</time>
      </trkpt>
      <trkpt lat="59.816283" lon="17.665609">
        <ele>16.9604</ele>
        <time>2014-05-12T19:00:01Z</time>
      </trkpt>
      <trkpt lat="59.8163191" lon="17.6655996">
        <ele>19.8444</ele>
        <time>2014-05-12T19:00:02Z</time>
      </trkpt>
      <trkpt lat="59.816338" lon="17.6655828">
        <ele>19.8444</ele>
        <time>2014-05-12T19:00:03Z</time>
      </trkpt>
      <trkpt lat="59.8163621" lon="17.6655667">
        <ele>20.8057</ele>
        <time>2014-05-12T19:00:04Z</time>
      </trkpt>
      <trkpt lat="59.8163875" lon="17.6655415">
        <ele>21.2864</ele>
        <time>2014-05-12T19:00:05Z</time>
      </trkpt>
      <trkpt lat="59.8164058" lon="17.665515">
        <ele>19.8444</ele>
        <time>2014-05-12T19:00:06Z</time>
      </trkpt>
      <trkpt lat="59.8164308" lon="17.6654944">
        <ele>20.8057</ele>
        <time>2014-05-12T19:00:07Z</time>
      </trkpt>
      <trkpt lat="59.8164491" lon="17.6654696">
        <ele>19.8444</ele>
        <time>2014-05-12T19:00:08Z</time>
      </trkpt>
      <trkpt lat="59.8164606" lon="17.6654447">
        <ele>18.4023</ele>
        <time>2014-05-12T19:00:09Z</time>
      </trkpt>
      <trkpt lat="59.8164772" lon="17.6654239">
        <ele>17.9218</ele>
        <time>2014-05-12T19:00:10Z</time>
      </trkpt>
      <trkpt lat="59.816501" lon="17.6654044">
        <ele>19.3638</ele>
        <time>2014-05-12T19:00:11Z</time>
      </trkpt>
      <trkpt lat="59.8165167" lon="17.6653735">
        <ele>18.8831</ele>
        <time>2014-05-12T19:00:12Z</time>
      </trkpt>
      <trkpt lat="59.8165379" lon="17.6653508">
        <ele>18.8831</ele>
        <time>2014-05-12T19:00:13Z</time>
      </trkpt>
      <trkpt lat="59.8165565" lon="17.6653272">
        <ele>18.4023</ele>
        <time>2014-05-12T19:00:14Z</time>
      </trkpt>
      <trkpt lat="59.8165834" lon="17.665312">
        <ele>19.3638</ele>
        <time>2014-05-12T19:00:15Z</time>
      </trkpt>
      <trkpt lat="59.8166092" lon="17.6652871">
        <ele>19.8444</ele>
        <time>2014-05-12T19:00:16Z</time>
      </trkpt>
      <trkpt lat="59.8166314" lon="17.6652676">
        <ele>20.325</ele>
        <time>2014-05-12T19:00:17Z</time>
      </trkpt>
      <trkpt lat="59.8166559" lon="17.6652442">
        <ele>21.767</ele>
        <time>2014-05-12T19:00:18Z</time>
      </trkpt>
      <trkpt lat="59.8166808" lon="17.6652204">
        <ele>23.209</ele>
        <time>2014-05-12T19:00:19Z</time>
      </trkpt>
      <trkpt lat="59.8166986" lon="17.6652016">
        <ele>23.209</ele>
        <time>2014-05-12T19:00:20Z</time>
      </trkpt>
      <trkpt lat="59.8167148" lon="17.6651882">
        <ele>23.209</ele>
        <time>2014-05-12T19:00:21Z</time>
      </trkpt>
      <trkpt lat="59.8167265" lon="17.6651654">
        <ele>23.6896</ele>
        <time>2014-05-12T19:00:22Z</time>
      </trkpt>
      <trkpt lat="59.8167405" lon="17.6651436">
        <ele>23.6896</ele>
        <time>2014-05-12T19:00:23Z</time>
      </trkpt>
      <trkpt lat="59.8167575" lon="17.6651184">
        <ele>23.209</ele>
        <time>2014-05-12T19:00:24Z</time>
      </trkpt>
      <trkpt lat="59.8167853" lon="17.665098">
        <ele>25.6123</ele>
        <time>2014-05-12T19:00:25Z</time>
      </trkpt>
      <trkpt lat="59.8168072" lon="17.665069">
        <ele>26.0929</ele>
        <time>2014-05-12T19:00:26Z</time>
      </trkpt>
      <trkpt lat="59.8168215" lon="17.6650384">
        <ele>25.6123</ele>
        <time>2014-05-12T19:00:27Z</time>
      </trkpt>
      <trkpt lat="59.8168296" lon="17.6650095">
        <ele>24.1703</ele>
        <time>2014-05-12T19:00:28Z</time>
      </trkpt>
      <trkpt lat="59.8168508" lon="17.6649759">
        <ele>24.651</ele>
        <time>2014-05-12T19:00:29Z</time>
      </trkpt>
      <trkpt lat="59.8168715" lon="17.6649477">
        <ele>24.1703</ele>
        <time>2014-05-12T19:00:30Z</time>
      </trkpt>
      <trkpt lat="59.8169005" lon="17.6649287">
        <ele>26.0929</ele>
        <time>2014-05-12T19:00:31Z</time>
      </trkpt>
      <trkpt lat="59.8169238" lon="17.6649168">
        <ele>28.0155</ele>
        <time>2014-05-12T19:00:32Z</time>
      </trkpt>
      <trkpt lat="59.8169507" lon="17.6649002">
        <ele>30.4188</ele>
        <time>2014-05-12T19:00:33Z</time>
      </trkpt>
      <trkpt lat="59.8169699" lon="17.6648748">
        <ele>29.9381</ele>
        <time>2014-05-12T19:00:34Z</time>
      </trkpt>
      <trkpt lat="59.8169884" lon="17.6648503">
        <ele>30.4188</ele>
        <time>2014-05-12T19:00:35Z</time>
      </trkpt>
      <trkpt lat="59.8170134" lon="17.6648096">
        <ele>30.8995</ele>
        <time>2014-05-12T19:00:36Z</time>
      </trkpt>
      <trkpt lat="59.8170316" lon="17.6647739">
        <ele>30.8995</ele>
        <time>2014-05-12T19:00:37Z</time>
      </trkpt>
      <trkpt lat="59.8170481" lon="17.6647425">
        <ele>31.8607</ele>
        <time>2014-05-12T19:00:38Z</time>
      </trkpt>
      <trkpt lat="59.817059" lon="17.6647101">
        <ele>31.8607</ele>
        <time>2014-05-12T19:00:39Z</time>
      </trkpt>
      <trkpt lat="59.8170717" lon="17.6646733">
        <ele>31.3801</ele>
        <time>2014-05-12T19:00:40Z</time>
      </trkpt>
      <trkpt lat="59.817093" lon="17.6646473">
        <ele>30.8995</ele>
        <time>2014-05-12T19:00:41Z</time>
      </trkpt>
      <trkpt lat="59.8171165" lon="17.6646173">
        <ele>31.3801</ele>
        <time>2014-05-12T19:00:42Z</time>
      </trkpt>
      <trkpt lat="59.8171345" lon="17.66458">
        <ele>31.3801</ele>
        <time>2014-05-12T19:00:43Z</time>
      </trkpt>
      <trkpt lat="59.8171611" lon="17.664548">
        <ele>32.8223</ele>
        <time>2014-05-12T19:00:44Z</time>
      </trkpt>
      <trkpt lat="59.8171884" lon="17.6645219">
        <ele>35.2255</ele>
        <time>2014-05-12T19:00:45Z</time>
      </trkpt>
      <trkpt lat="59.817202" lon="17.6644914">
        <ele>35.2255</ele>
        <time>2014-05-12T19:00:46Z</time>
      </trkpt>
      <trkpt lat="59.817238" lon="17.6644665">
        <ele>39.0707</ele>
        <time>2014-05-12T19:00:47Z</time>
      </trkpt>
      <trkpt lat="59.8172579" lon="17.664436">
        <ele>39.5513</ele>
        <time>2014-05-12T19:00:48Z</time>
      </trkpt>
      <trkpt lat="59.8172777" lon="17.6644081">
        <ele>40.0321</ele>
        <time>2014-05-12T19:00:49Z</time>
      </trkpt>
      <trkpt lat="59.8172965" lon="17.6643842">
        <ele>40.9934</ele>
        <time>2014-05-12T19:00:50Z</time>
      </trkpt>
      <trkpt lat="59.8173274" lon="17.6643563">
        <ele>43.3966</ele>
        <time>2014-05-12T19:00:51Z</time>
      </trkpt>
      <trkpt lat="59.8173513" lon="17.6643276">
        <ele>43.8773</ele>
        <time>2014-05-12T19:00:52Z</time>
      </trkpt>
      <trkpt lat="59.8173833" lon="17.664302">
        <ele>46.7612</ele>
        <time>2014-05-12T19:00:53Z</time>
      </trkpt>
      <trkpt lat="59.8174119" lon="17.6642839">
        <ele>48.684</ele>
        <time>2014-05-12T19:00:54Z</time>
      </trkpt>
      <trkpt lat="59.8174278" lon="17.6642738">
        <ele>48.684</ele>
        <time>2014-05-12T19:00:55Z</time>
      </trkpt>
      <trkpt lat="59.8174355" lon="17.664257">
        <ele>47.2418</ele>
        <time>2014-05-12T19:00:56Z</time>
      </trkpt>
      <trkpt lat="59.8174443" lon="17.6642367">
        <ele>46.2806</ele>
        <time>2014-05-12T19:00:57Z</time>
      </trkpt>
      <trkpt lat="59.8174553" lon="17.6642169">
        <ele>46.7612</ele>
        <time>2014-05-12T19:00:58Z</time>
      </trkpt>
      <trkpt lat="59.8174769" lon="17.6641988">
        <ele>47.2418</ele>
        <time>2014-05-12T19:00:59Z</time>
      </trkpt>
      <trkpt lat="59.8174951" lon="17.6641841">
        <ele>47.2418</ele>
        <time>2014-05-12T19:01:00Z</time>
      </trkpt>
      <trkpt lat="59.8175308" lon="17.6641746">
        <ele>50.6066</ele>
        <time>2014-05-12T19:01:01Z</time>
      </trkpt>
      <trkpt lat="59.8175687" lon="17.6641671">
        <ele>54.4518</ele>
        <time>2014-05-12T19:01:02Z</time>
      </trkpt>
      <trkpt lat="59.8175931" lon="17.6641544">
        <ele>55.4131</ele>
        <time>2014-05-12T19:01:03Z</time>
      </trkpt>
      <trkpt lat="59.8176126" lon="17.6641473">
        <ele>54.9324</ele>
        <time>2014-05-12T19:01:04Z</time>
      </trkpt>
      <trkpt lat="59.8176361" lon="17.6641309">
        <ele>54.9324</ele>
        <time>2014-05-12T19:01:05Z</time>
      </trkpt>
      <trkpt lat="59.8176621" lon="17.6641175">
        <ele>56.3745</ele>
        <time>2014-05-12T19:01:06Z</time>
      </trkpt>
      <trkpt lat="59.8176858" lon="17.6641016">
        <ele>57.8165</ele>
        <time>2014-05-12T19:01:07Z</time>
      </trkpt>
      <trkpt lat="59.8177147" lon="17.6640844">
        <ele>60.7003</ele>
        <time>2014-05-12T19:01:08Z</time>
      </trkpt>
      <trkpt lat="59.817735" lon="17.6640802">
        <ele>60.7003</ele>
        <time>2014-05-12T19:01:09Z</time>
      </trkpt>
      <trkpt lat="59.8177443" lon="17.6640761">
        <ele>59.2584</ele>
        <time>2014-05-12T19:01:10Z</time>
      </trkpt>
      <trkpt lat="59.8177578" lon="17.6640708">
        <ele>58.2971</ele>
        <time>2014-05-12T19:01:11Z</time>
      </trkpt>
      <trkpt lat="59.8177706" lon="17.6640673">
        <ele>57.3358</ele>
        <time>2014-05-12T19:01:12Z</time>
      </trkpt>
      <trkpt lat="59.8177889" lon="17.6640681">
        <ele>56.8551</ele>
        <time>2014-05-12T19:01:13Z</time>
      </trkpt>
      <trkpt lat="59.8178156" lon="17.6640626">
        <ele>56.8551</ele>
        <time>2014-05-12T19:01:14Z</time>
      </trkpt>
      <trkpt lat="59.8178405" lon="17.664051">
        <ele>56.8551</ele>
        <time>2014-05-12T19:01:15Z</time>
      </trkpt>
      <trkpt lat="59.8178661" lon="17.6640372">
        <ele>57.3358</ele>
        <time>2014-05-12T19:01:16Z</time>
      </trkpt>
      <trkpt lat="59.8178872" lon="17.6640186">
        <ele>57.8165</ele>
        <time>2014-05-12T19:01:17Z</time>
      </trkpt>
      <trkpt lat="59.8179141" lon="17.6640121">
        <ele>57.3358</ele>
        <time>2014-05-12T19:01:18Z</time>
      </trkpt>
      <trkpt lat="59.8179335" lon="17.664006">
        <ele>55.8938</ele>
        <time>2014-05-12T19:01:19Z</time>
      </trkpt>
      <trkpt lat="59.8179521" lon="17.6640015">
        <ele>55.4131</ele>
        <time>2014-05-12T19:01:20Z</time>
      </trkpt>
      <trkpt lat="59.8179707" lon="17.6639922">
        <ele>54.4518</ele>
        <time>2014-05-12T19:01:21Z</time>
      </trkpt>
      <trkpt lat="59.8179941" lon="17.6639896">
        <ele>53.4905</ele>
        <time>2014-05-12T19:01:22Z</time>
      </trkpt>
      <trkpt lat="59.8180162" lon="17.6639896">
        <ele>53.0098</ele>
        <time>2014-05-12T19:01:23Z</time>
      </trkpt>
      <trkpt lat="59.8180375" lon="17.6639896">
        <ele>53.4905</ele>
        <time>2014-05-12T19:01:24Z</time>
      </trkpt>
      <trkpt lat="59.8180617" lon="17.663984">
        <ele>53.0098</ele>
        <time>2014-05-12T19:01:25Z</time>
      </trkpt>
      <trkpt lat="59.8180746" lon="17.6639683">
        <ele>51.0872</ele>
        <time>2014-05-12T19:01:26Z</time>
      </trkpt>
      <trkpt lat="59.8180949" lon="17.6639616">
        <ele>50.6066</ele>
        <time>2014-05-12T19:01:27Z</time>
      </trkpt>
      <trkpt lat="59.8181182" lon="17.6639548">
        <ele>50.126</ele>
        <time>2014-05-12T19:01:28Z</time>
      </trkpt>
      <trkpt lat="59.8181488" lon="17.6639573">
        <ele>52.0486</ele>
        <time>2014-05-12T19:01:29Z</time>
      </trkpt>
      <trkpt lat="59.8181842" lon="17.6639585">
        <ele>54.4518</ele>
        <time>2014-05-12T19:01:30Z</time>
      </trkpt>
      <trkpt lat="59.8182145" lon="17.6639607">
        <ele>55.8938</ele>
        <time>2014-05-12T19:01:31Z</time>
      </trkpt>
      <trkpt lat="59.8182389" lon="17.6639588">
        <ele>56.8551</ele>
        <time>2014-05-12T19:01:32Z</time>
      </trkpt>
      <trkpt lat="59.8182619" lon="17.663959">
        <ele>56.3745</ele>
        <time>2014-05-12T19:01:33Z</time>
      </trkpt>
      <trkpt lat="59.8182856" lon="17.6639585">
        <ele>56.8551</ele>
        <time>2014-05-12T19:01:34Z</time>
      </trkpt>
      <trkpt lat="59.8183116" lon="17.6639624">
        <ele>57.8165</ele>
        <time>2014-05-12T19:01:35Z</time>
      </trkpt>
      <trkpt lat="59.8183352" lon="17.6639653">
        <ele>57.8165</ele>
        <time>2014-05-12T19:01:36Z</time>
      </trkpt>
      <trkpt lat="59.8183509" lon="17.663962">
        <ele>55.4131</ele>
        <time>2014-05-12T19:01:37Z</time>
      </trkpt>
      <trkpt lat="59.8183779" lon="17.6639625">
        <ele>56.8551</ele>
        <time>2014-05-12T19:01:38Z</time>
      </trkpt>
      <trkpt lat="59.8184021" lon="17.6639669">
        <ele>57.3358</ele>
        <time>2014-05-12T19:01:39Z</time>
      </trkpt>
      <trkpt lat="59.8184238" lon="17.6639646">
        <ele>57.8165</ele>
        <time>2014-05-12T19:01:40Z</time>
      </trkpt>
      <trkpt lat="59.8184575" lon="17.6639676">
        <ele>60.2197</ele>
        <time>2014-05-12T19:01:41Z</time>
      </trkpt>
      <trkpt lat="59.8184835" lon="17.6639667">
        <ele>61.181</ele>
        <time>2014-05-12T19:01:42Z</time>
      </trkpt>
      <trkpt lat="59.8185099" lon="17.6639662">
        <ele>61.6617</ele>
        <time>2014-05-12T19:01:43Z</time>
      </trkpt>
      <trkpt lat="59.8185286" lon="17.6639688">
        <ele>59.2584</ele>
        <time>2014-05-12T19:01:44Z</time>
      </trkpt>
      <trkpt lat="59.8185517" lon="17.6639715">
        <ele>59.2584</ele>
        <time>2014-05-12T19:01:45Z</time>
      </trkpt>
      <trkpt lat="59.8185633" lon="17.6639695">
        <ele>56.8551</ele>
        <time>2014-05-12T19:01:46Z</time>
      </trkpt>
      <trkpt lat="59.818585" lon="17.6639691">
        <ele>57.3358</ele>
        <time>2014-05-12T19:01:47Z</time>
      </trkpt>
      <trkpt lat="59.8186208" lon="17.6639751">
        <ele>60.2197</ele>
        <time>2014-05-12T19:01:48Z</time>
      </trkpt>
      <trkpt lat="59.8186546" lon="17.6639769">
        <ele>62.1423</ele>
        <time>2014-05-12T19:01:49Z</time>
      </trkpt>
      <trkpt lat="59.8186822" lon="17.6639751">
        <ele>62.6229</ele>
        <time>2014-05-12T19:01:50Z</time>
      </trkpt>
      <trkpt lat="59.8187151" lon="17.6639736">
        <ele>64.0651</ele>
        <time>2014-05-12T19:01:51Z</time>
      </trkpt>
      <trkpt lat="59.8187454" lon="17.6639756">
        <ele>65.0264</ele>
        <time>2014-05-12T19:01:52Z</time>
      </trkpt>
      <trkpt lat="59.8187669" lon="17.6639787">
        <ele>64.5457</ele>
        <time>2014-05-12T19:01:53Z</time>
      </trkpt>
      <trkpt lat="59.818788" lon="17.6639798">
        <ele>64.5457</ele>
        <time>2014-05-12T19:01:54Z</time>
      </trkpt>
      <trkpt lat="59.8188244" lon="17.6639847">
        <ele>67.4297</ele>
        <time>2014-05-12T19:01:55Z</time>
      </trkpt>
      <trkpt lat="59.8188529" lon="17.6639854">
        <ele>68.3909</ele>
        <time>2014-05-12T19:01:56Z</time>
      </trkpt>
      <trkpt lat="59.8188802" lon="17.6639854">
        <ele>68.8716</ele>
        <time>2014-05-12T19:01:57Z</time>
      </trkpt>
      <trkpt lat="59.8189031" lon="17.6639831">
        <ele>68.3909</ele>
        <time>2014-05-12T19:01:58Z</time>
      </trkpt>
      <trkpt lat="59.81892" lon="17.6639814">
        <ele>67.4297</ele>
        <time>2014-05-12T19:01:59Z</time>
      </trkpt>
      <trkpt lat="59.8189373" lon="17.6639777">
        <ele>66.949</ele>
        <time>2014-05-12T19:02:00Z</time>
      </trkpt>
      <trkpt lat="59.8189622" lon="17.6639741">
        <ele>67.4297</ele>
        <time>2014-05-12T19:02:01Z</time>
      </trkpt>
      <trkpt lat="59.8189759" lon="17.6639705">
        <ele>65.9877</ele>
        <time>2014-05-12T19:02:02Z</time>
      </trkpt>
      <trkpt lat="59.8189985" lon="17.6639661">
        <ele>65.5071</ele>
        <time>2014-05-12T19:02:03Z</time>
      </trkpt>
      <trkpt lat="59.819021" lon="17.6639663">
        <ele>65.5071</ele>
        <time>2014-05-12T19:02:04Z</time>
      </trkpt>
      <trkpt lat="59.8190457" lon="17.6639609">
        <ele>64.5457</ele>
        <time>2014-05-12T19:02:05Z</time>
      </trkpt>
      <trkpt lat="59.8190678" lon="17.6639532">
        <ele>63.5844</ele>
        <time>2014-05-12T19:02:06Z</time>
      </trkpt>
      <trkpt lat="59.8190871" lon="17.6639554">
        <ele>63.5844</ele>
        <time>2014-05-12T19:02:07Z</time>
      </trkpt>
      <trkpt lat="59.8191117" lon="17.6639533">
        <ele>63.5844</ele>
        <time>2014-05-12T19:02:08Z</time>
      </trkpt>
      <trkpt lat="59.8191314" lon="17.663944">
        <ele>62.6229</ele>
        <time>2014-05-12T19:02:09Z</time>
      </trkpt>
      <trkpt lat="59.8191703" lon="17.6639414">
        <ele>65.5071</ele>
        <time>2014-05-12T19:02:10Z</time>
      </trkpt>
      <trkpt lat="59.8191896" lon="17.6639357">
        <ele>64.0651</ele>
        <time>2014-05-12T19:02:11Z</time>
      </trkpt>
      <trkpt lat="59.8192056" lon="17.6639269">
        <ele>63.1036</ele>
        <time>2014-05-12T19:02:12Z</time>
      </trkpt>
      <trkpt lat="59.8192247" lon="17.6639252">
        <ele>62.6229</ele>
        <time>2014-05-12T19:02:13Z</time>
      </trkpt>
      <trkpt lat="59.8192512" lon="17.6639259">
        <ele>62.6229</ele>
        <time>2014-05-12T19:02:14Z</time>
      </trkpt>
      <trkpt lat="59.8192726" lon="17.6639163">
        <ele>63.1036</ele>
        <time>2014-05-12T19:02:15Z</time>
      </trkpt>
      <trkpt lat="59.8192947" lon="17.6639125">
        <ele>64.0651</ele>
        <time>2014-05-12T19:02:16Z</time>
      </trkpt>
      <trkpt lat="59.8193227" lon="17.6639072">
        <ele>64.5457</ele>
        <time>2014-05-12T19:02:17Z</time>
      </trkpt>
      <trkpt lat="59.8193528" lon="17.663902">
        <ele>65.5071</ele>
        <time>2014-05-12T19:02:18Z</time>
      </trkpt>
      <trkpt lat="59.819389" lon="17.6639015">
        <ele>67.9103</ele>
        <time>2014-05-12T19:02:19Z</time>
      </trkpt>
      <trkpt lat="59.8194184" lon="17.6638989">
        <ele>68.8716</ele>
        <time>2014-05-12T19:02:20Z</time>
      </trkpt>
      <trkpt lat="59.8194319" lon="17.6638994">
        <ele>66.949</ele>
        <time>2014-05-12T19:02:21Z</time>
      </trkpt>
      <trkpt lat="59.8194513" lon="17.6639028">
        <ele>67.4297</ele>
        <time>2014-05-12T19:02:22Z</time>
      </trkpt>
      <trkpt lat="59.8194615" lon="17.6639024">
        <ele>65.9877</ele>
        <time>2014-05-12T19:02:23Z</time>
      </trkpt>
      <trkpt lat="59.8194795" lon="17.6638997">
        <ele>65.9877</ele>
        <time>2014-05-12T19:02:24Z</time>
      </trkpt>
      <trkpt lat="59.819461" lon="17.6639568">
        <ele>53.9712</ele>
        <time>2014-05-12T19:02:53Z</time>
      </trkpt>
      <trkpt lat="59.8194738" lon="17.66396">
        <ele>53.9712</ele>
        <time>2014-05-12T19:02:54Z</time>
      </trkpt>
      <trkpt lat="59.8194868" lon="17.6639536">
        <ele>54.4518</ele>
        <time>2014-05-12T19:02:55Z</time>
      </trkpt>
      <trkpt lat="59.8195142" lon="17.6639471">
        <ele>53.9712</ele>
        <time>2014-05-12T19:02:56Z</time>
      </trkpt>
      <trkpt lat="59.819539" lon="17.6639581">
        <ele>53.4905</ele>
        <time>2014-05-12T19:02:57Z</time>
      </trkpt>
      <trkpt lat="59.819565" lon="17.6639616">
        <ele>53.9712</ele>
        <time>2014-05-12T19:02:58Z</time>
      </trkpt>
      <trkpt lat="59.819586" lon="17.6639715">
        <ele>54.4518</ele>
        <time>2014-05-12T19:02:59Z</time>
      </trkpt>
      <trkpt lat="59.8196157" lon="17.6639724">
        <ele>53.9712</ele>
        <time>2014-05-12T19:03:00Z</time>
      </trkpt>
      <trkpt lat="59.8196457" lon="17.6639683">
        <ele>54.4518</ele>
        <time>2014-05-12T19:03:01Z</time>
      </trkpt>
      <trkpt lat="59.8196816" lon="17.6639523">
        <ele>55.4131</ele>
        <time>2014-05-12T19:03:02Z</time>
      </trkpt>
      <trkpt lat="59.8197246" lon="17.6639501">
        <ele>58.7777</ele>
        <time>2014-05-12T19:03:03Z</time>
      </trkpt>
      <trkpt lat="59.8197449" lon="17.6639497">
        <ele>58.2971</ele>
        <time>2014-05-12T19:03:04Z</time>
      </trkpt>
      <trkpt lat="59.8197572" lon="17.6639497">
        <ele>56.8551</ele>
        <time>2014-05-12T19:03:05Z</time>
      </trkpt>
      <trkpt lat="59.8197809" lon="17.6639503">
        <ele>57.8165</ele>
        <time>2014-05-12T19:03:06Z</time>
      </trkpt>
      <trkpt lat="59.8198032" lon="17.6639419">
        <ele>57.8165</ele>
        <time>2014-05-12T19:03:07Z</time>
      </trkpt>
      <trkpt lat="59.8198286" lon="17.663929">
        <ele>57.8165</ele>
        <time>2014-05-12T19:03:08Z</time>
      </trkpt>
      <trkpt lat="59.8198517" lon="17.6639362">
        <ele>58.2971</ele>
        <time>2014-05-12T19:03:09Z</time>
      </trkpt>
      <trkpt lat="59.8198657" lon="17.6639367">
        <ele>58.7777</ele>
        <time>2014-05-12T19:03:10Z</time>
      </trkpt>
      <trkpt lat="59.8198847" lon="17.6639393">
        <ele>59.7391</ele>
        <time>2014-05-12T19:03:11Z</time>
      </trkpt>
      <trkpt lat="59.8199006" lon="17.6639382">
        <ele>59.2584</ele>
        <time>2014-05-12T19:03:12Z</time>
      </trkpt>
      <trkpt lat="59.8199232" lon="17.663944">
        <ele>60.7003</ele>
        <time>2014-05-12T19:03:13Z</time>
      </trkpt>
      <trkpt lat="59.8199355" lon="17.6639529">
        <ele>60.7003</ele>
        <time>2014-05-12T19:03:14Z</time>
      </trkpt>
      <trkpt lat="59.819956" lon="17.6639651">
        <ele>61.181</ele>
        <time>2014-05-12T19:03:15Z</time>
      </trkpt>
      <trkpt lat="59.8199895" lon="17.6639761">
        <ele>63.5844</ele>
        <time>2014-05-12T19:03:16Z</time>
      </trkpt>
      <trkpt lat="59.8200209" lon="17.6639863">
        <ele>64.5457</ele>
        <time>2014-05-12T19:03:17Z</time>
      </trkpt>
      <trkpt lat="59.8200324" lon="17.6639821">
        <ele>62.6229</ele>
        <time>2014-05-12T19:03:18Z</time>
      </trkpt>
      <trkpt lat="59.820053" lon="17.6639772">
        <ele>63.1036</ele>
        <time>2014-05-12T19:03:19Z</time>
      </trkpt>
      <trkpt lat="59.8200789" lon="17.6639751">
        <ele>63.5844</ele>
        <time>2014-05-12T19:03:20Z</time>
      </trkpt>
      <trkpt lat="59.8201001" lon="17.6639751">
        <ele>62.1423</ele>
        <time>2014-05-12T19:03:21Z</time>
      </trkpt>
      <trkpt lat="59.8201323" lon="17.6639678">
        <ele>61.6617</ele>
        <time>2014-05-12T19:03:22Z</time>
      </trkpt>
      <trkpt lat="59.8201677" lon="17.6639657">
        <ele>63.5844</ele>
        <time>2014-05-12T19:03:23Z</time>
      </trkpt>
      <trkpt lat="59.8201993" lon="17.6639661">
        <ele>64.5457</ele>
        <time>2014-05-12T19:03:24Z</time>
      </trkpt>
      <trkpt lat="59.8202256" lon="17.6639682">
        <ele>65.5071</ele>
        <time>2014-05-12T19:03:25Z</time>
      </trkpt>
      <trkpt lat="59.8202521" lon="17.6639745">
        <ele>66.949</ele>
        <time>2014-05-12T19:03:26Z</time>
      </trkpt>
      <trkpt lat="59.8202733" lon="17.6639766">
        <ele>66.4683</ele>
        <time>2014-05-12T19:03:27Z</time>
      </trkpt>
      <trkpt lat="59.8202976" lon="17.6639741">
        <ele>66.4683</ele>
        <time>2014-05-12T19:03:28Z</time>
      </trkpt>
      <trkpt lat="59.8203179" lon="17.663974">
        <ele>65.9877</ele>
        <time>2014-05-12T19:03:29Z</time>
      </trkpt>
      <trkpt lat="59.8203301" lon="17.6639788">
        <ele>64.5457</ele>
        <time>2014-05-12T19:03:30Z</time>
      </trkpt>
      <trkpt lat="59.8203337" lon="17.6639831">
        <ele>59.2584</ele>
        <time>2014-05-12T19:03:31Z</time>
      </trkpt>
      <trkpt lat="59.8203474" lon="17.6639767">
        <ele>58.2971</ele>
        <time>2014-05-12T19:03:32Z</time>
      </trkpt>
      <trkpt lat="59.8203678" lon="17.6639817">
        <ele>57.3358</ele>
        <time>2014-05-12T19:03:33Z</time>
      </trkpt>
      <trkpt lat="59.820395" lon="17.6639793">
        <ele>57.8165</ele>
        <time>2014-05-12T19:03:34Z</time>
      </trkpt>
      <trkpt lat="59.8204316" lon="17.6639785">
        <ele>60.7003</ele>
        <time>2014-05-12T19:03:35Z</time>
      </trkpt>
      <trkpt lat="59.8204655" lon="17.6639762">
        <ele>61.6617</ele>
        <time>2014-05-12T19:03:36Z</time>
      </trkpt>
      <trkpt lat="59.8204965" lon="17.6639756">
        <ele>63.1036</ele>
        <time>2014-05-12T19:03:37Z</time>
      </trkpt>
      <trkpt lat="59.8205332" lon="17.6639717">
        <ele>64.5457</ele>
        <time>2014-05-12T19:03:38Z</time>
      </trkpt>
      <trkpt lat="59.820574" lon="17.6639782">
        <ele>66.4683</ele>
        <time>2014-05-12T19:03:39Z</time>
      </trkpt>
      <trkpt lat="59.8206022" lon="17.6639796">
        <ele>67.4297</ele>
        <time>2014-05-12T19:03:40Z</time>
      </trkpt>
      <trkpt lat="59.8206163" lon="17.6639699">
        <ele>65.9877</ele>
        <time>2014-05-12T19:03:41Z</time>
      </trkpt>
      <trkpt lat="59.8206321" lon="17.6639801">
        <ele>65.5071</ele>
        <time>2014-05-12T19:03:42Z</time>
      </trkpt>
      <trkpt lat="59.8206468" lon="17.6639865">
        <ele>63.5844</ele>
        <time>2014-05-12T19:03:43Z</time>
      </trkpt>
      <trkpt lat="59.820674" lon="17.6639911">
        <ele>65.0264</ele>
        <time>2014-05-12T19:03:44Z</time>
      </trkpt>
      <trkpt lat="59.8206935" lon="17.6639933">
        <ele>64.0651</ele>
        <time>2014-05-12T19:03:45Z</time>
      </trkpt>
      <trkpt lat="59.8207204" lon="17.6639937">
        <ele>65.0264</ele>
        <time>2014-05-12T19:03:46Z</time>
      </trkpt>
      <trkpt lat="59.8207462" lon="17.6639826">
        <ele>66.4683</ele>
        <time>2014-05-12T19:03:47Z</time>
      </trkpt>
      <trkpt lat="59.8207663" lon="17.6639724">
        <ele>65.5071</ele>
        <time>2014-05-12T19:03:48Z</time>
      </trkpt>
      <trkpt lat="59.8207836" lon="17.6639646">
        <ele>64.5457</ele>
        <time>2014-05-12T19:03:49Z</time>
      </trkpt>
      <trkpt lat="59.8208121" lon="17.6639512">
        <ele>65.0264</ele>
        <time>2014-05-12T19:03:50Z</time>
      </trkpt>
      <trkpt lat="59.8208295" lon="17.6639387">
        <ele>64.0651</ele>
        <time>2014-05-12T19:03:51Z</time>
      </trkpt>
      <trkpt lat="59.8208589" lon="17.66393">
        <ele>66.4683</ele>
        <time>2014-05-12T19:03:52Z</time>
      </trkpt>
      <trkpt lat="59.8208986" lon="17.6639169">
        <ele>69.3523</ele>
        <time>2014-05-12T19:03:53Z</time>
      </trkpt>
      <trkpt lat="59.8209228" lon="17.6638974">
        <ele>69.8329</ele>
        <time>2014-05-12T19:03:54Z</time>
      </trkpt>
      <trkpt lat="59.8209368" lon="17.6638848">
        <ele>69.8329</ele>
        <time>2014-05-12T19:03:55Z</time>
      </trkpt>
      <trkpt lat="59.8209656" lon="17.6638749">
        <ele>71.7555</ele>
        <time>2014-05-12T19:03:56Z</time>
      </trkpt>
      <trkpt lat="59.8210011" lon="17.6638641">
        <ele>74.1588</ele>
        <time>2014-05-12T19:03:57Z</time>
      </trkpt>
      <trkpt lat="59.821034" lon="17.6638569">
        <ele>75.6008</ele>
        <time>2014-05-12T19:03:58Z</time>
      </trkpt>
      <trkpt lat="59.8210611" lon="17.6638532">
        <ele>75.1202</ele>
        <time>2014-05-12T19:03:59Z</time>
      </trkpt>
      <trkpt lat="59.8210789" lon="17.6638585">
        <ele>73.6782</ele>
        <time>2014-05-12T19:04:00Z</time>
      </trkpt>
      <trkpt lat="59.8211084" lon="17.6638619">
        <ele>72.2362</ele>
        <time>2014-05-12T19:04:01Z</time>
      </trkpt>
      <trkpt lat="59.8211356" lon="17.6638594">
        <ele>71.7555</ele>
        <time>2014-05-12T19:04:02Z</time>
      </trkpt>
      <trkpt lat="59.8211549" lon="17.6638523">
        <ele>70.7942</ele>
        <time>2014-05-12T19:04:03Z</time>
      </trkpt>
      <trkpt lat="59.8211715" lon="17.6638485">
        <ele>69.8329</ele>
        <time>2014-05-12T19:04:04Z</time>
      </trkpt>
      <trkpt lat="59.8211834" lon="17.6638329">
        <ele>66.949</ele>
        <time>2014-05-12T19:04:05Z</time>
      </trkpt>
      <trkpt lat="59.8212013" lon="17.6638189">
        <ele>65.5071</ele>
        <time>2014-05-12T19:04:06Z</time>
      </trkpt>
      <trkpt lat="59.8212254" lon="17.663819">
        <ele>65.5071</ele>
        <time>2014-05-12T19:04:07Z</time>
      </trkpt>
      <trkpt lat="59.8212355" lon="17.6638228">
        <ele>64.5457</ele>
        <time>2014-05-12T19:04:08Z</time>
      </trkpt>
      <trkpt lat="59.8212688" lon="17.6638189">
        <ele>65.9877</ele>
        <time>2014-05-12T19:04:09Z</time>
      </trkpt>
      <trkpt lat="59.8212906" lon="17.6638179">
        <ele>65.9877</ele>
        <time>2014-05-12T19:04:10Z</time>
      </trkpt>
      <trkpt lat="59.8213144" lon="17.6638258">
        <ele>65.9877</ele>
        <time>2014-05-12T19:04:11Z</time>
      </trkpt>
      <trkpt lat="59.8213392" lon="17.6638316">
        <ele>65.5071</ele>
        <time>2014-05-12T19:04:12Z</time>
      </trkpt>
      <trkpt lat="59.821366" lon="17.6638341">
        <ele>65.9877</ele>
        <time>2014-05-12T19:04:13Z</time>
      </trkpt>
      <trkpt lat="59.8213893" lon="17.6638346">
        <ele>65.0264</ele>
        <time>2014-05-12T19:04:14Z</time>
      </trkpt>
      <trkpt lat="59.8214092" lon="17.6638388">
        <ele>65.0264</ele>
        <time>2014-05-12T19:04:15Z</time>
      </trkpt>
      <trkpt lat="59.8214313" lon="17.663832">
        <ele>64.5457</ele>
        <time>2014-05-12T19:04:16Z</time>
      </trkpt>
      <trkpt lat="59.8214469" lon="17.6638282">
        <ele>61.6617</ele>
        <time>2014-05-12T19:04:17Z</time>
      </trkpt>
      <trkpt lat="59.8214672" lon="17.6638274">
        <ele>60.7003</ele>
        <time>2014-05-12T19:04:18Z</time>
      </trkpt>
      <trkpt lat="59.8214766" lon="17.663835">
        <ele>59.2584</ele>
        <time>2014-05-12T19:04:19Z</time>
      </trkpt>
      <trkpt lat="59.8214924" lon="17.663844">
        <ele>57.8165</ele>
        <time>2014-05-12T19:04:20Z</time>
      </trkpt>
      <trkpt lat="59.8215142" lon="17.6638564">
        <ele>56.8551</ele>
        <time>2014-05-12T19:04:21Z</time>
      </trkpt>
      <trkpt lat="59.8215361" lon="17.6638589">
        <ele>54.4518</ele>
        <time>2014-05-12T19:04:22Z</time>
      </trkpt>
      <trkpt lat="59.8215542" lon="17.6638604">
        <ele>53.0098</ele>
        <time>2014-05-12T19:04:23Z</time>
      </trkpt>
      <trkpt lat="59.8215748" lon="17.6638709">
        <ele>52.5292</ele>
        <time>2014-05-12T19:04:24Z</time>
      </trkpt>
      <trkpt lat="59.8216055" lon="17.6638829">
        <ele>54.4518</ele>
        <time>2014-05-12T19:04:25Z</time>
      </trkpt>
      <trkpt lat="59.8216318" lon="17.663884">
        <ele>53.4905</ele>
        <time>2014-05-12T19:04:26Z</time>
      </trkpt>
      <trkpt lat="59.8216501" lon="17.6638757">
        <ele>51.0872</ele>
        <time>2014-05-12T19:04:27Z</time>
      </trkpt>
      <trkpt lat="59.8216801" lon="17.6638728">
        <ele>51.5679</ele>
        <time>2014-05-12T19:04:28Z</time>
      </trkpt>
      <trkpt lat="59.8217097" lon="17.6638792">
        <ele>52.5292</ele>
        <time>2014-05-12T19:04:29Z</time>
      </trkpt>
      <trkpt lat="59.8217247" lon="17.6638842">
        <ele>51.0872</ele>
        <time>2014-05-12T19:04:30Z</time>
      </trkpt>
      <trkpt lat="59.8217365" lon="17.663885">
        <ele>49.6453</ele>
        <time>2014-05-12T19:04:31Z</time>
      </trkpt>
      <trkpt lat="59.8217615" lon="17.6638834">
        <ele>50.126</ele>
        <time>2014-05-12T19:04:32Z</time>
      </trkpt>
      <trkpt lat="59.8217805" lon="17.6638801">
        <ele>49.6453</ele>
        <time>2014-05-12T19:04:33Z</time>
      </trkpt>
      <trkpt lat="59.821791" lon="17.6638699">
        <ele>48.2034</ele>
        <time>2014-05-12T19:04:34Z</time>
      </trkpt>
      <trkpt lat="59.8218079" lon="17.6638676">
        <ele>47.2418</ele>
        <time>2014-05-12T19:04:35Z</time>
      </trkpt>
      <trkpt lat="59.8218427" lon="17.6638736">
        <ele>48.684</ele>
        <time>2014-05-12T19:04:36Z</time>
      </trkpt>
      <trkpt lat="59.821878" lon="17.6638664">
        <ele>50.126</ele>
        <time>2014-05-12T19:04:37Z</time>
      </trkpt>
      <trkpt lat="59.821919" lon="17.6638479">
        <ele>51.5679</ele>
        <time>2014-05-12T19:04:38Z</time>
      </trkpt>
      <trkpt lat="59.8219464" lon="17.6638383">
        <ele>50.126</ele>
        <time>2014-05-12T19:04:39Z</time>
      </trkpt>
      <trkpt lat="59.8219754" lon="17.6638388">
        <ele>49.6453</ele>
        <time>2014-05-12T19:04:40Z</time>
      </trkpt>
      <trkpt lat="59.8220156" lon="17.6638296">
        <ele>50.126</ele>
        <time>2014-05-12T19:04:41Z</time>
      </trkpt>
      <trkpt lat="59.8220465" lon="17.6638206">
        <ele>50.6066</ele>
        <time>2014-05-12T19:04:42Z</time>
      </trkpt>
      <trkpt lat="59.8220754" lon="17.6638128">
        <ele>50.6066</ele>
        <time>2014-05-12T19:04:43Z</time>
      </trkpt>
      <trkpt lat="59.8220961" lon="17.6638078">
        <ele>49.1646</ele>
        <time>2014-05-12T19:04:44Z</time>
      </trkpt>
      <trkpt lat="59.8221258" lon="17.6638023">
        <ele>49.1646</ele>
        <time>2014-05-12T19:04:45Z</time>
      </trkpt>
      <trkpt lat="59.8221565" lon="17.6637969">
        <ele>50.6066</ele>
        <time>2014-05-12T19:04:46Z</time>
      </trkpt>
      <trkpt lat="59.8221821" lon="17.6637868">
        <ele>51.5679</ele>
        <time>2014-05-12T19:04:47Z</time>
      </trkpt>
      <trkpt lat="59.8222039" lon="17.6637715">
        <ele>51.5679</ele>
        <time>2014-05-12T19:04:48Z</time>
      </trkpt>
      <trkpt lat="59.822222" lon="17.6637622">
        <ele>50.126</ele>
        <time>2014-05-12T19:04:49Z</time>
      </trkpt>
      <trkpt lat="59.8222361" lon="17.6637616">
        <ele>49.1646</ele>
        <time>2014-05-12T19:04:50Z</time>
      </trkpt>
      <trkpt lat="59.8222562" lon="17.6637657">
        <ele>49.6453</ele>
        <time>2014-05-12T19:04:51Z</time>
      </trkpt>
      <trkpt lat="59.8222848" lon="17.6637642">
        <ele>50.126</ele>
        <time>2014-05-12T19:04:52Z</time>
      </trkpt>
      <trkpt lat="59.822305" lon="17.6637508">
        <ele>48.684</ele>
        <time>2014-05-12T19:04:53Z</time>
      </trkpt>
      <trkpt lat="59.8223301" lon="17.6637388">
        <ele>47.7225</ele>
        <time>2014-05-12T19:04:54Z</time>
      </trkpt>
      <trkpt lat="59.8223577" lon="17.6637321">
        <ele>48.684</ele>
        <time>2014-05-12T19:04:55Z</time>
      </trkpt>
      <trkpt lat="59.8223738" lon="17.6637226">
        <ele>48.2034</ele>
        <time>2014-05-12T19:04:56Z</time>
      </trkpt>
      <trkpt lat="59.8223992" lon="17.6637067">
        <ele>48.684</ele>
        <time>2014-05-12T19:04:57Z</time>
      </trkpt>
      <trkpt lat="59.8224193" lon="17.6637031">
        <ele>48.2034</ele>
        <time>2014-05-12T19:04:58Z</time>
      </trkpt>
      <trkpt lat="59.8224435" lon="17.6637035">
        <ele>49.1646</ele>
        <time>2014-05-12T19:04:59Z</time>
      </trkpt>
      <trkpt lat="59.8224604" lon="17.6636996">
        <ele>48.684</ele>
        <time>2014-05-12T19:05:00Z</time>
      </trkpt>
      <trkpt lat="59.8224775" lon="17.6637013">
        <ele>48.684</ele>
        <time>2014-05-12T19:05:01Z</time>
      </trkpt>
      <trkpt lat="59.8225162" lon="17.6637074">
        <ele>52.0486</ele>
        <time>2014-05-12T19:05:02Z</time>
      </trkpt>
      <trkpt lat="59.8225621" lon="17.6637056">
        <ele>55.4131</ele>
        <time>2014-05-12T19:05:03Z</time>
      </trkpt>
      <trkpt lat="59.8225971" lon="17.6637048">
        <ele>56.8551</ele>
        <time>2014-05-12T19:05:04Z</time>
      </trkpt>
      <trkpt lat="59.822637" lon="17.6637058">
        <ele>59.2584</ele>
        <time>2014-05-12T19:05:05Z</time>
      </trkpt>
      <trkpt lat="59.8226707" lon="17.6637072">
        <ele>59.7391</ele>
        <time>2014-05-12T19:05:06Z</time>
      </trkpt>
      <trkpt lat="59.8227025" lon="17.6637079">
        <ele>60.7003</ele>
        <time>2014-05-12T19:05:07Z</time>
      </trkpt>
      <trkpt lat="59.8227382" lon="17.6637032">
        <ele>63.5844</ele>
        <time>2014-05-12T19:05:08Z</time>
      </trkpt>
      <trkpt lat="59.8227747" lon="17.6636956">
        <ele>65.5071</ele>
        <time>2014-05-12T19:05:09Z</time>
      </trkpt>
      <trkpt lat="59.8228028" lon="17.663689">
        <ele>66.949</ele>
        <time>2014-05-12T19:05:10Z</time>
      </trkpt>
      <trkpt lat="59.8228282" lon="17.6636734">
        <ele>66.949</ele>
        <time>2014-05-12T19:05:11Z</time>
      </trkpt>
      <trkpt lat="59.8228441" lon="17.6636556">
        <ele>65.9877</ele>
        <time>2014-05-12T19:05:12Z</time>
      </trkpt>
      <trkpt lat="59.8228663" lon="17.6636444">
        <ele>66.949</ele>
        <time>2014-05-12T19:05:13Z</time>
      </trkpt>
      <trkpt lat="59.8228896" lon="17.6636317">
        <ele>66.949</ele>
        <time>2014-05-12T19:05:14Z</time>
      </trkpt>
      <trkpt lat="59.822913" lon="17.6636258">
        <ele>67.4297</ele>
        <time>2014-05-12T19:05:15Z</time>
      </trkpt>
      <trkpt lat="59.8229311" lon="17.6636177">
        <ele>67.4297</ele>
        <time>2014-05-12T19:05:16Z</time>
      </trkpt>
      <trkpt lat="59.822957" lon="17.6636037">
        <ele>65.9877</ele>
        <time>2014-05-12T19:05:17Z</time>
      </trkpt>
      <trkpt lat="59.8229949" lon="17.6635988">
        <ele>66.949</ele>
        <time>2014-05-12T19:05:18Z</time>
      </trkpt>
      <trkpt lat="59.8230247" lon="17.663601">
        <ele>66.949</ele>
        <time>2014-05-12T19:05:19Z</time>
      </trkpt>
      <trkpt lat="59.8230497" lon="17.6635999">
        <ele>66.949</ele>
        <time>2014-05-12T19:05:20Z</time>
      </trkpt>
      <trkpt lat="59.8230736" lon="17.6635931">
        <ele>67.9103</ele>
        <time>2014-05-12T19:05:21Z</time>
      </trkpt>
      <trkpt lat="59.8230963" lon="17.6635947">
        <ele>67.9103</ele>
        <time>2014-05-12T19:05:22Z</time>
      </trkpt>
      <trkpt lat="59.8231105" lon="17.6635977">
        <ele>66.4683</ele>
        <time>2014-05-12T19:05:23Z</time>
      </trkpt>
      <trkpt lat="59.8231388" lon="17.6635995">
        <ele>66.949</ele>
        <time>2014-05-12T19:05:24Z</time>
      </trkpt>
      <trkpt lat="59.8231552" lon="17.6636021">
        <ele>66.4683</ele>
        <time>2014-05-12T19:05:25Z</time>
      </trkpt>
      <trkpt lat="59.823184" lon="17.6636067">
        <ele>67.9103</ele>
        <time>2014-05-12T19:05:26Z</time>
      </trkpt>
      <trkpt lat="59.8232169" lon="17.6636135">
        <ele>70.3135</ele>
        <time>2014-05-12T19:05:27Z</time>
      </trkpt>
      <trkpt lat="59.8232498" lon="17.6636211">
        <ele>71.2749</ele>
        <time>2014-05-12T19:05:28Z</time>
      </trkpt>
      <trkpt lat="59.8232763" lon="17.663625">
        <ele>71.7555</ele>
        <time>2014-05-12T19:05:29Z</time>
      </trkpt>
      <trkpt lat="59.823314" lon="17.6636355">
        <ele>73.6782</ele>
        <time>2014-05-12T19:05:30Z</time>
      </trkpt>
      <trkpt lat="59.8233554" lon="17.6636419">
        <ele>76.0814</ele>
        <time>2014-05-12T19:05:31Z</time>
      </trkpt>
      <trkpt lat="59.8233814" lon="17.6636425">
        <ele>75.1202</ele>
        <time>2014-05-12T19:05:32Z</time>
      </trkpt>
      <trkpt lat="59.8234062" lon="17.6636404">
        <ele>71.7555</ele>
        <time>2014-05-12T19:05:33Z</time>
      </trkpt>
      <trkpt lat="59.8234311" lon="17.6636464">
        <ele>70.3135</ele>
        <time>2014-05-12T19:05:34Z</time>
      </trkpt>
      <trkpt lat="59.8234492" lon="17.6636532">
        <ele>68.8716</ele>
        <time>2014-05-12T19:05:35Z</time>
      </trkpt>
      <trkpt lat="59.8234755" lon="17.6636522">
        <ele>68.3909</ele>
        <time>2014-05-12T19:05:36Z</time>
      </trkpt>
      <trkpt lat="59.8234999" lon="17.6636558">
        <ele>68.3909</ele>
        <time>2014-05-12T19:05:37Z</time>
      </trkpt>
      <trkpt lat="59.8235176" lon="17.6636591">
        <ele>65.9877</ele>
        <time>2014-05-12T19:05:38Z</time>
      </trkpt>
      <trkpt lat="59.823545" lon="17.6636589">
        <ele>64.0651</ele>
        <time>2014-05-12T19:05:39Z</time>
      </trkpt>
      <trkpt lat="59.8235796" lon="17.6636552">
        <ele>62.6229</ele>
        <time>2014-05-12T19:05:40Z</time>
      </trkpt>
      <trkpt lat="59.8236026" lon="17.6636599">
        <ele>62.6229</ele>
        <time>2014-05-12T19:05:41Z</time>
      </trkpt>
      <trkpt lat="59.823617" lon="17.6636662">
        <ele>61.181</ele>
        <time>2014-05-12T19:05:42Z</time>
      </trkpt>
      <trkpt lat="59.8236387" lon="17.6636741">
        <ele>61.6617</ele>
        <time>2014-05-12T19:05:43Z</time>
      </trkpt>
      <trkpt lat="59.8236627" lon="17.6636797">
        <ele>61.6617</ele>
        <time>2014-05-12T19:05:44Z</time>
      </trkpt>
      <trkpt lat="59.8236796" lon="17.663689">
        <ele>59.7391</ele>
        <time>2014-05-12T19:05:45Z</time>
      </trkpt>
      <trkpt lat="59.823704" lon="17.6637026">
        <ele>58.7777</ele>
        <time>2014-05-12T19:05:46Z</time>
      </trkpt>
      <trkpt lat="59.8237304" lon="17.6637099">
        <ele>58.7777</ele>
        <time>2014-05-12T19:05:47Z</time>
      </trkpt>
      <trkpt lat="59.8237463" lon="17.6637193">
        <ele>57.3358</ele>
        <time>2014-05-12T19:05:48Z</time>
      </trkpt>
      <trkpt lat="59.8237665" lon="17.6637226">
        <ele>55.8938</ele>
        <time>2014-05-12T19:05:49Z</time>
      </trkpt>
      <trkpt lat="59.8237932" lon="17.6637176">
        <ele>53.9712</ele>
        <time>2014-05-12T19:05:50Z</time>
      </trkpt>
      <trkpt lat="59.8238164" lon="17.6637166">
        <ele>53.0098</ele>
        <time>2014-05-12T19:05:51Z</time>
      </trkpt>
      <trkpt lat="59.823832" lon="17.6637181">
        <ele>51.0872</ele>
        <time>2014-05-12T19:05:52Z</time>
      </trkpt>
      <trkpt lat="59.8238571" lon="17.6637217">
        <ele>51.0872</ele>
        <time>2014-05-12T19:05:53Z</time>
      </trkpt>
      <trkpt lat="59.8238723" lon="17.663717">
        <ele>48.2034</ele>
        <time>2014-05-12T19:05:54Z</time>
      </trkpt>
      <trkpt lat="59.8238913" lon="17.6637143">
        <ele>45.7999</ele>
        <time>2014-05-12T19:05:55Z</time>
      </trkpt>
      <trkpt lat="59.8239129" lon="17.6637146">
        <ele>43.8773</ele>
        <time>2014-05-12T19:05:56Z</time>
      </trkpt>
      <trkpt lat="59.8239438" lon="17.6637155">
        <ele>45.3192</ele>
        <time>2014-05-12T19:05:57Z</time>
      </trkpt>
      <trkpt lat="59.8239654" lon="17.6637135">
        <ele>44.358</ele>
        <time>2014-05-12T19:05:58Z</time>
      </trkpt>
      <trkpt lat="59.8239957" lon="17.6637207">
        <ele>45.7999</ele>
        <time>2014-05-12T19:05:59Z</time>
      </trkpt>
      <trkpt lat="59.8240267" lon="17.6637192">
        <ele>47.2418</ele>
        <time>2014-05-12T19:06:00Z</time>
      </trkpt>
      <trkpt lat="59.8240481" lon="17.6637189">
        <ele>46.7612</ele>
        <time>2014-05-12T19:06:01Z</time>
      </trkpt>
      <trkpt lat="59.8240567" lon="17.6637127">
        <ele>43.8773</ele>
        <time>2014-05-12T19:06:02Z</time>
      </trkpt>
      <trkpt lat="59.8240791" lon="17.6637093">
        <ele>43.3966</ele>
        <time>2014-05-12T19:06:03Z</time>
      </trkpt>
      <trkpt lat="59.8240999" lon="17.6637145">
        <ele>43.3966</ele>
        <time>2014-05-12T19:06:04Z</time>
      </trkpt>
      <trkpt lat="59.8241099" lon="17.6637088">
        <ele>40.9934</ele>
        <time>2014-05-12T19:06:05Z</time>
      </trkpt>
      <trkpt lat="59.8241385" lon="17.6637015">
        <ele>41.9547</ele>
        <time>2014-05-12T19:06:06Z</time>
      </trkpt>
      <trkpt lat="59.8241671" lon="17.663704">
        <ele>43.3966</ele>
        <time>2014-05-12T19:06:07Z</time>
      </trkpt>
      <trkpt lat="59.8241905" lon="17.6637076">
        <ele>44.8386</ele>
        <time>2014-05-12T19:06:08Z</time>
      </trkpt>
      <trkpt lat="59.8242215" lon="17.6637104">
        <ele>47.7225</ele>
        <time>2014-05-12T19:06:09Z</time>
      </trkpt>
      <trkpt lat="59.82425" lon="17.6637073">
        <ele>49.1646</ele>
        <time>2014-05-12T19:06:10Z</time>
      </trkpt>
      <trkpt lat="59.8242742" lon="17.6636962">
        <ele>48.2034</ele>
        <time>2014-05-12T19:06:11Z</time>
      </trkpt>
      <trkpt lat="59.8243052" lon="17.6636886">
        <ele>49.1646</ele>
        <time>2014-05-12T19:06:12Z</time>
      </trkpt>
      <trkpt lat="59.8243353" lon="17.6636886">
        <ele>50.6066</ele>
        <time>2014-05-12T19:06:13Z</time>
      </trkpt>
      <trkpt lat="59.8243681" lon="17.6636799">
        <ele>52.5292</ele>
        <time>2014-05-12T19:06:14Z</time>
      </trkpt>
      <trkpt lat="59.824394" lon="17.6636662">
        <ele>53.0098</ele>
        <time>2014-05-12T19:06:15Z</time>
      </trkpt>
      <trkpt lat="59.8244156" lon="17.6636575">
        <ele>53.0098</ele>
        <time>2014-05-12T19:06:16Z</time>
      </trkpt>
      <trkpt lat="59.8244301" lon="17.6636476">
        <ele>50.6066</ele>
        <time>2014-05-12T19:06:17Z</time>
      </trkpt>
      <trkpt lat="59.8244484" lon="17.6636469">
        <ele>50.126</ele>
        <time>2014-05-12T19:06:18Z</time>
      </trkpt>
      <trkpt lat="59.8244749" lon="17.663647">
        <ele>50.6066</ele>
        <time>2014-05-12T19:06:19Z</time>
      </trkpt>
      <trkpt lat="59.8245081" lon="17.6636425">
        <ele>52.0486</ele>
        <time>2014-05-12T19:06:20Z</time>
      </trkpt>
      <trkpt lat="59.824539" lon="17.6636364">
        <ele>52.5292</ele>
        <time>2014-05-12T19:06:21Z</time>
      </trkpt>
      <trkpt lat="59.8245592" lon="17.6636317">
        <ele>51.0872</ele>
        <time>2014-05-12T19:06:22Z</time>
      </trkpt>
      <trkpt lat="59.8245899" lon="17.6636262">
        <ele>53.0098</ele>
        <time>2014-05-12T19:06:23Z</time>
      </trkpt>
      <trkpt lat="59.8246251" lon="17.6636153">
        <ele>55.8938</ele>
        <time>2014-05-12T19:06:24Z</time>
      </trkpt>
      <trkpt lat="59.8246511" lon="17.6636071">
        <ele>57.3358</ele>
        <time>2014-05-12T19:06:25Z</time>
      </trkpt>
      <trkpt lat="59.8246695" lon="17.6635912">
        <ele>57.3358</ele>
        <time>2014-05-12T19:06:26Z</time>
      </trkpt>
      <trkpt lat="59.8246882" lon="17.6635746">
        <ele>56.8551</ele>
        <time>2014-05-12T19:06:27Z</time>
      </trkpt>
      <trkpt lat="59.8247157" lon="17.6635611">
        <ele>57.3358</ele>
        <time>2014-05-12T19:06:28Z</time>
      </trkpt>
      <trkpt lat="59.8247297" lon="17.6635425">
        <ele>56.3745</ele>
        <time>2014-05-12T19:06:29Z</time>
      </trkpt>
      <trkpt lat="59.8247441" lon="17.6635208">
        <ele>54.9324</ele>
        <time>2014-05-12T19:06:30Z</time>
      </trkpt>
      <trkpt lat="59.8247581" lon="17.6634943">
        <ele>53.0098</ele>
        <time>2014-05-12T19:06:31Z</time>
      </trkpt>
      <trkpt lat="59.8247697" lon="17.6634742">
        <ele>51.5679</ele>
        <time>2014-05-12T19:06:32Z</time>
      </trkpt>
      <trkpt lat="59.8247872" lon="17.6634591">
        <ele>51.0872</ele>
        <time>2014-05-12T19:06:33Z</time>
      </trkpt>
      <trkpt lat="59.8247975" lon="17.6634348">
        <ele>49.6453</ele>
        <time>2014-05-12T19:06:34Z</time>
      </trkpt>
      <trkpt lat="59.8248059" lon="17.6634146">
        <ele>48.2034</ele>
        <time>2014-05-12T19:06:35Z</time>
      </trkpt>
      <trkpt lat="59.8248162" lon="17.6633923">
        <ele>46.7612</ele>
        <time>2014-05-12T19:06:36Z</time>
      </trkpt>
      <trkpt lat="59.8248337" lon="17.6633708">
        <ele>45.3192</ele>
        <time>2014-05-12T19:06:37Z</time>
      </trkpt>
      <trkpt lat="59.8248455" lon="17.6633514">
        <ele>43.3966</ele>
        <time>2014-05-12T19:06:38Z</time>
      </trkpt>
      <trkpt lat="59.8248607" lon="17.6633356">
        <ele>42.4354</ele>
        <time>2014-05-12T19:06:39Z</time>
      </trkpt>
      <trkpt lat="59.8248696" lon="17.6633115">
        <ele>40.0321</ele>
        <time>2014-05-12T19:06:40Z</time>
      </trkpt>
      <trkpt lat="59.8248722" lon="17.6632871">
        <ele>37.1481</ele>
        <time>2014-05-12T19:06:41Z</time>
      </trkpt>
      <trkpt lat="59.8248926" lon="17.6632729">
        <ele>37.1481</ele>
        <time>2014-05-12T19:06:42Z</time>
      </trkpt>
      <trkpt lat="59.8249022" lon="17.6632441">
        <ele>34.7449</ele>
        <time>2014-05-12T19:06:43Z</time>
      </trkpt>
      <trkpt lat="59.8249486" lon="17.6632238">
        <ele>39.0707</ele>
        <time>2014-05-12T19:06:44Z</time>
      </trkpt>
      <trkpt lat="59.8249952" lon="17.6632023">
        <ele>42.916</ele>
        <time>2014-05-12T19:06:45Z</time>
      </trkpt>
      <trkpt lat="59.8250104" lon="17.663182">
        <ele>40.5128</ele>
        <time>2014-05-12T19:06:46Z</time>
      </trkpt>
      <trkpt lat="59.8250308" lon="17.663165">
        <ele>39.5513</ele>
        <time>2014-05-12T19:06:47Z</time>
      </trkpt>
      <trkpt lat="59.8250421" lon="17.663144">
        <ele>38.5901</ele>
        <time>2014-05-12T19:06:48Z</time>
      </trkpt>
      <trkpt lat="59.8250525" lon="17.6631213">
        <ele>37.6287</ele>
        <time>2014-05-12T19:06:49Z</time>
      </trkpt>
      <trkpt lat="59.8251027" lon="17.663094">
        <ele>42.916</ele>
        <time>2014-05-12T19:06:50Z</time>
      </trkpt>
      <trkpt lat="59.8251294" lon="17.6630681">
        <ele>44.8386</ele>
        <time>2014-05-12T19:06:51Z</time>
      </trkpt>
      <trkpt lat="59.8251455" lon="17.6630509">
        <ele>45.7999</ele>
        <time>2014-05-12T19:06:52Z</time>
      </trkpt>
      <trkpt lat="59.8251579" lon="17.6630359">
        <ele>44.8386</ele>
        <time>2014-05-12T19:06:53Z</time>
      </trkpt>
      <trkpt lat="59.825173" lon="17.6630229">
        <ele>44.358</ele>
        <time>2014-05-12T19:06:54Z</time>
      </trkpt>
      <trkpt lat="59.8251919" lon="17.6629971">
        <ele>43.8773</ele>
        <time>2014-05-12T19:06:55Z</time>
      </trkpt>
      <trkpt lat="59.8252087" lon="17.662967">
        <ele>43.3966</ele>
        <time>2014-05-12T19:06:56Z</time>
      </trkpt>
      <trkpt lat="59.8252327" lon="17.6629323">
        <ele>44.8386</ele>
        <time>2014-05-12T19:06:57Z</time>
      </trkpt>
      <trkpt lat="59.8252549" lon="17.6629084">
        <ele>44.8386</ele>
        <time>2014-05-12T19:06:58Z</time>
      </trkpt>
      <trkpt lat="59.8252731" lon="17.6628834">
        <ele>44.358</ele>
        <time>2014-05-12T19:06:59Z</time>
      </trkpt>
      <trkpt lat="59.8253032" lon="17.6628556">
        <ele>46.7612</ele>
        <time>2014-05-12T19:07:00Z</time>
      </trkpt>
      <trkpt lat="59.8253269" lon="17.6628295">
        <ele>47.2418</ele>
        <time>2014-05-12T19:07:01Z</time>
      </trkpt>
      <trkpt lat="59.8253503" lon="17.6627982">
        <ele>48.684</ele>
        <time>2014-05-12T19:07:02Z</time>
      </trkpt>
      <trkpt lat="59.8253789" lon="17.6627651">
        <ele>50.6066</ele>
        <time>2014-05-12T19:07:03Z</time>
      </trkpt>
      <trkpt lat="59.8253958" lon="17.6627321">
        <ele>50.126</ele>
        <time>2014-05-12T19:07:04Z</time>
      </trkpt>
      <trkpt lat="59.8254" lon="17.6626998">
        <ele>47.2418</ele>
        <time>2014-05-12T19:07:05Z</time>
      </trkpt>
      <trkpt lat="59.8254184" lon="17.6626705">
        <ele>46.7612</ele>
        <time>2014-05-12T19:07:06Z</time>
      </trkpt>
      <trkpt lat="59.825436" lon="17.6626366">
        <ele>46.2806</ele>
        <time>2014-05-12T19:07:07Z</time>
      </trkpt>
      <trkpt lat="59.8254507" lon="17.6625975">
        <ele>44.8386</ele>
        <time>2014-05-12T19:07:08Z</time>
      </trkpt>
      <trkpt lat="59.8254703" lon="17.6625685">
        <ele>44.358</ele>
        <time>2014-05-12T19:07:09Z</time>
      </trkpt>
      <trkpt lat="59.8254858" lon="17.6625416">
        <ele>43.8773</ele>
        <time>2014-05-12T19:07:10Z</time>
      </trkpt>
      <trkpt lat="59.8255077" lon="17.6625125">
        <ele>44.8386</ele>
        <time>2014-05-12T19:07:11Z</time>
      </trkpt>
      <trkpt lat="59.8255207" lon="17.6624888">
        <ele>44.8386</ele>
        <time>2014-05-12T19:07:12Z</time>
      </trkpt>
      <trkpt lat="59.8255394" lon="17.6624711">
        <ele>45.7999</ele>
        <time>2014-05-12T19:07:13Z</time>
      </trkpt>
      <trkpt lat="59.8255526" lon="17.6624485">
        <ele>44.8386</ele>
        <time>2014-05-12T19:07:14Z</time>
      </trkpt>
      <trkpt lat="59.825562" lon="17.6624179">
        <ele>43.8773</ele>
        <time>2014-05-12T19:07:15Z</time>
      </trkpt>
      <trkpt lat="59.8255744" lon="17.6623857">
        <ele>43.8773</ele>
        <time>2014-05-12T19:07:16Z</time>
      </trkpt>
      <trkpt lat="59.8255963" lon="17.6623552">
        <ele>44.8386</ele>
        <time>2014-05-12T19:07:17Z</time>
      </trkpt>
      <trkpt lat="59.8256093" lon="17.6623208">
        <ele>44.358</ele>
        <time>2014-05-12T19:07:18Z</time>
      </trkpt>
      <trkpt lat="59.8256201" lon="17.6622807">
        <ele>43.8773</ele>
        <time>2014-05-12T19:07:19Z</time>
      </trkpt>
      <trkpt lat="59.8256321" lon="17.6622417">
        <ele>43.3966</ele>
        <time>2014-05-12T19:07:20Z</time>
      </trkpt>
      <trkpt lat="59.8256436" lon="17.6622137">
        <ele>42.4354</ele>
        <time>2014-05-12T19:07:21Z</time>
      </trkpt>
      <trkpt lat="59.8256456" lon="17.6621738">
        <ele>40.0321</ele>
        <time>2014-05-12T19:07:22Z</time>
      </trkpt>
      <trkpt lat="59.8256594" lon="17.6621404">
        <ele>39.5513</ele>
        <time>2014-05-12T19:07:23Z</time>
      </trkpt>
      <trkpt lat="59.8256692" lon="17.6621095">
        <ele>39.0707</ele>
        <time>2014-05-12T19:07:24Z</time>
      </trkpt>
      <trkpt lat="59.825679" lon="17.6620807">
        <ele>38.1094</ele>
        <time>2014-05-12T19:07:25Z</time>
      </trkpt>
      <trkpt lat="59.8256923" lon="17.6620496">
        <ele>37.1481</ele>
        <time>2014-05-12T19:07:26Z</time>
      </trkpt>
      <trkpt lat="59.8257011" lon="17.6620253">
        <ele>35.7061</ele>
        <time>2014-05-12T19:07:27Z</time>
      </trkpt>
      <trkpt lat="59.8257067" lon="17.6620007">
        <ele>33.7834</ele>
        <time>2014-05-12T19:07:28Z</time>
      </trkpt>
      <trkpt lat="59.8257181" lon="17.6619702">
        <ele>32.3416</ele>
        <time>2014-05-12T19:07:29Z</time>
      </trkpt>
      <trkpt lat="59.8257319" lon="17.6619423">
        <ele>31.8607</ele>
        <time>2014-05-12T19:07:30Z</time>
      </trkpt>
      <trkpt lat="59.8257419" lon="17.6619067">
        <ele>30.8995</ele>
        <time>2014-05-12T19:07:31Z</time>
      </trkpt>
      <trkpt lat="59.8257598" lon="17.6618772">
        <ele>32.3416</ele>
        <time>2014-05-12T19:07:32Z</time>
      </trkpt>
      <trkpt lat="59.8257646" lon="17.6618379">
        <ele>30.8995</ele>
        <time>2014-05-12T19:07:33Z</time>
      </trkpt>
      <trkpt lat="59.8257755" lon="17.6618004">
        <ele>30.4188</ele>
        <time>2014-05-12T19:07:34Z</time>
      </trkpt>
      <trkpt lat="59.8257807" lon="17.6617694">
        <ele>28.4962</ele>
        <time>2014-05-12T19:07:35Z</time>
      </trkpt>
      <trkpt lat="59.8257909" lon="17.6617424">
        <ele>26.5736</ele>
        <time>2014-05-12T19:07:36Z</time>
      </trkpt>
      <trkpt lat="59.8258104" lon="17.6617254">
        <ele>26.5736</ele>
        <time>2014-05-12T19:07:37Z</time>
      </trkpt>
      <trkpt lat="59.8258268" lon="17.6617082">
        <ele>24.651</ele>
        <time>2014-05-12T19:07:38Z</time>
      </trkpt>
      <trkpt lat="59.8258691" lon="17.6616845">
        <ele>27.5349</ele>
        <time>2014-05-12T19:07:39Z</time>
      </trkpt>
      <trkpt lat="59.8258987" lon="17.6616593">
        <ele>28.4962</ele>
        <time>2014-05-12T19:07:40Z</time>
      </trkpt>
      <trkpt lat="59.8259268" lon="17.6616336">
        <ele>29.4575</ele>
        <time>2014-05-12T19:07:41Z</time>
      </trkpt>
      <trkpt lat="59.8259556" lon="17.661614">
        <ele>30.4188</ele>
        <time>2014-05-12T19:07:42Z</time>
      </trkpt>
      <trkpt lat="59.825976" lon="17.6615886">
        <ele>30.4188</ele>
        <time>2014-05-12T19:07:43Z</time>
      </trkpt>
      <trkpt lat="59.8259962" lon="17.6615647">
        <ele>29.9381</ele>
        <time>2014-05-12T19:07:44Z</time>
      </trkpt>
      <trkpt lat="59.826018" lon="17.6615451">
        <ele>29.4575</ele>
        <time>2014-05-12T19:07:45Z</time>
      </trkpt>
      <trkpt lat="59.8260408" lon="17.6615229">
        <ele>28.9769</ele>
        <time>2014-05-12T19:07:46Z</time>
      </trkpt>
      <trkpt lat="59.8260626" lon="17.6614969">
        <ele>28.4962</ele>
        <time>2014-05-12T19:07:47Z</time>
      </trkpt>
      <trkpt lat="59.8260828" lon="17.6614751">
        <ele>28.0155</ele>
        <time>2014-05-12T19:07:48Z</time>
      </trkpt>
      <trkpt lat="59.8260957" lon="17.661454">
        <ele>26.0929</ele>
        <time>2014-05-12T19:07:49Z</time>
      </trkpt>
      <trkpt lat="59.8261209" lon="17.6614431">
        <ele>27.0543</ele>
        <time>2014-05-12T19:07:50Z</time>
      </trkpt>
      <trkpt lat="59.8261438" lon="17.6614239">
        <ele>26.5736</ele>
        <time>2014-05-12T19:07:51Z</time>
      </trkpt>
      <trkpt lat="59.8261749" lon="17.6614043">
        <ele>27.0543</ele>
        <time>2014-05-12T19:07:52Z</time>
      </trkpt>
      <trkpt lat="59.8261945" lon="17.6613805">
        <ele>26.0929</ele>
        <time>2014-05-12T19:07:53Z</time>
      </trkpt>
      <trkpt lat="59.8262143" lon="17.6613606">
        <ele>26.0929</ele>
        <time>2014-05-12T19:07:54Z</time>
      </trkpt>
      <trkpt lat="59.826236" lon="17.6613429">
        <ele>26.0929</ele>
        <time>2014-05-12T19:07:55Z</time>
      </trkpt>
      <trkpt lat="59.8262579" lon="17.6613263">
        <ele>25.6123</ele>
        <time>2014-05-12T19:07:56Z</time>
      </trkpt>
      <trkpt lat="59.8265316" lon="17.6612255">
        <ele>45.7999</ele>
        <time>2014-05-12T19:11:52Z</time>
      </trkpt>
      <trkpt lat="59.8265364" lon="17.6612128">
        <ele>45.7999</ele>
        <time>2014-05-12T19:11:53Z</time>
      </trkpt>
      <trkpt lat="59.8265494" lon="17.6611865">
        <ele>46.2806</ele>
        <time>2014-05-12T19:11:54Z</time>
      </trkpt>
      <trkpt lat="59.8265588" lon="17.6611566">
        <ele>45.3192</ele>
        <time>2014-05-12T19:11:55Z</time>
      </trkpt>
      <trkpt lat="59.8265728" lon="17.6611245">
        <ele>43.8773</ele>
        <time>2014-05-12T19:11:56Z</time>
      </trkpt>
      <trkpt lat="59.8265876" lon="17.6610932">
        <ele>42.4354</ele>
        <time>2014-05-12T19:11:57Z</time>
      </trkpt>
      <trkpt lat="59.8266145" lon="17.6610606">
        <ele>41.9547</ele>
        <time>2014-05-12T19:11:58Z</time>
      </trkpt>
      <trkpt lat="59.8266386" lon="17.6610334">
        <ele>40.9934</ele>
        <time>2014-05-12T19:11:59Z</time>
      </trkpt>
      <trkpt lat="59.8266608" lon="17.6610144">
        <ele>40.5128</ele>
        <time>2014-05-12T19:12:00Z</time>
      </trkpt>
      <trkpt lat="59.8266801" lon="17.6609794">
        <ele>40.0321</ele>
        <time>2014-05-12T19:12:01Z</time>
      </trkpt>
      <trkpt lat="59.8267059" lon="17.6609409">
        <ele>40.5128</ele>
        <time>2014-05-12T19:12:02Z</time>
      </trkpt>
      <trkpt lat="59.8267244" lon="17.6609057">
        <ele>40.5128</ele>
        <time>2014-05-12T19:12:03Z</time>
      </trkpt>
      <trkpt lat="59.8267407" lon="17.6608773">
        <ele>40.0321</ele>
        <time>2014-05-12T19:12:04Z</time>
      </trkpt>
      <trkpt lat="59.8267603" lon="17.6608458">
        <ele>40.0321</ele>
        <time>2014-05-12T19:12:05Z</time>
      </trkpt>
      <trkpt lat="59.8267837" lon="17.6608145">
        <ele>40.0321</ele>
        <time>2014-05-12T19:12:06Z</time>
      </trkpt>
      <trkpt lat="59.8267969" lon="17.6607732">
        <ele>38.5901</ele>
        <time>2014-05-12T19:12:07Z</time>
      </trkpt>
      <trkpt lat="59.8268183" lon="17.6607368">
        <ele>38.5901</ele>
        <time>2014-05-12T19:12:08Z</time>
      </trkpt>
      <trkpt lat="59.8268342" lon="17.6606915">
        <ele>37.1481</ele>
        <time>2014-05-12T19:12:09Z</time>
      </trkpt>
      <trkpt lat="59.8268453" lon="17.6606458">
        <ele>35.2255</ele>
        <time>2014-05-12T19:12:10Z</time>
      </trkpt>
      <trkpt lat="59.8268671" lon="17.6606093">
        <ele>35.2255</ele>
        <time>2014-05-12T19:12:11Z</time>
      </trkpt>
      <trkpt lat="59.8268829" lon="17.6605686">
        <ele>34.2642</ele>
        <time>2014-05-12T19:12:12Z</time>
      </trkpt>
      <trkpt lat="59.8268862" lon="17.6605301">
        <ele>32.8223</ele>
        <time>2014-05-12T19:12:13Z</time>
      </trkpt>
      <trkpt lat="59.8268937" lon="17.6604908">
        <ele>32.3416</ele>
        <time>2014-05-12T19:12:14Z</time>
      </trkpt>
      <trkpt lat="59.8269087" lon="17.6604407">
        <ele>30.8995</ele>
        <time>2014-05-12T19:12:15Z</time>
      </trkpt>
      <trkpt lat="59.8269307" lon="17.6604032">
        <ele>31.8607</ele>
        <time>2014-05-12T19:12:16Z</time>
      </trkpt>
      <trkpt lat="59.8269393" lon="17.6603682">
        <ele>30.8995</ele>
        <time>2014-05-12T19:12:17Z</time>
      </trkpt>
      <trkpt lat="59.8269597" lon="17.6603298">
        <ele>31.3801</ele>
        <time>2014-05-12T19:12:18Z</time>
      </trkpt>
      <trkpt lat="59.8269695" lon="17.6602949">
        <ele>30.8995</ele>
        <time>2014-05-12T19:12:19Z</time>
      </trkpt>
      <trkpt lat="59.8269903" lon="17.6602624">
        <ele>31.8607</ele>
        <time>2014-05-12T19:12:20Z</time>
      </trkpt>
      <trkpt lat="59.8270131" lon="17.6602314">
        <ele>33.3029</ele>
        <time>2014-05-12T19:12:21Z</time>
      </trkpt>
      <trkpt lat="59.8270343" lon="17.660205">
        <ele>34.7449</ele>
        <time>2014-05-12T19:12:22Z</time>
      </trkpt>
      <trkpt lat="59.8270498" lon="17.6601755">
        <ele>35.7061</ele>
        <time>2014-05-12T19:12:23Z</time>
      </trkpt>
      <trkpt lat="59.8270777" lon="17.6601439">
        <ele>38.1094</ele>
        <time>2014-05-12T19:12:24Z</time>
      </trkpt>
      <trkpt lat="59.8271031" lon="17.6601084">
        <ele>39.0707</ele>
        <time>2014-05-12T19:12:25Z</time>
      </trkpt>
      <trkpt lat="59.8271166" lon="17.6600656">
        <ele>38.1094</ele>
        <time>2014-05-12T19:12:26Z</time>
      </trkpt>
      <trkpt lat="59.8271452" lon="17.6600304">
        <ele>40.0321</ele>
        <time>2014-05-12T19:12:27Z</time>
      </trkpt>
      <trkpt lat="59.8271784" lon="17.6600061">
        <ele>42.916</ele>
        <time>2014-05-12T19:12:28Z</time>
      </trkpt>
      <trkpt lat="59.8272121" lon="17.6599905">
        <ele>45.3192</ele>
        <time>2014-05-12T19:12:29Z</time>
      </trkpt>
      <trkpt lat="59.8272489" lon="17.6599791">
        <ele>47.7225</ele>
        <time>2014-05-12T19:12:30Z</time>
      </trkpt>
      <trkpt lat="59.8272752" lon="17.6599645">
        <ele>47.2418</ele>
        <time>2014-05-12T19:12:31Z</time>
      </trkpt>
      <trkpt lat="59.8273004" lon="17.6599521">
        <ele>47.2418</ele>
        <time>2014-05-12T19:12:32Z</time>
      </trkpt>
      <trkpt lat="59.8273266" lon="17.6599453">
        <ele>47.2418</ele>
        <time>2014-05-12T19:12:33Z</time>
      </trkpt>
      <trkpt lat="59.8273529" lon="17.6599475">
        <ele>47.7225</ele>
        <time>2014-05-12T19:12:34Z</time>
      </trkpt>
      <trkpt lat="59.8273771" lon="17.6599463">
        <ele>47.7225</ele>
        <time>2014-05-12T19:12:35Z</time>
      </trkpt>
      <trkpt lat="59.8273933" lon="17.6599382">
        <ele>46.7612</ele>
        <time>2014-05-12T19:12:36Z</time>
      </trkpt>
      <trkpt lat="59.8274062" lon="17.6599216">
        <ele>45.3192</ele>
        <time>2014-05-12T19:12:37Z</time>
      </trkpt>
      <trkpt lat="59.8274523" lon="17.6599139">
        <ele>49.6453</ele>
        <time>2014-05-12T19:12:38Z</time>
      </trkpt>
      <trkpt lat="59.8274741" lon="17.6599026">
        <ele>49.6453</ele>
        <time>2014-05-12T19:12:39Z</time>
      </trkpt>
      <trkpt lat="59.827518" lon="17.6598846">
        <ele>53.0098</ele>
        <time>2014-05-12T19:12:40Z</time>
      </trkpt>
      <trkpt lat="59.8275565" lon="17.6598608">
        <ele>55.8938</ele>
        <time>2014-05-12T19:12:41Z</time>
      </trkpt>
      <trkpt lat="59.8275746" lon="17.6598331">
        <ele>55.4131</ele>
        <time>2014-05-12T19:12:42Z</time>
      </trkpt>
      <trkpt lat="59.8275896" lon="17.6598046">
        <ele>54.9324</ele>
        <time>2014-05-12T19:12:43Z</time>
      </trkpt>
      <trkpt lat="59.8276202" lon="17.6597795">
        <ele>55.4131</ele>
        <time>2014-05-12T19:12:44Z</time>
      </trkpt>
      <trkpt lat="59.8276397" lon="17.6597642">
        <ele>54.9324</ele>
        <time>2014-05-12T19:12:45Z</time>
      </trkpt>
      <trkpt lat="59.8276725" lon="17.6597525">
        <ele>56.3745</ele>
        <time>2014-05-12T19:12:46Z</time>
      </trkpt>
      <trkpt lat="59.8277118" lon="17.659736">
        <ele>58.7777</ele>
        <time>2014-05-12T19:12:47Z</time>
      </trkpt>
      <trkpt lat="59.8277415" lon="17.6597204">
        <ele>58.7777</ele>
        <time>2014-05-12T19:12:48Z</time>
      </trkpt>
      <trkpt lat="59.8277704" lon="17.6597062">
        <ele>58.7777</ele>
        <time>2014-05-12T19:12:49Z</time>
      </trkpt>
      <trkpt lat="59.8277916" lon="17.6596772">
        <ele>58.2971</ele>
        <time>2014-05-12T19:12:50Z</time>
      </trkpt>
      <trkpt lat="59.8278274" lon="17.6596596">
        <ele>58.2971</ele>
        <time>2014-05-12T19:12:51Z</time>
      </trkpt>
      <trkpt lat="59.8278505" lon="17.6596439">
        <ele>57.3358</ele>
        <time>2014-05-12T19:12:52Z</time>
      </trkpt>
      <trkpt lat="59.8278745" lon="17.6596403">
        <ele>57.3358</ele>
        <time>2014-05-12T19:12:53Z</time>
      </trkpt>
      <trkpt lat="59.8278927" lon="17.6596342">
        <ele>57.3358</ele>
        <time>2014-05-12T19:12:54Z</time>
      </trkpt>
      <trkpt lat="59.8279161" lon="17.6596227">
        <ele>56.8551</ele>
        <time>2014-05-12T19:12:55Z</time>
      </trkpt>
      <trkpt lat="59.8279318" lon="17.659599">
        <ele>55.4131</ele>
        <time>2014-05-12T19:12:56Z</time>
      </trkpt>
      <trkpt lat="59.8279503" lon="17.6595795">
        <ele>54.4518</ele>
        <time>2014-05-12T19:12:57Z</time>
      </trkpt>
      <trkpt lat="59.827961" lon="17.6595554">
        <ele>52.5292</ele>
        <time>2014-05-12T19:12:58Z</time>
      </trkpt>
      <trkpt lat="59.8279709" lon="17.6595273">
        <ele>50.126</ele>
        <time>2014-05-12T19:12:59Z</time>
      </trkpt>
      <trkpt lat="59.8279865" lon="17.6595133">
        <ele>48.2034</ele>
        <time>2014-05-12T19:13:00Z</time>
      </trkpt>
      <trkpt lat="59.8280122" lon="17.6595035">
        <ele>49.1646</ele>
        <time>2014-05-12T19:13:01Z</time>
      </trkpt>
      <trkpt lat="59.8280249" lon="17.6594817">
        <ele>47.2418</ele>
        <time>2014-05-12T19:13:02Z</time>
      </trkpt>
      <trkpt lat="59.8280486" lon="17.659457">
        <ele>45.7999</ele>
        <time>2014-05-12T19:13:03Z</time>
      </trkpt>
      <trkpt lat="59.8280641" lon="17.6594242">
        <ele>42.916</ele>
        <time>2014-05-12T19:13:04Z</time>
      </trkpt>
      <trkpt lat="59.8280755" lon="17.6594009">
        <ele>40.5128</ele>
        <time>2014-05-12T19:13:05Z</time>
      </trkpt>
      <trkpt lat="59.8280898" lon="17.6593675">
        <ele>38.1094</ele>
        <time>2014-05-12T19:13:06Z</time>
      </trkpt>
      <trkpt lat="59.8281039" lon="17.6593368">
        <ele>35.2255</ele>
        <time>2014-05-12T19:13:07Z</time>
      </trkpt>
      <trkpt lat="59.8281149" lon="17.6593068">
        <ele>32.8223</ele>
        <time>2014-05-12T19:13:08Z</time>
      </trkpt>
      <trkpt lat="59.828131" lon="17.6592755">
        <ele>29.9381</ele>
        <time>2014-05-12T19:13:09Z</time>
      </trkpt>
      <trkpt lat="59.8281424" lon="17.659257">
        <ele>27.0543</ele>
        <time>2014-05-12T19:13:10Z</time>
      </trkpt>
      <trkpt lat="59.8281592" lon="17.6592413">
        <ele>26.0929</ele>
        <time>2014-05-12T19:13:11Z</time>
      </trkpt>
      <trkpt lat="59.8281755" lon="17.6592174">
        <ele>24.651</ele>
        <time>2014-05-12T19:13:12Z</time>
      </trkpt>
      <trkpt lat="59.8281843" lon="17.659198">
        <ele>23.209</ele>
        <time>2014-05-12T19:13:13Z</time>
      </trkpt>
      <trkpt lat="59.8281919" lon="17.6591664">
        <ele>20.8057</ele>
        <time>2014-05-12T19:13:14Z</time>
      </trkpt>
      <trkpt lat="59.828205" lon="17.6591343">
        <ele>18.4023</ele>
        <time>2014-05-12T19:13:15Z</time>
      </trkpt>
      <trkpt lat="59.8282227" lon="17.6591074">
        <ele>16.4797</ele>
        <time>2014-05-12T19:13:16Z</time>
      </trkpt>
      <trkpt lat="59.8282412" lon="17.6590846">
        <ele>15.5184</ele>
        <time>2014-05-12T19:13:17Z</time>
      </trkpt>
      <trkpt lat="59.828255" lon="17.659067">
        <ele>14.557</ele>
        <time>2014-05-12T19:13:18Z</time>
      </trkpt>
      <trkpt lat="59.8282708" lon="17.6590559">
        <ele>13.5958</ele>
        <time>2014-05-12T19:13:19Z</time>
      </trkpt>
      <trkpt lat="59.8282864" lon="17.6590398">
        <ele>12.6344</ele>
        <time>2014-05-12T19:13:20Z</time>
      </trkpt>
      <trkpt lat="59.8282994" lon="17.6590234">
        <ele>10.7118</ele>
        <time>2014-05-12T19:13:21Z</time>
      </trkpt>
      <trkpt lat="59.8283159" lon="17.6590062">
        <ele>10.2312</ele>
        <time>2014-05-12T19:13:22Z</time>
      </trkpt>
      <trkpt lat="59.8283221" lon="17.6589829">
        <ele>7.34717</ele>
        <time>2014-05-12T19:13:23Z</time>
      </trkpt>
      <trkpt lat="59.8283424" lon="17.6589771">
        <ele>7.34717</ele>
        <time>2014-05-12T19:13:24Z</time>
      </trkpt>
      <trkpt lat="59.8283641" lon="17.6589593">
        <ele>6.86646</ele>
        <time>2014-05-12T19:13:25Z</time>
      </trkpt>
      <trkpt lat="59.8283939" lon="17.6589462">
        <ele>6.86646</ele>
        <time>2014-05-12T19:13:26Z</time>
      </trkpt>
      <trkpt lat="59.8284163" lon="17.6589353">
        <ele>5.90527</ele>
        <time>2014-05-12T19:13:27Z</time>
      </trkpt>
      <trkpt lat="59.8284416" lon="17.6589219">
        <ele>5.42456</ele>
        <time>2014-05-12T19:13:28Z</time>
      </trkpt>
      <trkpt lat="59.8284566" lon="17.6589098">
        <ele>3.50195</ele>
        <time>2014-05-12T19:13:29Z</time>
      </trkpt>
      <trkpt lat="59.8284672" lon="17.658886">
        <ele>1.09863</ele>
        <time>2014-05-12T19:13:30Z</time>
      </trkpt>
      <trkpt lat="59.8284821" lon="17.6588574">
        <ele>0</ele>
        <time>2014-05-12T19:13:31Z</time>
      </trkpt>
      <trkpt lat="59.8285065" lon="17.6588337">
        <ele>0</ele>
        <time>2014-05-12T19:13:32Z</time>
      </trkpt>
      <trkpt lat="59.8285308" lon="17.6588061">
        <ele>0</ele>
        <time>2014-05-12T19:13:33Z</time>
      </trkpt>
      <trkpt lat="59.8285542" lon="17.6587867">
        <ele>0</ele>
        <time>2014-05-12T19:13:34Z</time>
      </trkpt>
      <trkpt lat="59.8285832" lon="17.6587711">
        <ele>0</ele>
        <time>2014-05-12T19:13:35Z</time>
      </trkpt>
      <trkpt lat="59.8286043" lon="17.6587577">
        <ele>0</ele>
        <time>2014-05-12T19:13:36Z</time>
      </trkpt>
      <trkpt lat="59.8286273" lon="17.65875">
        <ele>0</ele>
        <time>2014-05-12T19:13:37Z</time>
      </trkpt>
      <trkpt lat="59.8286541" lon="17.6587442">
        <ele>0</ele>
        <time>2014-05-12T19:13:38Z</time>
      </trkpt>
      <trkpt lat="59.8286722" lon="17.658726">
        <ele>0</ele>
        <time>2014-05-12T19:13:39Z</time>
      </trkpt>
      <trkpt lat="59.8287002" lon="17.6587064">
        <ele>0</ele>
        <time>2014-05-12T19:13:40Z</time>
      </trkpt>
      <trkpt lat="59.8287241" lon="17.6586855">
        <ele>0</ele>
        <time>2014-05-12T19:13:41Z</time>
      </trkpt>
      <trkpt lat="59.8287462" lon="17.6586675">
        <ele>0</ele>
        <time>2014-05-12T19:13:42Z</time>
      </trkpt>
      <trkpt lat="59.8287671" lon="17.6586535">
        <ele>0</ele>
        <time>2014-05-12T19:13:43Z</time>
      </trkpt>
      <trkpt lat="59.8287908" lon="17.6586402">
        <ele>0</ele>
        <time>2014-05-12T19:13:44Z</time>
      </trkpt>
      <trkpt lat="59.8288116" lon="17.658629">
        <ele>0</ele>
        <time>2014-05-12T19:13:45Z</time>
      </trkpt>
      <trkpt lat="59.8288353" lon="17.658615">
        <ele>0</ele>
        <time>2014-05-12T19:13:46Z</time>
      </trkpt>
      <trkpt lat="59.8288623" lon="17.6586023">
        <ele>0</ele>
        <time>2014-05-12T19:13:47Z</time>
      </trkpt>
      <trkpt lat="59.8288918" lon="17.6585991">
        <ele>0</ele>
        <time>2014-05-12T19:13:48Z</time>
      </trkpt>
      <trkpt lat="59.8289186" lon="17.6585902">
        <ele>0</ele>
        <time>2014-05-12T19:13:49Z</time>
      </trkpt>
      <trkpt lat="59.8289411" lon="17.6585769">
        <ele>0</ele>
        <time>2014-05-12T19:13:50Z</time>
      </trkpt>
      <trkpt lat="59.8289623" lon="17.6585723">
        <ele>0</ele>
        <time>2014-05-12T19:13:51Z</time>
      </trkpt>
      <trkpt lat="59.8289887" lon="17.6585708">
        <ele>0</ele>
        <time>2014-05-12T19:13:52Z</time>
      </trkpt>
      <trkpt lat="59.8290105" lon="17.658562">
        <ele>0</ele>
        <time>2014-05-12T19:13:53Z</time>
      </trkpt>
      <trkpt lat="59.8290339" lon="17.6585484">
        <ele>0</ele>
        <time>2014-05-12T19:13:54Z</time>
      </trkpt>
      <trkpt lat="59.8290503" lon="17.6585355">
        <ele>0</ele>
        <time>2014-05-12T19:13:55Z</time>
      </trkpt>
      <trkpt lat="59.829071" lon="17.6585244">
        <ele>0</ele>
        <time>2014-05-12T19:13:56Z</time>
      </trkpt>
      <trkpt lat="59.8290861" lon="17.6585075">
        <ele>0</ele>
        <time>2014-05-12T19:13:57Z</time>
      </trkpt>
      <trkpt lat="59.8291084" lon="17.6584996">
        <ele>0</ele>
        <time>2014-05-12T19:13:58Z</time>
      </trkpt>
      <trkpt lat="59.8291343" lon="17.6584808">
        <ele>0</ele>
        <time>2014-05-12T19:13:59Z</time>
      </trkpt>
      <trkpt lat="59.8291561" lon="17.658452">
        <ele>0</ele>
        <time>2014-05-12T19:14:00Z</time>
      </trkpt>
      <trkpt lat="59.8291816" lon="17.6584375">
        <ele>0</ele>
        <time>2014-05-12T19:14:01Z</time>
      </trkpt>
      <trkpt lat="59.8292173" lon="17.6584272">
        <ele>0</ele>
        <time>2014-05-12T19:14:02Z</time>
      </trkpt>
      <trkpt lat="59.829244" lon="17.6584096">
        <ele>0</ele>
        <time>2014-05-12T19:14:03Z</time>
      </trkpt>
      <trkpt lat="59.8292633" lon="17.6583935">
        <ele>0</ele>
        <time>2014-05-12T19:14:04Z</time>
      </trkpt>
      <trkpt lat="59.8292781" lon="17.6583691">
        <ele>0</ele>
        <time>2014-05-12T19:14:05Z</time>
      </trkpt>
      <trkpt lat="59.8292926" lon="17.6583571">
        <ele>0</ele>
        <time>2014-05-12T19:14:06Z</time>
      </trkpt>
      <trkpt lat="59.8293259" lon="17.6583464">
        <ele>0</ele>
        <time>2014-05-12T19:14:07Z</time>
      </trkpt>
      <trkpt lat="59.829354" lon="17.658335">
        <ele>0</ele>
        <time>2014-05-12T19:14:08Z</time>
      </trkpt>
      <trkpt lat="59.8293845" lon="17.6583282">
        <ele>0</ele>
        <time>2014-05-12T19:14:09Z</time>
      </trkpt>
      <trkpt lat="59.8294109" lon="17.6583148">
        <ele>0</ele>
        <time>2014-05-12T19:14:10Z</time>
      </trkpt>
      <trkpt lat="59.8294436" lon="17.6583061">
        <ele>0</ele>
        <time>2014-05-12T19:14:11Z</time>
      </trkpt>
      <trkpt lat="59.8294736" lon="17.658306">
        <ele>0</ele>
        <time>2014-05-12T19:14:12Z</time>
      </trkpt>
      <trkpt lat="59.8294968" lon="17.6582995">
        <ele>0</ele>
        <time>2014-05-12T19:14:13Z</time>
      </trkpt>
      <trkpt lat="59.8295187" lon="17.6582845">
        <ele>0</ele>
        <time>2014-05-12T19:14:14Z</time>
      </trkpt>
      <trkpt lat="59.8295395" lon="17.6582712">
        <ele>0</ele>
        <time>2014-05-12T19:14:15Z</time>
      </trkpt>
      <trkpt lat="59.8295502" lon="17.65826">
        <ele>0</ele>
        <time>2014-05-12T19:14:16Z</time>
      </trkpt>
      <trkpt lat="59.8295685" lon="17.658261">
        <ele>0</ele>
        <time>2014-05-12T19:14:17Z</time>
      </trkpt>
      <trkpt lat="59.8295905" lon="17.6582644">
        <ele>0</ele>
        <time>2014-05-12T19:14:18Z</time>
      </trkpt>
      <trkpt lat="59.8296091" lon="17.6582586">
        <ele>0</ele>
        <time>2014-05-12T19:14:19Z</time>
      </trkpt>
      <trkpt lat="59.8296326" lon="17.6582421">
        <ele>0</ele>
        <time>2014-05-12T19:14:20Z</time>
      </trkpt>
      <trkpt lat="59.8296535" lon="17.6582277">
        <ele>0</ele>
        <time>2014-05-12T19:14:21Z</time>
      </trkpt>
      <trkpt lat="59.8296721" lon="17.6582111">
        <ele>0</ele>
        <time>2014-05-12T19:14:22Z</time>
      </trkpt>
      <trkpt lat="59.8296895" lon="17.6581909">
        <ele>0</ele>
        <time>2014-05-12T19:14:23Z</time>
      </trkpt>
      <trkpt lat="59.8297124" lon="17.6581656">
        <ele>0</ele>
        <time>2014-05-12T19:14:24Z</time>
      </trkpt>
      <trkpt lat="59.8297314" lon="17.658135">
        <ele>0</ele>
        <time>2014-05-12T19:14:25Z</time>
      </trkpt>
      <trkpt lat="59.8297513" lon="17.6580988">
        <ele>0</ele>
        <time>2014-05-12T19:14:26Z</time>
      </trkpt>
      <trkpt lat="59.8297621" lon="17.6580587">
        <ele>0</ele>
        <time>2014-05-12T19:14:27Z</time>
      </trkpt>
      <trkpt lat="59.8297918" lon="17.65802">
        <ele>0</ele>
        <time>2014-05-12T19:14:28Z</time>
      </trkpt>
      <trkpt lat="59.8298159" lon="17.6579832">
        <ele>0</ele>
        <time>2014-05-12T19:14:29Z</time>
      </trkpt>
      <trkpt lat="59.829856" lon="17.6579541">
        <ele>0</ele>
        <time>2014-05-12T19:14:30Z</time>
      </trkpt>
      <trkpt lat="59.8298792" lon="17.6579273">
        <ele>0</ele>
        <time>2014-05-12T19:14:31Z</time>
      </trkpt>
      <trkpt lat="59.8298937" lon="17.6578982">
        <ele>0</ele>
        <time>2014-05-12T19:14:32Z</time>
      </trkpt>
      <trkpt lat="59.8299098" lon="17.6578753">
        <ele>0</ele>
        <time>2014-05-12T19:14:33Z</time>
      </trkpt>
      <trkpt lat="59.8299378" lon="17.6578408">
        <ele>0</ele>
        <time>2014-05-12T19:14:34Z</time>
      </trkpt>
      <trkpt lat="59.8299413" lon="17.6577833">
        <ele>0</ele>
        <time>2014-05-12T19:14:35Z</time>
      </trkpt>
      <trkpt lat="59.82996" lon="17.6577318">
        <ele>0</ele>
        <time>2014-05-12T19:14:36Z</time>
      </trkpt>
      <trkpt lat="59.8299735" lon="17.6576881">
        <ele>0</ele>
        <time>2014-05-12T19:14:37Z</time>
      </trkpt>
      <trkpt lat="59.8299855" lon="17.6576476">
        <ele>0</ele>
        <time>2014-05-12T19:14:38Z</time>
      </trkpt>
      <trkpt lat="59.8299917" lon="17.6575993">
        <ele>0</ele>
        <time>2014-05-12T19:14:39Z</time>
      </trkpt>
      <trkpt lat="59.830002" lon="17.6575585">
        <ele>0</ele>
        <time>2014-05-12T19:14:40Z</time>
      </trkpt>
      <trkpt lat="59.8300112" lon="17.6575143">
        <ele>0</ele>
        <time>2014-05-12T19:14:41Z</time>
      </trkpt>
      <trkpt lat="59.8300378" lon="17.6574679">
        <ele>0</ele>
        <time>2014-05-12T19:14:42Z</time>
      </trkpt>
      <trkpt lat="59.830038" lon="17.6574212">
        <ele>0</ele>
        <time>2014-05-12T19:14:43Z</time>
      </trkpt>
      <trkpt lat="59.8300516" lon="17.6573823">
        <ele>0</ele>
        <time>2014-05-12T19:14:44Z</time>
      </trkpt>
      <trkpt lat="59.8300298" lon="17.6573305">
        <ele>0</ele>
        <time>2014-05-12T19:14:45Z</time>
      </trkpt>
      <trkpt lat="59.8300227" lon="17.6572785">
        <ele>0</ele>
        <time>2014-05-12T19:14:46Z</time>
      </trkpt>
      <trkpt lat="59.8300019" lon="17.6572213">
        <ele>0</ele>
        <time>2014-05-12T19:14:47Z</time>
      </trkpt>
      <trkpt lat="59.8300088" lon="17.65717">
        <ele>0</ele>
        <time>2014-05-12T19:14:48Z</time>
      </trkpt>
      <trkpt lat="59.8299994" lon="17.6571128">
        <ele>0</ele>
        <time>2014-05-12T19:14:49Z</time>
      </trkpt>
      <trkpt lat="59.8299994" lon="17.6570621">
        <ele>0</ele>
        <time>2014-05-12T19:14:50Z</time>
      </trkpt>
      <trkpt lat="59.8299967" lon="17.6570071">
        <ele>0</ele>
        <time>2014-05-12T19:14:51Z</time>
      </trkpt>
      <trkpt lat="59.8299725" lon="17.6569545">
        <ele>0</ele>
        <time>2014-05-12T19:14:52Z</time>
      </trkpt>
      <trkpt lat="59.8299482" lon="17.6569053">
        <ele>0</ele>
        <time>2014-05-12T19:14:53Z</time>
      </trkpt>
      <trkpt lat="59.8299444" lon="17.656858">
        <ele>0</ele>
        <time>2014-05-12T19:14:54Z</time>
      </trkpt>
      <trkpt lat="59.8299315" lon="17.6568074">
        <ele>0</ele>
        <time>2014-05-12T19:14:55Z</time>
      </trkpt>
      <trkpt lat="59.8299191" lon="17.6567614">
        <ele>0</ele>
        <time>2014-05-12T19:14:56Z</time>
      </trkpt>
      <trkpt lat="59.8299067" lon="17.6567199">
        <ele>0</ele>
        <time>2014-05-12T19:14:57Z</time>
      </trkpt>
      <trkpt lat="59.8299062" lon="17.656682">
        <ele>0</ele>
        <time>2014-05-12T19:14:58Z</time>
      </trkpt>
      <trkpt lat="59.8298826" lon="17.656635">
        <ele>0</ele>
        <time>2014-05-12T19:14:59Z</time>
      </trkpt>
      <trkpt lat="59.8298857" lon="17.6565944">
        <ele>0</ele>
        <time>2014-05-12T19:15:00Z</time>
      </trkpt>
      <trkpt lat="59.8298746" lon="17.6565424">
        <ele>0</ele>
        <time>2014-05-12T19:15:01Z</time>
      </trkpt>
      <trkpt lat="59.8298756" lon="17.6564875">
        <ele>0</ele>
        <time>2014-05-12T19:15:02Z</time>
      </trkpt>
      <trkpt lat="59.829856" lon="17.6564394">
        <ele>0</ele>
        <time>2014-05-12T19:15:03Z</time>
      </trkpt>
      <trkpt lat="59.8298508" lon="17.656405">
        <ele>0</ele>
        <time>2014-05-12T19:15:04Z</time>
      </trkpt>
      <trkpt lat="59.8298216" lon="17.6563654">
        <ele>0</ele>
        <time>2014-05-12T19:15:05Z</time>
      </trkpt>
      <trkpt lat="59.8298072" lon="17.6563349">
        <ele>0</ele>
        <time>2014-05-12T19:15:06Z</time>
      </trkpt>
      <trkpt lat="59.8297794" lon="17.6562935">
        <ele>0</ele>
        <time>2014-05-12T19:15:07Z</time>
      </trkpt>
      <trkpt lat="59.8297749" lon="17.6562555">
        <ele>0</ele>
        <time>2014-05-12T19:15:08Z</time>
      </trkpt>
      <trkpt lat="59.8297559" lon="17.6562057">
        <ele>0</ele>
        <time>2014-05-12T19:15:09Z</time>
      </trkpt>
      <trkpt lat="59.8297516" lon="17.6561566">
        <ele>0</ele>
        <time>2014-05-12T19:15:10Z</time>
      </trkpt>
      <trkpt lat="59.8297347" lon="17.6561064">
        <ele>0</ele>
        <time>2014-05-12T19:15:11Z</time>
      </trkpt>
      <trkpt lat="59.8297304" lon="17.6560594">
        <ele>0</ele>
        <time>2014-05-12T19:15:12Z</time>
      </trkpt>
      <trkpt lat="59.8297087" lon="17.6560117">
        <ele>0</ele>
        <time>2014-05-12T19:15:13Z</time>
      </trkpt>
      <trkpt lat="59.8297048" lon="17.6559697">
        <ele>0</ele>
        <time>2014-05-12T19:15:14Z</time>
      </trkpt>
      <trkpt lat="59.8296879" lon="17.6559279">
        <ele>0</ele>
        <time>2014-05-12T19:15:15Z</time>
      </trkpt>
      <trkpt lat="59.8296789" lon="17.6558832">
        <ele>0</ele>
        <time>2014-05-12T19:15:16Z</time>
      </trkpt>
      <trkpt lat="59.8296578" lon="17.6558348">
        <ele>0</ele>
        <time>2014-05-12T19:15:17Z</time>
      </trkpt>
      <trkpt lat="59.8296501" lon="17.6557899">
        <ele>0</ele>
        <time>2014-05-12T19:15:18Z</time>
      </trkpt>
      <trkpt lat="59.8296358" lon="17.6557461">
        <ele>0</ele>
        <time>2014-05-12T19:15:19Z</time>
      </trkpt>
      <trkpt lat="59.829642" lon="17.6557107">
        <ele>0</ele>
        <time>2014-05-12T19:15:20Z</time>
      </trkpt>
      <trkpt lat="59.8296368" lon="17.6556625">
        <ele>0</ele>
        <time>2014-05-12T19:15:21Z</time>
      </trkpt>
      <trkpt lat="59.8296377" lon="17.6556216">
        <ele>0</ele>
        <time>2014-05-12T19:15:22Z</time>
      </trkpt>
      <trkpt lat="59.8296236" lon="17.6555663">
        <ele>0</ele>
        <time>2014-05-12T19:15:23Z</time>
      </trkpt>
      <trkpt lat="59.8296107" lon="17.6555153">
        <ele>0</ele>
        <time>2014-05-12T19:15:24Z</time>
      </trkpt>
      <trkpt lat="59.8295933" lon="17.6554619">
        <ele>0</ele>
        <time>2014-05-12T19:15:25Z</time>
      </trkpt>
      <trkpt lat="59.8295829" lon="17.6554119">
        <ele>0</ele>
        <time>2014-05-12T19:15:26Z</time>
      </trkpt>
      <trkpt lat="59.8295756" lon="17.655372">
        <ele>0</ele>
        <time>2014-05-12T19:15:27Z</time>
      </trkpt>
      <trkpt lat="59.8295718" lon="17.6553308">
        <ele>0</ele>
        <time>2014-05-12T19:15:28Z</time>
      </trkpt>
      <trkpt lat="59.8295601" lon="17.6552835">
        <ele>0</ele>
        <time>2014-05-12T19:15:29Z</time>
      </trkpt>
      <trkpt lat="59.8295547" lon="17.6552357">
        <ele>0</ele>
        <time>2014-05-12T19:15:30Z</time>
      </trkpt>
      <trkpt lat="59.8295675" lon="17.6551912">
        <ele>0</ele>
        <time>2014-05-12T19:15:31Z</time>
      </trkpt>
      <trkpt lat="59.8295781" lon="17.6551405">
        <ele>0</ele>
        <time>2014-05-12T19:15:32Z</time>
      </trkpt>
      <trkpt lat="59.8295837" lon="17.6550887">
        <ele>0</ele>
        <time>2014-05-12T19:15:33Z</time>
      </trkpt>
      <trkpt lat="59.8296455" lon="17.6550542">
        <ele>0</ele>
        <time>2014-05-12T19:15:34Z</time>
      </trkpt>
      <trkpt lat="59.8296604" lon="17.6550295">
        <ele>0</ele>
        <time>2014-05-12T19:15:35Z</time>
      </trkpt>
      <trkpt lat="59.8296788" lon="17.6549871">
        <ele>0</ele>
        <time>2014-05-12T19:15:36Z</time>
      </trkpt>
      <trkpt lat="59.8296842" lon="17.6549264">
        <ele>0</ele>
        <time>2014-05-12T19:15:37Z</time>
      </trkpt>
      <trkpt lat="59.829698" lon="17.6548641">
        <ele>1.09863</ele>
        <time>2014-05-12T19:15:38Z</time>
      </trkpt>
      <trkpt lat="59.8297088" lon="17.654803">
        <ele>3.02124</ele>
        <time>2014-05-12T19:15:39Z</time>
      </trkpt>
      <trkpt lat="59.8297272" lon="17.6547607">
        <ele>5.42456</ele>
        <time>2014-05-12T19:15:40Z</time>
      </trkpt>
      <trkpt lat="59.8297425" lon="17.6547121">
        <ele>7.82788</ele>
        <time>2014-05-12T19:15:41Z</time>
      </trkpt>
      <trkpt lat="59.82976" lon="17.6546727">
        <ele>10.7118</ele>
        <time>2014-05-12T19:15:42Z</time>
      </trkpt>
      <trkpt lat="59.829773" lon="17.654632">
        <ele>12.6344</ele>
        <time>2014-05-12T19:15:43Z</time>
      </trkpt>
      <trkpt lat="59.8297704" lon="17.6545647">
        <ele>13.1151</ele>
        <time>2014-05-12T19:15:44Z</time>
      </trkpt>
      <trkpt lat="59.8297638" lon="17.6544964">
        <ele>13.1151</ele>
        <time>2014-05-12T19:15:45Z</time>
      </trkpt>
      <trkpt lat="59.8297661" lon="17.6544421">
        <ele>13.5958</ele>
        <time>2014-05-12T19:15:46Z</time>
      </trkpt>
      <trkpt lat="59.8297636" lon="17.6543914">
        <ele>13.5958</ele>
        <time>2014-05-12T19:15:47Z</time>
      </trkpt>
      <trkpt lat="59.8297595" lon="17.6543425">
        <ele>13.1151</ele>
        <time>2014-05-12T19:15:48Z</time>
      </trkpt>
      <trkpt lat="59.8297575" lon="17.6542986">
        <ele>13.5958</ele>
        <time>2014-05-12T19:15:49Z</time>
      </trkpt>
      <trkpt lat="59.829757" lon="17.6542736">
        <ele>14.0764</ele>
        <time>2014-05-12T19:15:50Z</time>
      </trkpt>
      <trkpt lat="59.8297532" lon="17.6542487">
        <ele>15.5184</ele>
        <time>2014-05-12T19:15:51Z</time>
      </trkpt>
      <trkpt lat="59.8297372" lon="17.6542174">
        <ele>15.0377</ele>
        <time>2014-05-12T19:15:52Z</time>
      </trkpt>
      <trkpt lat="59.8297176" lon="17.6542002">
        <ele>15.5184</ele>
        <time>2014-05-12T19:15:53Z</time>
      </trkpt>
      <trkpt lat="59.8296964" lon="17.6541747">
        <ele>15.0377</ele>
        <time>2014-05-12T19:15:54Z</time>
      </trkpt>
      <trkpt lat="59.8296741" lon="17.6541567">
        <ele>15.0377</ele>
        <time>2014-05-12T19:15:55Z</time>
      </trkpt>
      <trkpt lat="59.8296534" lon="17.6541422">
        <ele>15.0377</ele>
        <time>2014-05-12T19:15:56Z</time>
      </trkpt>
      <trkpt lat="59.8296337" lon="17.6541241">
        <ele>15.5184</ele>
        <time>2014-05-12T19:15:57Z</time>
      </trkpt>
      <trkpt lat="59.8296122" lon="17.6541084">
        <ele>15.5184</ele>
        <time>2014-05-12T19:15:58Z</time>
      </trkpt>
      <trkpt lat="59.8295887" lon="17.6540923">
        <ele>16.4797</ele>
        <time>2014-05-12T19:15:59Z</time>
      </trkpt>
      <trkpt lat="59.8295643" lon="17.6540741">
        <ele>16.9604</ele>
        <time>2014-05-12T19:16:00Z</time>
      </trkpt>
      <trkpt lat="59.8295409" lon="17.6540604">
        <ele>18.4023</ele>
        <time>2014-05-12T19:16:01Z</time>
      </trkpt>
      <trkpt lat="59.8295166" lon="17.6540397">
        <ele>19.3638</ele>
        <time>2014-05-12T19:16:02Z</time>
      </trkpt>
      <trkpt lat="59.8294928" lon="17.6540132">
        <ele>20.325</ele>
        <time>2014-05-12T19:16:03Z</time>
      </trkpt>
      <trkpt lat="59.8294693" lon="17.6539847">
        <ele>20.8057</ele>
        <time>2014-05-12T19:16:04Z</time>
      </trkpt>
      <trkpt lat="59.8294476" lon="17.6539553">
        <ele>21.767</ele>
        <time>2014-05-12T19:16:05Z</time>
      </trkpt>
      <trkpt lat="59.8294258" lon="17.6539257">
        <ele>22.2476</ele>
        <time>2014-05-12T19:16:06Z</time>
      </trkpt>
      <trkpt lat="59.8294043" lon="17.6538949">
        <ele>22.2476</ele>
        <time>2014-05-12T19:16:07Z</time>
      </trkpt>
      <trkpt lat="59.8293855" lon="17.6538643">
        <ele>22.7283</ele>
        <time>2014-05-12T19:16:08Z</time>
      </trkpt>
      <trkpt lat="59.8293712" lon="17.6538235">
        <ele>23.6896</ele>
        <time>2014-05-12T19:16:09Z</time>
      </trkpt>
      <trkpt lat="59.8293602" lon="17.6537868">
        <ele>24.1703</ele>
        <time>2014-05-12T19:16:10Z</time>
      </trkpt>
      <trkpt lat="59.8293461" lon="17.6537537">
        <ele>24.1703</ele>
        <time>2014-05-12T19:16:11Z</time>
      </trkpt>
      <trkpt lat="59.8293264" lon="17.6537133">
        <ele>24.1703</ele>
        <time>2014-05-12T19:16:12Z</time>
      </trkpt>
      <trkpt lat="59.8293079" lon="17.6536667">
        <ele>24.1703</ele>
        <time>2014-05-12T19:16:13Z</time>
      </trkpt>
      <trkpt lat="59.8292854" lon="17.6536169">
        <ele>24.651</ele>
        <time>2014-05-12T19:16:14Z</time>
      </trkpt>
      <trkpt lat="59.8292634" lon="17.6535763">
        <ele>25.1317</ele>
        <time>2014-05-12T19:16:15Z</time>
      </trkpt>
      <trkpt lat="59.8292444" lon="17.6535269">
        <ele>25.1317</ele>
        <time>2014-05-12T19:16:16Z</time>
      </trkpt>
      <trkpt lat="59.8292291" lon="17.6534812">
        <ele>25.6123</ele>
        <time>2014-05-12T19:16:17Z</time>
      </trkpt>
      <trkpt lat="59.8292141" lon="17.6534485">
        <ele>26.0929</ele>
        <time>2014-05-12T19:16:18Z</time>
      </trkpt>
      <trkpt lat="59.829197" lon="17.6534159">
        <ele>26.0929</ele>
        <time>2014-05-12T19:16:19Z</time>
      </trkpt>
      <trkpt lat="59.8291781" lon="17.6533786">
        <ele>26.5736</ele>
        <time>2014-05-12T19:16:20Z</time>
      </trkpt>
      <trkpt lat="59.8291576" lon="17.6533389">
        <ele>27.0543</ele>
        <time>2014-05-12T19:16:21Z</time>
      </trkpt>
      <trkpt lat="59.8291438" lon="17.6533056">
        <ele>28.0155</ele>
        <time>2014-05-12T19:16:22Z</time>
      </trkpt>
      <trkpt lat="59.8291312" lon="17.6532668">
        <ele>28.4962</ele>
        <time>2014-05-12T19:16:23Z</time>
      </trkpt>
      <trkpt lat="59.8291201" lon="17.653223">
        <ele>28.9769</ele>
        <time>2014-05-12T19:16:24Z</time>
      </trkpt>
      <trkpt lat="59.8291116" lon="17.6531725">
        <ele>29.4575</ele>
        <time>2014-05-12T19:16:25Z</time>
      </trkpt>
      <trkpt lat="59.8290995" lon="17.6531192">
        <ele>29.4575</ele>
        <time>2014-05-12T19:16:26Z</time>
      </trkpt>
      <trkpt lat="59.8290845" lon="17.6530711">
        <ele>28.9769</ele>
        <time>2014-05-12T19:16:27Z</time>
      </trkpt>
      <trkpt lat="59.8290732" lon="17.6530182">
        <ele>28.9769</ele>
        <time>2014-05-12T19:16:28Z</time>
      </trkpt>
      <trkpt lat="59.8290612" lon="17.652963">
        <ele>28.4962</ele>
        <time>2014-05-12T19:16:29Z</time>
      </trkpt>
      <trkpt lat="59.8290455" lon="17.6529103">
        <ele>27.5349</ele>
        <time>2014-05-12T19:16:30Z</time>
      </trkpt>
      <trkpt lat="59.829025" lon="17.6528627">
        <ele>26.5736</ele>
        <time>2014-05-12T19:16:31Z</time>
      </trkpt>
      <trkpt lat="59.8290016" lon="17.6528289">
        <ele>26.5736</ele>
        <time>2014-05-12T19:16:32Z</time>
      </trkpt>
      <trkpt lat="59.828963" lon="17.6527817">
        <ele>26.5736</ele>
        <time>2014-05-12T19:16:33Z</time>
      </trkpt>
      <trkpt lat="59.8289261" lon="17.6527307">
        <ele>26.5736</ele>
        <time>2014-05-12T19:16:34Z</time>
      </trkpt>
      <trkpt lat="59.8289048" lon="17.6526901">
        <ele>27.0543</ele>
        <time>2014-05-12T19:16:35Z</time>
      </trkpt>
      <trkpt lat="59.8288868" lon="17.6526498">
        <ele>27.0543</ele>
        <time>2014-05-12T19:16:36Z</time>
      </trkpt>
      <trkpt lat="59.8288731" lon="17.6526099">
        <ele>27.0543</ele>
        <time>2014-05-12T19:16:37Z</time>
      </trkpt>
      <trkpt lat="59.8288659" lon="17.6525729">
        <ele>27.0543</ele>
        <time>2014-05-12T19:16:38Z</time>
      </trkpt>
      <trkpt lat="59.8288587" lon="17.6525244">
        <ele>26.5736</ele>
        <time>2014-05-12T19:16:39Z</time>
      </trkpt>
      <trkpt lat="59.828859" lon="17.6524854">
        <ele>27.0543</ele>
        <time>2014-05-12T19:16:40Z</time>
      </trkpt>
      <trkpt lat="59.8288518" lon="17.6524467">
        <ele>27.5349</ele>
        <time>2014-05-12T19:16:41Z</time>
      </trkpt>
      <trkpt lat="59.8288378" lon="17.6524022">
        <ele>27.0543</ele>
        <time>2014-05-12T19:16:42Z</time>
      </trkpt>
      <trkpt lat="59.8288231" lon="17.6523575">
        <ele>26.5736</ele>
        <time>2014-05-12T19:16:43Z</time>
      </trkpt>
      <trkpt lat="59.8288106" lon="17.6523134">
        <ele>27.0543</ele>
        <time>2014-05-12T19:16:44Z</time>
      </trkpt>
      <trkpt lat="59.828793" lon="17.6522678">
        <ele>27.0543</ele>
        <time>2014-05-12T19:16:45Z</time>
      </trkpt>
      <trkpt lat="59.8287795" lon="17.6522177">
        <ele>27.0543</ele>
        <time>2014-05-12T19:16:46Z</time>
      </trkpt>
      <trkpt lat="59.8287639" lon="17.6521578">
        <ele>27.0543</ele>
        <time>2014-05-12T19:16:47Z</time>
      </trkpt>
      <trkpt lat="59.828751" lon="17.6521062">
        <ele>27.0543</ele>
        <time>2014-05-12T19:16:48Z</time>
      </trkpt>
      <trkpt lat="59.8287456" lon="17.6520591">
        <ele>26.5736</ele>
        <time>2014-05-12T19:16:49Z</time>
      </trkpt>
      <trkpt lat="59.828748" lon="17.6520151">
        <ele>25.6123</ele>
        <time>2014-05-12T19:16:50Z</time>
      </trkpt>
      <trkpt lat="59.8287601" lon="17.6519743">
        <ele>25.1317</ele>
        <time>2014-05-12T19:16:51Z</time>
      </trkpt>
      <trkpt lat="59.8287588" lon="17.651926">
        <ele>25.1317</ele>
        <time>2014-05-12T19:16:52Z</time>
      </trkpt>
      <trkpt lat="59.8287648" lon="17.6518878">
        <ele>25.1317</ele>
        <time>2014-05-12T19:16:53Z</time>
      </trkpt>
      <trkpt lat="59.8287732" lon="17.6518521">
        <ele>24.651</ele>
        <time>2014-05-12T19:16:54Z</time>
      </trkpt>
      <trkpt lat="59.8287808" lon="17.6518097">
        <ele>24.1703</ele>
        <time>2014-05-12T19:16:55Z</time>
      </trkpt>
      <trkpt lat="59.8287943" lon="17.6517714">
        <ele>23.6896</ele>
        <time>2014-05-12T19:16:56Z</time>
      </trkpt>
      <trkpt lat="59.8288024" lon="17.6517312">
        <ele>23.209</ele>
        <time>2014-05-12T19:16:57Z</time>
      </trkpt>
      <trkpt lat="59.8288021" lon="17.6516876">
        <ele>21.767</ele>
        <time>2014-05-12T19:16:58Z</time>
      </trkpt>
      <trkpt lat="59.8287997" lon="17.6516397">
        <ele>19.8444</ele>
        <time>2014-05-12T19:16:59Z</time>
      </trkpt>
      <trkpt lat="59.8287974" lon="17.6515947">
        <ele>17.9218</ele>
        <time>2014-05-12T19:17:00Z</time>
      </trkpt>
      <trkpt lat="59.8287945" lon="17.6515438">
        <ele>16.4797</ele>
        <time>2014-05-12T19:17:01Z</time>
      </trkpt>
      <trkpt lat="59.8287959" lon="17.6514908">
        <ele>15.0377</ele>
        <time>2014-05-12T19:17:02Z</time>
      </trkpt>
      <trkpt lat="59.828809" lon="17.6514557">
        <ele>15.0377</ele>
        <time>2014-05-12T19:17:03Z</time>
      </trkpt>
      <trkpt lat="59.8288168" lon="17.6514205">
        <ele>15.0377</ele>
        <time>2014-05-12T19:17:04Z</time>
      </trkpt>
      <trkpt lat="59.8288194" lon="17.6513785">
        <ele>14.557</ele>
        <time>2014-05-12T19:17:05Z</time>
      </trkpt>
      <trkpt lat="59.8288162" lon="17.651324">
        <ele>13.1151</ele>
        <time>2014-05-12T19:17:06Z</time>
      </trkpt>
      <trkpt lat="59.8288184" lon="17.6512615">
        <ele>11.1925</ele>
        <time>2014-05-12T19:17:07Z</time>
      </trkpt>
      <trkpt lat="59.8288199" lon="17.6512021">
        <ele>11.1925</ele>
        <time>2014-05-12T19:17:08Z</time>
      </trkpt>
      <trkpt lat="59.8288254" lon="17.6511537">
        <ele>11.6732</ele>
        <time>2014-05-12T19:17:09Z</time>
      </trkpt>
      <trkpt lat="59.8288411" lon="17.6511128">
        <ele>13.1151</ele>
        <time>2014-05-12T19:17:10Z</time>
      </trkpt>
      <trkpt lat="59.8288483" lon="17.6510599">
        <ele>12.6344</ele>
        <time>2014-05-12T19:17:11Z</time>
      </trkpt>
      <trkpt lat="59.828857" lon="17.6510151">
        <ele>11.6732</ele>
        <time>2014-05-12T19:17:12Z</time>
      </trkpt>
      <trkpt lat="59.8288744" lon="17.6509745">
        <ele>13.1151</ele>
        <time>2014-05-12T19:17:13Z</time>
      </trkpt>
      <trkpt lat="59.8288898" lon="17.6509298">
        <ele>13.1151</ele>
        <time>2014-05-12T19:17:14Z</time>
      </trkpt>
      <trkpt lat="59.828893" lon="17.6508744">
        <ele>13.1151</ele>
        <time>2014-05-12T19:17:15Z</time>
      </trkpt>
      <trkpt lat="59.8289084" lon="17.650826">
        <ele>14.557</ele>
        <time>2014-05-12T19:17:16Z</time>
      </trkpt>
      <trkpt lat="59.8289249" lon="17.6507835">
        <ele>15.5184</ele>
        <time>2014-05-12T19:17:17Z</time>
      </trkpt>
      <trkpt lat="59.8289447" lon="17.6507467">
        <ele>17.4412</ele>
        <time>2014-05-12T19:17:18Z</time>
      </trkpt>
      <trkpt lat="59.8289556" lon="17.6506985">
        <ele>18.8831</ele>
        <time>2014-05-12T19:17:19Z</time>
      </trkpt>
      <trkpt lat="59.8289613" lon="17.6506508">
        <ele>19.8444</ele>
        <time>2014-05-12T19:17:20Z</time>
      </trkpt>
      <trkpt lat="59.8289655" lon="17.6505983">
        <ele>20.325</ele>
        <time>2014-05-12T19:17:21Z</time>
      </trkpt>
      <trkpt lat="59.8289666" lon="17.6505373">
        <ele>20.325</ele>
        <time>2014-05-12T19:17:22Z</time>
      </trkpt>
      <trkpt lat="59.8289697" lon="17.650485">
        <ele>19.8444</ele>
        <time>2014-05-12T19:17:23Z</time>
      </trkpt>
      <trkpt lat="59.828979" lon="17.6504383">
        <ele>19.8444</ele>
        <time>2014-05-12T19:17:24Z</time>
      </trkpt>
      <trkpt lat="59.8289939" lon="17.6503931">
        <ele>21.767</ele>
        <time>2014-05-12T19:17:25Z</time>
      </trkpt>
      <trkpt lat="59.8290079" lon="17.650352">
        <ele>24.1703</ele>
        <time>2014-05-12T19:17:26Z</time>
      </trkpt>
      <trkpt lat="59.8290147" lon="17.6502989">
        <ele>26.5736</ele>
        <time>2014-05-12T19:17:27Z</time>
      </trkpt>
      <trkpt lat="59.8290264" lon="17.6502477">
        <ele>28.4962</ele>
        <time>2014-05-12T19:17:28Z</time>
      </trkpt>
      <trkpt lat="59.8290234" lon="17.650195">
        <ele>28.0155</ele>
        <time>2014-05-12T19:17:29Z</time>
      </trkpt>
      <trkpt lat="59.8290181" lon="17.6501461">
        <ele>27.0543</ele>
        <time>2014-05-12T19:17:30Z</time>
      </trkpt>
      <trkpt lat="59.8290223" lon="17.6500977">
        <ele>28.0155</ele>
        <time>2014-05-12T19:17:31Z</time>
      </trkpt>
      <trkpt lat="59.829027" lon="17.6500546">
        <ele>28.4962</ele>
        <time>2014-05-12T19:17:32Z</time>
      </trkpt>
      <trkpt lat="59.8290333" lon="17.650009">
        <ele>29.9381</ele>
        <time>2014-05-12T19:17:33Z</time>
      </trkpt>
      <trkpt lat="59.8290341" lon="17.6499616">
        <ele>29.4575</ele>
        <time>2014-05-12T19:17:34Z</time>
      </trkpt>
      <trkpt lat="59.8290363" lon="17.6499187">
        <ele>29.4575</ele>
        <time>2014-05-12T19:17:35Z</time>
      </trkpt>
      <trkpt lat="59.829039" lon="17.6498795">
        <ele>28.9769</ele>
        <time>2014-05-12T19:17:36Z</time>
      </trkpt>
      <trkpt lat="59.8290229" lon="17.6498235">
        <ele>27.0543</ele>
        <time>2014-05-12T19:17:37Z</time>
      </trkpt>
      <trkpt lat="59.829011" lon="17.6497648">
        <ele>25.1317</ele>
        <time>2014-05-12T19:17:38Z</time>
      </trkpt>
      <trkpt lat="59.8290075" lon="17.6497198">
        <ele>24.1703</ele>
        <time>2014-05-12T19:17:39Z</time>
      </trkpt>
      <trkpt lat="59.8290043" lon="17.6496814">
        <ele>23.209</ele>
        <time>2014-05-12T19:17:40Z</time>
      </trkpt>
      <trkpt lat="59.8290017" lon="17.6496341">
        <ele>22.2476</ele>
        <time>2014-05-12T19:17:41Z</time>
      </trkpt>
      <trkpt lat="59.8289992" lon="17.6495831">
        <ele>21.2864</ele>
        <time>2014-05-12T19:17:42Z</time>
      </trkpt>
      <trkpt lat="59.8289965" lon="17.6495312">
        <ele>20.325</ele>
        <time>2014-05-12T19:17:43Z</time>
      </trkpt>
      <trkpt lat="59.8289987" lon="17.6494868">
        <ele>19.8444</ele>
        <time>2014-05-12T19:17:44Z</time>
      </trkpt>
      <trkpt lat="59.8289743" lon="17.6494179">
        <ele>17.9218</ele>
        <time>2014-05-12T19:17:45Z</time>
      </trkpt>
      <trkpt lat="59.8289666" lon="17.6493628">
        <ele>17.4412</ele>
        <time>2014-05-12T19:17:46Z</time>
      </trkpt>
      <trkpt lat="59.8289678" lon="17.6493141">
        <ele>17.9218</ele>
        <time>2014-05-12T19:17:47Z</time>
      </trkpt>
      <trkpt lat="59.8289556" lon="17.6492485">
        <ele>16.9604</ele>
        <time>2014-05-12T19:17:48Z</time>
      </trkpt>
      <trkpt lat="59.8289582" lon="17.649192">
        <ele>16.9604</ele>
        <time>2014-05-12T19:17:49Z</time>
      </trkpt>
      <trkpt lat="59.8289577" lon="17.6491394">
        <ele>16.9604</ele>
        <time>2014-05-12T19:17:50Z</time>
      </trkpt>
      <trkpt lat="59.8289529" lon="17.6490888">
        <ele>16.9604</ele>
        <time>2014-05-12T19:17:51Z</time>
      </trkpt>
      <trkpt lat="59.8289508" lon="17.6490407">
        <ele>16.9604</ele>
        <time>2014-05-12T19:17:52Z</time>
      </trkpt>
      <trkpt lat="59.8289478" lon="17.6489994">
        <ele>17.9218</ele>
        <time>2014-05-12T19:17:53Z</time>
      </trkpt>
      <trkpt lat="59.8289463" lon="17.6489543">
        <ele>18.8831</ele>
        <time>2014-05-12T19:17:54Z</time>
      </trkpt>
      <trkpt lat="59.8289409" lon="17.6489099">
        <ele>19.8444</ele>
        <time>2014-05-12T19:17:55Z</time>
      </trkpt>
      <trkpt lat="59.8289433" lon="17.6488778">
        <ele>21.767</ele>
        <time>2014-05-12T19:17:56Z</time>
      </trkpt>
      <trkpt lat="59.828934" lon="17.648836">
        <ele>21.767</ele>
        <time>2014-05-12T19:17:57Z</time>
      </trkpt>
      <trkpt lat="59.8289249" lon="17.6487894">
        <ele>21.767</ele>
        <time>2014-05-12T19:17:58Z</time>
      </trkpt>
      <trkpt lat="59.8289162" lon="17.6487381">
        <ele>21.767</ele>
        <time>2014-05-12T19:17:59Z</time>
      </trkpt>
      <trkpt lat="59.8289017" lon="17.6486873">
        <ele>21.2864</ele>
        <time>2014-05-12T19:18:00Z</time>
      </trkpt>
      <trkpt lat="59.8288903" lon="17.6486412">
        <ele>21.767</ele>
        <time>2014-05-12T19:18:01Z</time>
      </trkpt>
      <trkpt lat="59.828873" lon="17.648585">
        <ele>21.2864</ele>
        <time>2014-05-12T19:18:02Z</time>
      </trkpt>
      <trkpt lat="59.8288616" lon="17.6485361">
        <ele>21.2864</ele>
        <time>2014-05-12T19:18:03Z</time>
      </trkpt>
      <trkpt lat="59.8288601" lon="17.6484962">
        <ele>22.2476</ele>
        <time>2014-05-12T19:18:04Z</time>
      </trkpt>
      <trkpt lat="59.8288525" lon="17.6484497">
        <ele>22.2476</ele>
        <time>2014-05-12T19:18:05Z</time>
      </trkpt>
      <trkpt lat="59.8288479" lon="17.6483995">
        <ele>22.7283</ele>
        <time>2014-05-12T19:18:06Z</time>
      </trkpt>
      <trkpt lat="59.8288515" lon="17.6483537">
        <ele>24.1703</ele>
        <time>2014-05-12T19:18:07Z</time>
      </trkpt>
      <trkpt lat="59.8288428" lon="17.6483073">
        <ele>24.651</ele>
        <time>2014-05-12T19:18:08Z</time>
      </trkpt>
      <trkpt lat="59.8288241" lon="17.6482576">
        <ele>23.6896</ele>
        <time>2014-05-12T19:18:09Z</time>
      </trkpt>
      <trkpt lat="59.8288101" lon="17.6482279">
        <ele>24.1703</ele>
        <time>2014-05-12T19:18:10Z</time>
      </trkpt>
      <trkpt lat="59.8287909" lon="17.6482058">
        <ele>24.651</ele>
        <time>2014-05-12T19:18:11Z</time>
      </trkpt>
      <trkpt lat="59.8287644" lon="17.6482016">
        <ele>24.1703</ele>
        <time>2014-05-12T19:18:12Z</time>
      </trkpt>
      <trkpt lat="59.8287396" lon="17.6482037">
        <ele>24.1703</ele>
        <time>2014-05-12T19:18:13Z</time>
      </trkpt>
      <trkpt lat="59.8287147" lon="17.6482036">
        <ele>23.209</ele>
        <time>2014-05-12T19:18:14Z</time>
      </trkpt>
      <trkpt lat="59.8286915" lon="17.648213">
        <ele>23.6896</ele>
        <time>2014-05-12T19:18:15Z</time>
      </trkpt>
      <trkpt lat="59.8286666" lon="17.6482201">
        <ele>23.6896</ele>
        <time>2014-05-12T19:18:16Z</time>
      </trkpt>
      <trkpt lat="59.8286464" lon="17.6482261">
        <ele>24.651</ele>
        <time>2014-05-12T19:18:17Z</time>
      </trkpt>
      <trkpt lat="59.8286263" lon="17.6482297">
        <ele>25.1317</ele>
        <time>2014-05-12T19:18:18Z</time>
      </trkpt>
      <trkpt lat="59.8286065" lon="17.6482403">
        <ele>25.6123</ele>
        <time>2014-05-12T19:18:19Z</time>
      </trkpt>
      <trkpt lat="59.8285837" lon="17.6482426">
        <ele>25.1317</ele>
        <time>2014-05-12T19:18:20Z</time>
      </trkpt>
      <trkpt lat="59.8285664" lon="17.6482514">
        <ele>26.5736</ele>
        <time>2014-05-12T19:18:21Z</time>
      </trkpt>
      <trkpt lat="59.8285395" lon="17.6482414">
        <ele>26.0929</ele>
        <time>2014-05-12T19:18:22Z</time>
      </trkpt>
      <trkpt lat="59.8285081" lon="17.6482187">
        <ele>25.6123</ele>
        <time>2014-05-12T19:18:23Z</time>
      </trkpt>
      <trkpt lat="59.8284858" lon="17.6481999">
        <ele>26.0929</ele>
        <time>2014-05-12T19:18:24Z</time>
      </trkpt>
      <trkpt lat="59.8284716" lon="17.6481771">
        <ele>27.5349</ele>
        <time>2014-05-12T19:18:25Z</time>
      </trkpt>
      <trkpt lat="59.8284592" lon="17.6481503">
        <ele>28.4962</ele>
        <time>2014-05-12T19:18:26Z</time>
      </trkpt>
      <trkpt lat="59.8284443" lon="17.648115">
        <ele>28.9769</ele>
        <time>2014-05-12T19:18:27Z</time>
      </trkpt>
      <trkpt lat="59.8284293" lon="17.6480761">
        <ele>29.4575</ele>
        <time>2014-05-12T19:18:28Z</time>
      </trkpt>
      <trkpt lat="59.8284184" lon="17.6480409">
        <ele>29.4575</ele>
        <time>2014-05-12T19:18:29Z</time>
      </trkpt>
      <trkpt lat="59.8284044" lon="17.6480005">
        <ele>29.4575</ele>
        <time>2014-05-12T19:18:30Z</time>
      </trkpt>
      <trkpt lat="59.8283978" lon="17.6479587">
        <ele>30.4188</ele>
        <time>2014-05-12T19:18:31Z</time>
      </trkpt>
      <trkpt lat="59.8283879" lon="17.6479069">
        <ele>29.9381</ele>
        <time>2014-05-12T19:18:32Z</time>
      </trkpt>
      <trkpt lat="59.828381" lon="17.6478534">
        <ele>29.4575</ele>
        <time>2014-05-12T19:18:33Z</time>
      </trkpt>
      <trkpt lat="59.8283773" lon="17.6477979">
        <ele>29.4575</ele>
        <time>2014-05-12T19:18:34Z</time>
      </trkpt>
      <trkpt lat="59.8283713" lon="17.6477392">
        <ele>28.4962</ele>
        <time>2014-05-12T19:18:35Z</time>
      </trkpt>
      <trkpt lat="59.8283682" lon="17.6476882">
        <ele>28.4962</ele>
        <time>2014-05-12T19:18:36Z</time>
      </trkpt>
      <trkpt lat="59.8283566" lon="17.6476345">
        <ele>27.0543</ele>
        <time>2014-05-12T19:18:37Z</time>
      </trkpt>
      <trkpt lat="59.8283499" lon="17.6475903">
        <ele>27.0543</ele>
        <time>2014-05-12T19:18:38Z</time>
      </trkpt>
      <trkpt lat="59.8283471" lon="17.6475453">
        <ele>27.5349</ele>
        <time>2014-05-12T19:18:39Z</time>
      </trkpt>
      <trkpt lat="59.828333" lon="17.6474949">
        <ele>27.5349</ele>
        <time>2014-05-12T19:18:40Z</time>
      </trkpt>
      <trkpt lat="59.8283204" lon="17.6474464">
        <ele>26.5736</ele>
        <time>2014-05-12T19:18:41Z</time>
      </trkpt>
      <trkpt lat="59.8283148" lon="17.6474002">
        <ele>27.5349</ele>
        <time>2014-05-12T19:18:42Z</time>
      </trkpt>
      <trkpt lat="59.8283094" lon="17.6473514">
        <ele>27.5349</ele>
        <time>2014-05-12T19:18:43Z</time>
      </trkpt>
      <trkpt lat="59.8283008" lon="17.6473019">
        <ele>27.5349</ele>
        <time>2014-05-12T19:18:44Z</time>
      </trkpt>
      <trkpt lat="59.828292" lon="17.6472528">
        <ele>27.5349</ele>
        <time>2014-05-12T19:18:45Z</time>
      </trkpt>
      <trkpt lat="59.8282861" lon="17.6472036">
        <ele>27.5349</ele>
        <time>2014-05-12T19:18:46Z</time>
      </trkpt>
      <trkpt lat="59.8282776" lon="17.6471554">
        <ele>27.0543</ele>
        <time>2014-05-12T19:18:47Z</time>
      </trkpt>
      <trkpt lat="59.8282704" lon="17.6471085">
        <ele>27.0543</ele>
        <time>2014-05-12T19:18:48Z</time>
      </trkpt>
      <trkpt lat="59.8282687" lon="17.6470619">
        <ele>28.0155</ele>
        <time>2014-05-12T19:18:49Z</time>
      </trkpt>
      <trkpt lat="59.828262" lon="17.6470123">
        <ele>28.4962</ele>
        <time>2014-05-12T19:18:50Z</time>
      </trkpt>
      <trkpt lat="59.828253" lon="17.6469634">
        <ele>28.4962</ele>
        <time>2014-05-12T19:18:51Z</time>
      </trkpt>
      <trkpt lat="59.8282459" lon="17.6469154">
        <ele>28.0155</ele>
        <time>2014-05-12T19:18:52Z</time>
      </trkpt>
      <trkpt lat="59.8282408" lon="17.646864">
        <ele>28.0155</ele>
        <time>2014-05-12T19:18:53Z</time>
      </trkpt>
      <trkpt lat="59.8282349" lon="17.6468137">
        <ele>28.0155</ele>
        <time>2014-05-12T19:18:54Z</time>
      </trkpt>
      <trkpt lat="59.8282273" lon="17.6467645">
        <ele>28.0155</ele>
        <time>2014-05-12T19:18:55Z</time>
      </trkpt>
      <trkpt lat="59.8282238" lon="17.6467179">
        <ele>28.4962</ele>
        <time>2014-05-12T19:18:56Z</time>
      </trkpt>
      <trkpt lat="59.8282246" lon="17.6466759">
        <ele>28.9769</ele>
        <time>2014-05-12T19:18:57Z</time>
      </trkpt>
      <trkpt lat="59.8282231" lon="17.6466268">
        <ele>28.4962</ele>
        <time>2014-05-12T19:18:58Z</time>
      </trkpt>
      <trkpt lat="59.8282196" lon="17.6465756">
        <ele>28.4962</ele>
        <time>2014-05-12T19:18:59Z</time>
      </trkpt>
      <trkpt lat="59.8282111" lon="17.6465182">
        <ele>27.5349</ele>
        <time>2014-05-12T19:19:00Z</time>
      </trkpt>
      <trkpt lat="59.8282012" lon="17.646453">
        <ele>26.0929</ele>
        <time>2014-05-12T19:19:01Z</time>
      </trkpt>
      <trkpt lat="59.8282029" lon="17.6464103">
        <ele>26.0929</ele>
        <time>2014-05-12T19:19:02Z</time>
      </trkpt>
      <trkpt lat="59.8282067" lon="17.6463698">
        <ele>27.0543</ele>
        <time>2014-05-12T19:19:03Z</time>
      </trkpt>
      <trkpt lat="59.8282175" lon="17.6463233">
        <ele>28.4962</ele>
        <time>2014-05-12T19:19:04Z</time>
      </trkpt>
      <trkpt lat="59.8282375" lon="17.6462715">
        <ele>31.3801</ele>
        <time>2014-05-12T19:19:05Z</time>
      </trkpt>
      <trkpt lat="59.8282457" lon="17.646209">
        <ele>32.3416</ele>
        <time>2014-05-12T19:19:06Z</time>
      </trkpt>
      <trkpt lat="59.82825" lon="17.6461441">
        <ele>34.2642</ele>
        <time>2014-05-12T19:19:07Z</time>
      </trkpt>
      <trkpt lat="59.8282577" lon="17.6460927">
        <ele>35.2255</ele>
        <time>2014-05-12T19:19:08Z</time>
      </trkpt>
      <trkpt lat="59.8282656" lon="17.6460425">
        <ele>36.6675</ele>
        <time>2014-05-12T19:19:09Z</time>
      </trkpt>
      <trkpt lat="59.8282485" lon="17.645956">
        <ele>34.2642</ele>
        <time>2014-05-12T19:19:10Z</time>
      </trkpt>
      <trkpt lat="59.8282639" lon="17.645907">
        <ele>36.1868</ele>
        <time>2014-05-12T19:19:11Z</time>
      </trkpt>
      <trkpt lat="59.8282505" lon="17.6458345">
        <ele>33.7834</ele>
        <time>2014-05-12T19:19:12Z</time>
      </trkpt>
      <trkpt lat="59.8282884" lon="17.6458079">
        <ele>36.1868</ele>
        <time>2014-05-12T19:19:13Z</time>
      </trkpt>
      <trkpt lat="59.8283215" lon="17.6457813">
        <ele>38.5901</ele>
        <time>2014-05-12T19:19:14Z</time>
      </trkpt>
      <trkpt lat="59.8283455" lon="17.6457469">
        <ele>39.0707</ele>
        <time>2014-05-12T19:19:15Z</time>
      </trkpt>
      <trkpt lat="59.8283721" lon="17.6457241">
        <ele>40.0321</ele>
        <time>2014-05-12T19:19:16Z</time>
      </trkpt>
      <trkpt lat="59.8283983" lon="17.6457114">
        <ele>40.5128</ele>
        <time>2014-05-12T19:19:17Z</time>
      </trkpt>
      <trkpt lat="59.8284241" lon="17.6456986">
        <ele>40.5128</ele>
        <time>2014-05-12T19:19:18Z</time>
      </trkpt>
      <trkpt lat="59.8284566" lon="17.6456811">
        <ele>41.474</ele>
        <time>2014-05-12T19:19:19Z</time>
      </trkpt>
      <trkpt lat="59.8284898" lon="17.6456656">
        <ele>41.9547</ele>
        <time>2014-05-12T19:19:20Z</time>
      </trkpt>
      <trkpt lat="59.8285323" lon="17.6456524">
        <ele>44.358</ele>
        <time>2014-05-12T19:19:21Z</time>
      </trkpt>
      <trkpt lat="59.8285742" lon="17.6456295">
        <ele>47.2418</ele>
        <time>2014-05-12T19:19:22Z</time>
      </trkpt>
      <trkpt lat="59.828613" lon="17.645614">
        <ele>48.684</ele>
        <time>2014-05-12T19:19:23Z</time>
      </trkpt>
      <trkpt lat="59.8286401" lon="17.6456069">
        <ele>50.126</ele>
        <time>2014-05-12T19:19:24Z</time>
      </trkpt>
      <trkpt lat="59.8286681" lon="17.6455997">
        <ele>50.126</ele>
        <time>2014-05-12T19:19:25Z</time>
      </trkpt>
      <trkpt lat="59.8286969" lon="17.645606">
        <ele>51.0872</ele>
        <time>2014-05-12T19:19:26Z</time>
      </trkpt>
      <trkpt lat="59.8287318" lon="17.6456145">
        <ele>52.5292</ele>
        <time>2014-05-12T19:19:27Z</time>
      </trkpt>
      <trkpt lat="59.8287568" lon="17.6456194">
        <ele>52.5292</ele>
        <time>2014-05-12T19:19:28Z</time>
      </trkpt>
      <trkpt lat="59.8287788" lon="17.6456338">
        <ele>52.0486</ele>
        <time>2014-05-12T19:19:29Z</time>
      </trkpt>
      <trkpt lat="59.8288007" lon="17.6456573">
        <ele>51.5679</ele>
        <time>2014-05-12T19:19:30Z</time>
      </trkpt>
      <trkpt lat="59.8288282" lon="17.6456742">
        <ele>52.0486</ele>
        <time>2014-05-12T19:19:31Z</time>
      </trkpt>
      <trkpt lat="59.8288547" lon="17.6456974">
        <ele>52.5292</ele>
        <time>2014-05-12T19:19:32Z</time>
      </trkpt>
      <trkpt lat="59.8288682" lon="17.6457093">
        <ele>49.6453</ele>
        <time>2014-05-12T19:19:33Z</time>
      </trkpt>
      <trkpt lat="59.8288857" lon="17.645725">
        <ele>48.2034</ele>
        <time>2014-05-12T19:19:34Z</time>
      </trkpt>
      <trkpt lat="59.8288996" lon="17.6457321">
        <ele>46.2806</ele>
        <time>2014-05-12T19:19:35Z</time>
      </trkpt>
      <trkpt lat="59.8289218" lon="17.6457438">
        <ele>45.3192</ele>
        <time>2014-05-12T19:19:36Z</time>
      </trkpt>
      <trkpt lat="59.8289451" lon="17.6457606">
        <ele>44.8386</ele>
        <time>2014-05-12T19:19:37Z</time>
      </trkpt>
      <trkpt lat="59.828968" lon="17.6457758">
        <ele>43.8773</ele>
        <time>2014-05-12T19:19:38Z</time>
      </trkpt>
      <trkpt lat="59.8289922" lon="17.645784">
        <ele>44.358</ele>
        <time>2014-05-12T19:19:39Z</time>
      </trkpt>
      <trkpt lat="59.829016" lon="17.6457888">
        <ele>44.8386</ele>
        <time>2014-05-12T19:19:40Z</time>
      </trkpt>
      <trkpt lat="59.8290463" lon="17.6457923">
        <ele>44.8386</ele>
        <time>2014-05-12T19:19:41Z</time>
      </trkpt>
      <trkpt lat="59.829082" lon="17.645797">
        <ele>45.7999</ele>
        <time>2014-05-12T19:19:42Z</time>
      </trkpt>
      <trkpt lat="59.8291177" lon="17.6458057">
        <ele>47.2418</ele>
        <time>2014-05-12T19:19:43Z</time>
      </trkpt>
      <trkpt lat="59.829144" lon="17.6458153">
        <ele>46.2806</ele>
        <time>2014-05-12T19:19:44Z</time>
      </trkpt>
      <trkpt lat="59.8291588" lon="17.6458514">
        <ele>46.7612</ele>
        <time>2014-05-12T19:19:45Z</time>
      </trkpt>
      <trkpt lat="59.8291593" lon="17.6458918">
        <ele>46.7612</ele>
        <time>2014-05-12T19:19:46Z</time>
      </trkpt>
      <trkpt lat="59.8291759" lon="17.6459202">
        <ele>47.7225</ele>
        <time>2014-05-12T19:19:47Z</time>
      </trkpt>
      <trkpt lat="59.8292017" lon="17.6459436">
        <ele>48.684</ele>
        <time>2014-05-12T19:19:48Z</time>
      </trkpt>
      <trkpt lat="59.8292243" lon="17.645967">
        <ele>49.6453</ele>
        <time>2014-05-12T19:19:49Z</time>
      </trkpt>
      <trkpt lat="59.8292426" lon="17.6459674">
        <ele>49.1646</ele>
        <time>2014-05-12T19:19:50Z</time>
      </trkpt>
      <trkpt lat="59.8292705" lon="17.6459616">
        <ele>49.1646</ele>
        <time>2014-05-12T19:19:51Z</time>
      </trkpt>
      <trkpt lat="59.829295" lon="17.6459675">
        <ele>48.684</ele>
        <time>2014-05-12T19:19:52Z</time>
      </trkpt>
      <trkpt lat="59.8293199" lon="17.6459649">
        <ele>47.7225</ele>
        <time>2014-05-12T19:19:53Z</time>
      </trkpt>
      <trkpt lat="59.8293508" lon="17.6459555">
        <ele>48.2034</ele>
        <time>2014-05-12T19:19:54Z</time>
      </trkpt>
      <trkpt lat="59.8293716" lon="17.6459383">
        <ele>47.2418</ele>
        <time>2014-05-12T19:19:55Z</time>
      </trkpt>
      <trkpt lat="59.8293907" lon="17.6459204">
        <ele>46.2806</ele>
        <time>2014-05-12T19:19:56Z</time>
      </trkpt>
      <trkpt lat="59.8294145" lon="17.6459027">
        <ele>46.2806</ele>
        <time>2014-05-12T19:19:57Z</time>
      </trkpt>
      <trkpt lat="59.8294369" lon="17.6458913">
        <ele>45.7999</ele>
        <time>2014-05-12T19:19:58Z</time>
      </trkpt>
      <trkpt lat="59.8294633" lon="17.6458711">
        <ele>46.2806</ele>
        <time>2014-05-12T19:19:59Z</time>
      </trkpt>
      <trkpt lat="59.8294897" lon="17.6458593">
        <ele>46.7612</ele>
        <time>2014-05-12T19:20:00Z</time>
      </trkpt>
      <trkpt lat="59.82952" lon="17.6458407">
        <ele>48.2034</ele>
        <time>2014-05-12T19:20:01Z</time>
      </trkpt>
      <trkpt lat="59.8295437" lon="17.6458208">
        <ele>48.684</ele>
        <time>2014-05-12T19:20:02Z</time>
      </trkpt>
      <trkpt lat="59.8295669" lon="17.645799">
        <ele>48.2034</ele>
        <time>2014-05-12T19:20:03Z</time>
      </trkpt>
      <trkpt lat="59.8295923" lon="17.6457763">
        <ele>48.2034</ele>
        <time>2014-05-12T19:20:04Z</time>
      </trkpt>
      <trkpt lat="59.8296187" lon="17.6457556">
        <ele>47.2418</ele>
        <time>2014-05-12T19:20:05Z</time>
      </trkpt>
      <trkpt lat="59.8296457" lon="17.6457295">
        <ele>47.2418</ele>
        <time>2014-05-12T19:20:06Z</time>
      </trkpt>
      <trkpt lat="59.8296747" lon="17.645701">
        <ele>48.2034</ele>
        <time>2014-05-12T19:20:07Z</time>
      </trkpt>
      <trkpt lat="59.8296974" lon="17.6456775">
        <ele>48.2034</ele>
        <time>2014-05-12T19:20:08Z</time>
      </trkpt>
      <trkpt lat="59.8297105" lon="17.6456541">
        <ele>46.2806</ele>
        <time>2014-05-12T19:20:09Z</time>
      </trkpt>
      <trkpt lat="59.829725" lon="17.6456282">
        <ele>44.8386</ele>
        <time>2014-05-12T19:20:10Z</time>
      </trkpt>
      <trkpt lat="59.8297415" lon="17.6456042">
        <ele>44.358</ele>
        <time>2014-05-12T19:20:11Z</time>
      </trkpt>
      <trkpt lat="59.8297633" lon="17.6455815">
        <ele>44.358</ele>
        <time>2014-05-12T19:20:12Z</time>
      </trkpt>
      <trkpt lat="59.8297887" lon="17.6455606">
        <ele>44.8386</ele>
        <time>2014-05-12T19:20:13Z</time>
      </trkpt>
      <trkpt lat="59.8298176" lon="17.6455381">
        <ele>45.3192</ele>
        <time>2014-05-12T19:20:14Z</time>
      </trkpt>
      <trkpt lat="59.8298514" lon="17.6455192">
        <ele>47.2418</ele>
        <time>2014-05-12T19:20:15Z</time>
      </trkpt>
      <trkpt lat="59.8298743" lon="17.6455054">
        <ele>46.2806</ele>
        <time>2014-05-12T19:20:16Z</time>
      </trkpt>
      <trkpt lat="59.829892" lon="17.6455013">
        <ele>45.3192</ele>
        <time>2014-05-12T19:20:17Z</time>
      </trkpt>
      <trkpt lat="59.8299098" lon="17.6454847">
        <ele>44.358</ele>
        <time>2014-05-12T19:20:18Z</time>
      </trkpt>
      <trkpt lat="59.8299319" lon="17.6454593">
        <ele>43.3966</ele>
        <time>2014-05-12T19:20:19Z</time>
      </trkpt>
      <trkpt lat="59.829958" lon="17.6454371">
        <ele>43.8773</ele>
        <time>2014-05-12T19:20:20Z</time>
      </trkpt>
      <trkpt lat="59.8299759" lon="17.6454142">
        <ele>42.916</ele>
        <time>2014-05-12T19:20:21Z</time>
      </trkpt>
      <trkpt lat="59.83" lon="17.6453878">
        <ele>42.4354</ele>
        <time>2014-05-12T19:20:22Z</time>
      </trkpt>
      <trkpt lat="59.8300292" lon="17.6453681">
        <ele>44.358</ele>
        <time>2014-05-12T19:20:23Z</time>
      </trkpt>
      <trkpt lat="59.8300682" lon="17.6453495">
        <ele>46.7612</ele>
        <time>2014-05-12T19:20:24Z</time>
      </trkpt>
      <trkpt lat="59.8300968" lon="17.6453231">
        <ele>46.7612</ele>
        <time>2014-05-12T19:20:25Z</time>
      </trkpt>
      <trkpt lat="59.8301264" lon="17.6452959">
        <ele>46.7612</ele>
        <time>2014-05-12T19:20:26Z</time>
      </trkpt>
      <trkpt lat="59.8301646" lon="17.6452797">
        <ele>48.2034</ele>
        <time>2014-05-12T19:20:27Z</time>
      </trkpt>
      <trkpt lat="59.8301899" lon="17.6452604">
        <ele>49.1646</ele>
        <time>2014-05-12T19:20:28Z</time>
      </trkpt>
      <trkpt lat="59.8302022" lon="17.6452429">
        <ele>47.7225</ele>
        <time>2014-05-12T19:20:29Z</time>
      </trkpt>
      <trkpt lat="59.8302217" lon="17.6452283">
        <ele>47.2418</ele>
        <time>2014-05-12T19:20:30Z</time>
      </trkpt>
      <trkpt lat="59.8302475" lon="17.6452156">
        <ele>48.2034</ele>
        <time>2014-05-12T19:20:31Z</time>
      </trkpt>
      <trkpt lat="59.8302689" lon="17.6451967">
        <ele>47.7225</ele>
        <time>2014-05-12T19:20:32Z</time>
      </trkpt>
      <trkpt lat="59.8303018" lon="17.6451774">
        <ele>49.6453</ele>
        <time>2014-05-12T19:20:33Z</time>
      </trkpt>
      <trkpt lat="59.8303292" lon="17.6451608">
        <ele>50.6066</ele>
        <time>2014-05-12T19:20:34Z</time>
      </trkpt>
      <trkpt lat="59.8303533" lon="17.6451362">
        <ele>51.0872</ele>
        <time>2014-05-12T19:20:35Z</time>
      </trkpt>
      <trkpt lat="59.8303784" lon="17.6451092">
        <ele>50.6066</ele>
        <time>2014-05-12T19:20:36Z</time>
      </trkpt>
      <trkpt lat="59.8304039" lon="17.6450878">
        <ele>50.6066</ele>
        <time>2014-05-12T19:20:37Z</time>
      </trkpt>
      <trkpt lat="59.8304299" lon="17.6450603">
        <ele>51.0872</ele>
        <time>2014-05-12T19:20:38Z</time>
      </trkpt>
      <trkpt lat="59.8304457" lon="17.6450307">
        <ele>49.6453</ele>
        <time>2014-05-12T19:20:39Z</time>
      </trkpt>
      <trkpt lat="59.8304635" lon="17.6450009">
        <ele>49.1646</ele>
        <time>2014-05-12T19:20:40Z</time>
      </trkpt>
      <trkpt lat="59.8304713" lon="17.644966">
        <ele>45.7999</ele>
        <time>2014-05-12T19:20:41Z</time>
      </trkpt>
      <trkpt lat="59.8304925" lon="17.6449414">
        <ele>45.3192</ele>
        <time>2014-05-12T19:20:42Z</time>
      </trkpt>
      <trkpt lat="59.830519" lon="17.6449262">
        <ele>44.8386</ele>
        <time>2014-05-12T19:20:43Z</time>
      </trkpt>
      <trkpt lat="59.8305349" lon="17.6449038">
        <ele>42.916</ele>
        <time>2014-05-12T19:20:44Z</time>
      </trkpt>
      <trkpt lat="59.8305589" lon="17.6448864">
        <ele>42.916</ele>
        <time>2014-05-12T19:20:45Z</time>
      </trkpt>
      <trkpt lat="59.8305815" lon="17.6448672">
        <ele>42.916</ele>
        <time>2014-05-12T19:20:46Z</time>
      </trkpt>
      <trkpt lat="59.8306014" lon="17.6448413">
        <ele>41.474</ele>
        <time>2014-05-12T19:20:47Z</time>
      </trkpt>
      <trkpt lat="59.8306209" lon="17.6448149">
        <ele>40.5128</ele>
        <time>2014-05-12T19:20:48Z</time>
      </trkpt>
      <trkpt lat="59.8306386" lon="17.6447833">
        <ele>40.5128</ele>
        <time>2014-05-12T19:20:49Z</time>
      </trkpt>
      <trkpt lat="59.8306537" lon="17.6447515">
        <ele>38.5901</ele>
        <time>2014-05-12T19:20:50Z</time>
      </trkpt>
      <trkpt lat="59.83067" lon="17.6447397">
        <ele>38.1094</ele>
        <time>2014-05-12T19:20:51Z</time>
      </trkpt>
      <trkpt lat="59.8306951" lon="17.644732">
        <ele>39.5513</ele>
        <time>2014-05-12T19:20:52Z</time>
      </trkpt>
      <trkpt lat="59.8307232" lon="17.6447305">
        <ele>41.474</ele>
        <time>2014-05-12T19:20:53Z</time>
      </trkpt>
      <trkpt lat="59.830749" lon="17.6447232">
        <ele>42.916</ele>
        <time>2014-05-12T19:20:54Z</time>
      </trkpt>
      <trkpt lat="59.8307778" lon="17.6447051">
        <ele>43.3966</ele>
        <time>2014-05-12T19:20:55Z</time>
      </trkpt>
      <trkpt lat="59.8308057" lon="17.6446881">
        <ele>44.8386</ele>
        <time>2014-05-12T19:20:56Z</time>
      </trkpt>
      <trkpt lat="59.8308325" lon="17.6446557">
        <ele>44.8386</ele>
        <time>2014-05-12T19:20:57Z</time>
      </trkpt>
      <trkpt lat="59.8308578" lon="17.64463">
        <ele>44.8386</ele>
        <time>2014-05-12T19:20:58Z</time>
      </trkpt>
      <trkpt lat="59.8308909" lon="17.6446075">
        <ele>45.7999</ele>
        <time>2014-05-12T19:20:59Z</time>
      </trkpt>
      <trkpt lat="59.8309304" lon="17.6445802">
        <ele>47.2418</ele>
        <time>2014-05-12T19:21:00Z</time>
      </trkpt>
      <trkpt lat="59.8309656" lon="17.6445576">
        <ele>49.1646</ele>
        <time>2014-05-12T19:21:01Z</time>
      </trkpt>
      <trkpt lat="59.8309946" lon="17.6445372">
        <ele>50.126</ele>
        <time>2014-05-12T19:21:02Z</time>
      </trkpt>
      <trkpt lat="59.8310169" lon="17.6445139">
        <ele>49.1646</ele>
        <time>2014-05-12T19:21:03Z</time>
      </trkpt>
      <trkpt lat="59.8310365" lon="17.6444869">
        <ele>48.2034</ele>
        <time>2014-05-12T19:21:04Z</time>
      </trkpt>
      <trkpt lat="59.8310582" lon="17.6444617">
        <ele>47.7225</ele>
        <time>2014-05-12T19:21:05Z</time>
      </trkpt>
      <trkpt lat="59.831086" lon="17.6444414">
        <ele>48.684</ele>
        <time>2014-05-12T19:21:06Z</time>
      </trkpt>
      <trkpt lat="59.8311046" lon="17.6444272">
        <ele>48.2034</ele>
        <time>2014-05-12T19:21:07Z</time>
      </trkpt>
      <trkpt lat="59.831126" lon="17.6444125">
        <ele>48.2034</ele>
        <time>2014-05-12T19:21:08Z</time>
      </trkpt>
      <trkpt lat="59.8311416" lon="17.6443839">
        <ele>47.2418</ele>
        <time>2014-05-12T19:21:09Z</time>
      </trkpt>
      <trkpt lat="59.8311566" lon="17.6443597">
        <ele>45.7999</ele>
        <time>2014-05-12T19:21:10Z</time>
      </trkpt>
      <trkpt lat="59.8311981" lon="17.6443459">
        <ele>48.2034</ele>
        <time>2014-05-12T19:21:11Z</time>
      </trkpt>
      <trkpt lat="59.8312204" lon="17.6443291">
        <ele>48.684</ele>
        <time>2014-05-12T19:21:12Z</time>
      </trkpt>
      <trkpt lat="59.8312435" lon="17.6443124">
        <ele>49.6453</ele>
        <time>2014-05-12T19:21:13Z</time>
      </trkpt>
      <trkpt lat="59.8312639" lon="17.6442855">
        <ele>49.1646</ele>
        <time>2014-05-12T19:21:14Z</time>
      </trkpt>
      <trkpt lat="59.8312778" lon="17.6442499">
        <ele>47.2418</ele>
        <time>2014-05-12T19:21:15Z</time>
      </trkpt>
      <trkpt lat="59.8313127" lon="17.644239">
        <ele>49.1646</ele>
        <time>2014-05-12T19:21:16Z</time>
      </trkpt>
      <trkpt lat="59.831346" lon="17.6442255">
        <ele>51.0872</ele>
        <time>2014-05-12T19:21:17Z</time>
      </trkpt>
      <trkpt lat="59.8313745" lon="17.6441934">
        <ele>52.0486</ele>
        <time>2014-05-12T19:21:18Z</time>
      </trkpt>
      <trkpt lat="59.8313945" lon="17.6441714">
        <ele>52.5292</ele>
        <time>2014-05-12T19:21:19Z</time>
      </trkpt>
      <trkpt lat="59.8314168" lon="17.6441499">
        <ele>53.0098</ele>
        <time>2014-05-12T19:21:20Z</time>
      </trkpt>
      <trkpt lat="59.8314365" lon="17.6441373">
        <ele>52.5292</ele>
        <time>2014-05-12T19:21:21Z</time>
      </trkpt>
      <trkpt lat="59.8314536" lon="17.6441193">
        <ele>52.0486</ele>
        <time>2014-05-12T19:21:22Z</time>
      </trkpt>
      <trkpt lat="59.8314632" lon="17.6440955">
        <ele>50.6066</ele>
        <time>2014-05-12T19:21:23Z</time>
      </trkpt>
      <trkpt lat="59.8314752" lon="17.6440627">
        <ele>48.684</ele>
        <time>2014-05-12T19:21:24Z</time>
      </trkpt>
      <trkpt lat="59.8314859" lon="17.6440327">
        <ele>46.7612</ele>
        <time>2014-05-12T19:21:25Z</time>
      </trkpt>
      <trkpt lat="59.8315274" lon="17.6440031">
        <ele>49.6453</ele>
        <time>2014-05-12T19:21:26Z</time>
      </trkpt>
      <trkpt lat="59.8315721" lon="17.643981">
        <ele>53.0098</ele>
        <time>2014-05-12T19:21:27Z</time>
      </trkpt>
      <trkpt lat="59.831598" lon="17.643962">
        <ele>52.5292</ele>
        <time>2014-05-12T19:21:28Z</time>
      </trkpt>
      <trkpt lat="59.8316173" lon="17.6439413">
        <ele>52.0486</ele>
        <time>2014-05-12T19:21:29Z</time>
      </trkpt>
      <trkpt lat="59.8316361" lon="17.6439152">
        <ele>51.5679</ele>
        <time>2014-05-12T19:21:30Z</time>
      </trkpt>
      <trkpt lat="59.8316547" lon="17.6438823">
        <ele>50.126</ele>
        <time>2014-05-12T19:21:31Z</time>
      </trkpt>
      <trkpt lat="59.8316621" lon="17.6438533">
        <ele>47.7225</ele>
        <time>2014-05-12T19:21:32Z</time>
      </trkpt>
      <trkpt lat="59.8316796" lon="17.6438312">
        <ele>46.7612</ele>
        <time>2014-05-12T19:21:33Z</time>
      </trkpt>
      <trkpt lat="59.8317006" lon="17.6438158">
        <ele>46.2806</ele>
        <time>2014-05-12T19:21:34Z</time>
      </trkpt>
      <trkpt lat="59.8317211" lon="17.6438038">
        <ele>45.7999</ele>
        <time>2014-05-12T19:21:35Z</time>
      </trkpt>
      <trkpt lat="59.8317415" lon="17.6437866">
        <ele>44.358</ele>
        <time>2014-05-12T19:21:36Z</time>
      </trkpt>
      <trkpt lat="59.8317581" lon="17.6437658">
        <ele>42.4354</ele>
        <time>2014-05-12T19:21:37Z</time>
      </trkpt>
      <trkpt lat="59.8317688" lon="17.6437477">
        <ele>41.474</ele>
        <time>2014-05-12T19:21:38Z</time>
      </trkpt>
      <trkpt lat="59.8317799" lon="17.6437277">
        <ele>39.0707</ele>
        <time>2014-05-12T19:21:39Z</time>
      </trkpt>
      <trkpt lat="59.8317938" lon="17.6437002">
        <ele>38.1094</ele>
        <time>2014-05-12T19:21:40Z</time>
      </trkpt>
      <trkpt lat="59.8318078" lon="17.6436694">
        <ele>36.6675</ele>
        <time>2014-05-12T19:21:41Z</time>
      </trkpt>
      <trkpt lat="59.8318231" lon="17.6436458">
        <ele>35.7061</ele>
        <time>2014-05-12T19:21:42Z</time>
      </trkpt>
      <trkpt lat="59.8318353" lon="17.643624">
        <ele>33.7834</ele>
        <time>2014-05-12T19:21:43Z</time>
      </trkpt>
      <trkpt lat="59.8318584" lon="17.6436158">
        <ele>32.3416</ele>
        <time>2014-05-12T19:21:44Z</time>
      </trkpt>
      <trkpt lat="59.8318731" lon="17.6435953">
        <ele>31.3801</ele>
        <time>2014-05-12T19:21:45Z</time>
      </trkpt>
      <trkpt lat="59.8318645" lon="17.6435438">
        <ele>26.5736</ele>
        <time>2014-05-12T19:21:46Z</time>
      </trkpt>
      <trkpt lat="59.831912" lon="17.6434984">
        <ele>32.8223</ele>
        <time>2014-05-12T19:21:47Z</time>
      </trkpt>
      <trkpt lat="59.8319324" lon="17.6434468">
        <ele>33.7834</ele>
        <time>2014-05-12T19:21:48Z</time>
      </trkpt>
      <trkpt lat="59.8319565" lon="17.6434001">
        <ele>35.7061</ele>
        <time>2014-05-12T19:21:49Z</time>
      </trkpt>
      <trkpt lat="59.8319824" lon="17.6433644">
        <ele>37.6287</ele>
        <time>2014-05-12T19:21:50Z</time>
      </trkpt>
      <trkpt lat="59.8321243" lon="17.643075">
        <ele>48.2034</ele>
        <time>2014-05-12T19:22:16Z</time>
      </trkpt>
      <trkpt lat="59.8321388" lon="17.6430721">
        <ele>48.2034</ele>
        <time>2014-05-12T19:22:17Z</time>
      </trkpt>
      <trkpt lat="59.8321562" lon="17.6430607">
        <ele>48.2034</ele>
        <time>2014-05-12T19:22:18Z</time>
      </trkpt>
      <trkpt lat="59.8321723" lon="17.6430407">
        <ele>47.2418</ele>
        <time>2014-05-12T19:22:19Z</time>
      </trkpt>
      <trkpt lat="59.8321886" lon="17.6430175">
        <ele>46.7612</ele>
        <time>2014-05-12T19:22:20Z</time>
      </trkpt>
      <trkpt lat="59.8322051" lon="17.6429977">
        <ele>45.7999</ele>
        <time>2014-05-12T19:22:21Z</time>
      </trkpt>
      <trkpt lat="59.8322214" lon="17.6429761">
        <ele>44.8386</ele>
        <time>2014-05-12T19:22:22Z</time>
      </trkpt>
      <trkpt lat="59.8322382" lon="17.6429553">
        <ele>43.8773</ele>
        <time>2014-05-12T19:22:23Z</time>
      </trkpt>
      <trkpt lat="59.8322503" lon="17.6429395">
        <ele>41.9547</ele>
        <time>2014-05-12T19:22:24Z</time>
      </trkpt>
      <trkpt lat="59.8322771" lon="17.6429241">
        <ele>42.4354</ele>
        <time>2014-05-12T19:22:25Z</time>
      </trkpt>
      <trkpt lat="59.8323134" lon="17.6429128">
        <ele>44.358</ele>
        <time>2014-05-12T19:22:26Z</time>
      </trkpt>
      <trkpt lat="59.8323429" lon="17.6428972">
        <ele>45.3192</ele>
        <time>2014-05-12T19:22:27Z</time>
      </trkpt>
      <trkpt lat="59.8323748" lon="17.6428877">
        <ele>46.7612</ele>
        <time>2014-05-12T19:22:28Z</time>
      </trkpt>
      <trkpt lat="59.8324103" lon="17.6428724">
        <ele>49.6453</ele>
        <time>2014-05-12T19:22:29Z</time>
      </trkpt>
      <trkpt lat="59.8324392" lon="17.6428702">
        <ele>50.6066</ele>
        <time>2014-05-12T19:22:30Z</time>
      </trkpt>
      <trkpt lat="59.8324649" lon="17.6428735">
        <ele>51.0872</ele>
        <time>2014-05-12T19:22:31Z</time>
      </trkpt>
      <trkpt lat="59.8324947" lon="17.642877">
        <ele>52.0486</ele>
        <time>2014-05-12T19:22:32Z</time>
      </trkpt>
      <trkpt lat="59.8325298" lon="17.6428789">
        <ele>53.4905</ele>
        <time>2014-05-12T19:22:33Z</time>
      </trkpt>
      <trkpt lat="59.8325505" lon="17.6428709">
        <ele>52.5292</ele>
        <time>2014-05-12T19:22:34Z</time>
      </trkpt>
      <trkpt lat="59.8325682" lon="17.6428532">
        <ele>51.0872</ele>
        <time>2014-05-12T19:22:35Z</time>
      </trkpt>
      <trkpt lat="59.8325931" lon="17.6428486">
        <ele>51.0872</ele>
        <time>2014-05-12T19:22:36Z</time>
      </trkpt>
      <trkpt lat="59.8326118" lon="17.6428413">
        <ele>49.6453</ele>
        <time>2014-05-12T19:22:37Z</time>
      </trkpt>
      <trkpt lat="59.8326406" lon="17.6428511">
        <ele>49.6453</ele>
        <time>2014-05-12T19:22:38Z</time>
      </trkpt>
      <trkpt lat="59.8326687" lon="17.6428641">
        <ele>49.6453</ele>
        <time>2014-05-12T19:22:39Z</time>
      </trkpt>
      <trkpt lat="59.832695" lon="17.6428751">
        <ele>49.1646</ele>
        <time>2014-05-12T19:22:40Z</time>
      </trkpt>
      <trkpt lat="59.8327153" lon="17.6428847">
        <ele>49.1646</ele>
        <time>2014-05-12T19:22:41Z</time>
      </trkpt>
      <trkpt lat="59.8327247" lon="17.6428939">
        <ele>47.2418</ele>
        <time>2014-05-12T19:22:42Z</time>
      </trkpt>
      <trkpt lat="59.8327308" lon="17.6429024">
        <ele>45.7999</ele>
        <time>2014-05-12T19:22:43Z</time>
      </trkpt>
      <trkpt lat="59.8327529" lon="17.6429153">
        <ele>45.7999</ele>
        <time>2014-05-12T19:22:44Z</time>
      </trkpt>
      <trkpt lat="59.8327781" lon="17.6429309">
        <ele>45.7999</ele>
        <time>2014-05-12T19:22:45Z</time>
      </trkpt>
      <trkpt lat="59.8327951" lon="17.6429426">
        <ele>44.8386</ele>
        <time>2014-05-12T19:22:46Z</time>
      </trkpt>
      <trkpt lat="59.8328266" lon="17.6429593">
        <ele>44.358</ele>
        <time>2014-05-12T19:22:47Z</time>
      </trkpt>
      <trkpt lat="59.8328573" lon="17.6429851">
        <ele>44.358</ele>
        <time>2014-05-12T19:22:48Z</time>
      </trkpt>
      <trkpt lat="59.8328887" lon="17.6430143">
        <ele>44.358</ele>
        <time>2014-05-12T19:22:49Z</time>
      </trkpt>
      <trkpt lat="59.8329133" lon="17.6430402">
        <ele>43.8773</ele>
        <time>2014-05-12T19:22:50Z</time>
      </trkpt>
      <trkpt lat="59.8329375" lon="17.6430643">
        <ele>43.8773</ele>
        <time>2014-05-12T19:22:51Z</time>
      </trkpt>
      <trkpt lat="59.8329594" lon="17.6430857">
        <ele>43.3966</ele>
        <time>2014-05-12T19:22:52Z</time>
      </trkpt>
      <trkpt lat="59.8329796" lon="17.6430961">
        <ele>42.916</ele>
        <time>2014-05-12T19:22:53Z</time>
      </trkpt>
      <trkpt lat="59.8330026" lon="17.6431084">
        <ele>42.916</ele>
        <time>2014-05-12T19:22:54Z</time>
      </trkpt>
      <trkpt lat="59.8330291" lon="17.6431282">
        <ele>44.358</ele>
        <time>2014-05-12T19:22:55Z</time>
      </trkpt>
      <trkpt lat="59.8330607" lon="17.643149">
        <ele>45.7999</ele>
        <time>2014-05-12T19:22:56Z</time>
      </trkpt>
      <trkpt lat="59.8330955" lon="17.6431653">
        <ele>46.7612</ele>
        <time>2014-05-12T19:22:57Z</time>
      </trkpt>
      <trkpt lat="59.8331319" lon="17.643178">
        <ele>48.684</ele>
        <time>2014-05-12T19:22:58Z</time>
      </trkpt>
      <trkpt lat="59.8331644" lon="17.643194">
        <ele>49.6453</ele>
        <time>2014-05-12T19:22:59Z</time>
      </trkpt>
      <trkpt lat="59.8331878" lon="17.6432102">
        <ele>48.684</ele>
        <time>2014-05-12T19:23:00Z</time>
      </trkpt>
      <trkpt lat="59.8332215" lon="17.6432283">
        <ele>49.6453</ele>
        <time>2014-05-12T19:23:01Z</time>
      </trkpt>
      <trkpt lat="59.8332687" lon="17.6432329">
        <ele>52.0486</ele>
        <time>2014-05-12T19:23:02Z</time>
      </trkpt>
      <trkpt lat="59.833311" lon="17.6432224">
        <ele>54.4518</ele>
        <time>2014-05-12T19:23:03Z</time>
      </trkpt>
      <trkpt lat="59.8333473" lon="17.643214">
        <ele>56.3745</ele>
        <time>2014-05-12T19:23:04Z</time>
      </trkpt>
      <trkpt lat="59.8333829" lon="17.6432058">
        <ele>57.3358</ele>
        <time>2014-05-12T19:23:05Z</time>
      </trkpt>
      <trkpt lat="59.8334197" lon="17.6432058">
        <ele>57.8165</ele>
        <time>2014-05-12T19:23:06Z</time>
      </trkpt>
      <trkpt lat="59.8334513" lon="17.6431869">
        <ele>58.2971</ele>
        <time>2014-05-12T19:23:07Z</time>
      </trkpt>
      <trkpt lat="59.8334763" lon="17.6431687">
        <ele>57.8165</ele>
        <time>2014-05-12T19:23:08Z</time>
      </trkpt>
      <trkpt lat="59.8335118" lon="17.6431624">
        <ele>57.3358</ele>
        <time>2014-05-12T19:23:09Z</time>
      </trkpt>
      <trkpt lat="59.8335356" lon="17.643154">
        <ele>56.8551</ele>
        <time>2014-05-12T19:23:10Z</time>
      </trkpt>
      <trkpt lat="59.8335556" lon="17.643135">
        <ele>56.3745</ele>
        <time>2014-05-12T19:23:11Z</time>
      </trkpt>
      <trkpt lat="59.8335794" lon="17.643118">
        <ele>56.3745</ele>
        <time>2014-05-12T19:23:12Z</time>
      </trkpt>
      <trkpt lat="59.8335964" lon="17.6431013">
        <ele>54.9324</ele>
        <time>2014-05-12T19:23:13Z</time>
      </trkpt>
      <trkpt lat="59.8336167" lon="17.6430868">
        <ele>54.4518</ele>
        <time>2014-05-12T19:23:14Z</time>
      </trkpt>
      <trkpt lat="59.833639" lon="17.6430729">
        <ele>54.4518</ele>
        <time>2014-05-12T19:23:15Z</time>
      </trkpt>
      <trkpt lat="59.8336446" lon="17.6430369">
        <ele>52.0486</ele>
        <time>2014-05-12T19:23:16Z</time>
      </trkpt>
      <trkpt lat="59.8336544" lon="17.6430122">
        <ele>49.6453</ele>
        <time>2014-05-12T19:23:17Z</time>
      </trkpt>
      <trkpt lat="59.8336545" lon="17.6429755">
        <ele>46.2806</ele>
        <time>2014-05-12T19:23:18Z</time>
      </trkpt>
      <trkpt lat="59.8336629" lon="17.6429393">
        <ele>44.358</ele>
        <time>2014-05-12T19:23:19Z</time>
      </trkpt>
      <trkpt lat="59.8336986" lon="17.6429185">
        <ele>47.2418</ele>
        <time>2014-05-12T19:23:20Z</time>
      </trkpt>
      <trkpt lat="59.8337203" lon="17.6428967">
        <ele>47.2418</ele>
        <time>2014-05-12T19:23:21Z</time>
      </trkpt>
      <trkpt lat="59.8337377" lon="17.6428602">
        <ele>46.7612</ele>
        <time>2014-05-12T19:23:22Z</time>
      </trkpt>
      <trkpt lat="59.833754" lon="17.6428345">
        <ele>44.8386</ele>
        <time>2014-05-12T19:23:23Z</time>
      </trkpt>
      <trkpt lat="59.8337823" lon="17.6428323">
        <ele>43.3966</ele>
        <time>2014-05-12T19:23:24Z</time>
      </trkpt>
      <trkpt lat="59.8338166" lon="17.6428147">
        <ele>41.9547</ele>
        <time>2014-05-12T19:23:25Z</time>
      </trkpt>
      <trkpt lat="59.8338491" lon="17.6428061">
        <ele>41.474</ele>
        <time>2014-05-12T19:23:26Z</time>
      </trkpt>
      <trkpt lat="59.8338825" lon="17.6427972">
        <ele>40.5128</ele>
        <time>2014-05-12T19:23:27Z</time>
      </trkpt>
      <trkpt lat="59.8340963" lon="17.6425066">
        <ele>35.7061</ele>
        <time>2014-05-12T19:23:33Z</time>
      </trkpt>
      <trkpt lat="59.8340733" lon="17.6424319">
        <ele>33.3029</ele>
        <time>2014-05-12T19:23:34Z</time>
      </trkpt>
      <trkpt lat="59.834079" lon="17.6423975">
        <ele>33.7834</ele>
        <time>2014-05-12T19:23:35Z</time>
      </trkpt>
      <trkpt lat="59.8340887" lon="17.6423716">
        <ele>32.8223</ele>
        <time>2014-05-12T19:23:36Z</time>
      </trkpt>
      <trkpt lat="59.8341132" lon="17.6423457">
        <ele>33.7834</ele>
        <time>2014-05-12T19:23:37Z</time>
      </trkpt>
      <trkpt lat="59.8341327" lon="17.6423336">
        <ele>33.7834</ele>
        <time>2014-05-12T19:23:38Z</time>
      </trkpt>
      <trkpt lat="59.8341534" lon="17.6423163">
        <ele>32.3416</ele>
        <time>2014-05-12T19:23:39Z</time>
      </trkpt>
      <trkpt lat="59.834186" lon="17.6422969">
        <ele>33.3029</ele>
        <time>2014-05-12T19:23:40Z</time>
      </trkpt>
      <trkpt lat="59.8342139" lon="17.6422825">
        <ele>33.3029</ele>
        <time>2014-05-12T19:23:41Z</time>
      </trkpt>
      <trkpt lat="59.8342432" lon="17.6422636">
        <ele>33.3029</ele>
        <time>2014-05-12T19:23:42Z</time>
      </trkpt>
      <trkpt lat="59.8342666" lon="17.64225">
        <ele>32.3416</ele>
        <time>2014-05-12T19:23:43Z</time>
      </trkpt>
      <trkpt lat="59.8342931" lon="17.6422436">
        <ele>32.3416</ele>
        <time>2014-05-12T19:23:44Z</time>
      </trkpt>
      <trkpt lat="59.8343292" lon="17.6422345">
        <ele>33.7834</ele>
        <time>2014-05-12T19:23:45Z</time>
      </trkpt>
      <trkpt lat="59.8343513" lon="17.6422179">
        <ele>32.8223</ele>
        <time>2014-05-12T19:23:46Z</time>
      </trkpt>
      <trkpt lat="59.8343724" lon="17.6422071">
        <ele>31.8607</ele>
        <time>2014-05-12T19:23:47Z</time>
      </trkpt>
      <trkpt lat="59.8344051" lon="17.642203">
        <ele>31.8607</ele>
        <time>2014-05-12T19:23:48Z</time>
      </trkpt>
      <trkpt lat="59.8344387" lon="17.6422046">
        <ele>32.8223</ele>
        <time>2014-05-12T19:23:49Z</time>
      </trkpt>
      <trkpt lat="59.8344539" lon="17.6421947">
        <ele>30.4188</ele>
        <time>2014-05-12T19:23:50Z</time>
      </trkpt>
      <trkpt lat="59.8344682" lon="17.6421792">
        <ele>28.4962</ele>
        <time>2014-05-12T19:23:51Z</time>
      </trkpt>
      <trkpt lat="59.8345002" lon="17.6421772">
        <ele>29.4575</ele>
        <time>2014-05-12T19:23:52Z</time>
      </trkpt>
      <trkpt lat="59.8345269" lon="17.6421786">
        <ele>29.9381</ele>
        <time>2014-05-12T19:23:53Z</time>
      </trkpt>
      <trkpt lat="59.8345475" lon="17.6421917">
        <ele>29.9381</ele>
        <time>2014-05-12T19:23:54Z</time>
      </trkpt>
      <trkpt lat="59.8345693" lon="17.6422128">
        <ele>29.9381</ele>
        <time>2014-05-12T19:23:55Z</time>
      </trkpt>
      <trkpt lat="59.8345931" lon="17.6422326">
        <ele>29.9381</ele>
        <time>2014-05-12T19:23:56Z</time>
      </trkpt>
      <trkpt lat="59.8346185" lon="17.6422532">
        <ele>31.3801</ele>
        <time>2014-05-12T19:23:57Z</time>
      </trkpt>
      <trkpt lat="59.8346302" lon="17.6422726">
        <ele>30.8995</ele>
        <time>2014-05-12T19:23:58Z</time>
      </trkpt>
      <trkpt lat="59.8346365" lon="17.6422927">
        <ele>28.9769</ele>
        <time>2014-05-12T19:23:59Z</time>
      </trkpt>
      <trkpt lat="59.8346641" lon="17.6423191">
        <ele>30.8995</ele>
        <time>2014-05-12T19:24:00Z</time>
      </trkpt>
      <trkpt lat="59.8346916" lon="17.6423391">
        <ele>31.8607</ele>
        <time>2014-05-12T19:24:01Z</time>
      </trkpt>
      <trkpt lat="59.8347188" lon="17.6423684">
        <ele>33.7834</ele>
        <time>2014-05-12T19:24:02Z</time>
      </trkpt>
      <trkpt lat="59.8347438" lon="17.6423969">
        <ele>35.7061</ele>
        <time>2014-05-12T19:24:03Z</time>
      </trkpt>
      <trkpt lat="59.8347666" lon="17.6424212">
        <ele>36.1868</ele>
        <time>2014-05-12T19:24:04Z</time>
      </trkpt>
      <trkpt lat="59.8347863" lon="17.6424455">
        <ele>34.2642</ele>
        <time>2014-05-12T19:24:05Z</time>
      </trkpt>
      <trkpt lat="59.8348054" lon="17.6424651">
        <ele>33.7834</ele>
        <time>2014-05-12T19:24:06Z</time>
      </trkpt>
      <trkpt lat="59.8348252" lon="17.6424945">
        <ele>32.8223</ele>
        <time>2014-05-12T19:24:07Z</time>
      </trkpt>
      <trkpt lat="59.8348475" lon="17.6425257">
        <ele>33.7834</ele>
        <time>2014-05-12T19:24:08Z</time>
      </trkpt>
      <trkpt lat="59.8348675" lon="17.6425487">
        <ele>34.7449</ele>
        <time>2014-05-12T19:24:09Z</time>
      </trkpt>
      <trkpt lat="59.8348911" lon="17.6425787">
        <ele>35.2255</ele>
        <time>2014-05-12T19:24:10Z</time>
      </trkpt>
      <trkpt lat="59.834906" lon="17.6426014">
        <ele>33.7834</ele>
        <time>2014-05-12T19:24:11Z</time>
      </trkpt>
      <trkpt lat="59.8349169" lon="17.6426185">
        <ele>32.8223</ele>
        <time>2014-05-12T19:24:12Z</time>
      </trkpt>
      <trkpt lat="59.8349332" lon="17.6426392">
        <ele>33.3029</ele>
        <time>2014-05-12T19:24:13Z</time>
      </trkpt>
      <trkpt lat="59.8349584" lon="17.6426579">
        <ele>34.7449</ele>
        <time>2014-05-12T19:24:14Z</time>
      </trkpt>
      <trkpt lat="59.8349878" lon="17.6426723">
        <ele>35.7061</ele>
        <time>2014-05-12T19:24:15Z</time>
      </trkpt>
      <trkpt lat="59.8350148" lon="17.6426986">
        <ele>37.1481</ele>
        <time>2014-05-12T19:24:16Z</time>
      </trkpt>
      <trkpt lat="59.8350465" lon="17.6427169">
        <ele>38.1094</ele>
        <time>2014-05-12T19:24:17Z</time>
      </trkpt>
      <trkpt lat="59.8350697" lon="17.6427372">
        <ele>38.1094</ele>
        <time>2014-05-12T19:24:18Z</time>
      </trkpt>
      <trkpt lat="59.8350943" lon="17.6427663">
        <ele>38.1094</ele>
        <time>2014-05-12T19:24:19Z</time>
      </trkpt>
      <trkpt lat="59.8351152" lon="17.6427924">
        <ele>38.1094</ele>
        <time>2014-05-12T19:24:20Z</time>
      </trkpt>
      <trkpt lat="59.8351363" lon="17.6428289">
        <ele>38.5901</ele>
        <time>2014-05-12T19:24:21Z</time>
      </trkpt>
      <trkpt lat="59.835161" lon="17.6428628">
        <ele>38.5901</ele>
        <time>2014-05-12T19:24:22Z</time>
      </trkpt>
      <trkpt lat="59.835194" lon="17.6428942">
        <ele>40.0321</ele>
        <time>2014-05-12T19:24:23Z</time>
      </trkpt>
      <trkpt lat="59.8352199" lon="17.6429222">
        <ele>39.0707</ele>
        <time>2014-05-12T19:24:24Z</time>
      </trkpt>
      <trkpt lat="59.835249" lon="17.6429502">
        <ele>38.1094</ele>
        <time>2014-05-12T19:24:25Z</time>
      </trkpt>
      <trkpt lat="59.8352681" lon="17.642994">
        <ele>38.5901</ele>
        <time>2014-05-12T19:24:26Z</time>
      </trkpt>
      <trkpt lat="59.8352861" lon="17.6430257">
        <ele>38.5901</ele>
        <time>2014-05-12T19:24:27Z</time>
      </trkpt>
      <trkpt lat="59.8353059" lon="17.6430629">
        <ele>39.5513</ele>
        <time>2014-05-12T19:24:28Z</time>
      </trkpt>
      <trkpt lat="59.8353204" lon="17.6430972">
        <ele>40.0321</ele>
        <time>2014-05-12T19:24:29Z</time>
      </trkpt>
      <trkpt lat="59.8353318" lon="17.6431276">
        <ele>39.5513</ele>
        <time>2014-05-12T19:24:30Z</time>
      </trkpt>
      <trkpt lat="59.8353478" lon="17.643164">
        <ele>39.5513</ele>
        <time>2014-05-12T19:24:31Z</time>
      </trkpt>
      <trkpt lat="59.8353622" lon="17.6432004">
        <ele>39.0707</ele>
        <time>2014-05-12T19:24:32Z</time>
      </trkpt>
      <trkpt lat="59.8353761" lon="17.6432293">
        <ele>39.0707</ele>
        <time>2014-05-12T19:24:33Z</time>
      </trkpt>
      <trkpt lat="59.8353955" lon="17.643266">
        <ele>39.5513</ele>
        <time>2014-05-12T19:24:34Z</time>
      </trkpt>
      <trkpt lat="59.8354103" lon="17.6433119">
        <ele>40.0321</ele>
        <time>2014-05-12T19:24:35Z</time>
      </trkpt>
      <trkpt lat="59.8354287" lon="17.6433399">
        <ele>40.0321</ele>
        <time>2014-05-12T19:24:36Z</time>
      </trkpt>
      <trkpt lat="59.8354556" lon="17.6433655">
        <ele>40.0321</ele>
        <time>2014-05-12T19:24:37Z</time>
      </trkpt>
      <trkpt lat="59.8354811" lon="17.6433991">
        <ele>40.0321</ele>
        <time>2014-05-12T19:24:38Z</time>
      </trkpt>
      <trkpt lat="59.8355062" lon="17.6434295">
        <ele>39.0707</ele>
        <time>2014-05-12T19:24:39Z</time>
      </trkpt>
      <trkpt lat="59.8355274" lon="17.6434629">
        <ele>39.0707</ele>
        <time>2014-05-12T19:24:40Z</time>
      </trkpt>
      <trkpt lat="59.8355519" lon="17.6434912">
        <ele>40.0321</ele>
        <time>2014-05-12T19:24:41Z</time>
      </trkpt>
      <trkpt lat="59.8355787" lon="17.6435052">
        <ele>40.0321</ele>
        <time>2014-05-12T19:24:42Z</time>
      </trkpt>
      <trkpt lat="59.8355989" lon="17.6435166">
        <ele>39.5513</ele>
        <time>2014-05-12T19:24:43Z</time>
      </trkpt>
      <trkpt lat="59.8356213" lon="17.6435344">
        <ele>40.5128</ele>
        <time>2014-05-12T19:24:44Z</time>
      </trkpt>
      <trkpt lat="59.8356484" lon="17.6435557">
        <ele>41.9547</ele>
        <time>2014-05-12T19:24:45Z</time>
      </trkpt>
      <trkpt lat="59.8356742" lon="17.6435737">
        <ele>42.4354</ele>
        <time>2014-05-12T19:24:46Z</time>
      </trkpt>
      <trkpt lat="59.8357033" lon="17.6435919">
        <ele>43.8773</ele>
        <time>2014-05-12T19:24:47Z</time>
      </trkpt>
      <trkpt lat="59.835727" lon="17.6435922">
        <ele>44.358</ele>
        <time>2014-05-12T19:24:48Z</time>
      </trkpt>
      <trkpt lat="59.8357535" lon="17.6435979">
        <ele>45.3192</ele>
        <time>2014-05-12T19:24:49Z</time>
      </trkpt>
      <trkpt lat="59.8357809" lon="17.6435992">
        <ele>46.2806</ele>
        <time>2014-05-12T19:24:50Z</time>
      </trkpt>
      <trkpt lat="59.8357939" lon="17.6435976">
        <ele>46.2806</ele>
        <time>2014-05-12T19:24:51Z</time>
      </trkpt>
      <trkpt lat="59.8358104" lon="17.6435958">
        <ele>45.3192</ele>
        <time>2014-05-12T19:24:52Z</time>
      </trkpt>
      <trkpt lat="59.8358275" lon="17.6435748">
        <ele>43.3966</ele>
        <time>2014-05-12T19:24:53Z</time>
      </trkpt>
      <trkpt lat="59.835843" lon="17.6435482">
        <ele>41.474</ele>
        <time>2014-05-12T19:24:54Z</time>
      </trkpt>
      <trkpt lat="59.8358566" lon="17.6435188">
        <ele>40.0321</ele>
        <time>2014-05-12T19:24:55Z</time>
      </trkpt>
      <trkpt lat="59.8358768" lon="17.6434953">
        <ele>39.0707</ele>
        <time>2014-05-12T19:24:56Z</time>
      </trkpt>
      <trkpt lat="59.8358975" lon="17.6434546">
        <ele>38.5901</ele>
        <time>2014-05-12T19:24:57Z</time>
      </trkpt>
      <trkpt lat="59.8359229" lon="17.6434124">
        <ele>39.0707</ele>
        <time>2014-05-12T19:24:58Z</time>
      </trkpt>
      <trkpt lat="59.8359481" lon="17.6433866">
        <ele>39.5513</ele>
        <time>2014-05-12T19:24:59Z</time>
      </trkpt>
      <trkpt lat="59.8359794" lon="17.643371">
        <ele>40.5128</ele>
        <time>2014-05-12T19:25:00Z</time>
      </trkpt>
      <trkpt lat="59.8360083" lon="17.6433478">
        <ele>39.5513</ele>
        <time>2014-05-12T19:25:01Z</time>
      </trkpt>
      <trkpt lat="59.836027" lon="17.6433163">
        <ele>38.5901</ele>
        <time>2014-05-12T19:25:02Z</time>
      </trkpt>
      <trkpt lat="59.8360481" lon="17.6432843">
        <ele>38.1094</ele>
        <time>2014-05-12T19:25:03Z</time>
      </trkpt>
      <trkpt lat="59.8360677" lon="17.6432468">
        <ele>37.1481</ele>
        <time>2014-05-12T19:25:04Z</time>
      </trkpt>
      <trkpt lat="59.836086" lon="17.643204">
        <ele>35.2255</ele>
        <time>2014-05-12T19:25:05Z</time>
      </trkpt>
      <trkpt lat="59.8361053" lon="17.6431703">
        <ele>33.3029</ele>
        <time>2014-05-12T19:25:06Z</time>
      </trkpt>
      <trkpt lat="59.8361254" lon="17.6431468">
        <ele>33.3029</ele>
        <time>2014-05-12T19:25:07Z</time>
      </trkpt>
      <trkpt lat="59.8361465" lon="17.6431174">
        <ele>32.3416</ele>
        <time>2014-05-12T19:25:08Z</time>
      </trkpt>
      <trkpt lat="59.8361906" lon="17.6430852">
        <ele>37.1481</ele>
        <time>2014-05-12T19:25:09Z</time>
      </trkpt>
      <trkpt lat="59.836221" lon="17.6430443">
        <ele>40.0321</ele>
        <time>2014-05-12T19:25:10Z</time>
      </trkpt>
      <trkpt lat="59.8362467" lon="17.6430107">
        <ele>41.474</ele>
        <time>2014-05-12T19:25:11Z</time>
      </trkpt>
      <trkpt lat="59.8362595" lon="17.6429687">
        <ele>41.9547</ele>
        <time>2014-05-12T19:25:12Z</time>
      </trkpt>
      <trkpt lat="59.8362906" lon="17.642932">
        <ele>43.3966</ele>
        <time>2014-05-12T19:25:13Z</time>
      </trkpt>
      <trkpt lat="59.836321" lon="17.6428874">
        <ele>44.8386</ele>
        <time>2014-05-12T19:25:14Z</time>
      </trkpt>
      <trkpt lat="59.8363453" lon="17.6428656">
        <ele>44.358</ele>
        <time>2014-05-12T19:25:15Z</time>
      </trkpt>
      <trkpt lat="59.8363681" lon="17.6428602">
        <ele>44.8386</ele>
        <time>2014-05-12T19:25:16Z</time>
      </trkpt>
      <trkpt lat="59.836388" lon="17.6428484">
        <ele>44.358</ele>
        <time>2014-05-12T19:25:17Z</time>
      </trkpt>
      <trkpt lat="59.8364118" lon="17.64284">
        <ele>44.358</ele>
        <time>2014-05-12T19:25:18Z</time>
      </trkpt>
      <trkpt lat="59.8364337" lon="17.6428336">
        <ele>43.8773</ele>
        <time>2014-05-12T19:25:19Z</time>
      </trkpt>
      <trkpt lat="59.8364485" lon="17.6428237">
        <ele>42.916</ele>
        <time>2014-05-12T19:25:20Z</time>
      </trkpt>
      <trkpt lat="59.8364661" lon="17.6428252">
        <ele>43.3966</ele>
        <time>2014-05-12T19:25:21Z</time>
      </trkpt>
      <trkpt lat="59.8364909" lon="17.6428126">
        <ele>41.9547</ele>
        <time>2014-05-12T19:25:22Z</time>
      </trkpt>
      <trkpt lat="59.8365221" lon="17.6428055">
        <ele>41.474</ele>
        <time>2014-05-12T19:25:23Z</time>
      </trkpt>
      <trkpt lat="59.8365557" lon="17.6427948">
        <ele>41.9547</ele>
        <time>2014-05-12T19:25:24Z</time>
      </trkpt>
      <trkpt lat="59.836571" lon="17.6427961">
        <ele>41.474</ele>
        <time>2014-05-12T19:25:25Z</time>
      </trkpt>
      <trkpt lat="59.8365855" lon="17.6428043">
        <ele>40.0321</ele>
        <time>2014-05-12T19:25:26Z</time>
      </trkpt>
      <trkpt lat="59.8366081" lon="17.6428029">
        <ele>40.5128</ele>
        <time>2014-05-12T19:25:27Z</time>
      </trkpt>
      <trkpt lat="59.8366321" lon="17.6427936">
        <ele>40.0321</ele>
        <time>2014-05-12T19:25:28Z</time>
      </trkpt>
      <trkpt lat="59.8366465" lon="17.6427848">
        <ele>39.0707</ele>
        <time>2014-05-12T19:25:29Z</time>
      </trkpt>
      <trkpt lat="59.8366697" lon="17.642781">
        <ele>38.5901</ele>
        <time>2014-05-12T19:25:30Z</time>
      </trkpt>
      <trkpt lat="59.8366815" lon="17.6427749">
        <ele>36.6675</ele>
        <time>2014-05-12T19:25:31Z</time>
      </trkpt>
      <trkpt lat="59.8367034" lon="17.6427724">
        <ele>36.6675</ele>
        <time>2014-05-12T19:25:32Z</time>
      </trkpt>
      <trkpt lat="59.8367253" lon="17.6427709">
        <ele>35.7061</ele>
        <time>2014-05-12T19:25:33Z</time>
      </trkpt>
      <trkpt lat="59.8367557" lon="17.6427718">
        <ele>36.6675</ele>
        <time>2014-05-12T19:25:34Z</time>
      </trkpt>
      <trkpt lat="59.8367901" lon="17.6427817">
        <ele>37.6287</ele>
        <time>2014-05-12T19:25:35Z</time>
      </trkpt>
      <trkpt lat="59.836822" lon="17.6427968">
        <ele>38.5901</ele>
        <time>2014-05-12T19:25:36Z</time>
      </trkpt>
      <trkpt lat="59.8368489" lon="17.642809">
        <ele>38.5901</ele>
        <time>2014-05-12T19:25:37Z</time>
      </trkpt>
      <trkpt lat="59.8368778" lon="17.6428206">
        <ele>39.5513</ele>
        <time>2014-05-12T19:25:38Z</time>
      </trkpt>
      <trkpt lat="59.8369029" lon="17.6428278">
        <ele>38.5901</ele>
        <time>2014-05-12T19:25:39Z</time>
      </trkpt>
      <trkpt lat="59.8369287" lon="17.6428401">
        <ele>38.1094</ele>
        <time>2014-05-12T19:25:40Z</time>
      </trkpt>
      <trkpt lat="59.83696" lon="17.642859">
        <ele>38.1094</ele>
        <time>2014-05-12T19:25:41Z</time>
      </trkpt>
      <trkpt lat="59.8369868" lon="17.642877">
        <ele>37.6287</ele>
        <time>2014-05-12T19:25:42Z</time>
      </trkpt>
      <trkpt lat="59.8370136" lon="17.6428786">
        <ele>37.6287</ele>
        <time>2014-05-12T19:25:43Z</time>
      </trkpt>
      <trkpt lat="59.8370389" lon="17.6428815">
        <ele>37.6287</ele>
        <time>2014-05-12T19:25:44Z</time>
      </trkpt>
      <trkpt lat="59.8370723" lon="17.6428899">
        <ele>38.5901</ele>
        <time>2014-05-12T19:25:45Z</time>
      </trkpt>
      <trkpt lat="59.8370982" lon="17.6429018">
        <ele>38.5901</ele>
        <time>2014-05-12T19:25:46Z</time>
      </trkpt>
      <trkpt lat="59.8371189" lon="17.6429105">
        <ele>38.5901</ele>
        <time>2014-05-12T19:25:47Z</time>
      </trkpt>
      <trkpt lat="59.8371319" lon="17.6429065">
        <ele>36.6675</ele>
        <time>2014-05-12T19:25:48Z</time>
      </trkpt>
      <trkpt lat="59.8371438" lon="17.6428983">
        <ele>34.2642</ele>
        <time>2014-05-12T19:25:49Z</time>
      </trkpt>
      <trkpt lat="59.8371633" lon="17.6428989">
        <ele>33.7834</ele>
        <time>2014-05-12T19:25:50Z</time>
      </trkpt>
      <trkpt lat="59.8371847" lon="17.6429064">
        <ele>33.7834</ele>
        <time>2014-05-12T19:25:51Z</time>
      </trkpt>
      <trkpt lat="59.8372053" lon="17.6429194">
        <ele>33.7834</ele>
        <time>2014-05-12T19:25:52Z</time>
      </trkpt>
      <trkpt lat="59.8372288" lon="17.642934">
        <ele>33.7834</ele>
        <time>2014-05-12T19:25:53Z</time>
      </trkpt>
      <trkpt lat="59.8372483" lon="17.6429396">
        <ele>32.3416</ele>
        <time>2014-05-12T19:25:54Z</time>
      </trkpt>
      <trkpt lat="59.8372748" lon="17.6429454">
        <ele>31.8607</ele>
        <time>2014-05-12T19:25:55Z</time>
      </trkpt>
      <trkpt lat="59.837314" lon="17.6429574">
        <ele>32.3416</ele>
        <time>2014-05-12T19:25:56Z</time>
      </trkpt>
      <trkpt lat="59.8373392" lon="17.6429756">
        <ele>31.3801</ele>
        <time>2014-05-12T19:25:57Z</time>
      </trkpt>
      <trkpt lat="59.8373614" lon="17.6429866">
        <ele>30.8995</ele>
        <time>2014-05-12T19:25:58Z</time>
      </trkpt>
      <trkpt lat="59.837419" lon="17.6429942">
        <ele>37.1481</ele>
        <time>2014-05-12T19:25:59Z</time>
      </trkpt>
      <trkpt lat="59.8374701" lon="17.6430116">
        <ele>41.9547</ele>
        <time>2014-05-12T19:26:00Z</time>
      </trkpt>
      <trkpt lat="59.8375205" lon="17.6430164">
        <ele>47.7225</ele>
        <time>2014-05-12T19:26:01Z</time>
      </trkpt>
      <trkpt lat="59.8375582" lon="17.6430122">
        <ele>51.0872</ele>
        <time>2014-05-12T19:26:02Z</time>
      </trkpt>
      <trkpt lat="59.8375731" lon="17.643005">
        <ele>49.6453</ele>
        <time>2014-05-12T19:26:03Z</time>
      </trkpt>
      <trkpt lat="59.8376048" lon="17.6430009">
        <ele>50.6066</ele>
        <time>2014-05-12T19:26:04Z</time>
      </trkpt>
      <trkpt lat="59.8376354" lon="17.6429857">
        <ele>50.126</ele>
        <time>2014-05-12T19:26:05Z</time>
      </trkpt>
      <trkpt lat="59.8376629" lon="17.6429635">
        <ele>48.684</ele>
        <time>2014-05-12T19:26:06Z</time>
      </trkpt>
      <trkpt lat="59.8376893" lon="17.6429519">
        <ele>47.7225</ele>
        <time>2014-05-12T19:26:07Z</time>
      </trkpt>
      <trkpt lat="59.83771" lon="17.6429376">
        <ele>46.2806</ele>
        <time>2014-05-12T19:26:08Z</time>
      </trkpt>
      <trkpt lat="59.8377394" lon="17.642936">
        <ele>46.2806</ele>
        <time>2014-05-12T19:26:09Z</time>
      </trkpt>
      <trkpt lat="59.837766" lon="17.6429386">
        <ele>46.2806</ele>
        <time>2014-05-12T19:26:10Z</time>
      </trkpt>
      <trkpt lat="59.8377929" lon="17.6429392">
        <ele>45.3192</ele>
        <time>2014-05-12T19:26:11Z</time>
      </trkpt>
      <trkpt lat="59.8378105" lon="17.6429292">
        <ele>43.3966</ele>
        <time>2014-05-12T19:26:12Z</time>
      </trkpt>
      <trkpt lat="59.8378222" lon="17.6429238">
        <ele>41.9547</ele>
        <time>2014-05-12T19:26:13Z</time>
      </trkpt>
      <trkpt lat="59.8378627" lon="17.6429333">
        <ele>45.7999</ele>
        <time>2014-05-12T19:26:14Z</time>
      </trkpt>
      <trkpt lat="59.8378825" lon="17.6429374">
        <ele>44.8386</ele>
        <time>2014-05-12T19:26:15Z</time>
      </trkpt>
      <trkpt lat="59.8378976" lon="17.6429392">
        <ele>43.8773</ele>
        <time>2014-05-12T19:26:16Z</time>
      </trkpt>
      <trkpt lat="59.8379125" lon="17.6429329">
        <ele>42.4354</ele>
        <time>2014-05-12T19:26:17Z</time>
      </trkpt>
      <trkpt lat="59.8379338" lon="17.6429325">
        <ele>41.474</ele>
        <time>2014-05-12T19:26:18Z</time>
      </trkpt>
      <trkpt lat="59.8379576" lon="17.6429262">
        <ele>40.5128</ele>
        <time>2014-05-12T19:26:19Z</time>
      </trkpt>
      <trkpt lat="59.8379849" lon="17.642919">
        <ele>38.5901</ele>
        <time>2014-05-12T19:26:20Z</time>
      </trkpt>
      <trkpt lat="59.8380166" lon="17.6429288">
        <ele>37.6287</ele>
        <time>2014-05-12T19:26:21Z</time>
      </trkpt>
      <trkpt lat="59.8380499" lon="17.6429465">
        <ele>36.6675</ele>
        <time>2014-05-12T19:26:22Z</time>
      </trkpt>
      <trkpt lat="59.8381148" lon="17.6429602">
        <ele>42.4354</ele>
        <time>2014-05-12T19:26:23Z</time>
      </trkpt>
      <trkpt lat="59.8381553" lon="17.6429765">
        <ele>44.8386</ele>
        <time>2014-05-12T19:26:24Z</time>
      </trkpt>
      <trkpt lat="59.838183" lon="17.6429915">
        <ele>44.358</ele>
        <time>2014-05-12T19:26:25Z</time>
      </trkpt>
      <trkpt lat="59.8382124" lon="17.6430208">
        <ele>44.358</ele>
        <time>2014-05-12T19:26:26Z</time>
      </trkpt>
      <trkpt lat="59.8382264" lon="17.6430532">
        <ele>43.3966</ele>
        <time>2014-05-12T19:26:27Z</time>
      </trkpt>
      <trkpt lat="59.8382529" lon="17.6430791">
        <ele>44.358</ele>
        <time>2014-05-12T19:26:28Z</time>
      </trkpt>
      <trkpt lat="59.838288" lon="17.6430994">
        <ele>45.7999</ele>
        <time>2014-05-12T19:26:29Z</time>
      </trkpt>
      <trkpt lat="59.8383185" lon="17.6431247">
        <ele>45.7999</ele>
        <time>2014-05-12T19:26:30Z</time>
      </trkpt>
      <trkpt lat="59.8383474" lon="17.643151">
        <ele>44.8386</ele>
        <time>2014-05-12T19:26:31Z</time>
      </trkpt>
      <trkpt lat="59.838374" lon="17.6431749">
        <ele>44.358</ele>
        <time>2014-05-12T19:26:32Z</time>
      </trkpt>
      <trkpt lat="59.8383963" lon="17.6431925">
        <ele>43.3966</ele>
        <time>2014-05-12T19:26:33Z</time>
      </trkpt>
      <trkpt lat="59.8384198" lon="17.6432215">
        <ele>44.358</ele>
        <time>2014-05-12T19:26:34Z</time>
      </trkpt>
      <trkpt lat="59.8384496" lon="17.6432544">
        <ele>45.3192</ele>
        <time>2014-05-12T19:26:35Z</time>
      </trkpt>
      <trkpt lat="59.8384684" lon="17.6432873">
        <ele>44.358</ele>
        <time>2014-05-12T19:26:36Z</time>
      </trkpt>
      <trkpt lat="59.8384868" lon="17.6433192">
        <ele>43.3966</ele>
        <time>2014-05-12T19:26:37Z</time>
      </trkpt>
      <trkpt lat="59.8385062" lon="17.6433557">
        <ele>42.916</ele>
        <time>2014-05-12T19:26:38Z</time>
      </trkpt>
      <trkpt lat="59.8385321" lon="17.6433904">
        <ele>42.916</ele>
        <time>2014-05-12T19:26:39Z</time>
      </trkpt>
      <trkpt lat="59.8385559" lon="17.6434332">
        <ele>42.916</ele>
        <time>2014-05-12T19:26:40Z</time>
      </trkpt>
      <trkpt lat="59.8385712" lon="17.6434649">
        <ele>41.474</ele>
        <time>2014-05-12T19:26:41Z</time>
      </trkpt>
      <trkpt lat="59.838589" lon="17.643494">
        <ele>39.5513</ele>
        <time>2014-05-12T19:26:42Z</time>
      </trkpt>
      <trkpt lat="59.8386117" lon="17.643528">
        <ele>39.5513</ele>
        <time>2014-05-12T19:26:43Z</time>
      </trkpt>
      <trkpt lat="59.8386299" lon="17.6435619">
        <ele>38.5901</ele>
        <time>2014-05-12T19:26:44Z</time>
      </trkpt>
      <trkpt lat="59.8386567" lon="17.643594">
        <ele>39.5513</ele>
        <time>2014-05-12T19:26:45Z</time>
      </trkpt>
      <trkpt lat="59.838681" lon="17.643626">
        <ele>39.5513</ele>
        <time>2014-05-12T19:26:46Z</time>
      </trkpt>
      <trkpt lat="59.8386989" lon="17.643651">
        <ele>39.0707</ele>
        <time>2014-05-12T19:26:47Z</time>
      </trkpt>
      <trkpt lat="59.8387196" lon="17.6436746">
        <ele>38.5901</ele>
        <time>2014-05-12T19:26:48Z</time>
      </trkpt>
      <trkpt lat="59.8387397" lon="17.6436956">
        <ele>38.5901</ele>
        <time>2014-05-12T19:26:49Z</time>
      </trkpt>
      <trkpt lat="59.8387636" lon="17.6437126">
        <ele>38.5901</ele>
        <time>2014-05-12T19:26:50Z</time>
      </trkpt>
      <trkpt lat="59.8387838" lon="17.6437365">
        <ele>38.1094</ele>
        <time>2014-05-12T19:26:51Z</time>
      </trkpt>
      <trkpt lat="59.8388076" lon="17.6437633">
        <ele>38.1094</ele>
        <time>2014-05-12T19:26:52Z</time>
      </trkpt>
      <trkpt lat="59.838832" lon="17.6437773">
        <ele>38.1094</ele>
        <time>2014-05-12T19:26:53Z</time>
      </trkpt>
      <trkpt lat="59.8388597" lon="17.6437917">
        <ele>38.1094</ele>
        <time>2014-05-12T19:26:54Z</time>
      </trkpt>
      <trkpt lat="59.8388838" lon="17.6438103">
        <ele>37.6287</ele>
        <time>2014-05-12T19:26:55Z</time>
      </trkpt>
      <trkpt lat="59.8389077" lon="17.6438279">
        <ele>36.6675</ele>
        <time>2014-05-12T19:26:56Z</time>
      </trkpt>
      <trkpt lat="59.8389362" lon="17.6438421">
        <ele>36.6675</ele>
        <time>2014-05-12T19:26:57Z</time>
      </trkpt>
      <trkpt lat="59.8389602" lon="17.6438628">
        <ele>37.1481</ele>
        <time>2014-05-12T19:26:58Z</time>
      </trkpt>
      <trkpt lat="59.8389789" lon="17.6438851">
        <ele>36.6675</ele>
        <time>2014-05-12T19:26:59Z</time>
      </trkpt>
      <trkpt lat="59.8389999" lon="17.6439063">
        <ele>36.1868</ele>
        <time>2014-05-12T19:27:00Z</time>
      </trkpt>
      <trkpt lat="59.8390267" lon="17.6439271">
        <ele>36.1868</ele>
        <time>2014-05-12T19:27:01Z</time>
      </trkpt>
      <trkpt lat="59.8390499" lon="17.6439518">
        <ele>36.1868</ele>
        <time>2014-05-12T19:27:02Z</time>
      </trkpt>
      <trkpt lat="59.8390713" lon="17.6439742">
        <ele>35.7061</ele>
        <time>2014-05-12T19:27:03Z</time>
      </trkpt>
      <trkpt lat="59.8390954" lon="17.6439933">
        <ele>35.2255</ele>
        <time>2014-05-12T19:27:04Z</time>
      </trkpt>
      <trkpt lat="59.8391234" lon="17.6440079">
        <ele>34.2642</ele>
        <time>2014-05-12T19:27:05Z</time>
      </trkpt>
      <trkpt lat="59.8391519" lon="17.6440228">
        <ele>33.7834</ele>
        <time>2014-05-12T19:27:06Z</time>
      </trkpt>
      <trkpt lat="59.8391826" lon="17.6440312">
        <ele>34.2642</ele>
        <time>2014-05-12T19:27:07Z</time>
      </trkpt>
      <trkpt lat="59.8392104" lon="17.64404">
        <ele>33.3029</ele>
        <time>2014-05-12T19:27:08Z</time>
      </trkpt>
      <trkpt lat="59.8392397" lon="17.6440626">
        <ele>34.2642</ele>
        <time>2014-05-12T19:27:09Z</time>
      </trkpt>
      <trkpt lat="59.8392661" lon="17.6440856">
        <ele>33.7834</ele>
        <time>2014-05-12T19:27:10Z</time>
      </trkpt>
      <trkpt lat="59.8392962" lon="17.6441135">
        <ele>34.2642</ele>
        <time>2014-05-12T19:27:11Z</time>
      </trkpt>
      <trkpt lat="59.8393293" lon="17.644142">
        <ele>34.7449</ele>
        <time>2014-05-12T19:27:12Z</time>
      </trkpt>
      <trkpt lat="59.8393547" lon="17.6441803">
        <ele>34.7449</ele>
        <time>2014-05-12T19:27:13Z</time>
      </trkpt>
      <trkpt lat="59.8393806" lon="17.6442202">
        <ele>35.2255</ele>
        <time>2014-05-12T19:27:14Z</time>
      </trkpt>
      <trkpt lat="59.8394045" lon="17.6442513">
        <ele>35.7061</ele>
        <time>2014-05-12T19:27:15Z</time>
      </trkpt>
      <trkpt lat="59.8394292" lon="17.6442778">
        <ele>36.1868</ele>
        <time>2014-05-12T19:27:16Z</time>
      </trkpt>
      <trkpt lat="59.8394545" lon="17.6443052">
        <ele>36.1868</ele>
        <time>2014-05-12T19:27:17Z</time>
      </trkpt>
      <trkpt lat="59.8394839" lon="17.644333">
        <ele>35.7061</ele>
        <time>2014-05-12T19:27:18Z</time>
      </trkpt>
      <trkpt lat="59.8395111" lon="17.6443539">
        <ele>35.7061</ele>
        <time>2014-05-12T19:27:19Z</time>
      </trkpt>
      <trkpt lat="59.8395373" lon="17.6443744">
        <ele>35.2255</ele>
        <time>2014-05-12T19:27:20Z</time>
      </trkpt>
      <trkpt lat="59.8395545" lon="17.6443953">
        <ele>35.2255</ele>
        <time>2014-05-12T19:27:21Z</time>
      </trkpt>
      <trkpt lat="59.8395736" lon="17.6444663">
        <ele>27.0543</ele>
        <time>2014-05-12T19:27:43Z</time>
      </trkpt>
      <trkpt lat="59.8395774" lon="17.644469">
        <ele>27.0543</ele>
        <time>2014-05-12T19:27:44Z</time>
      </trkpt>
      <trkpt lat="59.8395898" lon="17.6444704">
        <ele>27.5349</ele>
        <time>2014-05-12T19:27:45Z</time>
      </trkpt>
      <trkpt lat="59.8396063" lon="17.6444876">
        <ele>27.5349</ele>
        <time>2014-05-12T19:27:46Z</time>
      </trkpt>
      <trkpt lat="59.8396314" lon="17.6445128">
        <ele>28.0155</ele>
        <time>2014-05-12T19:27:47Z</time>
      </trkpt>
      <trkpt lat="59.8396587" lon="17.6445347">
        <ele>27.5349</ele>
        <time>2014-05-12T19:27:48Z</time>
      </trkpt>
      <trkpt lat="59.8396873" lon="17.6445502">
        <ele>28.0155</ele>
        <time>2014-05-12T19:27:49Z</time>
      </trkpt>
      <trkpt lat="59.8397157" lon="17.6445647">
        <ele>28.0155</ele>
        <time>2014-05-12T19:27:50Z</time>
      </trkpt>
      <trkpt lat="59.8397484" lon="17.6445904">
        <ele>29.4575</ele>
        <time>2014-05-12T19:27:51Z</time>
      </trkpt>
      <trkpt lat="59.8397797" lon="17.6446137">
        <ele>29.4575</ele>
        <time>2014-05-12T19:27:52Z</time>
      </trkpt>
      <trkpt lat="59.8398093" lon="17.6446309">
        <ele>29.4575</ele>
        <time>2014-05-12T19:27:53Z</time>
      </trkpt>
      <trkpt lat="59.8398359" lon="17.6446375">
        <ele>28.9769</ele>
        <time>2014-05-12T19:27:54Z</time>
      </trkpt>
      <trkpt lat="59.8398613" lon="17.6446472">
        <ele>29.4575</ele>
        <time>2014-05-12T19:27:55Z</time>
      </trkpt>
      <trkpt lat="59.8398894" lon="17.6446543">
        <ele>29.4575</ele>
        <time>2014-05-12T19:27:56Z</time>
      </trkpt>
      <trkpt lat="59.8399183" lon="17.6446471">
        <ele>29.9381</ele>
        <time>2014-05-12T19:27:57Z</time>
      </trkpt>
      <trkpt lat="59.839946" lon="17.6446232">
        <ele>29.4575</ele>
        <time>2014-05-12T19:27:58Z</time>
      </trkpt>
      <trkpt lat="59.839971" lon="17.6445891">
        <ele>29.4575</ele>
        <time>2014-05-12T19:27:59Z</time>
      </trkpt>
      <trkpt lat="59.8399939" lon="17.6445544">
        <ele>28.9769</ele>
        <time>2014-05-12T19:28:00Z</time>
      </trkpt>
      <trkpt lat="59.8400209" lon="17.6445254">
        <ele>29.4575</ele>
        <time>2014-05-12T19:28:01Z</time>
      </trkpt>
      <trkpt lat="59.8400446" lon="17.6445052">
        <ele>29.9381</ele>
        <time>2014-05-12T19:28:02Z</time>
      </trkpt>
      <trkpt lat="59.8400664" lon="17.6444807">
        <ele>29.4575</ele>
        <time>2014-05-12T19:28:03Z</time>
      </trkpt>
      <trkpt lat="59.8400921" lon="17.6444405">
        <ele>29.4575</ele>
        <time>2014-05-12T19:28:04Z</time>
      </trkpt>
      <trkpt lat="59.8401172" lon="17.6443904">
        <ele>28.9769</ele>
        <time>2014-05-12T19:28:05Z</time>
      </trkpt>
      <trkpt lat="59.8401498" lon="17.6443378">
        <ele>28.4962</ele>
        <time>2014-05-12T19:28:06Z</time>
      </trkpt>
      <trkpt lat="59.840183" lon="17.6442751">
        <ele>28.4962</ele>
        <time>2014-05-12T19:28:07Z</time>
      </trkpt>
      <trkpt lat="59.840217" lon="17.6442218">
        <ele>28.9769</ele>
        <time>2014-05-12T19:28:08Z</time>
      </trkpt>
      <trkpt lat="59.8402503" lon="17.6441787">
        <ele>29.4575</ele>
        <time>2014-05-12T19:28:09Z</time>
      </trkpt>
      <trkpt lat="59.8402794" lon="17.644132">
        <ele>29.4575</ele>
        <time>2014-05-12T19:28:10Z</time>
      </trkpt>
      <trkpt lat="59.8403145" lon="17.6440875">
        <ele>29.9381</ele>
        <time>2014-05-12T19:28:11Z</time>
      </trkpt>
      <trkpt lat="59.8403451" lon="17.6440525">
        <ele>30.4188</ele>
        <time>2014-05-12T19:28:12Z</time>
      </trkpt>
      <trkpt lat="59.8403741" lon="17.6440172">
        <ele>30.8995</ele>
        <time>2014-05-12T19:28:13Z</time>
      </trkpt>
      <trkpt lat="59.8404022" lon="17.64397">
        <ele>30.8995</ele>
        <time>2014-05-12T19:28:14Z</time>
      </trkpt>
      <trkpt lat="59.8404291" lon="17.6439197">
        <ele>30.8995</ele>
        <time>2014-05-12T19:28:15Z</time>
      </trkpt>
      <trkpt lat="59.8404627" lon="17.6438843">
        <ele>32.3416</ele>
        <time>2014-05-12T19:28:16Z</time>
      </trkpt>
      <trkpt lat="59.8404877" lon="17.6438382">
        <ele>31.8607</ele>
        <time>2014-05-12T19:28:17Z</time>
      </trkpt>
      <trkpt lat="59.8405136" lon="17.6437851">
        <ele>31.8607</ele>
        <time>2014-05-12T19:28:18Z</time>
      </trkpt>
      <trkpt lat="59.8405363" lon="17.6437354">
        <ele>31.3801</ele>
        <time>2014-05-12T19:28:19Z</time>
      </trkpt>
      <trkpt lat="59.8405635" lon="17.6436825">
        <ele>30.8995</ele>
        <time>2014-05-12T19:28:20Z</time>
      </trkpt>
      <trkpt lat="59.8405941" lon="17.6436349">
        <ele>30.8995</ele>
        <time>2014-05-12T19:28:21Z</time>
      </trkpt>
      <trkpt lat="59.8406227" lon="17.6435924">
        <ele>31.3801</ele>
        <time>2014-05-12T19:28:22Z</time>
      </trkpt>
      <trkpt lat="59.8406495" lon="17.6435417">
        <ele>30.8995</ele>
        <time>2014-05-12T19:28:23Z</time>
      </trkpt>
      <trkpt lat="59.8406734" lon="17.6434873">
        <ele>30.4188</ele>
        <time>2014-05-12T19:28:24Z</time>
      </trkpt>
      <trkpt lat="59.8406988" lon="17.643437">
        <ele>30.4188</ele>
        <time>2014-05-12T19:28:25Z</time>
      </trkpt>
      <trkpt lat="59.8407212" lon="17.6433928">
        <ele>30.4188</ele>
        <time>2014-05-12T19:28:26Z</time>
      </trkpt>
      <trkpt lat="59.8407368" lon="17.6433448">
        <ele>29.4575</ele>
        <time>2014-05-12T19:28:27Z</time>
      </trkpt>
      <trkpt lat="59.8407554" lon="17.6432946">
        <ele>29.4575</ele>
        <time>2014-05-12T19:28:28Z</time>
      </trkpt>
      <trkpt lat="59.8407684" lon="17.6432391">
        <ele>28.4962</ele>
        <time>2014-05-12T19:28:29Z</time>
      </trkpt>
      <trkpt lat="59.8407844" lon="17.6431827">
        <ele>28.4962</ele>
        <time>2014-05-12T19:28:30Z</time>
      </trkpt>
      <trkpt lat="59.8407989" lon="17.6431257">
        <ele>27.5349</ele>
        <time>2014-05-12T19:28:31Z</time>
      </trkpt>
      <trkpt lat="59.8408206" lon="17.6430646">
        <ele>27.0543</ele>
        <time>2014-05-12T19:28:32Z</time>
      </trkpt>
      <trkpt lat="59.8408391" lon="17.6430045">
        <ele>26.5736</ele>
        <time>2014-05-12T19:28:33Z</time>
      </trkpt>
      <trkpt lat="59.8408579" lon="17.6429497">
        <ele>26.0929</ele>
        <time>2014-05-12T19:28:34Z</time>
      </trkpt>
      <trkpt lat="59.8408729" lon="17.6428889">
        <ele>25.6123</ele>
        <time>2014-05-12T19:28:35Z</time>
      </trkpt>
      <trkpt lat="59.840889" lon="17.6428346">
        <ele>25.1317</ele>
        <time>2014-05-12T19:28:36Z</time>
      </trkpt>
      <trkpt lat="59.8408999" lon="17.6427846">
        <ele>24.651</ele>
        <time>2014-05-12T19:28:37Z</time>
      </trkpt>
      <trkpt lat="59.840899" lon="17.6427157">
        <ele>22.7283</ele>
        <time>2014-05-12T19:28:38Z</time>
      </trkpt>
      <trkpt lat="59.8409056" lon="17.6426532">
        <ele>21.767</ele>
        <time>2014-05-12T19:28:39Z</time>
      </trkpt>
      <trkpt lat="59.840919" lon="17.6425978">
        <ele>21.767</ele>
        <time>2014-05-12T19:28:40Z</time>
      </trkpt>
      <trkpt lat="59.8409329" lon="17.6425443">
        <ele>21.767</ele>
        <time>2014-05-12T19:28:41Z</time>
      </trkpt>
      <trkpt lat="59.8409484" lon="17.642489">
        <ele>21.767</ele>
        <time>2014-05-12T19:28:42Z</time>
      </trkpt>
      <trkpt lat="59.8409707" lon="17.6424336">
        <ele>22.2476</ele>
        <time>2014-05-12T19:28:43Z</time>
      </trkpt>
      <trkpt lat="59.8409883" lon="17.6423718">
        <ele>22.2476</ele>
        <time>2014-05-12T19:28:44Z</time>
      </trkpt>
      <trkpt lat="59.841004" lon="17.6423143">
        <ele>22.2476</ele>
        <time>2014-05-12T19:28:45Z</time>
      </trkpt>
      <trkpt lat="59.8410221" lon="17.6422614">
        <ele>22.7283</ele>
        <time>2014-05-12T19:28:46Z</time>
      </trkpt>
      <trkpt lat="59.8410357" lon="17.6422092">
        <ele>22.2476</ele>
        <time>2014-05-12T19:28:47Z</time>
      </trkpt>
      <trkpt lat="59.8410494" lon="17.6421503">
        <ele>21.2864</ele>
        <time>2014-05-12T19:28:48Z</time>
      </trkpt>
      <trkpt lat="59.8410654" lon="17.6420936">
        <ele>20.325</ele>
        <time>2014-05-12T19:28:49Z</time>
      </trkpt>
      <trkpt lat="59.8410771" lon="17.6420404">
        <ele>19.3638</ele>
        <time>2014-05-12T19:28:50Z</time>
      </trkpt>
      <trkpt lat="59.8410853" lon="17.6419777">
        <ele>17.9218</ele>
        <time>2014-05-12T19:28:51Z</time>
      </trkpt>
      <trkpt lat="59.8410956" lon="17.6419208">
        <ele>16.4797</ele>
        <time>2014-05-12T19:28:52Z</time>
      </trkpt>
      <trkpt lat="59.8411139" lon="17.6418812">
        <ele>15.999</ele>
        <time>2014-05-12T19:28:53Z</time>
      </trkpt>
      <trkpt lat="59.8411276" lon="17.641842">
        <ele>15.5184</ele>
        <time>2014-05-12T19:28:54Z</time>
      </trkpt>
      <trkpt lat="59.8411419" lon="17.6417919">
        <ele>14.557</ele>
        <time>2014-05-12T19:28:55Z</time>
      </trkpt>
      <trkpt lat="59.841154" lon="17.6417405">
        <ele>14.0764</ele>
        <time>2014-05-12T19:28:56Z</time>
      </trkpt>
      <trkpt lat="59.841173" lon="17.6417022">
        <ele>14.0764</ele>
        <time>2014-05-12T19:28:57Z</time>
      </trkpt>
      <trkpt lat="59.8411931" lon="17.6416596">
        <ele>14.0764</ele>
        <time>2014-05-12T19:28:58Z</time>
      </trkpt>
      <trkpt lat="59.8412123" lon="17.6416131">
        <ele>14.0764</ele>
        <time>2014-05-12T19:28:59Z</time>
      </trkpt>
      <trkpt lat="59.8412351" lon="17.6415673">
        <ele>13.5958</ele>
        <time>2014-05-12T19:29:00Z</time>
      </trkpt>
      <trkpt lat="59.8412542" lon="17.6415238">
        <ele>13.1151</ele>
        <time>2014-05-12T19:29:01Z</time>
      </trkpt>
      <trkpt lat="59.8412711" lon="17.6414792">
        <ele>13.1151</ele>
        <time>2014-05-12T19:29:02Z</time>
      </trkpt>
      <trkpt lat="59.8412988" lon="17.6414478">
        <ele>15.0377</ele>
        <time>2014-05-12T19:29:03Z</time>
      </trkpt>
      <trkpt lat="59.8413265" lon="17.6414111">
        <ele>16.4797</ele>
        <time>2014-05-12T19:29:04Z</time>
      </trkpt>
      <trkpt lat="59.8413556" lon="17.6413731">
        <ele>17.4412</ele>
        <time>2014-05-12T19:29:05Z</time>
      </trkpt>
      <trkpt lat="59.8413836" lon="17.641335">
        <ele>17.4412</ele>
        <time>2014-05-12T19:29:06Z</time>
      </trkpt>
      <trkpt lat="59.8414092" lon="17.6412896">
        <ele>17.9218</ele>
        <time>2014-05-12T19:29:07Z</time>
      </trkpt>
      <trkpt lat="59.8414335" lon="17.6412448">
        <ele>18.4023</ele>
        <time>2014-05-12T19:29:08Z</time>
      </trkpt>
      <trkpt lat="59.8414582" lon="17.6412047">
        <ele>18.4023</ele>
        <time>2014-05-12T19:29:09Z</time>
      </trkpt>
      <trkpt lat="59.8414776" lon="17.6411634">
        <ele>17.9218</ele>
        <time>2014-05-12T19:29:10Z</time>
      </trkpt>
      <trkpt lat="59.8414939" lon="17.6411142">
        <ele>17.9218</ele>
        <time>2014-05-12T19:29:11Z</time>
      </trkpt>
      <trkpt lat="59.8415198" lon="17.6410762">
        <ele>18.4023</ele>
        <time>2014-05-12T19:29:12Z</time>
      </trkpt>
      <trkpt lat="59.8415422" lon="17.641034">
        <ele>18.4023</ele>
        <time>2014-05-12T19:29:13Z</time>
      </trkpt>
      <trkpt lat="59.8415691" lon="17.6409987">
        <ele>18.4023</ele>
        <time>2014-05-12T19:29:14Z</time>
      </trkpt>
      <trkpt lat="59.8415959" lon="17.6409643">
        <ele>17.9218</ele>
        <time>2014-05-12T19:29:15Z</time>
      </trkpt>
      <trkpt lat="59.8416235" lon="17.6409341">
        <ele>17.9218</ele>
        <time>2014-05-12T19:29:16Z</time>
      </trkpt>
      <trkpt lat="59.8416492" lon="17.6409099">
        <ele>19.3638</ele>
        <time>2014-05-12T19:29:17Z</time>
      </trkpt>
      <trkpt lat="59.8416748" lon="17.6408861">
        <ele>19.8444</ele>
        <time>2014-05-12T19:29:18Z</time>
      </trkpt>
      <trkpt lat="59.8417033" lon="17.6408583">
        <ele>20.325</ele>
        <time>2014-05-12T19:29:19Z</time>
      </trkpt>
      <trkpt lat="59.84173" lon="17.6408273">
        <ele>20.8057</ele>
        <time>2014-05-12T19:29:20Z</time>
      </trkpt>
      <trkpt lat="59.8417567" lon="17.6408086">
        <ele>20.8057</ele>
        <time>2014-05-12T19:29:21Z</time>
      </trkpt>
      <trkpt lat="59.841778" lon="17.6407828">
        <ele>20.8057</ele>
        <time>2014-05-12T19:29:22Z</time>
      </trkpt>
      <trkpt lat="59.8417896" lon="17.6407491">
        <ele>21.767</ele>
        <time>2014-05-12T19:29:23Z</time>
      </trkpt>
      <trkpt lat="59.8418054" lon="17.6407216">
        <ele>21.767</ele>
        <time>2014-05-12T19:29:24Z</time>
      </trkpt>
      <trkpt lat="59.8418272" lon="17.6406758">
        <ele>21.767</ele>
        <time>2014-05-12T19:29:25Z</time>
      </trkpt>
      <trkpt lat="59.8418524" lon="17.6406273">
        <ele>22.2476</ele>
        <time>2014-05-12T19:29:26Z</time>
      </trkpt>
      <trkpt lat="59.8418768" lon="17.6405929">
        <ele>22.7283</ele>
        <time>2014-05-12T19:29:27Z</time>
      </trkpt>
      <trkpt lat="59.841896" lon="17.6405579">
        <ele>22.2476</ele>
        <time>2014-05-12T19:29:28Z</time>
      </trkpt>
      <trkpt lat="59.8419161" lon="17.6405267">
        <ele>22.7283</ele>
        <time>2014-05-12T19:29:29Z</time>
      </trkpt>
      <trkpt lat="59.8419372" lon="17.6404915">
        <ele>23.209</ele>
        <time>2014-05-12T19:29:30Z</time>
      </trkpt>
      <trkpt lat="59.8419514" lon="17.6404526">
        <ele>23.6896</ele>
        <time>2014-05-12T19:29:31Z</time>
      </trkpt>
      <trkpt lat="59.8419613" lon="17.6404258">
        <ele>23.6896</ele>
        <time>2014-05-12T19:29:32Z</time>
      </trkpt>
      <trkpt lat="59.8419738" lon="17.6404073">
        <ele>24.1703</ele>
        <time>2014-05-12T19:29:33Z</time>
      </trkpt>
      <trkpt lat="59.84198" lon="17.6403641">
        <ele>25.1317</ele>
        <time>2014-05-12T19:29:34Z</time>
      </trkpt>
      <trkpt lat="59.8419849" lon="17.6403166">
        <ele>25.6123</ele>
        <time>2014-05-12T19:29:35Z</time>
      </trkpt>
      <trkpt lat="59.8419948" lon="17.6402847">
        <ele>25.6123</ele>
        <time>2014-05-12T19:29:36Z</time>
      </trkpt>
      <trkpt lat="59.8420059" lon="17.6402347">
        <ele>25.1317</ele>
        <time>2014-05-12T19:29:37Z</time>
      </trkpt>
      <trkpt lat="59.8420189" lon="17.6401849">
        <ele>25.6123</ele>
        <time>2014-05-12T19:29:38Z</time>
      </trkpt>
      <trkpt lat="59.8420395" lon="17.6401336">
        <ele>25.6123</ele>
        <time>2014-05-12T19:29:39Z</time>
      </trkpt>
      <trkpt lat="59.8420632" lon="17.6400741">
        <ele>25.6123</ele>
        <time>2014-05-12T19:29:40Z</time>
      </trkpt>
      <trkpt lat="59.8420835" lon="17.6400027">
        <ele>25.6123</ele>
        <time>2014-05-12T19:29:41Z</time>
      </trkpt>
      <trkpt lat="59.8421035" lon="17.6399301">
        <ele>25.6123</ele>
        <time>2014-05-12T19:29:42Z</time>
      </trkpt>
      <trkpt lat="59.8421213" lon="17.6398657">
        <ele>25.6123</ele>
        <time>2014-05-12T19:29:43Z</time>
      </trkpt>
      <trkpt lat="59.8421368" lon="17.6398109">
        <ele>26.0929</ele>
        <time>2014-05-12T19:29:44Z</time>
      </trkpt>
      <trkpt lat="59.8421593" lon="17.6397586">
        <ele>26.5736</ele>
        <time>2014-05-12T19:29:45Z</time>
      </trkpt>
      <trkpt lat="59.8421809" lon="17.6397001">
        <ele>26.0929</ele>
        <time>2014-05-12T19:29:46Z</time>
      </trkpt>
      <trkpt lat="59.8422011" lon="17.6396357">
        <ele>26.0929</ele>
        <time>2014-05-12T19:29:47Z</time>
      </trkpt>
      <trkpt lat="59.8422178" lon="17.6395726">
        <ele>26.0929</ele>
        <time>2014-05-12T19:29:48Z</time>
      </trkpt>
      <trkpt lat="59.8422318" lon="17.6395103">
        <ele>26.5736</ele>
        <time>2014-05-12T19:29:49Z</time>
      </trkpt>
      <trkpt lat="59.8422451" lon="17.6394425">
        <ele>26.0929</ele>
        <time>2014-05-12T19:29:50Z</time>
      </trkpt>
      <trkpt lat="59.8422594" lon="17.6393721">
        <ele>26.5736</ele>
        <time>2014-05-12T19:29:51Z</time>
      </trkpt>
      <trkpt lat="59.8422742" lon="17.6393117">
        <ele>27.0543</ele>
        <time>2014-05-12T19:29:52Z</time>
      </trkpt>
      <trkpt lat="59.8422919" lon="17.6392565">
        <ele>27.0543</ele>
        <time>2014-05-12T19:29:53Z</time>
      </trkpt>
      <trkpt lat="59.8423097" lon="17.6392023">
        <ele>27.0543</ele>
        <time>2014-05-12T19:29:54Z</time>
      </trkpt>
      <trkpt lat="59.8423275" lon="17.6391431">
        <ele>27.0543</ele>
        <time>2014-05-12T19:29:55Z</time>
      </trkpt>
      <trkpt lat="59.8423478" lon="17.6390837">
        <ele>27.0543</ele>
        <time>2014-05-12T19:29:56Z</time>
      </trkpt>
      <trkpt lat="59.8423651" lon="17.6390325">
        <ele>27.0543</ele>
        <time>2014-05-12T19:29:57Z</time>
      </trkpt>
      <trkpt lat="59.8423851" lon="17.6389857">
        <ele>27.0543</ele>
        <time>2014-05-12T19:29:58Z</time>
      </trkpt>
      <trkpt lat="59.8424103" lon="17.6389464">
        <ele>27.5349</ele>
        <time>2014-05-12T19:29:59Z</time>
      </trkpt>
      <trkpt lat="59.8424436" lon="17.6389386">
        <ele>27.5349</ele>
        <time>2014-05-12T19:30:00Z</time>
      </trkpt>
      <trkpt lat="59.8424801" lon="17.638943">
        <ele>27.5349</ele>
        <time>2014-05-12T19:30:01Z</time>
      </trkpt>
      <trkpt lat="59.8425141" lon="17.6389443">
        <ele>28.0155</ele>
        <time>2014-05-12T19:30:02Z</time>
      </trkpt>
      <trkpt lat="59.8425428" lon="17.6389444">
        <ele>28.0155</ele>
        <time>2014-05-12T19:30:03Z</time>
      </trkpt>
      <trkpt lat="59.8425736" lon="17.6389403">
        <ele>27.5349</ele>
        <time>2014-05-12T19:30:04Z</time>
      </trkpt>
      <trkpt lat="59.8426031" lon="17.6389375">
        <ele>27.0543</ele>
        <time>2014-05-12T19:30:05Z</time>
      </trkpt>
      <trkpt lat="59.8426299" lon="17.6389391">
        <ele>26.5736</ele>
        <time>2014-05-12T19:30:06Z</time>
      </trkpt>
      <trkpt lat="59.842657" lon="17.6389342">
        <ele>26.0929</ele>
        <time>2014-05-12T19:30:07Z</time>
      </trkpt>
      <trkpt lat="59.8426878" lon="17.6389282">
        <ele>26.0929</ele>
        <time>2014-05-12T19:30:08Z</time>
      </trkpt>
      <trkpt lat="59.8427161" lon="17.6389285">
        <ele>25.6123</ele>
        <time>2014-05-12T19:30:09Z</time>
      </trkpt>
      <trkpt lat="59.8427434" lon="17.6389313">
        <ele>25.6123</ele>
        <time>2014-05-12T19:30:10Z</time>
      </trkpt>
      <trkpt lat="59.842772" lon="17.6389296">
        <ele>25.1317</ele>
        <time>2014-05-12T19:30:11Z</time>
      </trkpt>
      <trkpt lat="59.8428051" lon="17.6389322">
        <ele>25.6123</ele>
        <time>2014-05-12T19:30:12Z</time>
      </trkpt>
      <trkpt lat="59.8428424" lon="17.6389262">
        <ele>26.0929</ele>
        <time>2014-05-12T19:30:13Z</time>
      </trkpt>
      <trkpt lat="59.8428796" lon="17.6389219">
        <ele>26.5736</ele>
        <time>2014-05-12T19:30:14Z</time>
      </trkpt>
      <trkpt lat="59.8429195" lon="17.6389153">
        <ele>27.5349</ele>
        <time>2014-05-12T19:30:15Z</time>
      </trkpt>
      <trkpt lat="59.8429543" lon="17.6388999">
        <ele>27.0543</ele>
        <time>2014-05-12T19:30:16Z</time>
      </trkpt>
      <trkpt lat="59.8429909" lon="17.6388847">
        <ele>27.0543</ele>
        <time>2014-05-12T19:30:17Z</time>
      </trkpt>
      <trkpt lat="59.8430279" lon="17.638868">
        <ele>27.0543</ele>
        <time>2014-05-12T19:30:18Z</time>
      </trkpt>
      <trkpt lat="59.8430657" lon="17.6388444">
        <ele>27.0543</ele>
        <time>2014-05-12T19:30:19Z</time>
      </trkpt>
      <trkpt lat="59.8430983" lon="17.6388131">
        <ele>26.5736</ele>
        <time>2014-05-12T19:30:20Z</time>
      </trkpt>
      <trkpt lat="59.8431304" lon="17.6388034">
        <ele>26.0929</ele>
        <time>2014-05-12T19:30:21Z</time>
      </trkpt>
      <trkpt lat="59.8431592" lon="17.6387983">
        <ele>25.6123</ele>
        <time>2014-05-12T19:30:22Z</time>
      </trkpt>
      <trkpt lat="59.8431931" lon="17.6387809">
        <ele>25.6123</ele>
        <time>2014-05-12T19:30:23Z</time>
      </trkpt>
      <trkpt lat="59.8432304" lon="17.6387754">
        <ele>27.0543</ele>
        <time>2014-05-12T19:30:24Z</time>
      </trkpt>
      <trkpt lat="59.8432647" lon="17.6387752">
        <ele>27.5349</ele>
        <time>2014-05-12T19:30:25Z</time>
      </trkpt>
      <trkpt lat="59.8432949" lon="17.6387634">
        <ele>26.5736</ele>
        <time>2014-05-12T19:30:26Z</time>
      </trkpt>
      <trkpt lat="59.8433278" lon="17.6387584">
        <ele>26.0929</ele>
        <time>2014-05-12T19:30:27Z</time>
      </trkpt>
      <trkpt lat="59.8433574" lon="17.6387533">
        <ele>25.6123</ele>
        <time>2014-05-12T19:30:28Z</time>
      </trkpt>
      <trkpt lat="59.8433887" lon="17.6387437">
        <ele>25.1317</ele>
        <time>2014-05-12T19:30:29Z</time>
      </trkpt>
      <trkpt lat="59.8434224" lon="17.638735">
        <ele>24.651</ele>
        <time>2014-05-12T19:30:30Z</time>
      </trkpt>
      <trkpt lat="59.8434542" lon="17.6387252">
        <ele>24.1703</ele>
        <time>2014-05-12T19:30:31Z</time>
      </trkpt>
      <trkpt lat="59.8434842" lon="17.6387198">
        <ele>24.1703</ele>
        <time>2014-05-12T19:30:32Z</time>
      </trkpt>
      <trkpt lat="59.8435087" lon="17.6387143">
        <ele>24.1703</ele>
        <time>2014-05-12T19:30:33Z</time>
      </trkpt>
      <trkpt lat="59.8435412" lon="17.6386956">
        <ele>24.1703</ele>
        <time>2014-05-12T19:30:34Z</time>
      </trkpt>
      <trkpt lat="59.8435775" lon="17.638678">
        <ele>24.1703</ele>
        <time>2014-05-12T19:30:35Z</time>
      </trkpt>
      <trkpt lat="59.8436097" lon="17.6386692">
        <ele>24.1703</ele>
        <time>2014-05-12T19:30:36Z</time>
      </trkpt>
      <trkpt lat="59.8436437" lon="17.6386583">
        <ele>24.1703</ele>
        <time>2014-05-12T19:30:37Z</time>
      </trkpt>
      <trkpt lat="59.843678" lon="17.6386444">
        <ele>24.1703</ele>
        <time>2014-05-12T19:30:38Z</time>
      </trkpt>
      <trkpt lat="59.8437125" lon="17.6386345">
        <ele>23.6896</ele>
        <time>2014-05-12T19:30:39Z</time>
      </trkpt>
      <trkpt lat="59.8437469" lon="17.6386236">
        <ele>23.6896</ele>
        <time>2014-05-12T19:30:40Z</time>
      </trkpt>
      <trkpt lat="59.8437806" lon="17.6386059">
        <ele>23.209</ele>
        <time>2014-05-12T19:30:41Z</time>
      </trkpt>
      <trkpt lat="59.8438142" lon="17.6385911">
        <ele>23.6896</ele>
        <time>2014-05-12T19:30:42Z</time>
      </trkpt>
      <trkpt lat="59.8438435" lon="17.6385797">
        <ele>23.209</ele>
        <time>2014-05-12T19:30:43Z</time>
      </trkpt>
      <trkpt lat="59.8438732" lon="17.6385706">
        <ele>23.209</ele>
        <time>2014-05-12T19:30:44Z</time>
      </trkpt>
      <trkpt lat="59.8439012" lon="17.6385592">
        <ele>23.209</ele>
        <time>2014-05-12T19:30:45Z</time>
      </trkpt>
      <trkpt lat="59.8439292" lon="17.6385466">
        <ele>23.209</ele>
        <time>2014-05-12T19:30:46Z</time>
      </trkpt>
      <trkpt lat="59.8439597" lon="17.6385347">
        <ele>23.209</ele>
        <time>2014-05-12T19:30:47Z</time>
      </trkpt>
      <trkpt lat="59.8439887" lon="17.6385278">
        <ele>23.209</ele>
        <time>2014-05-12T19:30:48Z</time>
      </trkpt>
      <trkpt lat="59.8440091" lon="17.6385259">
        <ele>23.209</ele>
        <time>2014-05-12T19:30:49Z</time>
      </trkpt>
      <trkpt lat="59.8440319" lon="17.6385248">
        <ele>22.7283</ele>
        <time>2014-05-12T19:30:50Z</time>
      </trkpt>
      <trkpt lat="59.8440613" lon="17.6385312">
        <ele>22.2476</ele>
        <time>2014-05-12T19:30:51Z</time>
      </trkpt>
      <trkpt lat="59.8440919" lon="17.638533">
        <ele>21.767</ele>
        <time>2014-05-12T19:30:52Z</time>
      </trkpt>
      <trkpt lat="59.8441186" lon="17.6385207">
        <ele>21.2864</ele>
        <time>2014-05-12T19:30:53Z</time>
      </trkpt>
      <trkpt lat="59.8441481" lon="17.6385033">
        <ele>20.8057</ele>
        <time>2014-05-12T19:30:54Z</time>
      </trkpt>
      <trkpt lat="59.8441758" lon="17.6384851">
        <ele>19.8444</ele>
        <time>2014-05-12T19:30:55Z</time>
      </trkpt>
      <trkpt lat="59.8442064" lon="17.638467">
        <ele>19.8444</ele>
        <time>2014-05-12T19:30:56Z</time>
      </trkpt>
      <trkpt lat="59.8442333" lon="17.6384589">
        <ele>19.3638</ele>
        <time>2014-05-12T19:30:57Z</time>
      </trkpt>
      <trkpt lat="59.8442581" lon="17.6384574">
        <ele>19.8444</ele>
        <time>2014-05-12T19:30:58Z</time>
      </trkpt>
      <trkpt lat="59.844274" lon="17.6384538">
        <ele>19.8444</ele>
        <time>2014-05-12T19:30:59Z</time>
      </trkpt>
      <trkpt lat="59.8442948" lon="17.6384435">
        <ele>21.2864</ele>
        <time>2014-05-12T19:31:00Z</time>
      </trkpt>
      <trkpt lat="59.8443265" lon="17.6384359">
        <ele>22.7283</ele>
        <time>2014-05-12T19:31:01Z</time>
      </trkpt>
      <trkpt lat="59.8443458" lon="17.6384211">
        <ele>22.7283</ele>
        <time>2014-05-12T19:31:02Z</time>
      </trkpt>
      <trkpt lat="59.8443845" lon="17.6384044">
        <ele>25.1317</ele>
        <time>2014-05-12T19:31:03Z</time>
      </trkpt>
      <trkpt lat="59.8444281" lon="17.638392">
        <ele>28.0155</ele>
        <time>2014-05-12T19:31:04Z</time>
      </trkpt>
      <trkpt lat="59.8444561" lon="17.6383874">
        <ele>27.5349</ele>
        <time>2014-05-12T19:31:05Z</time>
      </trkpt>
      <trkpt lat="59.8444893" lon="17.638376">
        <ele>27.5349</ele>
        <time>2014-05-12T19:31:06Z</time>
      </trkpt>
      <trkpt lat="59.8445322" lon="17.6383594">
        <ele>28.9769</ele>
        <time>2014-05-12T19:31:07Z</time>
      </trkpt>
      <trkpt lat="59.8445722" lon="17.6383443">
        <ele>29.9381</ele>
        <time>2014-05-12T19:31:08Z</time>
      </trkpt>
      <trkpt lat="59.8446062" lon="17.6383235">
        <ele>29.9381</ele>
        <time>2014-05-12T19:31:09Z</time>
      </trkpt>
      <trkpt lat="59.8446389" lon="17.6382983">
        <ele>29.4575</ele>
        <time>2014-05-12T19:31:10Z</time>
      </trkpt>
      <trkpt lat="59.8446737" lon="17.6382841">
        <ele>29.9381</ele>
        <time>2014-05-12T19:31:11Z</time>
      </trkpt>
      <trkpt lat="59.844707" lon="17.6382761">
        <ele>29.4575</ele>
        <time>2014-05-12T19:31:12Z</time>
      </trkpt>
      <trkpt lat="59.844742" lon="17.6382739">
        <ele>29.4575</ele>
        <time>2014-05-12T19:31:13Z</time>
      </trkpt>
      <trkpt lat="59.8447765" lon="17.6382713">
        <ele>29.9381</ele>
        <time>2014-05-12T19:31:14Z</time>
      </trkpt>
      <trkpt lat="59.8448127" lon="17.6382724">
        <ele>29.9381</ele>
        <time>2014-05-12T19:31:15Z</time>
      </trkpt>
      <trkpt lat="59.8448466" lon="17.6382709">
        <ele>29.9381</ele>
        <time>2014-05-12T19:31:16Z</time>
      </trkpt>
      <trkpt lat="59.8448829" lon="17.6382697">
        <ele>30.4188</ele>
        <time>2014-05-12T19:31:17Z</time>
      </trkpt>
      <trkpt lat="59.8449165" lon="17.63826">
        <ele>30.4188</ele>
        <time>2014-05-12T19:31:18Z</time>
      </trkpt>
      <trkpt lat="59.8449476" lon="17.6382444">
        <ele>29.9381</ele>
        <time>2014-05-12T19:31:19Z</time>
      </trkpt>
      <trkpt lat="59.8449765" lon="17.6382231">
        <ele>29.9381</ele>
        <time>2014-05-12T19:31:20Z</time>
      </trkpt>
      <trkpt lat="59.8450037" lon="17.6382052">
        <ele>29.9381</ele>
        <time>2014-05-12T19:31:21Z</time>
      </trkpt>
      <trkpt lat="59.8450334" lon="17.6381993">
        <ele>29.4575</ele>
        <time>2014-05-12T19:31:22Z</time>
      </trkpt>
      <trkpt lat="59.8450605" lon="17.6381875">
        <ele>28.9769</ele>
        <time>2014-05-12T19:31:23Z</time>
      </trkpt>
      <trkpt lat="59.8450885" lon="17.6381769">
        <ele>28.9769</ele>
        <time>2014-05-12T19:31:24Z</time>
      </trkpt>
      <trkpt lat="59.8451135" lon="17.6381698">
        <ele>28.4962</ele>
        <time>2014-05-12T19:31:25Z</time>
      </trkpt>
      <trkpt lat="59.8451388" lon="17.6381666">
        <ele>28.4962</ele>
        <time>2014-05-12T19:31:26Z</time>
      </trkpt>
      <trkpt lat="59.8451626" lon="17.6381569">
        <ele>28.4962</ele>
        <time>2014-05-12T19:31:27Z</time>
      </trkpt>
      <trkpt lat="59.8451997" lon="17.6381489">
        <ele>29.9381</ele>
        <time>2014-05-12T19:31:28Z</time>
      </trkpt>
      <trkpt lat="59.8452341" lon="17.6381405">
        <ele>31.3801</ele>
        <time>2014-05-12T19:31:29Z</time>
      </trkpt>
      <trkpt lat="59.845257" lon="17.6381212">
        <ele>30.4188</ele>
        <time>2014-05-12T19:31:30Z</time>
      </trkpt>
      <trkpt lat="59.845305" lon="17.6381056">
        <ele>32.8223</ele>
        <time>2014-05-12T19:31:31Z</time>
      </trkpt>
      <trkpt lat="59.8453378" lon="17.6380912">
        <ele>32.8223</ele>
        <time>2014-05-12T19:31:32Z</time>
      </trkpt>
      <trkpt lat="59.8453703" lon="17.6380868">
        <ele>32.8223</ele>
        <time>2014-05-12T19:31:33Z</time>
      </trkpt>
      <trkpt lat="59.845404" lon="17.6380759">
        <ele>32.8223</ele>
        <time>2014-05-12T19:31:34Z</time>
      </trkpt>
      <trkpt lat="59.8454329" lon="17.6380629">
        <ele>32.3416</ele>
        <time>2014-05-12T19:31:35Z</time>
      </trkpt>
      <trkpt lat="59.8454515" lon="17.6380495">
        <ele>31.3801</ele>
        <time>2014-05-12T19:31:36Z</time>
      </trkpt>
      <trkpt lat="59.8454687" lon="17.638034">
        <ele>30.4188</ele>
        <time>2014-05-12T19:31:37Z</time>
      </trkpt>
      <trkpt lat="59.8454931" lon="17.6380253">
        <ele>29.9381</ele>
        <time>2014-05-12T19:31:38Z</time>
      </trkpt>
      <trkpt lat="59.8455231" lon="17.6380211">
        <ele>30.4188</ele>
        <time>2014-05-12T19:31:39Z</time>
      </trkpt>
      <trkpt lat="59.8455493" lon="17.6380114">
        <ele>29.9381</ele>
        <time>2014-05-12T19:31:40Z</time>
      </trkpt>
      <trkpt lat="59.845576" lon="17.6379988">
        <ele>29.4575</ele>
        <time>2014-05-12T19:31:41Z</time>
      </trkpt>
      <trkpt lat="59.8456023" lon="17.6379849">
        <ele>28.9769</ele>
        <time>2014-05-12T19:31:42Z</time>
      </trkpt>
      <trkpt lat="59.8456288" lon="17.6379744">
        <ele>28.4962</ele>
        <time>2014-05-12T19:31:43Z</time>
      </trkpt>
      <trkpt lat="59.8456557" lon="17.6379677">
        <ele>27.5349</ele>
        <time>2014-05-12T19:31:44Z</time>
      </trkpt>
      <trkpt lat="59.8456822" lon="17.6379584">
        <ele>27.0543</ele>
        <time>2014-05-12T19:31:45Z</time>
      </trkpt>
      <trkpt lat="59.8457127" lon="17.6379536">
        <ele>26.0929</ele>
        <time>2014-05-12T19:31:46Z</time>
      </trkpt>
      <trkpt lat="59.8457448" lon="17.6379495">
        <ele>25.6123</ele>
        <time>2014-05-12T19:31:47Z</time>
      </trkpt>
      <trkpt lat="59.8457763" lon="17.6379319">
        <ele>25.1317</ele>
        <time>2014-05-12T19:31:48Z</time>
      </trkpt>
      <trkpt lat="59.8458054" lon="17.637906">
        <ele>24.1703</ele>
        <time>2014-05-12T19:31:49Z</time>
      </trkpt>
      <trkpt lat="59.8458317" lon="17.6378793">
        <ele>23.209</ele>
        <time>2014-05-12T19:31:50Z</time>
      </trkpt>
      <trkpt lat="59.845864" lon="17.6378631">
        <ele>22.7283</ele>
        <time>2014-05-12T19:31:51Z</time>
      </trkpt>
      <trkpt lat="59.8458938" lon="17.63785">
        <ele>22.2476</ele>
        <time>2014-05-12T19:31:52Z</time>
      </trkpt>
      <trkpt lat="59.8459233" lon="17.6378317">
        <ele>21.767</ele>
        <time>2014-05-12T19:31:53Z</time>
      </trkpt>
      <trkpt lat="59.845955" lon="17.6378161">
        <ele>20.8057</ele>
        <time>2014-05-12T19:31:54Z</time>
      </trkpt>
      <trkpt lat="59.8459874" lon="17.6378109">
        <ele>20.325</ele>
        <time>2014-05-12T19:31:55Z</time>
      </trkpt>
      <trkpt lat="59.8460223" lon="17.6378195">
        <ele>19.8444</ele>
        <time>2014-05-12T19:31:56Z</time>
      </trkpt>
      <trkpt lat="59.8460524" lon="17.6378257">
        <ele>19.3638</ele>
        <time>2014-05-12T19:31:57Z</time>
      </trkpt>
      <trkpt lat="59.8460809" lon="17.6378358">
        <ele>18.8831</ele>
        <time>2014-05-12T19:31:58Z</time>
      </trkpt>
      <trkpt lat="59.8461095" lon="17.6378532">
        <ele>17.9218</ele>
        <time>2014-05-12T19:31:59Z</time>
      </trkpt>
      <trkpt lat="59.8461375" lon="17.6378767">
        <ele>17.9218</ele>
        <time>2014-05-12T19:32:00Z</time>
      </trkpt>
      <trkpt lat="59.8461629" lon="17.6379161">
        <ele>18.4023</ele>
        <time>2014-05-12T19:32:01Z</time>
      </trkpt>
      <trkpt lat="59.8461787" lon="17.6379611">
        <ele>17.9218</ele>
        <time>2014-05-12T19:32:02Z</time>
      </trkpt>
      <trkpt lat="59.8461954" lon="17.6380102">
        <ele>18.4023</ele>
        <time>2014-05-12T19:32:03Z</time>
      </trkpt>
      <trkpt lat="59.8462121" lon="17.6380646">
        <ele>18.8831</ele>
        <time>2014-05-12T19:32:04Z</time>
      </trkpt>
      <trkpt lat="59.8462359" lon="17.6381218">
        <ele>20.325</ele>
        <time>2014-05-12T19:32:05Z</time>
      </trkpt>
      <trkpt lat="59.8462544" lon="17.6381736">
        <ele>20.325</ele>
        <time>2014-05-12T19:32:06Z</time>
      </trkpt>
      <trkpt lat="59.8462706" lon="17.6382248">
        <ele>20.8057</ele>
        <time>2014-05-12T19:32:07Z</time>
      </trkpt>
      <trkpt lat="59.8462839" lon="17.638277">
        <ele>21.2864</ele>
        <time>2014-05-12T19:32:08Z</time>
      </trkpt>
      <trkpt lat="59.8462924" lon="17.6383325">
        <ele>21.2864</ele>
        <time>2014-05-12T19:32:09Z</time>
      </trkpt>
      <trkpt lat="59.8463001" lon="17.6383942">
        <ele>21.767</ele>
        <time>2014-05-12T19:32:10Z</time>
      </trkpt>
      <trkpt lat="59.846309" lon="17.6384592">
        <ele>22.7283</ele>
        <time>2014-05-12T19:32:11Z</time>
      </trkpt>
      <trkpt lat="59.8463095" lon="17.6385266">
        <ele>23.209</ele>
        <time>2014-05-12T19:32:12Z</time>
      </trkpt>
      <trkpt lat="59.8463089" lon="17.6385924">
        <ele>24.1703</ele>
        <time>2014-05-12T19:32:13Z</time>
      </trkpt>
      <trkpt lat="59.8463165" lon="17.6386527">
        <ele>24.651</ele>
        <time>2014-05-12T19:32:14Z</time>
      </trkpt>
      <trkpt lat="59.8463248" lon="17.6387053">
        <ele>25.1317</ele>
        <time>2014-05-12T19:32:15Z</time>
      </trkpt>
      <trkpt lat="59.8463353" lon="17.6387608">
        <ele>26.0929</ele>
        <time>2014-05-12T19:32:16Z</time>
      </trkpt>
      <trkpt lat="59.8463481" lon="17.6388201">
        <ele>27.0543</ele>
        <time>2014-05-12T19:32:17Z</time>
      </trkpt>
      <trkpt lat="59.8463565" lon="17.6388736">
        <ele>27.5349</ele>
        <time>2014-05-12T19:32:18Z</time>
      </trkpt>
      <trkpt lat="59.8463636" lon="17.6389265">
        <ele>28.0155</ele>
        <time>2014-05-12T19:32:19Z</time>
      </trkpt>
      <trkpt lat="59.8463732" lon="17.638978">
        <ele>28.9769</ele>
        <time>2014-05-12T19:32:20Z</time>
      </trkpt>
      <trkpt lat="59.8463813" lon="17.6390365">
        <ele>29.4575</ele>
        <time>2014-05-12T19:32:21Z</time>
      </trkpt>
      <trkpt lat="59.8463906" lon="17.6390991">
        <ele>30.4188</ele>
        <time>2014-05-12T19:32:22Z</time>
      </trkpt>
      <trkpt lat="59.8463976" lon="17.6391619">
        <ele>30.4188</ele>
        <time>2014-05-12T19:32:23Z</time>
      </trkpt>
      <trkpt lat="59.8464064" lon="17.6392225">
        <ele>30.8995</ele>
        <time>2014-05-12T19:32:24Z</time>
      </trkpt>
      <trkpt lat="59.8464131" lon="17.6392761">
        <ele>30.8995</ele>
        <time>2014-05-12T19:32:25Z</time>
      </trkpt>
      <trkpt lat="59.8464125" lon="17.6393343">
        <ele>30.8995</ele>
        <time>2014-05-12T19:32:26Z</time>
      </trkpt>
      <trkpt lat="59.8464074" lon="17.6394002">
        <ele>30.8995</ele>
        <time>2014-05-12T19:32:27Z</time>
      </trkpt>
      <trkpt lat="59.8464022" lon="17.6394624">
        <ele>30.8995</ele>
        <time>2014-05-12T19:32:28Z</time>
      </trkpt>
      <trkpt lat="59.8463953" lon="17.6395212">
        <ele>30.4188</ele>
        <time>2014-05-12T19:32:29Z</time>
      </trkpt>
      <trkpt lat="59.8463883" lon="17.6395804">
        <ele>29.9381</ele>
        <time>2014-05-12T19:32:30Z</time>
      </trkpt>
      <trkpt lat="59.8463828" lon="17.6396394">
        <ele>29.4575</ele>
        <time>2014-05-12T19:32:31Z</time>
      </trkpt>
      <trkpt lat="59.8463795" lon="17.6396988">
        <ele>28.9769</ele>
        <time>2014-05-12T19:32:32Z</time>
      </trkpt>
      <trkpt lat="59.846379" lon="17.6397539">
        <ele>28.9769</ele>
        <time>2014-05-12T19:32:33Z</time>
      </trkpt>
      <trkpt lat="59.8463795" lon="17.639811">
        <ele>28.9769</ele>
        <time>2014-05-12T19:32:34Z</time>
      </trkpt>
      <trkpt lat="59.8463846" lon="17.6398714">
        <ele>28.9769</ele>
        <time>2014-05-12T19:32:35Z</time>
      </trkpt>
      <trkpt lat="59.8463939" lon="17.6399332">
        <ele>28.4962</ele>
        <time>2014-05-12T19:32:36Z</time>
      </trkpt>
      <trkpt lat="59.8463984" lon="17.6399891">
        <ele>28.0155</ele>
        <time>2014-05-12T19:32:37Z</time>
      </trkpt>
      <trkpt lat="59.846397" lon="17.6400392">
        <ele>27.0543</ele>
        <time>2014-05-12T19:32:38Z</time>
      </trkpt>
      <trkpt lat="59.8464059" lon="17.6400987">
        <ele>27.0543</ele>
        <time>2014-05-12T19:32:39Z</time>
      </trkpt>
      <trkpt lat="59.8464237" lon="17.6401651">
        <ele>27.0543</ele>
        <time>2014-05-12T19:32:40Z</time>
      </trkpt>
      <trkpt lat="59.8464367" lon="17.6402169">
        <ele>27.5349</ele>
        <time>2014-05-12T19:32:41Z</time>
      </trkpt>
      <trkpt lat="59.8464488" lon="17.6402637">
        <ele>27.5349</ele>
        <time>2014-05-12T19:32:42Z</time>
      </trkpt>
      <trkpt lat="59.8464601" lon="17.6403113">
        <ele>27.5349</ele>
        <time>2014-05-12T19:32:43Z</time>
      </trkpt>
      <trkpt lat="59.8464717" lon="17.6403591">
        <ele>27.5349</ele>
        <time>2014-05-12T19:32:44Z</time>
      </trkpt>
      <trkpt lat="59.8464829" lon="17.6404047">
        <ele>27.0543</ele>
        <time>2014-05-12T19:32:45Z</time>
      </trkpt>
      <trkpt lat="59.8464881" lon="17.6404534">
        <ele>27.0543</ele>
        <time>2014-05-12T19:32:46Z</time>
      </trkpt>
      <trkpt lat="59.8464918" lon="17.6405088">
        <ele>27.0543</ele>
        <time>2014-05-12T19:32:47Z</time>
      </trkpt>
      <trkpt lat="59.8465027" lon="17.640562">
        <ele>26.5736</ele>
        <time>2014-05-12T19:32:48Z</time>
      </trkpt>
      <trkpt lat="59.8465159" lon="17.6406142">
        <ele>26.5736</ele>
        <time>2014-05-12T19:32:49Z</time>
      </trkpt>
      <trkpt lat="59.8465253" lon="17.640667">
        <ele>26.5736</ele>
        <time>2014-05-12T19:32:50Z</time>
      </trkpt>
      <trkpt lat="59.8465348" lon="17.64072">
        <ele>26.5736</ele>
        <time>2014-05-12T19:32:51Z</time>
      </trkpt>
      <trkpt lat="59.846543" lon="17.6407676">
        <ele>26.0929</ele>
        <time>2014-05-12T19:32:52Z</time>
      </trkpt>
      <trkpt lat="59.8465487" lon="17.6408164">
        <ele>25.6123</ele>
        <time>2014-05-12T19:32:53Z</time>
      </trkpt>
      <trkpt lat="59.8465545" lon="17.6408687">
        <ele>24.651</ele>
        <time>2014-05-12T19:32:54Z</time>
      </trkpt>
      <trkpt lat="59.846562" lon="17.6409224">
        <ele>24.1703</ele>
        <time>2014-05-12T19:32:55Z</time>
      </trkpt>
      <trkpt lat="59.8465711" lon="17.6409821">
        <ele>23.6896</ele>
        <time>2014-05-12T19:32:56Z</time>
      </trkpt>
      <trkpt lat="59.8465817" lon="17.6410407">
        <ele>23.6896</ele>
        <time>2014-05-12T19:32:57Z</time>
      </trkpt>
      <trkpt lat="59.8465926" lon="17.6410887">
        <ele>22.7283</ele>
        <time>2014-05-12T19:32:58Z</time>
      </trkpt>
      <trkpt lat="59.846601" lon="17.6411439">
        <ele>22.2476</ele>
        <time>2014-05-12T19:32:59Z</time>
      </trkpt>
      <trkpt lat="59.8466098" lon="17.6411972">
        <ele>21.767</ele>
        <time>2014-05-12T19:33:00Z</time>
      </trkpt>
      <trkpt lat="59.8466232" lon="17.6412462">
        <ele>22.2476</ele>
        <time>2014-05-12T19:33:01Z</time>
      </trkpt>
      <trkpt lat="59.8466393" lon="17.6412899">
        <ele>21.767</ele>
        <time>2014-05-12T19:33:02Z</time>
      </trkpt>
      <trkpt lat="59.8466553" lon="17.6413414">
        <ele>22.2476</ele>
        <time>2014-05-12T19:33:03Z</time>
      </trkpt>
      <trkpt lat="59.8466693" lon="17.6413887">
        <ele>22.7283</ele>
        <time>2014-05-12T19:33:04Z</time>
      </trkpt>
      <trkpt lat="59.8466836" lon="17.6414369">
        <ele>22.2476</ele>
        <time>2014-05-12T19:33:05Z</time>
      </trkpt>
      <trkpt lat="59.8466934" lon="17.6414937">
        <ele>22.7283</ele>
        <time>2014-05-12T19:33:06Z</time>
      </trkpt>
      <trkpt lat="59.8467027" lon="17.6415524">
        <ele>22.7283</ele>
        <time>2014-05-12T19:33:07Z</time>
      </trkpt>
      <trkpt lat="59.8467164" lon="17.641611">
        <ele>22.7283</ele>
        <time>2014-05-12T19:33:08Z</time>
      </trkpt>
      <trkpt lat="59.8467347" lon="17.6416626">
        <ele>23.209</ele>
        <time>2014-05-12T19:33:09Z</time>
      </trkpt>
      <trkpt lat="59.8467608" lon="17.6417111">
        <ele>23.6896</ele>
        <time>2014-05-12T19:33:10Z</time>
      </trkpt>
      <trkpt lat="59.8467864" lon="17.6417627">
        <ele>24.651</ele>
        <time>2014-05-12T19:33:11Z</time>
      </trkpt>
      <trkpt lat="59.8468074" lon="17.6418093">
        <ele>25.1317</ele>
        <time>2014-05-12T19:33:12Z</time>
      </trkpt>
      <trkpt lat="59.8468275" lon="17.6418551">
        <ele>25.1317</ele>
        <time>2014-05-12T19:33:13Z</time>
      </trkpt>
      <trkpt lat="59.8468466" lon="17.6419078">
        <ele>25.6123</ele>
        <time>2014-05-12T19:33:14Z</time>
      </trkpt>
      <trkpt lat="59.8468687" lon="17.6419501">
        <ele>25.6123</ele>
        <time>2014-05-12T19:33:15Z</time>
      </trkpt>
      <trkpt lat="59.8468933" lon="17.6419963">
        <ele>26.0929</ele>
        <time>2014-05-12T19:33:16Z</time>
      </trkpt>
      <trkpt lat="59.8469138" lon="17.6420512">
        <ele>26.5736</ele>
        <time>2014-05-12T19:33:17Z</time>
      </trkpt>
      <trkpt lat="59.8469362" lon="17.6421046">
        <ele>27.0543</ele>
        <time>2014-05-12T19:33:18Z</time>
      </trkpt>
      <trkpt lat="59.8469623" lon="17.6421538">
        <ele>27.5349</ele>
        <time>2014-05-12T19:33:19Z</time>
      </trkpt>
      <trkpt lat="59.8469874" lon="17.642202">
        <ele>27.5349</ele>
        <time>2014-05-12T19:33:20Z</time>
      </trkpt>
      <trkpt lat="59.8470122" lon="17.6422501">
        <ele>27.5349</ele>
        <time>2014-05-12T19:33:21Z</time>
      </trkpt>
      <trkpt lat="59.8470335" lon="17.6422959">
        <ele>28.0155</ele>
        <time>2014-05-12T19:33:22Z</time>
      </trkpt>
      <trkpt lat="59.8470565" lon="17.6423404">
        <ele>28.4962</ele>
        <time>2014-05-12T19:33:23Z</time>
      </trkpt>
      <trkpt lat="59.8470782" lon="17.6423823">
        <ele>28.0155</ele>
        <time>2014-05-12T19:33:24Z</time>
      </trkpt>
      <trkpt lat="59.8471004" lon="17.6424196">
        <ele>28.0155</ele>
        <time>2014-05-12T19:33:25Z</time>
      </trkpt>
      <trkpt lat="59.8471236" lon="17.6424505">
        <ele>28.0155</ele>
        <time>2014-05-12T19:33:26Z</time>
      </trkpt>
      <trkpt lat="59.8471528" lon="17.6424779">
        <ele>28.4962</ele>
        <time>2014-05-12T19:33:27Z</time>
      </trkpt>
      <trkpt lat="59.8471844" lon="17.6425098">
        <ele>28.9769</ele>
        <time>2014-05-12T19:33:28Z</time>
      </trkpt>
      <trkpt lat="59.8472226" lon="17.6425451">
        <ele>30.4188</ele>
        <time>2014-05-12T19:33:29Z</time>
      </trkpt>
      <trkpt lat="59.8472528" lon="17.6425795">
        <ele>30.8995</ele>
        <time>2014-05-12T19:33:30Z</time>
      </trkpt>
      <trkpt lat="59.8472801" lon="17.642599">
        <ele>30.8995</ele>
        <time>2014-05-12T19:33:31Z</time>
      </trkpt>
      <trkpt lat="59.8473065" lon="17.642618">
        <ele>31.3801</ele>
        <time>2014-05-12T19:33:32Z</time>
      </trkpt>
      <trkpt lat="59.8473387" lon="17.6426516">
        <ele>32.3416</ele>
        <time>2014-05-12T19:33:33Z</time>
      </trkpt>
      <trkpt lat="59.8473676" lon="17.6426889">
        <ele>32.8223</ele>
        <time>2014-05-12T19:33:34Z</time>
      </trkpt>
      <trkpt lat="59.8473989" lon="17.642717">
        <ele>33.3029</ele>
        <time>2014-05-12T19:33:35Z</time>
      </trkpt>
      <trkpt lat="59.8474278" lon="17.6427511">
        <ele>33.7834</ele>
        <time>2014-05-12T19:33:36Z</time>
      </trkpt>
      <trkpt lat="59.8474531" lon="17.6427771">
        <ele>33.3029</ele>
        <time>2014-05-12T19:33:37Z</time>
      </trkpt>
      <trkpt lat="59.8474791" lon="17.6427958">
        <ele>32.8223</ele>
        <time>2014-05-12T19:33:38Z</time>
      </trkpt>
      <trkpt lat="59.8475045" lon="17.642816">
        <ele>32.8223</ele>
        <time>2014-05-12T19:33:39Z</time>
      </trkpt>
      <trkpt lat="59.8475309" lon="17.6428428">
        <ele>33.3029</ele>
        <time>2014-05-12T19:33:40Z</time>
      </trkpt>
      <trkpt lat="59.8475521" lon="17.6428728">
        <ele>32.8223</ele>
        <time>2014-05-12T19:33:41Z</time>
      </trkpt>
      <trkpt lat="59.8475727" lon="17.6429014">
        <ele>32.3416</ele>
        <time>2014-05-12T19:33:42Z</time>
      </trkpt>
      <trkpt lat="59.8475921" lon="17.6429291">
        <ele>31.8607</ele>
        <time>2014-05-12T19:33:43Z</time>
      </trkpt>
      <trkpt lat="59.8476221" lon="17.642959">
        <ele>32.3416</ele>
        <time>2014-05-12T19:33:44Z</time>
      </trkpt>
      <trkpt lat="59.8476439" lon="17.6429894">
        <ele>30.8995</ele>
        <time>2014-05-12T19:33:45Z</time>
      </trkpt>
      <trkpt lat="59.8476783" lon="17.6430195">
        <ele>31.3801</ele>
        <time>2014-05-12T19:33:46Z</time>
      </trkpt>
      <trkpt lat="59.8477146" lon="17.6430503">
        <ele>32.3416</ele>
        <time>2014-05-12T19:33:47Z</time>
      </trkpt>
      <trkpt lat="59.8477484" lon="17.6430744">
        <ele>33.3029</ele>
        <time>2014-05-12T19:33:48Z</time>
      </trkpt>
      <trkpt lat="59.8477775" lon="17.6430997">
        <ele>33.7834</ele>
        <time>2014-05-12T19:33:49Z</time>
      </trkpt>
      <trkpt lat="59.8477924" lon="17.6431345">
        <ele>33.7834</ele>
        <time>2014-05-12T19:33:50Z</time>
      </trkpt>
      <trkpt lat="59.8478055" lon="17.6431712">
        <ele>33.3029</ele>
        <time>2014-05-12T19:33:51Z</time>
      </trkpt>
      <trkpt lat="59.8478206" lon="17.6432023">
        <ele>32.8223</ele>
        <time>2014-05-12T19:33:52Z</time>
      </trkpt>
      <trkpt lat="59.8478438" lon="17.6432333">
        <ele>32.8223</ele>
        <time>2014-05-12T19:33:53Z</time>
      </trkpt>
      <trkpt lat="59.8478586" lon="17.6432649">
        <ele>31.8607</ele>
        <time>2014-05-12T19:33:54Z</time>
      </trkpt>
      <trkpt lat="59.8478714" lon="17.6432904">
        <ele>31.3801</ele>
        <time>2014-05-12T19:33:55Z</time>
      </trkpt>
      <trkpt lat="59.8478935" lon="17.6433229">
        <ele>31.8607</ele>
        <time>2014-05-12T19:33:56Z</time>
      </trkpt>
      <trkpt lat="59.8479104" lon="17.6433501">
        <ele>31.8607</ele>
        <time>2014-05-12T19:33:57Z</time>
      </trkpt>
      <trkpt lat="59.8479271" lon="17.6433764">
        <ele>31.3801</ele>
        <time>2014-05-12T19:33:58Z</time>
      </trkpt>
      <trkpt lat="59.8479489" lon="17.6434033">
        <ele>30.8995</ele>
        <time>2014-05-12T19:33:59Z</time>
      </trkpt>
      <trkpt lat="59.8479759" lon="17.6434353">
        <ele>30.8995</ele>
        <time>2014-05-12T19:34:00Z</time>
      </trkpt>
      <trkpt lat="59.847998" lon="17.6434663">
        <ele>30.4188</ele>
        <time>2014-05-12T19:34:01Z</time>
      </trkpt>
      <trkpt lat="59.8480308" lon="17.6434989">
        <ele>30.8995</ele>
        <time>2014-05-12T19:34:02Z</time>
      </trkpt>
      <trkpt lat="59.8480581" lon="17.6435319">
        <ele>30.8995</ele>
        <time>2014-05-12T19:34:03Z</time>
      </trkpt>
      <trkpt lat="59.8480882" lon="17.6435572">
        <ele>31.8607</ele>
        <time>2014-05-12T19:34:04Z</time>
      </trkpt>
      <trkpt lat="59.8481184" lon="17.6435811">
        <ele>32.3416</ele>
        <time>2014-05-12T19:34:05Z</time>
      </trkpt>
      <trkpt lat="59.8481498" lon="17.6436101">
        <ele>33.3029</ele>
        <time>2014-05-12T19:34:06Z</time>
      </trkpt>
      <trkpt lat="59.848171" lon="17.643643">
        <ele>33.3029</ele>
        <time>2014-05-12T19:34:07Z</time>
      </trkpt>
      <trkpt lat="59.8482003" lon="17.6436742">
        <ele>33.3029</ele>
        <time>2014-05-12T19:34:08Z</time>
      </trkpt>
      <trkpt lat="59.848238" lon="17.6437073">
        <ele>34.2642</ele>
        <time>2014-05-12T19:34:09Z</time>
      </trkpt>
      <trkpt lat="59.8483027" lon="17.6437407">
        <ele>40.5128</ele>
        <time>2014-05-12T19:34:10Z</time>
      </trkpt>
      <trkpt lat="59.8483556" lon="17.6437697">
        <ele>44.8386</ele>
        <time>2014-05-12T19:34:11Z</time>
      </trkpt>
      <trkpt lat="59.8484032" lon="17.6437986">
        <ele>47.7225</ele>
        <time>2014-05-12T19:34:12Z</time>
      </trkpt>
      <trkpt lat="59.8484396" lon="17.6438208">
        <ele>48.684</ele>
        <time>2014-05-12T19:34:13Z</time>
      </trkpt>
      <trkpt lat="59.8484845" lon="17.6438553">
        <ele>50.6066</ele>
        <time>2014-05-12T19:34:14Z</time>
      </trkpt>
      <trkpt lat="59.8485279" lon="17.6438873">
        <ele>52.0486</ele>
        <time>2014-05-12T19:34:15Z</time>
      </trkpt>
      <trkpt lat="59.8485612" lon="17.6439134">
        <ele>53.0098</ele>
        <time>2014-05-12T19:34:16Z</time>
      </trkpt>
      <trkpt lat="59.8485902" lon="17.6439394">
        <ele>53.4905</ele>
        <time>2014-05-12T19:34:17Z</time>
      </trkpt>
      <trkpt lat="59.8486156" lon="17.6439706">
        <ele>53.9712</ele>
        <time>2014-05-12T19:34:18Z</time>
      </trkpt>
      <trkpt lat="59.8486421" lon="17.6440028">
        <ele>54.4518</ele>
        <time>2014-05-12T19:34:19Z</time>
      </trkpt>
      <trkpt lat="59.8486705" lon="17.6440291">
        <ele>54.9324</ele>
        <time>2014-05-12T19:34:20Z</time>
      </trkpt>
      <trkpt lat="59.8487077" lon="17.6440511">
        <ele>54.9324</ele>
        <time>2014-05-12T19:34:21Z</time>
      </trkpt>
      <trkpt lat="59.8487349" lon="17.6440768">
        <ele>53.9712</ele>
        <time>2014-05-12T19:34:22Z</time>
      </trkpt>
      <trkpt lat="59.8487622" lon="17.6441015">
        <ele>53.0098</ele>
        <time>2014-05-12T19:34:23Z</time>
      </trkpt>
      <trkpt lat="59.8487786" lon="17.6441462">
        <ele>50.6066</ele>
        <time>2014-05-12T19:34:24Z</time>
      </trkpt>
      <trkpt lat="59.848786" lon="17.6442068">
        <ele>49.1646</ele>
        <time>2014-05-12T19:34:25Z</time>
      </trkpt>
      <trkpt lat="59.848771" lon="17.6442694">
        <ele>45.3192</ele>
        <time>2014-05-12T19:34:26Z</time>
      </trkpt>
      <trkpt lat="59.8487612" lon="17.6443351">
        <ele>44.358</ele>
        <time>2014-05-12T19:34:27Z</time>
      </trkpt>
      <trkpt lat="59.8487496" lon="17.6444026">
        <ele>42.916</ele>
        <time>2014-05-12T19:34:28Z</time>
      </trkpt>
      <trkpt lat="59.8487409" lon="17.6444687">
        <ele>41.9547</ele>
        <time>2014-05-12T19:34:29Z</time>
      </trkpt>
      <trkpt lat="59.8487233" lon="17.6445326">
        <ele>39.0707</ele>
        <time>2014-05-12T19:34:30Z</time>
      </trkpt>
      <trkpt lat="59.8487016" lon="17.6445953">
        <ele>36.6675</ele>
        <time>2014-05-12T19:34:31Z</time>
      </trkpt>
      <trkpt lat="59.8486767" lon="17.6446548">
        <ele>33.7834</ele>
        <time>2014-05-12T19:34:32Z</time>
      </trkpt>
      <trkpt lat="59.8486559" lon="17.6447196">
        <ele>31.8607</ele>
        <time>2014-05-12T19:34:33Z</time>
      </trkpt>
      <trkpt lat="59.8486348" lon="17.6447829">
        <ele>30.4188</ele>
        <time>2014-05-12T19:34:34Z</time>
      </trkpt>
      <trkpt lat="59.8486104" lon="17.6448337">
        <ele>28.9769</ele>
        <time>2014-05-12T19:34:35Z</time>
      </trkpt>
      <trkpt lat="59.8485847" lon="17.6448634">
        <ele>27.0543</ele>
        <time>2014-05-12T19:34:36Z</time>
      </trkpt>
      <trkpt lat="59.8485591" lon="17.6448849">
        <ele>25.6123</ele>
        <time>2014-05-12T19:34:37Z</time>
      </trkpt>
      <trkpt lat="59.8485332" lon="17.6449101">
        <ele>24.1703</ele>
        <time>2014-05-12T19:34:38Z</time>
      </trkpt>
      <trkpt lat="59.8485069" lon="17.6449334">
        <ele>23.209</ele>
        <time>2014-05-12T19:34:39Z</time>
      </trkpt>
      <trkpt lat="59.8484773" lon="17.6449663">
        <ele>21.767</ele>
        <time>2014-05-12T19:34:40Z</time>
      </trkpt>
      <trkpt lat="59.8484431" lon="17.6449942">
        <ele>20.8057</ele>
        <time>2014-05-12T19:34:41Z</time>
      </trkpt>
      <trkpt lat="59.848412" lon="17.6450194">
        <ele>19.8444</ele>
        <time>2014-05-12T19:34:42Z</time>
      </trkpt>
      <trkpt lat="59.8483824" lon="17.6450431">
        <ele>18.8831</ele>
        <time>2014-05-12T19:34:43Z</time>
      </trkpt>
      <trkpt lat="59.8483508" lon="17.645063">
        <ele>17.9218</ele>
        <time>2014-05-12T19:34:44Z</time>
      </trkpt>
      <trkpt lat="59.8483209" lon="17.6450909">
        <ele>17.4412</ele>
        <time>2014-05-12T19:34:45Z</time>
      </trkpt>
      <trkpt lat="59.8482889" lon="17.6451084">
        <ele>16.9604</ele>
        <time>2014-05-12T19:34:46Z</time>
      </trkpt>
      <trkpt lat="59.8482577" lon="17.6451348">
        <ele>15.999</ele>
        <time>2014-05-12T19:34:47Z</time>
      </trkpt>
      <trkpt lat="59.8482302" lon="17.6451686">
        <ele>15.5184</ele>
        <time>2014-05-12T19:34:48Z</time>
      </trkpt>
      <trkpt lat="59.8482034" lon="17.645193">
        <ele>14.557</ele>
        <time>2014-05-12T19:34:49Z</time>
      </trkpt>
      <trkpt lat="59.8481824" lon="17.6452195">
        <ele>14.557</ele>
        <time>2014-05-12T19:34:50Z</time>
      </trkpt>
      <trkpt lat="59.8481633" lon="17.6452469">
        <ele>14.557</ele>
        <time>2014-05-12T19:34:51Z</time>
      </trkpt>
      <trkpt lat="59.84814" lon="17.6452757">
        <ele>14.0764</ele>
        <time>2014-05-12T19:34:52Z</time>
      </trkpt>
      <trkpt lat="59.8481219" lon="17.6453143">
        <ele>14.557</ele>
        <time>2014-05-12T19:34:53Z</time>
      </trkpt>
      <trkpt lat="59.8481018" lon="17.6453464">
        <ele>14.557</ele>
        <time>2014-05-12T19:34:54Z</time>
      </trkpt>
      <trkpt lat="59.848077" lon="17.6453819">
        <ele>15.0377</ele>
        <time>2014-05-12T19:34:55Z</time>
      </trkpt>
      <trkpt lat="59.8480506" lon="17.6454231">
        <ele>15.0377</ele>
        <time>2014-05-12T19:34:56Z</time>
      </trkpt>
      <trkpt lat="59.848023" lon="17.6454573">
        <ele>15.5184</ele>
        <time>2014-05-12T19:34:57Z</time>
      </trkpt>
      <trkpt lat="59.847999" lon="17.6454982">
        <ele>15.999</ele>
        <time>2014-05-12T19:34:58Z</time>
      </trkpt>
      <trkpt lat="59.8479741" lon="17.645538">
        <ele>16.4797</ele>
        <time>2014-05-12T19:34:59Z</time>
      </trkpt>
      <trkpt lat="59.8479484" lon="17.6455836">
        <ele>16.4797</ele>
        <time>2014-05-12T19:35:00Z</time>
      </trkpt>
      <trkpt lat="59.8479241" lon="17.6456323">
        <ele>16.4797</ele>
        <time>2014-05-12T19:35:01Z</time>
      </trkpt>
      <trkpt lat="59.8478981" lon="17.6456706">
        <ele>16.4797</ele>
        <time>2014-05-12T19:35:02Z</time>
      </trkpt>
      <trkpt lat="59.8478716" lon="17.6457064">
        <ele>16.4797</ele>
        <time>2014-05-12T19:35:03Z</time>
      </trkpt>
      <trkpt lat="59.8478462" lon="17.6457452">
        <ele>16.4797</ele>
        <time>2014-05-12T19:35:04Z</time>
      </trkpt>
      <trkpt lat="59.847822" lon="17.6457851">
        <ele>16.4797</ele>
        <time>2014-05-12T19:35:05Z</time>
      </trkpt>
      <trkpt lat="59.8477966" lon="17.6458219">
        <ele>16.4797</ele>
        <time>2014-05-12T19:35:06Z</time>
      </trkpt>
      <trkpt lat="59.8477692" lon="17.6458507">
        <ele>15.999</ele>
        <time>2014-05-12T19:35:07Z</time>
      </trkpt>
      <trkpt lat="59.8477439" lon="17.6458847">
        <ele>15.5184</ele>
        <time>2014-05-12T19:35:08Z</time>
      </trkpt>
      <trkpt lat="59.8477199" lon="17.6459104">
        <ele>15.5184</ele>
        <time>2014-05-12T19:35:09Z</time>
      </trkpt>
      <trkpt lat="59.8476962" lon="17.6459403">
        <ele>15.0377</ele>
        <time>2014-05-12T19:35:10Z</time>
      </trkpt>
      <trkpt lat="59.8476713" lon="17.6459752">
        <ele>15.0377</ele>
        <time>2014-05-12T19:35:11Z</time>
      </trkpt>
      <trkpt lat="59.8476465" lon="17.6460075">
        <ele>14.557</ele>
        <time>2014-05-12T19:35:12Z</time>
      </trkpt>
      <trkpt lat="59.8476235" lon="17.646045">
        <ele>14.557</ele>
        <time>2014-05-12T19:35:13Z</time>
      </trkpt>
      <trkpt lat="59.8475971" lon="17.6460774">
        <ele>14.0764</ele>
        <time>2014-05-12T19:35:14Z</time>
      </trkpt>
      <trkpt lat="59.8475708" lon="17.6461082">
        <ele>14.0764</ele>
        <time>2014-05-12T19:35:15Z</time>
      </trkpt>
      <trkpt lat="59.8475466" lon="17.6461389">
        <ele>14.0764</ele>
        <time>2014-05-12T19:35:16Z</time>
      </trkpt>
      <trkpt lat="59.8475226" lon="17.646171">
        <ele>14.0764</ele>
        <time>2014-05-12T19:35:17Z</time>
      </trkpt>
      <trkpt lat="59.8475009" lon="17.6461985">
        <ele>13.5958</ele>
        <time>2014-05-12T19:35:18Z</time>
      </trkpt>
      <trkpt lat="59.8474794" lon="17.6462295">
        <ele>13.1151</ele>
        <time>2014-05-12T19:35:19Z</time>
      </trkpt>
      <trkpt lat="59.8474589" lon="17.6462612">
        <ele>12.6344</ele>
        <time>2014-05-12T19:35:20Z</time>
      </trkpt>
      <trkpt lat="59.8474382" lon="17.6462934">
        <ele>12.1538</ele>
        <time>2014-05-12T19:35:21Z</time>
      </trkpt>
      <trkpt lat="59.8474155" lon="17.6463275">
        <ele>12.1538</ele>
        <time>2014-05-12T19:35:22Z</time>
      </trkpt>
      <trkpt lat="59.8473922" lon="17.6463564">
        <ele>12.1538</ele>
        <time>2014-05-12T19:35:23Z</time>
      </trkpt>
      <trkpt lat="59.8473656" lon="17.6463843">
        <ele>11.6732</ele>
        <time>2014-05-12T19:35:24Z</time>
      </trkpt>
      <trkpt lat="59.8473411" lon="17.6464118">
        <ele>11.1925</ele>
        <time>2014-05-12T19:35:25Z</time>
      </trkpt>
      <trkpt lat="59.8473179" lon="17.6464394">
        <ele>11.1925</ele>
        <time>2014-05-12T19:35:26Z</time>
      </trkpt>
      <trkpt lat="59.847294" lon="17.6464684">
        <ele>10.7118</ele>
        <time>2014-05-12T19:35:27Z</time>
      </trkpt>
      <trkpt lat="59.8472704" lon="17.6464978">
        <ele>10.7118</ele>
        <time>2014-05-12T19:35:28Z</time>
      </trkpt>
      <trkpt lat="59.8472453" lon="17.6465237">
        <ele>10.2312</ele>
        <time>2014-05-12T19:35:29Z</time>
      </trkpt>
      <trkpt lat="59.8472206" lon="17.6465496">
        <ele>10.2312</ele>
        <time>2014-05-12T19:35:30Z</time>
      </trkpt>
      <trkpt lat="59.8471971" lon="17.646577">
        <ele>9.75061</ele>
        <time>2014-05-12T19:35:31Z</time>
      </trkpt>
      <trkpt lat="59.8471745" lon="17.646607">
        <ele>9.2699</ele>
        <time>2014-05-12T19:35:32Z</time>
      </trkpt>
      <trkpt lat="59.8471533" lon="17.6466357">
        <ele>9.2699</ele>
        <time>2014-05-12T19:35:33Z</time>
      </trkpt>
      <trkpt lat="59.84713" lon="17.6466671">
        <ele>9.2699</ele>
        <time>2014-05-12T19:35:34Z</time>
      </trkpt>
      <trkpt lat="59.8471103" lon="17.6467028">
        <ele>9.2699</ele>
        <time>2014-05-12T19:35:35Z</time>
      </trkpt>
      <trkpt lat="59.8470909" lon="17.6467357">
        <ele>8.78918</ele>
        <time>2014-05-12T19:35:36Z</time>
      </trkpt>
      <trkpt lat="59.8470714" lon="17.6467725">
        <ele>8.78918</ele>
        <time>2014-05-12T19:35:37Z</time>
      </trkpt>
      <trkpt lat="59.847051" lon="17.6468068">
        <ele>8.78918</ele>
        <time>2014-05-12T19:35:38Z</time>
      </trkpt>
      <trkpt lat="59.8470254" lon="17.6468318">
        <ele>8.78918</ele>
        <time>2014-05-12T19:35:39Z</time>
      </trkpt>
      <trkpt lat="59.8469996" lon="17.6468569">
        <ele>8.78918</ele>
        <time>2014-05-12T19:35:40Z</time>
      </trkpt>
      <trkpt lat="59.8469775" lon="17.646888">
        <ele>8.78918</ele>
        <time>2014-05-12T19:35:41Z</time>
      </trkpt>
      <trkpt lat="59.8469554" lon="17.6469223">
        <ele>8.78918</ele>
        <time>2014-05-12T19:35:42Z</time>
      </trkpt>
      <trkpt lat="59.8469338" lon="17.6469575">
        <ele>8.78918</ele>
        <time>2014-05-12T19:35:43Z</time>
      </trkpt>
      <trkpt lat="59.8469107" lon="17.6469921">
        <ele>9.2699</ele>
        <time>2014-05-12T19:35:44Z</time>
      </trkpt>
      <trkpt lat="59.8468886" lon="17.6470227">
        <ele>9.2699</ele>
        <time>2014-05-12T19:35:45Z</time>
      </trkpt>
      <trkpt lat="59.8468653" lon="17.6470506">
        <ele>8.30859</ele>
        <time>2014-05-12T19:35:46Z</time>
      </trkpt>
      <trkpt lat="59.8468442" lon="17.6470856">
        <ele>8.78918</ele>
        <time>2014-05-12T19:35:47Z</time>
      </trkpt>
      <trkpt lat="59.8468228" lon="17.6471193">
        <ele>8.78918</ele>
        <time>2014-05-12T19:35:48Z</time>
      </trkpt>
      <trkpt lat="59.8468021" lon="17.6471558">
        <ele>8.78918</ele>
        <time>2014-05-12T19:35:49Z</time>
      </trkpt>
      <trkpt lat="59.8467839" lon="17.6471922">
        <ele>8.78918</ele>
        <time>2014-05-12T19:35:50Z</time>
      </trkpt>
      <trkpt lat="59.8467591" lon="17.6472179">
        <ele>8.78918</ele>
        <time>2014-05-12T19:35:51Z</time>
      </trkpt>
      <trkpt lat="59.8467372" lon="17.647246">
        <ele>8.78918</ele>
        <time>2014-05-12T19:35:52Z</time>
      </trkpt>
      <trkpt lat="59.8467121" lon="17.6472703">
        <ele>8.78918</ele>
        <time>2014-05-12T19:35:53Z</time>
      </trkpt>
      <trkpt lat="59.8466867" lon="17.6472993">
        <ele>8.78918</ele>
        <time>2014-05-12T19:35:54Z</time>
      </trkpt>
      <trkpt lat="59.8466644" lon="17.6473297">
        <ele>8.78918</ele>
        <time>2014-05-12T19:35:55Z</time>
      </trkpt>
      <trkpt lat="59.846642" lon="17.6473654">
        <ele>8.30859</ele>
        <time>2014-05-12T19:35:56Z</time>
      </trkpt>
      <trkpt lat="59.8466213" lon="17.6474058">
        <ele>8.78918</ele>
        <time>2014-05-12T19:35:57Z</time>
      </trkpt>
      <trkpt lat="59.8465993" lon="17.6474401">
        <ele>8.78918</ele>
        <time>2014-05-12T19:35:58Z</time>
      </trkpt>
      <trkpt lat="59.8465799" lon="17.647482">
        <ele>9.2699</ele>
        <time>2014-05-12T19:35:59Z</time>
      </trkpt>
      <trkpt lat="59.8465559" lon="17.6475157">
        <ele>8.78918</ele>
        <time>2014-05-12T19:36:00Z</time>
      </trkpt>
      <trkpt lat="59.846531" lon="17.6475526">
        <ele>8.30859</ele>
        <time>2014-05-12T19:36:01Z</time>
      </trkpt>
      <trkpt lat="59.8465103" lon="17.6475925">
        <ele>8.78918</ele>
        <time>2014-05-12T19:36:02Z</time>
      </trkpt>
      <trkpt lat="59.8464859" lon="17.6476256">
        <ele>8.78918</ele>
        <time>2014-05-12T19:36:03Z</time>
      </trkpt>
      <trkpt lat="59.8464623" lon="17.647669">
        <ele>8.78918</ele>
        <time>2014-05-12T19:36:04Z</time>
      </trkpt>
      <trkpt lat="59.8464372" lon="17.6476987">
        <ele>8.30859</ele>
        <time>2014-05-12T19:36:05Z</time>
      </trkpt>
      <trkpt lat="59.8464154" lon="17.6477323">
        <ele>7.82788</ele>
        <time>2014-05-12T19:36:06Z</time>
      </trkpt>
      <trkpt lat="59.8463942" lon="17.6477655">
        <ele>7.34717</ele>
        <time>2014-05-12T19:36:07Z</time>
      </trkpt>
      <trkpt lat="59.8463719" lon="17.6478028">
        <ele>7.34717</ele>
        <time>2014-05-12T19:36:08Z</time>
      </trkpt>
      <trkpt lat="59.8463491" lon="17.6478391">
        <ele>6.86646</ele>
        <time>2014-05-12T19:36:09Z</time>
      </trkpt>
      <trkpt lat="59.8463285" lon="17.6478704">
        <ele>6.38586</ele>
        <time>2014-05-12T19:36:10Z</time>
      </trkpt>
      <trkpt lat="59.8463064" lon="17.6479047">
        <ele>6.38586</ele>
        <time>2014-05-12T19:36:11Z</time>
      </trkpt>
      <trkpt lat="59.8462844" lon="17.6479393">
        <ele>6.38586</ele>
        <time>2014-05-12T19:36:12Z</time>
      </trkpt>
      <trkpt lat="59.8462626" lon="17.6479717">
        <ele>6.38586</ele>
        <time>2014-05-12T19:36:13Z</time>
      </trkpt>
      <trkpt lat="59.8462406" lon="17.6480042">
        <ele>6.38586</ele>
        <time>2014-05-12T19:36:14Z</time>
      </trkpt>
      <trkpt lat="59.8462182" lon="17.64804">
        <ele>5.90527</ele>
        <time>2014-05-12T19:36:15Z</time>
      </trkpt>
      <trkpt lat="59.8461941" lon="17.6480633">
        <ele>4.94385</ele>
        <time>2014-05-12T19:36:16Z</time>
      </trkpt>
      <trkpt lat="59.8461722" lon="17.6480861">
        <ele>4.46326</ele>
        <time>2014-05-12T19:36:17Z</time>
      </trkpt>
      <trkpt lat="59.8461469" lon="17.6481161">
        <ele>4.46326</ele>
        <time>2014-05-12T19:36:18Z</time>
      </trkpt>
      <trkpt lat="59.8461218" lon="17.6481498">
        <ele>4.94385</ele>
        <time>2014-05-12T19:36:19Z</time>
      </trkpt>
      <trkpt lat="59.846096" lon="17.6481798">
        <ele>4.94385</ele>
        <time>2014-05-12T19:36:20Z</time>
      </trkpt>
      <trkpt lat="59.8460712" lon="17.648211">
        <ele>4.94385</ele>
        <time>2014-05-12T19:36:21Z</time>
      </trkpt>
      <trkpt lat="59.8460505" lon="17.6482493">
        <ele>4.94385</ele>
        <time>2014-05-12T19:36:22Z</time>
      </trkpt>
      <trkpt lat="59.8460278" lon="17.6482848">
        <ele>4.46326</ele>
        <time>2014-05-12T19:36:23Z</time>
      </trkpt>
      <trkpt lat="59.8460053" lon="17.6483145">
        <ele>4.46326</ele>
        <time>2014-05-12T19:36:24Z</time>
      </trkpt>
      <trkpt lat="59.8459825" lon="17.6483493">
        <ele>4.46326</ele>
        <time>2014-05-12T19:36:25Z</time>
      </trkpt>
      <trkpt lat="59.8459588" lon="17.6483877">
        <ele>4.46326</ele>
        <time>2014-05-12T19:36:26Z</time>
      </trkpt>
      <trkpt lat="59.8459344" lon="17.6484228">
        <ele>4.46326</ele>
        <time>2014-05-12T19:36:27Z</time>
      </trkpt>
      <trkpt lat="59.845912" lon="17.6484601">
        <ele>4.94385</ele>
        <time>2014-05-12T19:36:28Z</time>
      </trkpt>
      <trkpt lat="59.8458656" lon="17.6485286">
        <ele>4.94385</ele>
        <time>2014-05-12T19:36:29Z</time>
      </trkpt>
      <trkpt lat="59.8458428" lon="17.6485597">
        <ele>4.94385</ele>
        <time>2014-05-12T19:36:30Z</time>
      </trkpt>
      <trkpt lat="59.8458198" lon="17.6485844">
        <ele>4.94385</ele>
        <time>2014-05-12T19:36:31Z</time>
      </trkpt>
      <trkpt lat="59.845796" lon="17.6486171">
        <ele>5.42456</ele>
        <time>2014-05-12T19:36:32Z</time>
      </trkpt>
      <trkpt lat="59.8457712" lon="17.6486526">
        <ele>5.42456</ele>
        <time>2014-05-12T19:36:33Z</time>
      </trkpt>
      <trkpt lat="59.8457448" lon="17.6486881">
        <ele>5.42456</ele>
        <time>2014-05-12T19:36:34Z</time>
      </trkpt>
      <trkpt lat="59.8457185" lon="17.648722">
        <ele>5.90527</ele>
        <time>2014-05-12T19:36:35Z</time>
      </trkpt>
      <trkpt lat="59.8456941" lon="17.6487493">
        <ele>6.38586</ele>
        <time>2014-05-12T19:36:36Z</time>
      </trkpt>
      <trkpt lat="59.845667" lon="17.6487771">
        <ele>6.86646</ele>
        <time>2014-05-12T19:36:37Z</time>
      </trkpt>
      <trkpt lat="59.8456443" lon="17.6488096">
        <ele>7.34717</ele>
        <time>2014-05-12T19:36:38Z</time>
      </trkpt>
      <trkpt lat="59.8456267" lon="17.6488476">
        <ele>8.30859</ele>
        <time>2014-05-12T19:36:39Z</time>
      </trkpt>
      <trkpt lat="59.8456063" lon="17.6488803">
        <ele>8.30859</ele>
        <time>2014-05-12T19:36:40Z</time>
      </trkpt>
      <trkpt lat="59.8455854" lon="17.6489036">
        <ele>8.78918</ele>
        <time>2014-05-12T19:36:41Z</time>
      </trkpt>
      <trkpt lat="59.8455662" lon="17.648932">
        <ele>8.78918</ele>
        <time>2014-05-12T19:36:42Z</time>
      </trkpt>
      <trkpt lat="59.8455414" lon="17.6489646">
        <ele>8.30859</ele>
        <time>2014-05-12T19:36:43Z</time>
      </trkpt>
      <trkpt lat="59.8455195" lon="17.6490021">
        <ele>8.30859</ele>
        <time>2014-05-12T19:36:44Z</time>
      </trkpt>
      <trkpt lat="59.8454963" lon="17.649033">
        <ele>8.30859</ele>
        <time>2014-05-12T19:36:45Z</time>
      </trkpt>
      <trkpt lat="59.8454713" lon="17.6490641">
        <ele>8.30859</ele>
        <time>2014-05-12T19:36:46Z</time>
      </trkpt>
      <trkpt lat="59.8454443" lon="17.6490832">
        <ele>7.34717</ele>
        <time>2014-05-12T19:36:47Z</time>
      </trkpt>
      <trkpt lat="59.8454252" lon="17.6491173">
        <ele>7.34717</ele>
        <time>2014-05-12T19:36:48Z</time>
      </trkpt>
      <trkpt lat="59.8454066" lon="17.6491504">
        <ele>8.30859</ele>
        <time>2014-05-12T19:36:49Z</time>
      </trkpt>
      <trkpt lat="59.845388" lon="17.649174">
        <ele>7.82788</ele>
        <time>2014-05-12T19:36:50Z</time>
      </trkpt>
      <trkpt lat="59.8453651" lon="17.6491998">
        <ele>7.82788</ele>
        <time>2014-05-12T19:36:51Z</time>
      </trkpt>
      <trkpt lat="59.8453417" lon="17.6492318">
        <ele>7.82788</ele>
        <time>2014-05-12T19:36:52Z</time>
      </trkpt>
      <trkpt lat="59.8453179" lon="17.6492618">
        <ele>7.82788</ele>
        <time>2014-05-12T19:36:53Z</time>
      </trkpt>
      <trkpt lat="59.8452934" lon="17.649293">
        <ele>7.82788</ele>
        <time>2014-05-12T19:36:54Z</time>
      </trkpt>
      <trkpt lat="59.8452667" lon="17.6493226">
        <ele>7.34717</ele>
        <time>2014-05-12T19:36:55Z</time>
      </trkpt>
      <trkpt lat="59.8452434" lon="17.6493557">
        <ele>8.30859</ele>
        <time>2014-05-12T19:36:56Z</time>
      </trkpt>
      <trkpt lat="59.8452175" lon="17.6493843">
        <ele>7.82788</ele>
        <time>2014-05-12T19:36:57Z</time>
      </trkpt>
      <trkpt lat="59.8451999" lon="17.6494485">
        <ele>7.82788</ele>
        <time>2014-05-12T19:36:58Z</time>
      </trkpt>
      <trkpt lat="59.8451753" lon="17.6494842">
        <ele>7.82788</ele>
        <time>2014-05-12T19:36:59Z</time>
      </trkpt>
      <trkpt lat="59.8451449" lon="17.649508">
        <ele>6.86646</ele>
        <time>2014-05-12T19:37:00Z</time>
      </trkpt>
      <trkpt lat="59.8451209" lon="17.6495417">
        <ele>6.38586</ele>
        <time>2014-05-12T19:37:01Z</time>
      </trkpt>
      <trkpt lat="59.8450998" lon="17.6495713">
        <ele>6.86646</ele>
        <time>2014-05-12T19:37:02Z</time>
      </trkpt>
      <trkpt lat="59.8450756" lon="17.6495998">
        <ele>6.86646</ele>
        <time>2014-05-12T19:37:03Z</time>
      </trkpt>
      <trkpt lat="59.8450502" lon="17.6496308">
        <ele>6.86646</ele>
        <time>2014-05-12T19:37:04Z</time>
      </trkpt>
      <trkpt lat="59.8450251" lon="17.6496649">
        <ele>6.86646</ele>
        <time>2014-05-12T19:37:05Z</time>
      </trkpt>
      <trkpt lat="59.845001" lon="17.6496982">
        <ele>7.34717</ele>
        <time>2014-05-12T19:37:06Z</time>
      </trkpt>
      <trkpt lat="59.8449778" lon="17.6497328">
        <ele>7.82788</ele>
        <time>2014-05-12T19:37:07Z</time>
      </trkpt>
      <trkpt lat="59.8449538" lon="17.649765">
        <ele>7.82788</ele>
        <time>2014-05-12T19:37:08Z</time>
      </trkpt>
      <trkpt lat="59.8449347" lon="17.6498017">
        <ele>8.78918</ele>
        <time>2014-05-12T19:37:09Z</time>
      </trkpt>
      <trkpt lat="59.8449138" lon="17.6498213">
        <ele>8.78918</ele>
        <time>2014-05-12T19:37:10Z</time>
      </trkpt>
      <trkpt lat="59.8448922" lon="17.649835">
        <ele>8.78918</ele>
        <time>2014-05-12T19:37:11Z</time>
      </trkpt>
      <trkpt lat="59.8448693" lon="17.6498552">
        <ele>9.2699</ele>
        <time>2014-05-12T19:37:12Z</time>
      </trkpt>
      <trkpt lat="59.8448449" lon="17.6498778">
        <ele>9.2699</ele>
        <time>2014-05-12T19:37:13Z</time>
      </trkpt>
      <trkpt lat="59.8448192" lon="17.6499003">
        <ele>9.2699</ele>
        <time>2014-05-12T19:37:14Z</time>
      </trkpt>
      <trkpt lat="59.8447954" lon="17.6499373">
        <ele>10.2312</ele>
        <time>2014-05-12T19:37:15Z</time>
      </trkpt>
      <trkpt lat="59.8447725" lon="17.6499624">
        <ele>10.2312</ele>
        <time>2014-05-12T19:37:16Z</time>
      </trkpt>
      <trkpt lat="59.8447487" lon="17.649979">
        <ele>10.2312</ele>
        <time>2014-05-12T19:37:17Z</time>
      </trkpt>
      <trkpt lat="59.8447275" lon="17.6500228">
        <ele>11.1925</ele>
        <time>2014-05-12T19:37:18Z</time>
      </trkpt>
      <trkpt lat="59.844704" lon="17.6500587">
        <ele>11.6732</ele>
        <time>2014-05-12T19:37:19Z</time>
      </trkpt>
      <trkpt lat="59.8446797" lon="17.6500934">
        <ele>12.1538</ele>
        <time>2014-05-12T19:37:20Z</time>
      </trkpt>
      <trkpt lat="59.8446556" lon="17.6501212">
        <ele>12.6344</ele>
        <time>2014-05-12T19:37:21Z</time>
      </trkpt>
      <trkpt lat="59.8446296" lon="17.650151">
        <ele>12.6344</ele>
        <time>2014-05-12T19:37:22Z</time>
      </trkpt>
      <trkpt lat="59.8446029" lon="17.650181">
        <ele>12.1538</ele>
        <time>2014-05-12T19:37:23Z</time>
      </trkpt>
      <trkpt lat="59.844575" lon="17.6502193">
        <ele>12.6344</ele>
        <time>2014-05-12T19:37:24Z</time>
      </trkpt>
      <trkpt lat="59.8445471" lon="17.6502538">
        <ele>12.6344</ele>
        <time>2014-05-12T19:37:25Z</time>
      </trkpt>
      <trkpt lat="59.8445253" lon="17.6502847">
        <ele>13.5958</ele>
        <time>2014-05-12T19:37:26Z</time>
      </trkpt>
      <trkpt lat="59.8445045" lon="17.6503135">
        <ele>14.0764</ele>
        <time>2014-05-12T19:37:27Z</time>
      </trkpt>
    </trkseg>
  </trk>
</gpx>